<?xml version="1.0" encoding="UTF-8" standalone="no" ?>
<gpx xmlns="http://www.topografix.com/GPX/1/1" xmlns:xsi="http://www.w3.org/2001/XMLSchema-instance" xsi:schemaLocation="http://www.topografix.com/GPX/1/1 http://www.topografix.com/GPX/1/1/gpx.xsd" version="1.1" creator="VisuGPX - https://www.visugpx.com">
  <metadata>
    <name>Péchabou 1 2018-09-09</name>
  </metadata>
  <trk>
    <name><![CDATA[Trip 2018-09-09]]></name>
    <extensions>
      <line xmlns="http://www.topografix.com/GPX/gpx_style/0/2">
        <color>0000FF</color>
        <width>4</width>
      </line>
    </extensions>
    <trkseg>
      <trkpt lat="43.50374" lon="1.51194">
        <ele>90.32977295</ele>
        <time>2018-09-09T07:01:19Z</time>
      </trkpt>
      <trkpt lat="43.50372" lon="1.51196">
        <ele>90.32977295</ele>
        <time>2018-09-09T07:01:23Z</time>
      </trkpt>
      <trkpt lat="43.50361" lon="1.51198">
        <ele>90.32977295</ele>
        <time>2018-09-09T07:01:27Z</time>
      </trkpt>
      <trkpt lat="43.50355" lon="1.51185">
        <ele>90.32977295</ele>
        <time>2018-09-09T07:01:30Z</time>
      </trkpt>
      <trkpt lat="43.50347" lon="1.51175">
        <ele>90.32977295</ele>
        <time>2018-09-09T07:01:36Z</time>
      </trkpt>
      <trkpt lat="43.5034" lon="1.51163">
        <ele>90.32977295</ele>
        <time>2018-09-09T07:01:41Z</time>
      </trkpt>
      <trkpt lat="43.50339" lon="1.5115">
        <ele>90.37722778</ele>
        <time>2018-09-09T07:01:45Z</time>
      </trkpt>
      <trkpt lat="43.50348" lon="1.51141">
        <ele>90.37722778</ele>
        <time>2018-09-09T07:01:51Z</time>
      </trkpt>
      <trkpt lat="43.50358" lon="1.51135">
        <ele>92.51609802</ele>
        <time>2018-09-09T07:02:05Z</time>
      </trkpt>
      <trkpt lat="43.50367" lon="1.51121">
        <ele>91.21433258</ele>
        <time>2018-09-09T07:10:33Z</time>
      </trkpt>
      <trkpt lat="43.50366" lon="1.51122">
        <ele>91.21433258</ele>
        <time>2018-09-09T07:10:38Z</time>
      </trkpt>
      <trkpt lat="43.50359" lon="1.5114">
        <ele>91.04518127</ele>
        <time>2018-09-09T07:10:42Z</time>
      </trkpt>
      <trkpt lat="43.50346" lon="1.51144">
        <ele>91.04518127</ele>
        <time>2018-09-09T07:10:45Z</time>
      </trkpt>
      <trkpt lat="43.50334" lon="1.5114">
        <ele>91.04518127</ele>
        <time>2018-09-09T07:10:48Z</time>
      </trkpt>
      <trkpt lat="43.50323" lon="1.51132">
        <ele>91.04518127</ele>
        <time>2018-09-09T07:10:51Z</time>
      </trkpt>
      <trkpt lat="43.50316" lon="1.51118">
        <ele>91.04518127</ele>
        <time>2018-09-09T07:10:54Z</time>
      </trkpt>
      <trkpt lat="43.50313" lon="1.51104">
        <ele>90.3548584</ele>
        <time>2018-09-09T07:10:57Z</time>
      </trkpt>
      <trkpt lat="43.5032" lon="1.51091">
        <ele>90.3548584</ele>
        <time>2018-09-09T07:11:01Z</time>
      </trkpt>
      <trkpt lat="43.50329" lon="1.51084">
        <ele>92.44888306</ele>
        <time>2018-09-09T07:11:04Z</time>
      </trkpt>
      <trkpt lat="43.50336" lon="1.51076">
        <ele>92.44888306</ele>
        <time>2018-09-09T07:11:06Z</time>
      </trkpt>
      <trkpt lat="43.50347" lon="1.51065">
        <ele>92.44888306</ele>
        <time>2018-09-09T07:11:08Z</time>
      </trkpt>
      <trkpt lat="43.50358" lon="1.51053">
        <ele>92.44888306</ele>
        <time>2018-09-09T07:11:11Z</time>
      </trkpt>
      <trkpt lat="43.50372" lon="1.51039">
        <ele>92.44888306</ele>
        <time>2018-09-09T07:11:14Z</time>
      </trkpt>
      <trkpt lat="43.50385" lon="1.5103">
        <ele>92.44888306</ele>
        <time>2018-09-09T07:11:16Z</time>
      </trkpt>
      <trkpt lat="43.50395" lon="1.51021">
        <ele>92.44888306</ele>
        <time>2018-09-09T07:11:20Z</time>
      </trkpt>
      <trkpt lat="43.5041" lon="1.51007">
        <ele>92.44888306</ele>
        <time>2018-09-09T07:11:23Z</time>
      </trkpt>
      <trkpt lat="43.50422" lon="1.50995">
        <ele>92.44888306</ele>
        <time>2018-09-09T07:11:25Z</time>
      </trkpt>
      <trkpt lat="43.50431" lon="1.50982">
        <ele>92.44888306</ele>
        <time>2018-09-09T07:11:27Z</time>
      </trkpt>
      <trkpt lat="43.50439" lon="1.50969">
        <ele>92.44888306</ele>
        <time>2018-09-09T07:11:29Z</time>
      </trkpt>
      <trkpt lat="43.50446" lon="1.50956">
        <ele>92.44888306</ele>
        <time>2018-09-09T07:11:31Z</time>
      </trkpt>
      <trkpt lat="43.50453" lon="1.50945">
        <ele>92.44888306</ele>
        <time>2018-09-09T07:11:33Z</time>
      </trkpt>
      <trkpt lat="43.50462" lon="1.50934">
        <ele>92.44888306</ele>
        <time>2018-09-09T07:11:35Z</time>
      </trkpt>
      <trkpt lat="43.5047" lon="1.5092">
        <ele>92.44888306</ele>
        <time>2018-09-09T07:11:37Z</time>
      </trkpt>
      <trkpt lat="43.50479" lon="1.50907">
        <ele>92.44888306</ele>
        <time>2018-09-09T07:11:39Z</time>
      </trkpt>
      <trkpt lat="43.50491" lon="1.50894">
        <ele>92.44888306</ele>
        <time>2018-09-09T07:11:41Z</time>
      </trkpt>
      <trkpt lat="43.50502" lon="1.50883">
        <ele>92.44888306</ele>
        <time>2018-09-09T07:11:43Z</time>
      </trkpt>
      <trkpt lat="43.50514" lon="1.50871">
        <ele>92.12600708</ele>
        <time>2018-09-09T07:11:46Z</time>
      </trkpt>
      <trkpt lat="43.50528" lon="1.50858">
        <ele>92.12600708</ele>
        <time>2018-09-09T07:11:49Z</time>
      </trkpt>
      <trkpt lat="43.5054" lon="1.50846">
        <ele>92.12600708</ele>
        <time>2018-09-09T07:11:51Z</time>
      </trkpt>
      <trkpt lat="43.5055" lon="1.50835">
        <ele>92.12600708</ele>
        <time>2018-09-09T07:11:53Z</time>
      </trkpt>
      <trkpt lat="43.5056" lon="1.50823">
        <ele>92.12600708</ele>
        <time>2018-09-09T07:11:55Z</time>
      </trkpt>
      <trkpt lat="43.50572" lon="1.50811">
        <ele>92.12600708</ele>
        <time>2018-09-09T07:11:57Z</time>
      </trkpt>
      <trkpt lat="43.50583" lon="1.50803">
        <ele>92.12600708</ele>
        <time>2018-09-09T07:11:59Z</time>
      </trkpt>
      <trkpt lat="43.50593" lon="1.50793">
        <ele>92.12600708</ele>
        <time>2018-09-09T07:12:02Z</time>
      </trkpt>
      <trkpt lat="43.50604" lon="1.50783">
        <ele>91.36078644</ele>
        <time>2018-09-09T07:12:04Z</time>
      </trkpt>
      <trkpt lat="43.50612" lon="1.50774">
        <ele>91.36078644</ele>
        <time>2018-09-09T07:12:05Z</time>
      </trkpt>
      <trkpt lat="43.50622" lon="1.50763">
        <ele>91.36078644</ele>
        <time>2018-09-09T07:12:07Z</time>
      </trkpt>
      <trkpt lat="43.50631" lon="1.50752">
        <ele>91.36078644</ele>
        <time>2018-09-09T07:12:09Z</time>
      </trkpt>
      <trkpt lat="43.50642" lon="1.5074">
        <ele>91.36078644</ele>
        <time>2018-09-09T07:12:11Z</time>
      </trkpt>
      <trkpt lat="43.50653" lon="1.50728">
        <ele>91.36078644</ele>
        <time>2018-09-09T07:12:13Z</time>
      </trkpt>
      <trkpt lat="43.50664" lon="1.50718">
        <ele>91.36078644</ele>
        <time>2018-09-09T07:12:15Z</time>
      </trkpt>
      <trkpt lat="43.50677" lon="1.50707">
        <ele>91.36078644</ele>
        <time>2018-09-09T07:12:18Z</time>
      </trkpt>
      <trkpt lat="43.50689" lon="1.50693">
        <ele>91.36078644</ele>
        <time>2018-09-09T07:12:20Z</time>
      </trkpt>
      <trkpt lat="43.50699" lon="1.50681">
        <ele>91.36078644</ele>
        <time>2018-09-09T07:12:22Z</time>
      </trkpt>
      <trkpt lat="43.50709" lon="1.5067">
        <ele>91.36078644</ele>
        <time>2018-09-09T07:12:24Z</time>
      </trkpt>
      <trkpt lat="43.50721" lon="1.50658">
        <ele>91.36078644</ele>
        <time>2018-09-09T07:12:27Z</time>
      </trkpt>
      <trkpt lat="43.50733" lon="1.50644">
        <ele>91.36078644</ele>
        <time>2018-09-09T07:12:30Z</time>
      </trkpt>
      <trkpt lat="43.50742" lon="1.5063">
        <ele>91.36078644</ele>
        <time>2018-09-09T07:12:32Z</time>
      </trkpt>
      <trkpt lat="43.50752" lon="1.50618">
        <ele>91.36078644</ele>
        <time>2018-09-09T07:12:35Z</time>
      </trkpt>
      <trkpt lat="43.50766" lon="1.50603">
        <ele>91.36078644</ele>
        <time>2018-09-09T07:12:38Z</time>
      </trkpt>
      <trkpt lat="43.5078" lon="1.50593">
        <ele>91.36078644</ele>
        <time>2018-09-09T07:12:40Z</time>
      </trkpt>
      <trkpt lat="43.50792" lon="1.50585">
        <ele>91.36078644</ele>
        <time>2018-09-09T07:12:42Z</time>
      </trkpt>
      <trkpt lat="43.50804" lon="1.50574">
        <ele>91.36078644</ele>
        <time>2018-09-09T07:12:45Z</time>
      </trkpt>
      <trkpt lat="43.50816" lon="1.50563">
        <ele>91.36078644</ele>
        <time>2018-09-09T07:12:47Z</time>
      </trkpt>
      <trkpt lat="43.50829" lon="1.50554">
        <ele>91.36078644</ele>
        <time>2018-09-09T07:12:49Z</time>
      </trkpt>
      <trkpt lat="43.50839" lon="1.50543">
        <ele>91.36078644</ele>
        <time>2018-09-09T07:12:51Z</time>
      </trkpt>
      <trkpt lat="43.50848" lon="1.50531">
        <ele>91.36078644</ele>
        <time>2018-09-09T07:12:53Z</time>
      </trkpt>
      <trkpt lat="43.5086" lon="1.50521">
        <ele>91.36078644</ele>
        <time>2018-09-09T07:12:55Z</time>
      </trkpt>
      <trkpt lat="43.50867" lon="1.50509">
        <ele>91.36078644</ele>
        <time>2018-09-09T07:12:57Z</time>
      </trkpt>
      <trkpt lat="43.50873" lon="1.50496">
        <ele>91.36078644</ele>
        <time>2018-09-09T07:12:59Z</time>
      </trkpt>
      <trkpt lat="43.50881" lon="1.50485">
        <ele>91.36078644</ele>
        <time>2018-09-09T07:13:01Z</time>
      </trkpt>
      <trkpt lat="43.50891" lon="1.50477">
        <ele>91.36078644</ele>
        <time>2018-09-09T07:13:03Z</time>
      </trkpt>
      <trkpt lat="43.50894" lon="1.50474">
        <ele>91.37524414</ele>
        <time>2018-09-09T07:13:04Z</time>
      </trkpt>
      <trkpt lat="43.50901" lon="1.50466">
        <ele>91.37524414</ele>
        <time>2018-09-09T07:13:05Z</time>
      </trkpt>
      <trkpt lat="43.50911" lon="1.50453">
        <ele>91.37524414</ele>
        <time>2018-09-09T07:13:07Z</time>
      </trkpt>
      <trkpt lat="43.50934" lon="1.50436">
        <ele>91.37524414</ele>
        <time>2018-09-09T07:13:11Z</time>
      </trkpt>
      <trkpt lat="43.50944" lon="1.50425">
        <ele>91.37524414</ele>
        <time>2018-09-09T07:13:14Z</time>
      </trkpt>
      <trkpt lat="43.50956" lon="1.50411">
        <ele>91.37524414</ele>
        <time>2018-09-09T07:13:16Z</time>
      </trkpt>
      <trkpt lat="43.50966" lon="1.504">
        <ele>91.37524414</ele>
        <time>2018-09-09T07:13:19Z</time>
      </trkpt>
      <trkpt lat="43.50976" lon="1.50386">
        <ele>91.37524414</ele>
        <time>2018-09-09T07:13:20Z</time>
      </trkpt>
      <trkpt lat="43.50988" lon="1.50374">
        <ele>91.37524414</ele>
        <time>2018-09-09T07:13:23Z</time>
      </trkpt>
      <trkpt lat="43.50998" lon="1.50361">
        <ele>91.37524414</ele>
        <time>2018-09-09T07:13:25Z</time>
      </trkpt>
      <trkpt lat="43.51009" lon="1.5035">
        <ele>91.37524414</ele>
        <time>2018-09-09T07:13:27Z</time>
      </trkpt>
      <trkpt lat="43.51019" lon="1.50338">
        <ele>91.37524414</ele>
        <time>2018-09-09T07:13:29Z</time>
      </trkpt>
      <trkpt lat="43.51029" lon="1.50326">
        <ele>91.37524414</ele>
        <time>2018-09-09T07:13:31Z</time>
      </trkpt>
      <trkpt lat="43.51039" lon="1.50315">
        <ele>91.37524414</ele>
        <time>2018-09-09T07:13:33Z</time>
      </trkpt>
      <trkpt lat="43.51049" lon="1.50304">
        <ele>91.37524414</ele>
        <time>2018-09-09T07:13:35Z</time>
      </trkpt>
      <trkpt lat="43.51059" lon="1.50296">
        <ele>91.37524414</ele>
        <time>2018-09-09T07:13:37Z</time>
      </trkpt>
      <trkpt lat="43.51069" lon="1.50286">
        <ele>91.37524414</ele>
        <time>2018-09-09T07:13:40Z</time>
      </trkpt>
      <trkpt lat="43.5108" lon="1.50275">
        <ele>91.37524414</ele>
        <time>2018-09-09T07:13:42Z</time>
      </trkpt>
      <trkpt lat="43.51091" lon="1.50263">
        <ele>91.37524414</ele>
        <time>2018-09-09T07:13:44Z</time>
      </trkpt>
      <trkpt lat="43.51102" lon="1.50253">
        <ele>91.37524414</ele>
        <time>2018-09-09T07:13:46Z</time>
      </trkpt>
      <trkpt lat="43.51113" lon="1.50246">
        <ele>91.37524414</ele>
        <time>2018-09-09T07:13:48Z</time>
      </trkpt>
      <trkpt lat="43.51125" lon="1.50237">
        <ele>91.37524414</ele>
        <time>2018-09-09T07:13:50Z</time>
      </trkpt>
      <trkpt lat="43.51134" lon="1.50227">
        <ele>91.37524414</ele>
        <time>2018-09-09T07:13:52Z</time>
      </trkpt>
      <trkpt lat="43.51144" lon="1.50215">
        <ele>91.37524414</ele>
        <time>2018-09-09T07:13:54Z</time>
      </trkpt>
      <trkpt lat="43.51153" lon="1.50202">
        <ele>91.37524414</ele>
        <time>2018-09-09T07:13:56Z</time>
      </trkpt>
      <trkpt lat="43.51162" lon="1.5019">
        <ele>91.37524414</ele>
        <time>2018-09-09T07:13:58Z</time>
      </trkpt>
      <trkpt lat="43.51171" lon="1.5018">
        <ele>91.37524414</ele>
        <time>2018-09-09T07:14:00Z</time>
      </trkpt>
      <trkpt lat="43.5118" lon="1.5017">
        <ele>91.37524414</ele>
        <time>2018-09-09T07:14:02Z</time>
      </trkpt>
      <trkpt lat="43.51184" lon="1.50162">
        <ele>90.7966156</ele>
        <time>2018-09-09T07:14:04Z</time>
      </trkpt>
      <trkpt lat="43.51192" lon="1.50156">
        <ele>90.7966156</ele>
        <time>2018-09-09T07:14:06Z</time>
      </trkpt>
      <trkpt lat="43.51204" lon="1.50147">
        <ele>90.7966156</ele>
        <time>2018-09-09T07:14:08Z</time>
      </trkpt>
      <trkpt lat="43.51224" lon="1.50125">
        <ele>90.7966156</ele>
        <time>2018-09-09T07:14:13Z</time>
      </trkpt>
      <trkpt lat="43.51236" lon="1.50113">
        <ele>90.7966156</ele>
        <time>2018-09-09T07:14:16Z</time>
      </trkpt>
      <trkpt lat="43.51243" lon="1.501">
        <ele>90.7966156</ele>
        <time>2018-09-09T07:14:18Z</time>
      </trkpt>
      <trkpt lat="43.51252" lon="1.50087">
        <ele>90.7966156</ele>
        <time>2018-09-09T07:14:21Z</time>
      </trkpt>
      <trkpt lat="43.51265" lon="1.50076">
        <ele>90.7966156</ele>
        <time>2018-09-09T07:14:23Z</time>
      </trkpt>
      <trkpt lat="43.51275" lon="1.50065">
        <ele>90.7966156</ele>
        <time>2018-09-09T07:14:26Z</time>
      </trkpt>
      <trkpt lat="43.51288" lon="1.50051">
        <ele>90.7966156</ele>
        <time>2018-09-09T07:14:29Z</time>
      </trkpt>
      <trkpt lat="43.51298" lon="1.50038">
        <ele>90.7966156</ele>
        <time>2018-09-09T07:14:32Z</time>
      </trkpt>
      <trkpt lat="43.51312" lon="1.50027">
        <ele>90.7966156</ele>
        <time>2018-09-09T07:14:35Z</time>
      </trkpt>
      <trkpt lat="43.51326" lon="1.50018">
        <ele>90.7966156</ele>
        <time>2018-09-09T07:14:37Z</time>
      </trkpt>
      <trkpt lat="43.51338" lon="1.50011">
        <ele>90.7966156</ele>
        <time>2018-09-09T07:14:40Z</time>
      </trkpt>
      <trkpt lat="43.51348" lon="1.5">
        <ele>90.7966156</ele>
        <time>2018-09-09T07:14:42Z</time>
      </trkpt>
      <trkpt lat="43.51355" lon="1.49986">
        <ele>90.7966156</ele>
        <time>2018-09-09T07:14:44Z</time>
      </trkpt>
      <trkpt lat="43.51362" lon="1.49973">
        <ele>90.7966156</ele>
        <time>2018-09-09T07:14:45Z</time>
      </trkpt>
      <trkpt lat="43.51369" lon="1.49961">
        <ele>91.63820648</ele>
        <time>2018-09-09T07:14:47Z</time>
      </trkpt>
      <trkpt lat="43.51374" lon="1.49947">
        <ele>91.63820648</ele>
        <time>2018-09-09T07:14:49Z</time>
      </trkpt>
      <trkpt lat="43.5138" lon="1.49934">
        <ele>91.63820648</ele>
        <time>2018-09-09T07:14:51Z</time>
      </trkpt>
      <trkpt lat="43.51385" lon="1.4992">
        <ele>92.78437805</ele>
        <time>2018-09-09T07:14:53Z</time>
      </trkpt>
      <trkpt lat="43.51388" lon="1.49906">
        <ele>92.78437805</ele>
        <time>2018-09-09T07:14:55Z</time>
      </trkpt>
      <trkpt lat="43.51393" lon="1.49895">
        <ele>92.78437805</ele>
        <time>2018-09-09T07:14:57Z</time>
      </trkpt>
      <trkpt lat="43.51396" lon="1.49882">
        <ele>93.87154388</ele>
        <time>2018-09-09T07:15:00Z</time>
      </trkpt>
      <trkpt lat="43.51399" lon="1.49866">
        <ele>93.87154388</ele>
        <time>2018-09-09T07:15:02Z</time>
      </trkpt>
      <trkpt lat="43.51401" lon="1.49856">
        <ele>95.55299377</ele>
        <time>2018-09-09T07:15:04Z</time>
      </trkpt>
      <trkpt lat="43.51402" lon="1.49845">
        <ele>95.55299377</ele>
        <time>2018-09-09T07:15:05Z</time>
      </trkpt>
      <trkpt lat="43.51405" lon="1.49831">
        <ele>95.55299377</ele>
        <time>2018-09-09T07:15:07Z</time>
      </trkpt>
      <trkpt lat="43.51407" lon="1.49805">
        <ele>96.23218536</ele>
        <time>2018-09-09T07:15:11Z</time>
      </trkpt>
      <trkpt lat="43.51409" lon="1.49794">
        <ele>97.34170532</ele>
        <time>2018-09-09T07:15:13Z</time>
      </trkpt>
      <trkpt lat="43.51409" lon="1.49781">
        <ele>97.34170532</ele>
        <time>2018-09-09T07:15:15Z</time>
      </trkpt>
      <trkpt lat="43.51407" lon="1.49767">
        <ele>97.34170532</ele>
        <time>2018-09-09T07:15:17Z</time>
      </trkpt>
      <trkpt lat="43.51408" lon="1.49753">
        <ele>98.40990448</ele>
        <time>2018-09-09T07:15:19Z</time>
      </trkpt>
      <trkpt lat="43.51411" lon="1.4974">
        <ele>98.40990448</ele>
        <time>2018-09-09T07:15:21Z</time>
      </trkpt>
      <trkpt lat="43.51415" lon="1.49727">
        <ele>98.40990448</ele>
        <time>2018-09-09T07:15:23Z</time>
      </trkpt>
      <trkpt lat="43.51416" lon="1.49715">
        <ele>98.40990448</ele>
        <time>2018-09-09T07:15:26Z</time>
      </trkpt>
      <trkpt lat="43.51419" lon="1.49702">
        <ele>98.40990448</ele>
        <time>2018-09-09T07:15:28Z</time>
      </trkpt>
      <trkpt lat="43.51422" lon="1.4969">
        <ele>98.40990448</ele>
        <time>2018-09-09T07:15:30Z</time>
      </trkpt>
      <trkpt lat="43.5142" lon="1.49669">
        <ele>98.40990448</ele>
        <time>2018-09-09T07:15:31Z</time>
      </trkpt>
      <trkpt lat="43.51422" lon="1.49659">
        <ele>98.40990448</ele>
        <time>2018-09-09T07:15:32Z</time>
      </trkpt>
      <trkpt lat="43.51426" lon="1.49646">
        <ele>98.91137695</ele>
        <time>2018-09-09T07:15:33Z</time>
      </trkpt>
      <trkpt lat="43.51429" lon="1.49636">
        <ele>98.91137695</ele>
        <time>2018-09-09T07:15:34Z</time>
      </trkpt>
      <trkpt lat="43.51433" lon="1.49626">
        <ele>98.91137695</ele>
        <time>2018-09-09T07:15:35Z</time>
      </trkpt>
      <trkpt lat="43.51437" lon="1.49616">
        <ele>96.78718567</ele>
        <time>2018-09-09T07:15:36Z</time>
      </trkpt>
      <trkpt lat="43.5144" lon="1.496">
        <ele>96.78718567</ele>
        <time>2018-09-09T07:15:37Z</time>
      </trkpt>
      <trkpt lat="43.51446" lon="1.49586">
        <ele>96.78718567</ele>
        <time>2018-09-09T07:15:39Z</time>
      </trkpt>
      <trkpt lat="43.51453" lon="1.49568">
        <ele>96.78718567</ele>
        <time>2018-09-09T07:15:41Z</time>
      </trkpt>
      <trkpt lat="43.51464" lon="1.49552">
        <ele>95.73500061</ele>
        <time>2018-09-09T07:15:43Z</time>
      </trkpt>
      <trkpt lat="43.51478" lon="1.49543">
        <ele>95.73500061</ele>
        <time>2018-09-09T07:15:45Z</time>
      </trkpt>
      <trkpt lat="43.51484" lon="1.4953">
        <ele>95.73500061</ele>
        <time>2018-09-09T07:15:47Z</time>
      </trkpt>
      <trkpt lat="43.51482" lon="1.49515">
        <ele>95.73500061</ele>
        <time>2018-09-09T07:15:49Z</time>
      </trkpt>
      <trkpt lat="43.51481" lon="1.49503">
        <ele>95.87377167</ele>
        <time>2018-09-09T07:15:51Z</time>
      </trkpt>
      <trkpt lat="43.51481" lon="1.4949">
        <ele>97.42146301</ele>
        <time>2018-09-09T07:15:54Z</time>
      </trkpt>
      <trkpt lat="43.51479" lon="1.49477">
        <ele>97.42146301</ele>
        <time>2018-09-09T07:15:56Z</time>
      </trkpt>
      <trkpt lat="43.51482" lon="1.49462">
        <ele>98.66270447</ele>
        <time>2018-09-09T07:15:59Z</time>
      </trkpt>
      <trkpt lat="43.51494" lon="1.49444">
        <ele>98.66270447</ele>
        <time>2018-09-09T07:16:01Z</time>
      </trkpt>
      <trkpt lat="43.51496" lon="1.49432">
        <ele>99.79981995</ele>
        <time>2018-09-09T07:16:03Z</time>
      </trkpt>
      <trkpt lat="43.51497" lon="1.49429">
        <ele>100.23526764</ele>
        <time>2018-09-09T07:16:04Z</time>
      </trkpt>
      <trkpt lat="43.51496" lon="1.49419">
        <ele>100.23526764</ele>
        <time>2018-09-09T07:16:05Z</time>
      </trkpt>
      <trkpt lat="43.51492" lon="1.49407">
        <ele>100.23526764</ele>
        <time>2018-09-09T07:16:07Z</time>
      </trkpt>
      <trkpt lat="43.51492" lon="1.49376">
        <ele>100.23526764</ele>
        <time>2018-09-09T07:16:11Z</time>
      </trkpt>
      <trkpt lat="43.51492" lon="1.49361">
        <ele>100.23526764</ele>
        <time>2018-09-09T07:16:13Z</time>
      </trkpt>
      <trkpt lat="43.51494" lon="1.49345">
        <ele>100.23526764</ele>
        <time>2018-09-09T07:16:15Z</time>
      </trkpt>
      <trkpt lat="43.51498" lon="1.49325">
        <ele>100.23526764</ele>
        <time>2018-09-09T07:16:17Z</time>
      </trkpt>
      <trkpt lat="43.51501" lon="1.4931">
        <ele>100.23526764</ele>
        <time>2018-09-09T07:16:18Z</time>
      </trkpt>
      <trkpt lat="43.51502" lon="1.49296">
        <ele>100.23526764</ele>
        <time>2018-09-09T07:16:20Z</time>
      </trkpt>
      <trkpt lat="43.51504" lon="1.49277">
        <ele>100.23526764</ele>
        <time>2018-09-09T07:16:22Z</time>
      </trkpt>
      <trkpt lat="43.51507" lon="1.49261">
        <ele>100.23526764</ele>
        <time>2018-09-09T07:16:24Z</time>
      </trkpt>
      <trkpt lat="43.51511" lon="1.49245">
        <ele>100.23526764</ele>
        <time>2018-09-09T07:16:26Z</time>
      </trkpt>
      <trkpt lat="43.51515" lon="1.49228">
        <ele>100.23526764</ele>
        <time>2018-09-09T07:16:28Z</time>
      </trkpt>
      <trkpt lat="43.51519" lon="1.49213">
        <ele>100.23526764</ele>
        <time>2018-09-09T07:16:30Z</time>
      </trkpt>
      <trkpt lat="43.5152" lon="1.49197">
        <ele>100.23526764</ele>
        <time>2018-09-09T07:16:32Z</time>
      </trkpt>
      <trkpt lat="43.51521" lon="1.49181">
        <ele>100.23526764</ele>
        <time>2018-09-09T07:16:35Z</time>
      </trkpt>
      <trkpt lat="43.51523" lon="1.49166">
        <ele>100.23526764</ele>
        <time>2018-09-09T07:16:36Z</time>
      </trkpt>
      <trkpt lat="43.51524" lon="1.49152">
        <ele>100.29393005</ele>
        <time>2018-09-09T07:16:38Z</time>
      </trkpt>
      <trkpt lat="43.51526" lon="1.49137">
        <ele>100.29393005</ele>
        <time>2018-09-09T07:16:40Z</time>
      </trkpt>
      <trkpt lat="43.51527" lon="1.49125">
        <ele>102.09074402</ele>
        <time>2018-09-09T07:16:42Z</time>
      </trkpt>
      <trkpt lat="43.5153" lon="1.49112">
        <ele>102.09074402</ele>
        <time>2018-09-09T07:16:44Z</time>
      </trkpt>
      <trkpt lat="43.51532" lon="1.491">
        <ele>103.18122864</ele>
        <time>2018-09-09T07:16:46Z</time>
      </trkpt>
      <trkpt lat="43.51531" lon="1.49089">
        <ele>103.18122864</ele>
        <time>2018-09-09T07:16:48Z</time>
      </trkpt>
      <trkpt lat="43.51529" lon="1.49076">
        <ele>104.36325836</ele>
        <time>2018-09-09T07:16:50Z</time>
      </trkpt>
      <trkpt lat="43.51526" lon="1.49063">
        <ele>104.36325836</ele>
        <time>2018-09-09T07:16:52Z</time>
      </trkpt>
      <trkpt lat="43.51526" lon="1.49049">
        <ele>105.60662079</ele>
        <time>2018-09-09T07:16:54Z</time>
      </trkpt>
      <trkpt lat="43.51525" lon="1.49035">
        <ele>105.60662079</ele>
        <time>2018-09-09T07:16:56Z</time>
      </trkpt>
      <trkpt lat="43.51526" lon="1.49022">
        <ele>106.77503204</ele>
        <time>2018-09-09T07:16:58Z</time>
      </trkpt>
      <trkpt lat="43.51527" lon="1.4901">
        <ele>106.77503204</ele>
        <time>2018-09-09T07:17:00Z</time>
      </trkpt>
      <trkpt lat="43.51528" lon="1.48997">
        <ele>107.92956543</ele>
        <time>2018-09-09T07:17:02Z</time>
      </trkpt>
      <trkpt lat="43.5153" lon="1.48987">
        <ele>108.7281189</ele>
        <time>2018-09-09T07:17:04Z</time>
      </trkpt>
      <trkpt lat="43.51532" lon="1.48977">
        <ele>108.7281189</ele>
        <time>2018-09-09T07:17:05Z</time>
      </trkpt>
      <trkpt lat="43.51534" lon="1.48965">
        <ele>109.53195953</ele>
        <time>2018-09-09T07:17:07Z</time>
      </trkpt>
      <trkpt lat="43.51535" lon="1.48952">
        <ele>109.53195953</ele>
        <time>2018-09-09T07:17:10Z</time>
      </trkpt>
      <trkpt lat="43.51537" lon="1.4894">
        <ele>110.59870911</ele>
        <time>2018-09-09T07:17:11Z</time>
      </trkpt>
      <trkpt lat="43.51536" lon="1.48926">
        <ele>110.59870911</ele>
        <time>2018-09-09T07:17:13Z</time>
      </trkpt>
      <trkpt lat="43.51535" lon="1.48911">
        <ele>110.59870911</ele>
        <time>2018-09-09T07:17:15Z</time>
      </trkpt>
      <trkpt lat="43.51535" lon="1.48898">
        <ele>111.63553619</ele>
        <time>2018-09-09T07:17:17Z</time>
      </trkpt>
      <trkpt lat="43.51534" lon="1.48885">
        <ele>111.63553619</ele>
        <time>2018-09-09T07:17:19Z</time>
      </trkpt>
      <trkpt lat="43.51531" lon="1.48872">
        <ele>112.7744751</ele>
        <time>2018-09-09T07:17:21Z</time>
      </trkpt>
      <trkpt lat="43.5153" lon="1.48858">
        <ele>112.7744751</ele>
        <time>2018-09-09T07:17:23Z</time>
      </trkpt>
      <trkpt lat="43.51529" lon="1.48843">
        <ele>112.7744751</ele>
        <time>2018-09-09T07:17:25Z</time>
      </trkpt>
      <trkpt lat="43.51529" lon="1.48827">
        <ele>112.7744751</ele>
        <time>2018-09-09T07:17:27Z</time>
      </trkpt>
      <trkpt lat="43.51529" lon="1.4881">
        <ele>112.7744751</ele>
        <time>2018-09-09T07:17:29Z</time>
      </trkpt>
      <trkpt lat="43.51527" lon="1.48794">
        <ele>112.7744751</ele>
        <time>2018-09-09T07:17:31Z</time>
      </trkpt>
      <trkpt lat="43.51525" lon="1.48777">
        <ele>112.7744751</ele>
        <time>2018-09-09T07:17:33Z</time>
      </trkpt>
      <trkpt lat="43.51524" lon="1.48759">
        <ele>112.7744751</ele>
        <time>2018-09-09T07:17:35Z</time>
      </trkpt>
      <trkpt lat="43.51522" lon="1.48742">
        <ele>112.7744751</ele>
        <time>2018-09-09T07:17:37Z</time>
      </trkpt>
      <trkpt lat="43.51521" lon="1.48725">
        <ele>112.7744751</ele>
        <time>2018-09-09T07:17:39Z</time>
      </trkpt>
      <trkpt lat="43.51521" lon="1.48709">
        <ele>112.7744751</ele>
        <time>2018-09-09T07:17:41Z</time>
      </trkpt>
      <trkpt lat="43.51519" lon="1.48691">
        <ele>113.48435211</ele>
        <time>2018-09-09T07:17:43Z</time>
      </trkpt>
      <trkpt lat="43.51517" lon="1.48671">
        <ele>113.48435211</ele>
        <time>2018-09-09T07:17:45Z</time>
      </trkpt>
      <trkpt lat="43.51515" lon="1.48656">
        <ele>111.34733582</ele>
        <time>2018-09-09T07:17:46Z</time>
      </trkpt>
      <trkpt lat="43.51514" lon="1.48644">
        <ele>111.34733582</ele>
        <time>2018-09-09T07:17:47Z</time>
      </trkpt>
      <trkpt lat="43.51513" lon="1.4863">
        <ele>111.34733582</ele>
        <time>2018-09-09T07:17:49Z</time>
      </trkpt>
      <trkpt lat="43.5151" lon="1.48612">
        <ele>111.34733582</ele>
        <time>2018-09-09T07:17:51Z</time>
      </trkpt>
      <trkpt lat="43.51502" lon="1.48595">
        <ele>111.34733582</ele>
        <time>2018-09-09T07:17:53Z</time>
      </trkpt>
      <trkpt lat="43.51492" lon="1.48581">
        <ele>111.34733582</ele>
        <time>2018-09-09T07:17:55Z</time>
      </trkpt>
      <trkpt lat="43.51482" lon="1.48568">
        <ele>111.34733582</ele>
        <time>2018-09-09T07:17:58Z</time>
      </trkpt>
      <trkpt lat="43.51471" lon="1.48556">
        <ele>110.80453491</ele>
        <time>2018-09-09T07:18:01Z</time>
      </trkpt>
      <trkpt lat="43.51461" lon="1.48544">
        <ele>113.02837372</ele>
        <time>2018-09-09T07:18:03Z</time>
      </trkpt>
      <trkpt lat="43.5146" lon="1.48541">
        <ele>113.47174072</ele>
        <time>2018-09-09T07:18:04Z</time>
      </trkpt>
      <trkpt lat="43.51453" lon="1.48533">
        <ele>113.47174072</ele>
        <time>2018-09-09T07:18:05Z</time>
      </trkpt>
      <trkpt lat="43.51445" lon="1.48521">
        <ele>114.29069519</ele>
        <time>2018-09-09T07:18:07Z</time>
      </trkpt>
      <trkpt lat="43.51428" lon="1.48499">
        <ele>115.6815033</ele>
        <time>2018-09-09T07:18:12Z</time>
      </trkpt>
      <trkpt lat="43.51422" lon="1.48488">
        <ele>116.923172</ele>
        <time>2018-09-09T07:18:16Z</time>
      </trkpt>
      <trkpt lat="43.51418" lon="1.48484">
        <ele>118.56526947</ele>
        <time>2018-09-09T07:18:31Z</time>
      </trkpt>
      <trkpt lat="43.514" lon="1.48473">
        <ele>115.82836151</ele>
        <time>2018-09-09T07:18:33Z</time>
      </trkpt>
      <trkpt lat="43.51384" lon="1.48466">
        <ele>113.96966553</ele>
        <time>2018-09-09T07:18:35Z</time>
      </trkpt>
      <trkpt lat="43.51367" lon="1.48455">
        <ele>112.23049927</ele>
        <time>2018-09-09T07:18:37Z</time>
      </trkpt>
      <trkpt lat="43.51351" lon="1.48443">
        <ele>110.72969055</ele>
        <time>2018-09-09T07:18:39Z</time>
      </trkpt>
      <trkpt lat="43.51334" lon="1.48434">
        <ele>110.72969055</ele>
        <time>2018-09-09T07:18:41Z</time>
      </trkpt>
      <trkpt lat="43.51319" lon="1.48427">
        <ele>110.72969055</ele>
        <time>2018-09-09T07:18:42Z</time>
      </trkpt>
      <trkpt lat="43.51307" lon="1.48419">
        <ele>110.72969055</ele>
        <time>2018-09-09T07:18:44Z</time>
      </trkpt>
      <trkpt lat="43.51295" lon="1.48415">
        <ele>110.72969055</ele>
        <time>2018-09-09T07:18:46Z</time>
      </trkpt>
      <trkpt lat="43.51286" lon="1.48413">
        <ele>110.80841064</ele>
        <time>2018-09-09T07:18:50Z</time>
      </trkpt>
      <trkpt lat="43.51277" lon="1.48418">
        <ele>116.7013855</ele>
        <time>2018-09-09T07:19:01Z</time>
      </trkpt>
      <trkpt lat="43.51267" lon="1.48413">
        <ele>118.65438843</ele>
        <time>2018-09-09T07:19:04Z</time>
      </trkpt>
      <trkpt lat="43.5126" lon="1.48409">
        <ele>119.6076889</ele>
        <time>2018-09-09T07:19:07Z</time>
      </trkpt>
      <trkpt lat="43.51248" lon="1.48398">
        <ele>121.02888489</ele>
        <time>2018-09-09T07:19:10Z</time>
      </trkpt>
      <trkpt lat="43.51238" lon="1.48391">
        <ele>123.90374756</ele>
        <time>2018-09-09T07:19:15Z</time>
      </trkpt>
      <trkpt lat="43.51226" lon="1.48384">
        <ele>125.31620026</ele>
        <time>2018-09-09T07:19:20Z</time>
      </trkpt>
      <trkpt lat="43.51215" lon="1.48374">
        <ele>129.84686279</ele>
        <time>2018-09-09T07:19:25Z</time>
      </trkpt>
      <trkpt lat="43.51202" lon="1.48369">
        <ele>133.30007935</ele>
        <time>2018-09-09T07:19:32Z</time>
      </trkpt>
      <trkpt lat="43.51191" lon="1.48364">
        <ele>134.44248962</ele>
        <time>2018-09-09T07:19:35Z</time>
      </trkpt>
      <trkpt lat="43.5118" lon="1.48357">
        <ele>135.55293274</ele>
        <time>2018-09-09T07:19:38Z</time>
      </trkpt>
      <trkpt lat="43.5117" lon="1.48345">
        <ele>138.23275757</ele>
        <time>2018-09-09T07:19:42Z</time>
      </trkpt>
      <trkpt lat="43.51157" lon="1.48335">
        <ele>140.76878357</ele>
        <time>2018-09-09T07:19:45Z</time>
      </trkpt>
      <trkpt lat="43.51149" lon="1.4833">
        <ele>141.8941803</ele>
        <time>2018-09-09T07:19:49Z</time>
      </trkpt>
      <trkpt lat="43.51138" lon="1.48328">
        <ele>142.88975525</ele>
        <time>2018-09-09T07:19:52Z</time>
      </trkpt>
      <trkpt lat="43.51126" lon="1.48327">
        <ele>142.88975525</ele>
        <time>2018-09-09T07:19:56Z</time>
      </trkpt>
      <trkpt lat="43.51114" lon="1.48327">
        <ele>142.88975525</ele>
        <time>2018-09-09T07:19:59Z</time>
      </trkpt>
      <trkpt lat="43.51102" lon="1.48324">
        <ele>143.67619324</ele>
        <time>2018-09-09T07:20:03Z</time>
      </trkpt>
      <trkpt lat="43.51099" lon="1.48323">
        <ele>144.55090332</ele>
        <time>2018-09-09T07:20:04Z</time>
      </trkpt>
      <trkpt lat="43.51096" lon="1.48315">
        <ele>145.29684448</ele>
        <time>2018-09-09T07:20:07Z</time>
      </trkpt>
      <trkpt lat="43.51096" lon="1.48303">
        <ele>146.4223938</ele>
        <time>2018-09-09T07:20:11Z</time>
      </trkpt>
      <trkpt lat="43.51095" lon="1.4829">
        <ele>148.81488037</ele>
        <time>2018-09-09T07:20:14Z</time>
      </trkpt>
      <trkpt lat="43.51094" lon="1.48281">
        <ele>149.90620422</ele>
        <time>2018-09-09T07:20:17Z</time>
      </trkpt>
      <trkpt lat="43.51092" lon="1.48268">
        <ele>152.07949829</ele>
        <time>2018-09-09T07:20:20Z</time>
      </trkpt>
      <trkpt lat="43.5109" lon="1.48256">
        <ele>153.23980713</ele>
        <time>2018-09-09T07:20:23Z</time>
      </trkpt>
      <trkpt lat="43.51088" lon="1.48246">
        <ele>155.61361694</ele>
        <time>2018-09-09T07:20:26Z</time>
      </trkpt>
      <trkpt lat="43.51086" lon="1.48236">
        <ele>156.86032104</ele>
        <time>2018-09-09T07:20:29Z</time>
      </trkpt>
      <trkpt lat="43.51083" lon="1.48225">
        <ele>159.34933472</ele>
        <time>2018-09-09T07:20:32Z</time>
      </trkpt>
      <trkpt lat="43.51081" lon="1.48215">
        <ele>161.55039978</ele>
        <time>2018-09-09T07:20:36Z</time>
      </trkpt>
      <trkpt lat="43.51075" lon="1.48206">
        <ele>163.89176941</ele>
        <time>2018-09-09T07:20:43Z</time>
      </trkpt>
      <trkpt lat="43.51065" lon="1.48196">
        <ele>165.1889801</ele>
        <time>2018-09-09T07:20:48Z</time>
      </trkpt>
      <trkpt lat="43.51051" lon="1.48188">
        <ele>166.12036133</ele>
        <time>2018-09-09T07:20:53Z</time>
      </trkpt>
      <trkpt lat="43.51041" lon="1.48182">
        <ele>167.38098145</ele>
        <time>2018-09-09T07:20:56Z</time>
      </trkpt>
      <trkpt lat="43.51029" lon="1.48177">
        <ele>168.69949341</ele>
        <time>2018-09-09T07:21:00Z</time>
      </trkpt>
      <trkpt lat="43.51019" lon="1.48173">
        <ele>170.8377533</ele>
        <time>2018-09-09T07:21:04Z</time>
      </trkpt>
      <trkpt lat="43.5101" lon="1.48168">
        <ele>171.85600281</ele>
        <time>2018-09-09T07:21:07Z</time>
      </trkpt>
      <trkpt lat="43.50999" lon="1.48163">
        <ele>174.48794556</ele>
        <time>2018-09-09T07:21:12Z</time>
      </trkpt>
      <trkpt lat="43.50988" lon="1.48155">
        <ele>176.63247681</ele>
        <time>2018-09-09T07:21:17Z</time>
      </trkpt>
      <trkpt lat="43.50975" lon="1.48152">
        <ele>177.68200684</ele>
        <time>2018-09-09T07:21:21Z</time>
      </trkpt>
      <trkpt lat="43.50964" lon="1.48146">
        <ele>178.75292969</ele>
        <time>2018-09-09T07:21:26Z</time>
      </trkpt>
      <trkpt lat="43.50954" lon="1.48137">
        <ele>178.75292969</ele>
        <time>2018-09-09T07:21:30Z</time>
      </trkpt>
      <trkpt lat="43.50942" lon="1.4813">
        <ele>179.77276611</ele>
        <time>2018-09-09T07:21:35Z</time>
      </trkpt>
      <trkpt lat="43.50919" lon="1.4811">
        <ele>182.07022095</ele>
        <time>2018-09-09T07:21:43Z</time>
      </trkpt>
      <trkpt lat="43.50912" lon="1.48097">
        <ele>182.07022095</ele>
        <time>2018-09-09T07:21:46Z</time>
      </trkpt>
      <trkpt lat="43.50907" lon="1.48087">
        <ele>183.23675537</ele>
        <time>2018-09-09T07:21:49Z</time>
      </trkpt>
      <trkpt lat="43.50901" lon="1.48075">
        <ele>184.53590393</ele>
        <time>2018-09-09T07:21:53Z</time>
      </trkpt>
      <trkpt lat="43.50897" lon="1.48064">
        <ele>185.88710022</ele>
        <time>2018-09-09T07:21:55Z</time>
      </trkpt>
      <trkpt lat="43.50892" lon="1.48052">
        <ele>187.11022949</ele>
        <time>2018-09-09T07:21:58Z</time>
      </trkpt>
      <trkpt lat="43.50888" lon="1.4804">
        <ele>188.39614868</ele>
        <time>2018-09-09T07:22:00Z</time>
      </trkpt>
      <trkpt lat="43.50882" lon="1.4803">
        <ele>188.39614868</ele>
        <time>2018-09-09T07:22:03Z</time>
      </trkpt>
      <trkpt lat="43.50879" lon="1.48026">
        <ele>189.37223816</ele>
        <time>2018-09-09T07:22:04Z</time>
      </trkpt>
      <trkpt lat="43.50874" lon="1.48017">
        <ele>189.37223816</ele>
        <time>2018-09-09T07:22:06Z</time>
      </trkpt>
      <trkpt lat="43.50869" lon="1.48007">
        <ele>190.49246216</ele>
        <time>2018-09-09T07:22:10Z</time>
      </trkpt>
      <trkpt lat="43.50863" lon="1.47994">
        <ele>191.84286499</ele>
        <time>2018-09-09T07:22:14Z</time>
      </trkpt>
      <trkpt lat="43.50859" lon="1.47983">
        <ele>193.14758301</ele>
        <time>2018-09-09T07:22:17Z</time>
      </trkpt>
      <trkpt lat="43.50855" lon="1.47971">
        <ele>193.14758301</ele>
        <time>2018-09-09T07:22:20Z</time>
      </trkpt>
      <trkpt lat="43.5085" lon="1.4796">
        <ele>194.2565155</ele>
        <time>2018-09-09T07:22:23Z</time>
      </trkpt>
      <trkpt lat="43.50845" lon="1.47949">
        <ele>194.2565155</ele>
        <time>2018-09-09T07:22:26Z</time>
      </trkpt>
      <trkpt lat="43.50839" lon="1.47938">
        <ele>195.15307617</ele>
        <time>2018-09-09T07:22:29Z</time>
      </trkpt>
      <trkpt lat="43.50833" lon="1.47925">
        <ele>196.37391663</ele>
        <time>2018-09-09T07:22:32Z</time>
      </trkpt>
      <trkpt lat="43.50831" lon="1.47914">
        <ele>196.37391663</ele>
        <time>2018-09-09T07:22:35Z</time>
      </trkpt>
      <trkpt lat="43.50829" lon="1.47904">
        <ele>197.42277527</ele>
        <time>2018-09-09T07:22:38Z</time>
      </trkpt>
      <trkpt lat="43.50827" lon="1.47893">
        <ele>197.42277527</ele>
        <time>2018-09-09T07:22:41Z</time>
      </trkpt>
      <trkpt lat="43.50824" lon="1.47883">
        <ele>198.48014832</ele>
        <time>2018-09-09T07:22:44Z</time>
      </trkpt>
      <trkpt lat="43.5082" lon="1.47872">
        <ele>199.78268433</ele>
        <time>2018-09-09T07:22:47Z</time>
      </trkpt>
      <trkpt lat="43.50816" lon="1.47861">
        <ele>199.78268433</ele>
        <time>2018-09-09T07:22:50Z</time>
      </trkpt>
      <trkpt lat="43.50813" lon="1.47851">
        <ele>199.78268433</ele>
        <time>2018-09-09T07:22:53Z</time>
      </trkpt>
      <trkpt lat="43.5081" lon="1.47839">
        <ele>200.83813477</ele>
        <time>2018-09-09T07:22:56Z</time>
      </trkpt>
      <trkpt lat="43.50806" lon="1.47828">
        <ele>200.83813477</ele>
        <time>2018-09-09T07:22:59Z</time>
      </trkpt>
      <trkpt lat="43.50801" lon="1.47817">
        <ele>200.83813477</ele>
        <time>2018-09-09T07:23:02Z</time>
      </trkpt>
      <trkpt lat="43.50798" lon="1.47808">
        <ele>201.73687744</ele>
        <time>2018-09-09T07:23:04Z</time>
      </trkpt>
      <trkpt lat="43.50796" lon="1.47801">
        <ele>201.73687744</ele>
        <time>2018-09-09T07:23:06Z</time>
      </trkpt>
      <trkpt lat="43.5079" lon="1.47791">
        <ele>201.73687744</ele>
        <time>2018-09-09T07:23:10Z</time>
      </trkpt>
      <trkpt lat="43.50779" lon="1.47779">
        <ele>201.73687744</ele>
        <time>2018-09-09T07:23:13Z</time>
      </trkpt>
      <trkpt lat="43.50767" lon="1.47767">
        <ele>201.73687744</ele>
        <time>2018-09-09T07:23:16Z</time>
      </trkpt>
      <trkpt lat="43.50758" lon="1.47757">
        <ele>201.73687744</ele>
        <time>2018-09-09T07:23:19Z</time>
      </trkpt>
      <trkpt lat="43.50748" lon="1.47746">
        <ele>202.07827759</ele>
        <time>2018-09-09T07:23:23Z</time>
      </trkpt>
      <trkpt lat="43.50737" lon="1.47739">
        <ele>203.89639282</ele>
        <time>2018-09-09T07:23:30Z</time>
      </trkpt>
      <trkpt lat="43.50739" lon="1.47733">
        <ele>204.82406616</ele>
        <time>2018-09-09T07:24:38Z</time>
      </trkpt>
      <trkpt lat="43.5074" lon="1.47734">
        <ele>204.82406616</ele>
        <time>2018-09-09T07:24:43Z</time>
      </trkpt>
      <trkpt lat="43.50748" lon="1.47717">
        <ele>204.82406616</ele>
        <time>2018-09-09T07:24:46Z</time>
      </trkpt>
      <trkpt lat="43.50759" lon="1.47706">
        <ele>204.82406616</ele>
        <time>2018-09-09T07:24:49Z</time>
      </trkpt>
      <trkpt lat="43.50768" lon="1.47695">
        <ele>204.82406616</ele>
        <time>2018-09-09T07:24:52Z</time>
      </trkpt>
      <trkpt lat="43.50779" lon="1.47685">
        <ele>204.82406616</ele>
        <time>2018-09-09T07:24:55Z</time>
      </trkpt>
      <trkpt lat="43.50789" lon="1.47673">
        <ele>204.82406616</ele>
        <time>2018-09-09T07:24:58Z</time>
      </trkpt>
      <trkpt lat="43.50798" lon="1.47662">
        <ele>204.82406616</ele>
        <time>2018-09-09T07:25:00Z</time>
      </trkpt>
      <trkpt lat="43.50805" lon="1.47651">
        <ele>204.82406616</ele>
        <time>2018-09-09T07:25:03Z</time>
      </trkpt>
      <trkpt lat="43.50808" lon="1.47648">
        <ele>204.91825867</ele>
        <time>2018-09-09T07:25:04Z</time>
      </trkpt>
      <trkpt lat="43.50814" lon="1.4764">
        <ele>204.91825867</ele>
        <time>2018-09-09T07:25:07Z</time>
      </trkpt>
      <trkpt lat="43.50822" lon="1.47628">
        <ele>204.91825867</ele>
        <time>2018-09-09T07:25:10Z</time>
      </trkpt>
      <trkpt lat="43.50831" lon="1.47617">
        <ele>204.91825867</ele>
        <time>2018-09-09T07:25:13Z</time>
      </trkpt>
      <trkpt lat="43.50841" lon="1.47604">
        <ele>204.91825867</ele>
        <time>2018-09-09T07:25:16Z</time>
      </trkpt>
      <trkpt lat="43.5085" lon="1.47592">
        <ele>204.91825867</ele>
        <time>2018-09-09T07:25:19Z</time>
      </trkpt>
      <trkpt lat="43.50854" lon="1.47577">
        <ele>204.91825867</ele>
        <time>2018-09-09T07:25:21Z</time>
      </trkpt>
      <trkpt lat="43.50858" lon="1.47565">
        <ele>204.91825867</ele>
        <time>2018-09-09T07:25:23Z</time>
      </trkpt>
      <trkpt lat="43.50863" lon="1.47553">
        <ele>204.91825867</ele>
        <time>2018-09-09T07:25:25Z</time>
      </trkpt>
      <trkpt lat="43.50869" lon="1.47542">
        <ele>204.91825867</ele>
        <time>2018-09-09T07:25:27Z</time>
      </trkpt>
      <trkpt lat="43.50877" lon="1.4753">
        <ele>204.91825867</ele>
        <time>2018-09-09T07:25:29Z</time>
      </trkpt>
      <trkpt lat="43.50887" lon="1.47517">
        <ele>204.91825867</ele>
        <time>2018-09-09T07:25:31Z</time>
      </trkpt>
      <trkpt lat="43.50894" lon="1.47504">
        <ele>204.91825867</ele>
        <time>2018-09-09T07:25:33Z</time>
      </trkpt>
      <trkpt lat="43.50899" lon="1.47492">
        <ele>205.9434967</ele>
        <time>2018-09-09T07:25:35Z</time>
      </trkpt>
      <trkpt lat="43.50906" lon="1.4748">
        <ele>205.9434967</ele>
        <time>2018-09-09T07:25:38Z</time>
      </trkpt>
      <trkpt lat="43.50917" lon="1.47467">
        <ele>205.9434967</ele>
        <time>2018-09-09T07:25:40Z</time>
      </trkpt>
      <trkpt lat="43.50925" lon="1.47455">
        <ele>204.11221313</ele>
        <time>2018-09-09T07:25:42Z</time>
      </trkpt>
      <trkpt lat="43.50928" lon="1.47439">
        <ele>202.74583435</ele>
        <time>2018-09-09T07:25:44Z</time>
      </trkpt>
      <trkpt lat="43.50919" lon="1.47425">
        <ele>202.74583435</ele>
        <time>2018-09-09T07:25:46Z</time>
      </trkpt>
      <trkpt lat="43.50905" lon="1.47424">
        <ele>201.56442261</ele>
        <time>2018-09-09T07:25:48Z</time>
      </trkpt>
      <trkpt lat="43.50892" lon="1.47423">
        <ele>201.56442261</ele>
        <time>2018-09-09T07:25:50Z</time>
      </trkpt>
      <trkpt lat="43.5088" lon="1.47422">
        <ele>201.56442261</ele>
        <time>2018-09-09T07:25:52Z</time>
      </trkpt>
      <trkpt lat="43.50869" lon="1.4742">
        <ele>200.53138733</ele>
        <time>2018-09-09T07:25:54Z</time>
      </trkpt>
      <trkpt lat="43.50856" lon="1.47416">
        <ele>200.53138733</ele>
        <time>2018-09-09T07:25:56Z</time>
      </trkpt>
      <trkpt lat="43.50843" lon="1.47415">
        <ele>200.53138733</ele>
        <time>2018-09-09T07:25:58Z</time>
      </trkpt>
      <trkpt lat="43.50832" lon="1.47411">
        <ele>200.53138733</ele>
        <time>2018-09-09T07:26:01Z</time>
      </trkpt>
      <trkpt lat="43.50822" lon="1.47409">
        <ele>199.84121704</ele>
        <time>2018-09-09T07:26:04Z</time>
      </trkpt>
      <trkpt lat="43.50812" lon="1.47406">
        <ele>199.84121704</ele>
        <time>2018-09-09T07:26:06Z</time>
      </trkpt>
      <trkpt lat="43.508" lon="1.47401">
        <ele>199.84121704</ele>
        <time>2018-09-09T07:26:10Z</time>
      </trkpt>
      <trkpt lat="43.50792" lon="1.47401">
        <ele>199.84121704</ele>
        <time>2018-09-09T07:26:22Z</time>
      </trkpt>
      <trkpt lat="43.50803" lon="1.4741">
        <ele>199.84121704</ele>
        <time>2018-09-09T07:26:29Z</time>
      </trkpt>
      <trkpt lat="43.50815" lon="1.47414">
        <ele>199.84121704</ele>
        <time>2018-09-09T07:26:34Z</time>
      </trkpt>
      <trkpt lat="43.50829" lon="1.47418">
        <ele>199.84121704</ele>
        <time>2018-09-09T07:26:38Z</time>
      </trkpt>
      <trkpt lat="43.50843" lon="1.47421">
        <ele>199.84121704</ele>
        <time>2018-09-09T07:26:41Z</time>
      </trkpt>
      <trkpt lat="43.50857" lon="1.47424">
        <ele>199.84121704</ele>
        <time>2018-09-09T07:26:44Z</time>
      </trkpt>
      <trkpt lat="43.50871" lon="1.47427">
        <ele>200.05769348</ele>
        <time>2018-09-09T07:26:47Z</time>
      </trkpt>
      <trkpt lat="43.50884" lon="1.4743">
        <ele>200.05769348</ele>
        <time>2018-09-09T07:26:50Z</time>
      </trkpt>
      <trkpt lat="43.50898" lon="1.47433">
        <ele>200.05769348</ele>
        <time>2018-09-09T07:26:53Z</time>
      </trkpt>
      <trkpt lat="43.50913" lon="1.47437">
        <ele>200.05769348</ele>
        <time>2018-09-09T07:26:56Z</time>
      </trkpt>
      <trkpt lat="43.50925" lon="1.47445">
        <ele>202.79692078</ele>
        <time>2018-09-09T07:27:04Z</time>
      </trkpt>
      <trkpt lat="43.50931" lon="1.47446">
        <ele>202.79692078</ele>
        <time>2018-09-09T07:27:09Z</time>
      </trkpt>
      <trkpt lat="43.50946" lon="1.47435">
        <ele>202.79692078</ele>
        <time>2018-09-09T07:27:12Z</time>
      </trkpt>
      <trkpt lat="43.5096" lon="1.47421">
        <ele>202.79692078</ele>
        <time>2018-09-09T07:27:15Z</time>
      </trkpt>
      <trkpt lat="43.50971" lon="1.47409">
        <ele>202.41073608</ele>
        <time>2018-09-09T07:27:17Z</time>
      </trkpt>
      <trkpt lat="43.50982" lon="1.47396">
        <ele>202.41073608</ele>
        <time>2018-09-09T07:27:20Z</time>
      </trkpt>
      <trkpt lat="43.50991" lon="1.47382">
        <ele>202.41073608</ele>
        <time>2018-09-09T07:27:22Z</time>
      </trkpt>
      <trkpt lat="43.50999" lon="1.4737">
        <ele>202.41073608</ele>
        <time>2018-09-09T07:27:24Z</time>
      </trkpt>
      <trkpt lat="43.51006" lon="1.47358">
        <ele>202.41073608</ele>
        <time>2018-09-09T07:27:26Z</time>
      </trkpt>
      <trkpt lat="43.51017" lon="1.47347">
        <ele>202.41073608</ele>
        <time>2018-09-09T07:27:29Z</time>
      </trkpt>
      <trkpt lat="43.51028" lon="1.47331">
        <ele>202.41073608</ele>
        <time>2018-09-09T07:27:32Z</time>
      </trkpt>
      <trkpt lat="43.51038" lon="1.47316">
        <ele>202.41073608</ele>
        <time>2018-09-09T07:27:35Z</time>
      </trkpt>
      <trkpt lat="43.51046" lon="1.47297">
        <ele>202.18312073</ele>
        <time>2018-09-09T07:27:37Z</time>
      </trkpt>
      <trkpt lat="43.51056" lon="1.47282">
        <ele>202.18312073</ele>
        <time>2018-09-09T07:27:39Z</time>
      </trkpt>
      <trkpt lat="43.51064" lon="1.47267">
        <ele>202.18312073</ele>
        <time>2018-09-09T07:27:42Z</time>
      </trkpt>
      <trkpt lat="43.51072" lon="1.47253">
        <ele>202.18312073</ele>
        <time>2018-09-09T07:27:43Z</time>
      </trkpt>
      <trkpt lat="43.51079" lon="1.47239">
        <ele>202.18312073</ele>
        <time>2018-09-09T07:27:45Z</time>
      </trkpt>
      <trkpt lat="43.51087" lon="1.47227">
        <ele>202.18312073</ele>
        <time>2018-09-09T07:27:47Z</time>
      </trkpt>
      <trkpt lat="43.51094" lon="1.47213">
        <ele>202.18312073</ele>
        <time>2018-09-09T07:27:49Z</time>
      </trkpt>
      <trkpt lat="43.51104" lon="1.47199">
        <ele>202.18312073</ele>
        <time>2018-09-09T07:27:51Z</time>
      </trkpt>
      <trkpt lat="43.51111" lon="1.47183">
        <ele>202.18312073</ele>
        <time>2018-09-09T07:27:53Z</time>
      </trkpt>
      <trkpt lat="43.51119" lon="1.4717">
        <ele>202.18312073</ele>
        <time>2018-09-09T07:27:55Z</time>
      </trkpt>
      <trkpt lat="43.51127" lon="1.47156">
        <ele>202.18312073</ele>
        <time>2018-09-09T07:27:57Z</time>
      </trkpt>
      <trkpt lat="43.51133" lon="1.47141">
        <ele>202.18312073</ele>
        <time>2018-09-09T07:27:59Z</time>
      </trkpt>
      <trkpt lat="43.5114" lon="1.47125">
        <ele>202.18312073</ele>
        <time>2018-09-09T07:28:01Z</time>
      </trkpt>
      <trkpt lat="43.51147" lon="1.4711">
        <ele>202.18312073</ele>
        <time>2018-09-09T07:28:03Z</time>
      </trkpt>
      <trkpt lat="43.51149" lon="1.47106">
        <ele>202.70094299</ele>
        <time>2018-09-09T07:28:04Z</time>
      </trkpt>
      <trkpt lat="43.51155" lon="1.47095">
        <ele>202.70094299</ele>
        <time>2018-09-09T07:28:05Z</time>
      </trkpt>
      <trkpt lat="43.51162" lon="1.4708">
        <ele>202.70094299</ele>
        <time>2018-09-09T07:28:07Z</time>
      </trkpt>
      <trkpt lat="43.5117" lon="1.47063">
        <ele>202.70094299</ele>
        <time>2018-09-09T07:28:09Z</time>
      </trkpt>
      <trkpt lat="43.51184" lon="1.47035">
        <ele>202.70094299</ele>
        <time>2018-09-09T07:28:12Z</time>
      </trkpt>
      <trkpt lat="43.51188" lon="1.47019">
        <ele>202.70094299</ele>
        <time>2018-09-09T07:28:14Z</time>
      </trkpt>
      <trkpt lat="43.51193" lon="1.47004">
        <ele>202.70094299</ele>
        <time>2018-09-09T07:28:16Z</time>
      </trkpt>
      <trkpt lat="43.51201" lon="1.46989">
        <ele>202.70094299</ele>
        <time>2018-09-09T07:28:18Z</time>
      </trkpt>
      <trkpt lat="43.51207" lon="1.46974">
        <ele>202.70094299</ele>
        <time>2018-09-09T07:28:20Z</time>
      </trkpt>
      <trkpt lat="43.5121" lon="1.46959">
        <ele>202.70094299</ele>
        <time>2018-09-09T07:28:21Z</time>
      </trkpt>
      <trkpt lat="43.51215" lon="1.46947">
        <ele>202.59368896</ele>
        <time>2018-09-09T07:28:23Z</time>
      </trkpt>
      <trkpt lat="43.5122" lon="1.46931">
        <ele>202.59368896</ele>
        <time>2018-09-09T07:28:25Z</time>
      </trkpt>
      <trkpt lat="43.51224" lon="1.46913">
        <ele>202.59368896</ele>
        <time>2018-09-09T07:28:27Z</time>
      </trkpt>
      <trkpt lat="43.51226" lon="1.46893">
        <ele>202.59368896</ele>
        <time>2018-09-09T07:28:29Z</time>
      </trkpt>
      <trkpt lat="43.5123" lon="1.46875">
        <ele>202.59368896</ele>
        <time>2018-09-09T07:28:31Z</time>
      </trkpt>
      <trkpt lat="43.51233" lon="1.46856">
        <ele>202.59368896</ele>
        <time>2018-09-09T07:28:33Z</time>
      </trkpt>
      <trkpt lat="43.51234" lon="1.46841">
        <ele>202.59368896</ele>
        <time>2018-09-09T07:28:35Z</time>
      </trkpt>
      <trkpt lat="43.51237" lon="1.46827">
        <ele>202.59368896</ele>
        <time>2018-09-09T07:28:37Z</time>
      </trkpt>
      <trkpt lat="43.51238" lon="1.46811">
        <ele>202.59368896</ele>
        <time>2018-09-09T07:28:39Z</time>
      </trkpt>
      <trkpt lat="43.51238" lon="1.46794">
        <ele>202.59368896</ele>
        <time>2018-09-09T07:28:41Z</time>
      </trkpt>
      <trkpt lat="43.51239" lon="1.46779">
        <ele>202.59368896</ele>
        <time>2018-09-09T07:28:43Z</time>
      </trkpt>
      <trkpt lat="43.51241" lon="1.46763">
        <ele>202.59368896</ele>
        <time>2018-09-09T07:28:45Z</time>
      </trkpt>
      <trkpt lat="43.51242" lon="1.46748">
        <ele>202.59368896</ele>
        <time>2018-09-09T07:28:47Z</time>
      </trkpt>
      <trkpt lat="43.51245" lon="1.46732">
        <ele>202.59368896</ele>
        <time>2018-09-09T07:28:49Z</time>
      </trkpt>
      <trkpt lat="43.51249" lon="1.46717">
        <ele>202.59368896</ele>
        <time>2018-09-09T07:28:51Z</time>
      </trkpt>
      <trkpt lat="43.51255" lon="1.46701">
        <ele>202.59368896</ele>
        <time>2018-09-09T07:28:53Z</time>
      </trkpt>
      <trkpt lat="43.51262" lon="1.46685">
        <ele>202.59368896</ele>
        <time>2018-09-09T07:28:55Z</time>
      </trkpt>
      <trkpt lat="43.51268" lon="1.46669">
        <ele>202.59368896</ele>
        <time>2018-09-09T07:28:57Z</time>
      </trkpt>
      <trkpt lat="43.51275" lon="1.46655">
        <ele>202.59368896</ele>
        <time>2018-09-09T07:28:59Z</time>
      </trkpt>
      <trkpt lat="43.51282" lon="1.46642">
        <ele>202.59368896</ele>
        <time>2018-09-09T07:29:01Z</time>
      </trkpt>
      <trkpt lat="43.51288" lon="1.46628">
        <ele>201.95973206</ele>
        <time>2018-09-09T07:29:03Z</time>
      </trkpt>
      <trkpt lat="43.51288" lon="1.46624">
        <ele>202.7502594</ele>
        <time>2018-09-09T07:29:04Z</time>
      </trkpt>
      <trkpt lat="43.51293" lon="1.46613">
        <ele>202.7502594</ele>
        <time>2018-09-09T07:29:05Z</time>
      </trkpt>
      <trkpt lat="43.513" lon="1.46597">
        <ele>202.7502594</ele>
        <time>2018-09-09T07:29:07Z</time>
      </trkpt>
      <trkpt lat="43.51304" lon="1.46582">
        <ele>202.7502594</ele>
        <time>2018-09-09T07:29:08Z</time>
      </trkpt>
      <trkpt lat="43.51307" lon="1.46569">
        <ele>202.7502594</ele>
        <time>2018-09-09T07:29:11Z</time>
      </trkpt>
      <trkpt lat="43.51311" lon="1.46553">
        <ele>202.48013306</ele>
        <time>2018-09-09T07:29:12Z</time>
      </trkpt>
      <trkpt lat="43.51316" lon="1.46535">
        <ele>202.48013306</ele>
        <time>2018-09-09T07:29:14Z</time>
      </trkpt>
      <trkpt lat="43.51323" lon="1.46515">
        <ele>200.96643066</ele>
        <time>2018-09-09T07:29:16Z</time>
      </trkpt>
      <trkpt lat="43.51326" lon="1.46499">
        <ele>200.96643066</ele>
        <time>2018-09-09T07:29:17Z</time>
      </trkpt>
      <trkpt lat="43.51328" lon="1.46488">
        <ele>200.96643066</ele>
        <time>2018-09-09T07:29:18Z</time>
      </trkpt>
      <trkpt lat="43.51332" lon="1.46478">
        <ele>199.87945557</ele>
        <time>2018-09-09T07:29:19Z</time>
      </trkpt>
      <trkpt lat="43.51336" lon="1.46463">
        <ele>199.87945557</ele>
        <time>2018-09-09T07:29:21Z</time>
      </trkpt>
      <trkpt lat="43.51342" lon="1.46448">
        <ele>198.60443115</ele>
        <time>2018-09-09T07:29:22Z</time>
      </trkpt>
      <trkpt lat="43.51345" lon="1.46437">
        <ele>198.60443115</ele>
        <time>2018-09-09T07:29:23Z</time>
      </trkpt>
      <trkpt lat="43.5135" lon="1.46426">
        <ele>198.60443115</ele>
        <time>2018-09-09T07:29:24Z</time>
      </trkpt>
      <trkpt lat="43.51357" lon="1.46411">
        <ele>197.46192932</ele>
        <time>2018-09-09T07:29:26Z</time>
      </trkpt>
      <trkpt lat="43.51365" lon="1.46394">
        <ele>197.46192932</ele>
        <time>2018-09-09T07:29:27Z</time>
      </trkpt>
      <trkpt lat="43.51368" lon="1.46383">
        <ele>196.06797791</ele>
        <time>2018-09-09T07:29:28Z</time>
      </trkpt>
      <trkpt lat="43.5137" lon="1.46371">
        <ele>196.06797791</ele>
        <time>2018-09-09T07:29:29Z</time>
      </trkpt>
      <trkpt lat="43.51374" lon="1.46361">
        <ele>196.06797791</ele>
        <time>2018-09-09T07:29:30Z</time>
      </trkpt>
      <trkpt lat="43.51379" lon="1.46351">
        <ele>194.88801575</ele>
        <time>2018-09-09T07:29:31Z</time>
      </trkpt>
      <trkpt lat="43.51386" lon="1.46336">
        <ele>194.88801575</ele>
        <time>2018-09-09T07:29:33Z</time>
      </trkpt>
      <trkpt lat="43.51394" lon="1.46316">
        <ele>193.55503845</ele>
        <time>2018-09-09T07:29:34Z</time>
      </trkpt>
      <trkpt lat="43.51398" lon="1.46301">
        <ele>193.55503845</ele>
        <time>2018-09-09T07:29:35Z</time>
      </trkpt>
      <trkpt lat="43.514" lon="1.46287">
        <ele>193.55503845</ele>
        <time>2018-09-09T07:29:36Z</time>
      </trkpt>
      <trkpt lat="43.51404" lon="1.46275">
        <ele>192.11669922</ele>
        <time>2018-09-09T07:29:37Z</time>
      </trkpt>
      <trkpt lat="43.51408" lon="1.46261">
        <ele>192.11669922</ele>
        <time>2018-09-09T07:29:38Z</time>
      </trkpt>
      <trkpt lat="43.51411" lon="1.46249">
        <ele>192.11669922</ele>
        <time>2018-09-09T07:29:39Z</time>
      </trkpt>
      <trkpt lat="43.51416" lon="1.46227">
        <ele>192.11669922</ele>
        <time>2018-09-09T07:29:41Z</time>
      </trkpt>
      <trkpt lat="43.51413" lon="1.46212">
        <ele>192.11669922</ele>
        <time>2018-09-09T07:29:43Z</time>
      </trkpt>
      <trkpt lat="43.51402" lon="1.4621">
        <ele>191.21707153</ele>
        <time>2018-09-09T07:29:45Z</time>
      </trkpt>
      <trkpt lat="43.51386" lon="1.46221">
        <ele>189.60897827</ele>
        <time>2018-09-09T07:29:46Z</time>
      </trkpt>
      <trkpt lat="43.51372" lon="1.46228">
        <ele>189.60897827</ele>
        <time>2018-09-09T07:29:48Z</time>
      </trkpt>
      <trkpt lat="43.51354" lon="1.46228">
        <ele>188.52380371</ele>
        <time>2018-09-09T07:29:50Z</time>
      </trkpt>
      <trkpt lat="43.5134" lon="1.46225">
        <ele>188.52380371</ele>
        <time>2018-09-09T07:29:52Z</time>
      </trkpt>
      <trkpt lat="43.51327" lon="1.46223">
        <ele>188.52380371</ele>
        <time>2018-09-09T07:29:54Z</time>
      </trkpt>
      <trkpt lat="43.51316" lon="1.46219">
        <ele>188.52380371</ele>
        <time>2018-09-09T07:29:56Z</time>
      </trkpt>
      <trkpt lat="43.51304" lon="1.46215">
        <ele>188.52380371</ele>
        <time>2018-09-09T07:29:58Z</time>
      </trkpt>
      <trkpt lat="43.51292" lon="1.46209">
        <ele>188.52380371</ele>
        <time>2018-09-09T07:30:00Z</time>
      </trkpt>
      <trkpt lat="43.51279" lon="1.46203">
        <ele>188.52380371</ele>
        <time>2018-09-09T07:30:02Z</time>
      </trkpt>
      <trkpt lat="43.51271" lon="1.46197">
        <ele>187.19947815</ele>
        <time>2018-09-09T07:30:04Z</time>
      </trkpt>
      <trkpt lat="43.51262" lon="1.46191">
        <ele>187.19947815</ele>
        <time>2018-09-09T07:30:05Z</time>
      </trkpt>
      <trkpt lat="43.5125" lon="1.46188">
        <ele>187.19947815</ele>
        <time>2018-09-09T07:30:08Z</time>
      </trkpt>
      <trkpt lat="43.51238" lon="1.46183">
        <ele>186.55368042</ele>
        <time>2018-09-09T07:30:09Z</time>
      </trkpt>
      <trkpt lat="43.51226" lon="1.46177">
        <ele>186.55368042</ele>
        <time>2018-09-09T07:30:11Z</time>
      </trkpt>
      <trkpt lat="43.51216" lon="1.46172">
        <ele>186.55368042</ele>
        <time>2018-09-09T07:30:24Z</time>
      </trkpt>
      <trkpt lat="43.51207" lon="1.46163">
        <ele>186.55368042</ele>
        <time>2018-09-09T07:30:27Z</time>
      </trkpt>
      <trkpt lat="43.51195" lon="1.46155">
        <ele>185.8405304</ele>
        <time>2018-09-09T07:30:30Z</time>
      </trkpt>
      <trkpt lat="43.51181" lon="1.4615">
        <ele>185.8405304</ele>
        <time>2018-09-09T07:30:33Z</time>
      </trkpt>
      <trkpt lat="43.51168" lon="1.46145">
        <ele>185.8405304</ele>
        <time>2018-09-09T07:30:35Z</time>
      </trkpt>
      <trkpt lat="43.51157" lon="1.46142">
        <ele>185.8405304</ele>
        <time>2018-09-09T07:30:37Z</time>
      </trkpt>
      <trkpt lat="43.51147" lon="1.46137">
        <ele>185.8405304</ele>
        <time>2018-09-09T07:30:39Z</time>
      </trkpt>
      <trkpt lat="43.51136" lon="1.4613">
        <ele>185.8405304</ele>
        <time>2018-09-09T07:30:42Z</time>
      </trkpt>
      <trkpt lat="43.51123" lon="1.46122">
        <ele>185.8405304</ele>
        <time>2018-09-09T07:30:45Z</time>
      </trkpt>
      <trkpt lat="43.51114" lon="1.46112">
        <ele>185.8405304</ele>
        <time>2018-09-09T07:30:48Z</time>
      </trkpt>
      <trkpt lat="43.51117" lon="1.46098">
        <ele>185.8405304</ele>
        <time>2018-09-09T07:30:51Z</time>
      </trkpt>
      <trkpt lat="43.51123" lon="1.46084">
        <ele>185.8405304</ele>
        <time>2018-09-09T07:30:53Z</time>
      </trkpt>
      <trkpt lat="43.51127" lon="1.46072">
        <ele>185.8405304</ele>
        <time>2018-09-09T07:30:55Z</time>
      </trkpt>
      <trkpt lat="43.51131" lon="1.46059">
        <ele>184.48765564</ele>
        <time>2018-09-09T07:30:57Z</time>
      </trkpt>
      <trkpt lat="43.51137" lon="1.46043">
        <ele>184.48765564</ele>
        <time>2018-09-09T07:30:59Z</time>
      </trkpt>
      <trkpt lat="43.51142" lon="1.46028">
        <ele>183.15229797</ele>
        <time>2018-09-09T07:31:01Z</time>
      </trkpt>
      <trkpt lat="43.51148" lon="1.4601">
        <ele>181.95454407</ele>
        <time>2018-09-09T07:31:03Z</time>
      </trkpt>
      <trkpt lat="43.51149" lon="1.46005">
        <ele>181.53991699</ele>
        <time>2018-09-09T07:31:04Z</time>
      </trkpt>
      <trkpt lat="43.51154" lon="1.45991">
        <ele>181.53991699</ele>
        <time>2018-09-09T07:31:05Z</time>
      </trkpt>
      <trkpt lat="43.51159" lon="1.45976">
        <ele>180.68989563</ele>
        <time>2018-09-09T07:31:06Z</time>
      </trkpt>
      <trkpt lat="43.51162" lon="1.45965">
        <ele>180.68989563</ele>
        <time>2018-09-09T07:31:07Z</time>
      </trkpt>
      <trkpt lat="43.51167" lon="1.45951">
        <ele>179.27500916</ele>
        <time>2018-09-09T07:31:09Z</time>
      </trkpt>
      <trkpt lat="43.51173" lon="1.45935">
        <ele>178.11154175</ele>
        <time>2018-09-09T07:31:10Z</time>
      </trkpt>
      <trkpt lat="43.51181" lon="1.4591">
        <ele>177.10803223</ele>
        <time>2018-09-09T07:31:13Z</time>
      </trkpt>
      <trkpt lat="43.51188" lon="1.4589">
        <ele>176.02456665</ele>
        <time>2018-09-09T07:31:15Z</time>
      </trkpt>
      <trkpt lat="43.51194" lon="1.45875">
        <ele>175.10154724</ele>
        <time>2018-09-09T07:31:17Z</time>
      </trkpt>
      <trkpt lat="43.51198" lon="1.45863">
        <ele>175.10154724</ele>
        <time>2018-09-09T07:31:19Z</time>
      </trkpt>
      <trkpt lat="43.51191" lon="1.45855">
        <ele>174.10215759</ele>
        <time>2018-09-09T07:31:22Z</time>
      </trkpt>
      <trkpt lat="43.51178" lon="1.45847">
        <ele>173.20532227</ele>
        <time>2018-09-09T07:31:26Z</time>
      </trkpt>
      <trkpt lat="43.51164" lon="1.45841">
        <ele>173.20532227</ele>
        <time>2018-09-09T07:31:27Z</time>
      </trkpt>
      <trkpt lat="43.51149" lon="1.45836">
        <ele>171.95849609</ele>
        <time>2018-09-09T07:31:29Z</time>
      </trkpt>
      <trkpt lat="43.51135" lon="1.45831">
        <ele>169.66348267</ele>
        <time>2018-09-09T07:31:32Z</time>
      </trkpt>
      <trkpt lat="43.51122" lon="1.45824">
        <ele>169.66348267</ele>
        <time>2018-09-09T07:31:33Z</time>
      </trkpt>
      <trkpt lat="43.51109" lon="1.45817">
        <ele>169.66348267</ele>
        <time>2018-09-09T07:31:35Z</time>
      </trkpt>
      <trkpt lat="43.51098" lon="1.4581">
        <ele>169.66348267</ele>
        <time>2018-09-09T07:31:37Z</time>
      </trkpt>
      <trkpt lat="43.51079" lon="1.45786">
        <ele>169.348526</ele>
        <time>2018-09-09T07:31:43Z</time>
      </trkpt>
      <trkpt lat="43.51073" lon="1.45771">
        <ele>171.45046997</ele>
        <time>2018-09-09T07:31:46Z</time>
      </trkpt>
      <trkpt lat="43.5107" lon="1.45756">
        <ele>172.67880249</ele>
        <time>2018-09-09T07:31:48Z</time>
      </trkpt>
      <trkpt lat="43.51066" lon="1.45743">
        <ele>172.67880249</ele>
        <time>2018-09-09T07:31:50Z</time>
      </trkpt>
      <trkpt lat="43.51063" lon="1.45728">
        <ele>172.67880249</ele>
        <time>2018-09-09T07:31:52Z</time>
      </trkpt>
      <trkpt lat="43.51057" lon="1.45713">
        <ele>173.70483398</ele>
        <time>2018-09-09T07:31:54Z</time>
      </trkpt>
      <trkpt lat="43.51053" lon="1.45703">
        <ele>174.93553162</ele>
        <time>2018-09-09T07:31:57Z</time>
      </trkpt>
      <trkpt lat="43.51044" lon="1.4569">
        <ele>176.00360107</ele>
        <time>2018-09-09T07:32:00Z</time>
      </trkpt>
      <trkpt lat="43.51032" lon="1.45682">
        <ele>176.00360107</ele>
        <time>2018-09-09T07:32:03Z</time>
      </trkpt>
      <trkpt lat="43.51027" lon="1.4568">
        <ele>176.79322815</ele>
        <time>2018-09-09T07:32:04Z</time>
      </trkpt>
      <trkpt lat="43.51019" lon="1.45675">
        <ele>176.79322815</ele>
        <time>2018-09-09T07:32:06Z</time>
      </trkpt>
      <trkpt lat="43.51004" lon="1.45667">
        <ele>176.79322815</ele>
        <time>2018-09-09T07:32:09Z</time>
      </trkpt>
      <trkpt lat="43.50988" lon="1.45664">
        <ele>176.6834259</ele>
        <time>2018-09-09T07:32:11Z</time>
      </trkpt>
      <trkpt lat="43.50976" lon="1.45666">
        <ele>176.6834259</ele>
        <time>2018-09-09T07:32:13Z</time>
      </trkpt>
      <trkpt lat="43.50964" lon="1.45666">
        <ele>176.6834259</ele>
        <time>2018-09-09T07:32:15Z</time>
      </trkpt>
      <trkpt lat="43.50952" lon="1.45666">
        <ele>176.6834259</ele>
        <time>2018-09-09T07:32:17Z</time>
      </trkpt>
      <trkpt lat="43.5094" lon="1.45667">
        <ele>176.6834259</ele>
        <time>2018-09-09T07:32:20Z</time>
      </trkpt>
      <trkpt lat="43.50927" lon="1.45663">
        <ele>176.6834259</ele>
        <time>2018-09-09T07:32:23Z</time>
      </trkpt>
      <trkpt lat="43.50916" lon="1.45656">
        <ele>175.83366394</ele>
        <time>2018-09-09T07:32:27Z</time>
      </trkpt>
      <trkpt lat="43.50914" lon="1.4565">
        <ele>175.83366394</ele>
        <time>2018-09-09T07:32:36Z</time>
      </trkpt>
      <trkpt lat="43.50933" lon="1.45665">
        <ele>175.83366394</ele>
        <time>2018-09-09T07:32:39Z</time>
      </trkpt>
      <trkpt lat="43.50946" lon="1.45671">
        <ele>177.28474426</ele>
        <time>2018-09-09T07:32:42Z</time>
      </trkpt>
      <trkpt lat="43.50958" lon="1.45674">
        <ele>177.28474426</ele>
        <time>2018-09-09T07:32:44Z</time>
      </trkpt>
      <trkpt lat="43.50969" lon="1.45672">
        <ele>177.28474426</ele>
        <time>2018-09-09T07:32:47Z</time>
      </trkpt>
      <trkpt lat="43.50977" lon="1.45665">
        <ele>177.28474426</ele>
        <time>2018-09-09T07:32:54Z</time>
      </trkpt>
      <trkpt lat="43.50979" lon="1.45652">
        <ele>175.68267822</ele>
        <time>2018-09-09T07:32:58Z</time>
      </trkpt>
      <trkpt lat="43.50982" lon="1.45639">
        <ele>173.95483398</ele>
        <time>2018-09-09T07:33:01Z</time>
      </trkpt>
      <trkpt lat="43.5098" lon="1.45627">
        <ele>171.69804382</ele>
        <time>2018-09-09T07:33:04Z</time>
      </trkpt>
      <trkpt lat="43.50982" lon="1.45618">
        <ele>170.77522278</ele>
        <time>2018-09-09T07:33:06Z</time>
      </trkpt>
      <trkpt lat="43.50987" lon="1.45604">
        <ele>170.77522278</ele>
        <time>2018-09-09T07:33:08Z</time>
      </trkpt>
      <trkpt lat="43.50983" lon="1.45582">
        <ele>169.51940918</ele>
        <time>2018-09-09T07:33:16Z</time>
      </trkpt>
      <trkpt lat="43.50987" lon="1.45569">
        <ele>166.74467468</ele>
        <time>2018-09-09T07:33:20Z</time>
      </trkpt>
      <trkpt lat="43.50994" lon="1.45556">
        <ele>165.37408447</ele>
        <time>2018-09-09T07:33:22Z</time>
      </trkpt>
      <trkpt lat="43.51007" lon="1.45549">
        <ele>165.37408447</ele>
        <time>2018-09-09T07:33:24Z</time>
      </trkpt>
      <trkpt lat="43.51012" lon="1.45536">
        <ele>164.15794373</ele>
        <time>2018-09-09T07:33:26Z</time>
      </trkpt>
      <trkpt lat="43.5102" lon="1.4552">
        <ele>162.89001465</ele>
        <time>2018-09-09T07:33:28Z</time>
      </trkpt>
      <trkpt lat="43.51033" lon="1.45504">
        <ele>161.80114746</ele>
        <time>2018-09-09T07:33:30Z</time>
      </trkpt>
      <trkpt lat="43.51045" lon="1.45489">
        <ele>160.39633179</ele>
        <time>2018-09-09T07:33:32Z</time>
      </trkpt>
      <trkpt lat="43.51057" lon="1.45471">
        <ele>158.93551636</ele>
        <time>2018-09-09T07:33:34Z</time>
      </trkpt>
      <trkpt lat="43.51069" lon="1.45455">
        <ele>157.65359497</ele>
        <time>2018-09-09T07:33:36Z</time>
      </trkpt>
      <trkpt lat="43.51079" lon="1.45447">
        <ele>156.46472168</ele>
        <time>2018-09-09T07:33:39Z</time>
      </trkpt>
      <trkpt lat="43.51093" lon="1.45439">
        <ele>154.02973938</ele>
        <time>2018-09-09T07:33:42Z</time>
      </trkpt>
      <trkpt lat="43.51109" lon="1.45427">
        <ele>152.90455627</ele>
        <time>2018-09-09T07:33:44Z</time>
      </trkpt>
      <trkpt lat="43.5112" lon="1.45413">
        <ele>152.90455627</ele>
        <time>2018-09-09T07:33:45Z</time>
      </trkpt>
      <trkpt lat="43.51124" lon="1.45403">
        <ele>151.41036987</ele>
        <time>2018-09-09T07:33:46Z</time>
      </trkpt>
      <trkpt lat="43.5113" lon="1.45387">
        <ele>149.82917786</ele>
        <time>2018-09-09T07:33:48Z</time>
      </trkpt>
      <trkpt lat="43.5114" lon="1.45371">
        <ele>148.40124512</ele>
        <time>2018-09-09T07:33:49Z</time>
      </trkpt>
      <trkpt lat="43.51149" lon="1.45359">
        <ele>146.89596558</ele>
        <time>2018-09-09T07:33:51Z</time>
      </trkpt>
      <trkpt lat="43.51159" lon="1.45346">
        <ele>145.58163452</ele>
        <time>2018-09-09T07:33:53Z</time>
      </trkpt>
      <trkpt lat="43.5117" lon="1.45333">
        <ele>144.14405823</ele>
        <time>2018-09-09T07:33:56Z</time>
      </trkpt>
      <trkpt lat="43.51179" lon="1.4532">
        <ele>142.79191589</ele>
        <time>2018-09-09T07:33:58Z</time>
      </trkpt>
      <trkpt lat="43.5119" lon="1.45311">
        <ele>140.95608521</ele>
        <time>2018-09-09T07:34:00Z</time>
      </trkpt>
      <trkpt lat="43.51201" lon="1.453">
        <ele>137.23690796</ele>
        <time>2018-09-09T07:34:03Z</time>
      </trkpt>
      <trkpt lat="43.51206" lon="1.45295">
        <ele>136.78627014</ele>
        <time>2018-09-09T07:34:04Z</time>
      </trkpt>
      <trkpt lat="43.51215" lon="1.45287">
        <ele>135.59292603</ele>
        <time>2018-09-09T07:34:05Z</time>
      </trkpt>
      <trkpt lat="43.51227" lon="1.45274">
        <ele>133.90718079</ele>
        <time>2018-09-09T07:34:07Z</time>
      </trkpt>
      <trkpt lat="43.51241" lon="1.4526">
        <ele>133.90718079</ele>
        <time>2018-09-09T07:34:09Z</time>
      </trkpt>
      <trkpt lat="43.51252" lon="1.45248">
        <ele>132.59539795</ele>
        <time>2018-09-09T07:34:11Z</time>
      </trkpt>
      <trkpt lat="43.51262" lon="1.45236">
        <ele>132.59539795</ele>
        <time>2018-09-09T07:34:15Z</time>
      </trkpt>
      <trkpt lat="43.51272" lon="1.45225">
        <ele>132.59539795</ele>
        <time>2018-09-09T07:34:18Z</time>
      </trkpt>
      <trkpt lat="43.51276" lon="1.45212">
        <ele>132.59539795</ele>
        <time>2018-09-09T07:34:21Z</time>
      </trkpt>
      <trkpt lat="43.51277" lon="1.452">
        <ele>131.76933289</ele>
        <time>2018-09-09T07:34:23Z</time>
      </trkpt>
      <trkpt lat="43.5128" lon="1.45189">
        <ele>131.76933289</ele>
        <time>2018-09-09T07:34:26Z</time>
      </trkpt>
      <trkpt lat="43.51282" lon="1.45166">
        <ele>131.76933289</ele>
        <time>2018-09-09T07:34:27Z</time>
      </trkpt>
      <trkpt lat="43.51284" lon="1.45157">
        <ele>130.70198059</ele>
        <time>2018-09-09T07:34:29Z</time>
      </trkpt>
      <trkpt lat="43.51281" lon="1.45146">
        <ele>130.70198059</ele>
        <time>2018-09-09T07:34:32Z</time>
      </trkpt>
      <trkpt lat="43.51275" lon="1.45134">
        <ele>129.38484192</ele>
        <time>2018-09-09T07:34:35Z</time>
      </trkpt>
      <trkpt lat="43.51279" lon="1.45128">
        <ele>129.38484192</ele>
        <time>2018-09-09T07:34:41Z</time>
      </trkpt>
      <trkpt lat="43.51288" lon="1.45112">
        <ele>128.56489563</ele>
        <time>2018-09-09T07:34:43Z</time>
      </trkpt>
      <trkpt lat="43.51289" lon="1.45099">
        <ele>128.56489563</ele>
        <time>2018-09-09T07:34:45Z</time>
      </trkpt>
      <trkpt lat="43.51286" lon="1.45085">
        <ele>128.56489563</ele>
        <time>2018-09-09T07:34:47Z</time>
      </trkpt>
      <trkpt lat="43.51284" lon="1.45073">
        <ele>127.37839508</ele>
        <time>2018-09-09T07:34:49Z</time>
      </trkpt>
      <trkpt lat="43.51283" lon="1.45063">
        <ele>127.37839508</ele>
        <time>2018-09-09T07:34:52Z</time>
      </trkpt>
      <trkpt lat="43.51284" lon="1.45051">
        <ele>127.37839508</ele>
        <time>2018-09-09T07:34:55Z</time>
      </trkpt>
      <trkpt lat="43.51285" lon="1.45048">
        <ele>126.37883759</ele>
        <time>2018-09-09T07:35:04Z</time>
      </trkpt>
      <trkpt lat="43.51295" lon="1.4504">
        <ele>126.37883759</ele>
        <time>2018-09-09T07:35:08Z</time>
      </trkpt>
      <trkpt lat="43.51308" lon="1.45011">
        <ele>125.70803833</ele>
        <time>2018-09-09T07:35:13Z</time>
      </trkpt>
      <trkpt lat="43.5131" lon="1.44995">
        <ele>125.70803833</ele>
        <time>2018-09-09T07:35:14Z</time>
      </trkpt>
      <trkpt lat="43.51306" lon="1.4498">
        <ele>124.27672577</ele>
        <time>2018-09-09T07:35:16Z</time>
      </trkpt>
      <trkpt lat="43.51308" lon="1.44962">
        <ele>123.16731262</ele>
        <time>2018-09-09T07:35:18Z</time>
      </trkpt>
      <trkpt lat="43.5131" lon="1.44945">
        <ele>123.16731262</ele>
        <time>2018-09-09T07:35:19Z</time>
      </trkpt>
      <trkpt lat="43.51312" lon="1.44932">
        <ele>123.16731262</ele>
        <time>2018-09-09T07:35:20Z</time>
      </trkpt>
      <trkpt lat="43.51315" lon="1.44919">
        <ele>123.16731262</ele>
        <time>2018-09-09T07:35:21Z</time>
      </trkpt>
      <trkpt lat="43.51318" lon="1.44907">
        <ele>123.16731262</ele>
        <time>2018-09-09T07:35:22Z</time>
      </trkpt>
      <trkpt lat="43.5132" lon="1.44896">
        <ele>123.16731262</ele>
        <time>2018-09-09T07:35:23Z</time>
      </trkpt>
      <trkpt lat="43.51323" lon="1.4488">
        <ele>123.16731262</ele>
        <time>2018-09-09T07:35:25Z</time>
      </trkpt>
      <trkpt lat="43.51326" lon="1.44863">
        <ele>123.16731262</ele>
        <time>2018-09-09T07:35:26Z</time>
      </trkpt>
      <trkpt lat="43.51326" lon="1.44852">
        <ele>123.16731262</ele>
        <time>2018-09-09T07:35:27Z</time>
      </trkpt>
      <trkpt lat="43.51325" lon="1.44842">
        <ele>123.16731262</ele>
        <time>2018-09-09T07:35:29Z</time>
      </trkpt>
      <trkpt lat="43.51324" lon="1.44827">
        <ele>123.16731262</ele>
        <time>2018-09-09T07:35:31Z</time>
      </trkpt>
      <trkpt lat="43.51324" lon="1.44813">
        <ele>123.16731262</ele>
        <time>2018-09-09T07:35:33Z</time>
      </trkpt>
      <trkpt lat="43.51326" lon="1.44801">
        <ele>123.16731262</ele>
        <time>2018-09-09T07:35:35Z</time>
      </trkpt>
      <trkpt lat="43.51328" lon="1.44785">
        <ele>122.13054657</ele>
        <time>2018-09-09T07:35:37Z</time>
      </trkpt>
      <trkpt lat="43.51331" lon="1.44769">
        <ele>122.13054657</ele>
        <time>2018-09-09T07:35:39Z</time>
      </trkpt>
      <trkpt lat="43.51334" lon="1.44751">
        <ele>120.91692352</ele>
        <time>2018-09-09T07:35:41Z</time>
      </trkpt>
      <trkpt lat="43.51338" lon="1.44735">
        <ele>120.91692352</ele>
        <time>2018-09-09T07:35:43Z</time>
      </trkpt>
      <trkpt lat="43.51346" lon="1.44719">
        <ele>120.91692352</ele>
        <time>2018-09-09T07:35:45Z</time>
      </trkpt>
      <trkpt lat="43.51353" lon="1.44704">
        <ele>120.91692352</ele>
        <time>2018-09-09T07:35:47Z</time>
      </trkpt>
      <trkpt lat="43.51358" lon="1.44688">
        <ele>119.82559204</ele>
        <time>2018-09-09T07:35:49Z</time>
      </trkpt>
      <trkpt lat="43.51362" lon="1.44672">
        <ele>119.82559204</ele>
        <time>2018-09-09T07:35:51Z</time>
      </trkpt>
      <trkpt lat="43.51363" lon="1.44658">
        <ele>119.82559204</ele>
        <time>2018-09-09T07:35:52Z</time>
      </trkpt>
      <trkpt lat="43.51362" lon="1.44645">
        <ele>119.82559204</ele>
        <time>2018-09-09T07:35:54Z</time>
      </trkpt>
      <trkpt lat="43.5136" lon="1.44629">
        <ele>119.82559204</ele>
        <time>2018-09-09T07:35:56Z</time>
      </trkpt>
      <trkpt lat="43.5136" lon="1.44622">
        <ele>118.97669983</ele>
        <time>2018-09-09T07:36:04Z</time>
      </trkpt>
      <trkpt lat="43.51366" lon="1.44618">
        <ele>118.72437286</ele>
        <time>2018-09-09T07:36:20Z</time>
      </trkpt>
      <trkpt lat="43.51377" lon="1.44607">
        <ele>118.72437286</ele>
        <time>2018-09-09T07:36:24Z</time>
      </trkpt>
      <trkpt lat="43.51375" lon="1.44588">
        <ele>117.27708435</ele>
        <time>2018-09-09T07:36:26Z</time>
      </trkpt>
      <trkpt lat="43.51376" lon="1.44573">
        <ele>117.27708435</ele>
        <time>2018-09-09T07:36:28Z</time>
      </trkpt>
      <trkpt lat="43.51378" lon="1.44562">
        <ele>116.32180786</ele>
        <time>2018-09-09T07:36:31Z</time>
      </trkpt>
      <trkpt lat="43.51383" lon="1.44549">
        <ele>116.32180786</ele>
        <time>2018-09-09T07:36:33Z</time>
      </trkpt>
      <trkpt lat="43.51386" lon="1.44535">
        <ele>116.32180786</ele>
        <time>2018-09-09T07:36:35Z</time>
      </trkpt>
      <trkpt lat="43.51386" lon="1.44524">
        <ele>115.2434845</ele>
        <time>2018-09-09T07:36:38Z</time>
      </trkpt>
      <trkpt lat="43.51386" lon="1.44509">
        <ele>115.2434845</ele>
        <time>2018-09-09T07:36:39Z</time>
      </trkpt>
      <trkpt lat="43.51386" lon="1.44494">
        <ele>115.2434845</ele>
        <time>2018-09-09T07:36:41Z</time>
      </trkpt>
      <trkpt lat="43.5139" lon="1.44478">
        <ele>115.2434845</ele>
        <time>2018-09-09T07:36:43Z</time>
      </trkpt>
      <trkpt lat="43.51393" lon="1.44463">
        <ele>115.2434845</ele>
        <time>2018-09-09T07:36:45Z</time>
      </trkpt>
      <trkpt lat="43.51397" lon="1.44448">
        <ele>115.2434845</ele>
        <time>2018-09-09T07:36:47Z</time>
      </trkpt>
      <trkpt lat="43.51396" lon="1.44436">
        <ele>115.2434845</ele>
        <time>2018-09-09T07:36:49Z</time>
      </trkpt>
      <trkpt lat="43.51397" lon="1.44421">
        <ele>114.28323364</ele>
        <time>2018-09-09T07:36:51Z</time>
      </trkpt>
      <trkpt lat="43.51395" lon="1.44404">
        <ele>114.28323364</ele>
        <time>2018-09-09T07:36:53Z</time>
      </trkpt>
      <trkpt lat="43.51389" lon="1.44393">
        <ele>114.28323364</ele>
        <time>2018-09-09T07:36:55Z</time>
      </trkpt>
      <trkpt lat="43.5138" lon="1.44382">
        <ele>114.28323364</ele>
        <time>2018-09-09T07:37:02Z</time>
      </trkpt>
      <trkpt lat="43.5138" lon="1.44378">
        <ele>113.64395142</ele>
        <time>2018-09-09T07:37:04Z</time>
      </trkpt>
      <trkpt lat="43.51381" lon="1.44373">
        <ele>113.64395142</ele>
        <time>2018-09-09T07:37:23Z</time>
      </trkpt>
      <trkpt lat="43.51385" lon="1.44367">
        <ele>113.6144104</ele>
        <time>2018-09-09T07:37:42Z</time>
      </trkpt>
      <trkpt lat="43.514" lon="1.44357">
        <ele>113.6144104</ele>
        <time>2018-09-09T07:37:46Z</time>
      </trkpt>
      <trkpt lat="43.51407" lon="1.44342">
        <ele>113.6144104</ele>
        <time>2018-09-09T07:37:48Z</time>
      </trkpt>
      <trkpt lat="43.51411" lon="1.4433">
        <ele>112.27050781</ele>
        <time>2018-09-09T07:37:51Z</time>
      </trkpt>
      <trkpt lat="43.51414" lon="1.44314">
        <ele>112.27050781</ele>
        <time>2018-09-09T07:37:54Z</time>
      </trkpt>
      <trkpt lat="43.51415" lon="1.44299">
        <ele>112.27050781</ele>
        <time>2018-09-09T07:37:56Z</time>
      </trkpt>
      <trkpt lat="43.51414" lon="1.44286">
        <ele>112.27050781</ele>
        <time>2018-09-09T07:37:58Z</time>
      </trkpt>
      <trkpt lat="43.51416" lon="1.44272">
        <ele>111.10316467</ele>
        <time>2018-09-09T07:38:00Z</time>
      </trkpt>
      <trkpt lat="43.51424" lon="1.44254">
        <ele>111.10316467</ele>
        <time>2018-09-09T07:38:02Z</time>
      </trkpt>
      <trkpt lat="43.51429" lon="1.44243">
        <ele>110.22786713</ele>
        <time>2018-09-09T07:38:04Z</time>
      </trkpt>
      <trkpt lat="43.51434" lon="1.44235">
        <ele>110.22786713</ele>
        <time>2018-09-09T07:38:05Z</time>
      </trkpt>
      <trkpt lat="43.51439" lon="1.44224">
        <ele>110.22786713</ele>
        <time>2018-09-09T07:38:07Z</time>
      </trkpt>
      <trkpt lat="43.51444" lon="1.44214">
        <ele>110.22786713</ele>
        <time>2018-09-09T07:38:09Z</time>
      </trkpt>
      <trkpt lat="43.5145" lon="1.44201">
        <ele>109.47847748</ele>
        <time>2018-09-09T07:38:11Z</time>
      </trkpt>
      <trkpt lat="43.51453" lon="1.44186">
        <ele>109.47847748</ele>
        <time>2018-09-09T07:38:13Z</time>
      </trkpt>
      <trkpt lat="43.51455" lon="1.44168">
        <ele>109.47847748</ele>
        <time>2018-09-09T07:38:15Z</time>
      </trkpt>
      <trkpt lat="43.5146" lon="1.44156">
        <ele>109.47847748</ele>
        <time>2018-09-09T07:38:17Z</time>
      </trkpt>
      <trkpt lat="43.51465" lon="1.44144">
        <ele>109.47847748</ele>
        <time>2018-09-09T07:38:19Z</time>
      </trkpt>
      <trkpt lat="43.51467" lon="1.44132">
        <ele>109.47847748</ele>
        <time>2018-09-09T07:38:22Z</time>
      </trkpt>
      <trkpt lat="43.51473" lon="1.44122">
        <ele>109.47847748</ele>
        <time>2018-09-09T07:38:27Z</time>
      </trkpt>
      <trkpt lat="43.51476" lon="1.44108">
        <ele>109.06002808</ele>
        <time>2018-09-09T07:38:30Z</time>
      </trkpt>
      <trkpt lat="43.51479" lon="1.44096">
        <ele>111.16607666</ele>
        <time>2018-09-09T07:38:33Z</time>
      </trkpt>
      <trkpt lat="43.51481" lon="1.44082">
        <ele>112.46150208</ele>
        <time>2018-09-09T07:38:36Z</time>
      </trkpt>
      <trkpt lat="43.51479" lon="1.4407">
        <ele>114.82092285</ele>
        <time>2018-09-09T07:38:40Z</time>
      </trkpt>
      <trkpt lat="43.51471" lon="1.44059">
        <ele>117.21699524</ele>
        <time>2018-09-09T07:38:44Z</time>
      </trkpt>
      <trkpt lat="43.51465" lon="1.44048">
        <ele>120.02638245</ele>
        <time>2018-09-09T07:38:48Z</time>
      </trkpt>
      <trkpt lat="43.51463" lon="1.44037">
        <ele>121.48908997</ele>
        <time>2018-09-09T07:38:51Z</time>
      </trkpt>
      <trkpt lat="43.5146" lon="1.44027">
        <ele>124.36984253</ele>
        <time>2018-09-09T07:38:54Z</time>
      </trkpt>
      <trkpt lat="43.51461" lon="1.44013">
        <ele>125.52518463</ele>
        <time>2018-09-09T07:38:57Z</time>
      </trkpt>
      <trkpt lat="43.51465" lon="1.44003">
        <ele>126.76294708</ele>
        <time>2018-09-09T07:39:01Z</time>
      </trkpt>
      <trkpt lat="43.5146" lon="1.43993">
        <ele>128.42572021</ele>
        <time>2018-09-09T07:39:04Z</time>
      </trkpt>
      <trkpt lat="43.5145" lon="1.43988">
        <ele>129.19659424</ele>
        <time>2018-09-09T07:39:08Z</time>
      </trkpt>
      <trkpt lat="43.51439" lon="1.43982">
        <ele>130.41772461</ele>
        <time>2018-09-09T07:39:13Z</time>
      </trkpt>
      <trkpt lat="43.51428" lon="1.43979">
        <ele>131.67384338</ele>
        <time>2018-09-09T07:39:16Z</time>
      </trkpt>
      <trkpt lat="43.51417" lon="1.43976">
        <ele>134.1020813</ele>
        <time>2018-09-09T07:39:20Z</time>
      </trkpt>
      <trkpt lat="43.51405" lon="1.43972">
        <ele>135.20823669</ele>
        <time>2018-09-09T07:39:24Z</time>
      </trkpt>
      <trkpt lat="43.51394" lon="1.43966">
        <ele>136.25152588</ele>
        <time>2018-09-09T07:39:28Z</time>
      </trkpt>
      <trkpt lat="43.51382" lon="1.43959">
        <ele>137.34890747</ele>
        <time>2018-09-09T07:39:32Z</time>
      </trkpt>
      <trkpt lat="43.51371" lon="1.43952">
        <ele>139.85372925</ele>
        <time>2018-09-09T07:39:37Z</time>
      </trkpt>
      <trkpt lat="43.51347" lon="1.43943">
        <ele>142.05175781</ele>
        <time>2018-09-09T07:39:44Z</time>
      </trkpt>
      <trkpt lat="43.51336" lon="1.43938">
        <ele>143.12869263</ele>
        <time>2018-09-09T07:39:48Z</time>
      </trkpt>
      <trkpt lat="43.51325" lon="1.43934">
        <ele>145.52374268</ele>
        <time>2018-09-09T07:39:52Z</time>
      </trkpt>
      <trkpt lat="43.51314" lon="1.43929">
        <ele>146.79821777</ele>
        <time>2018-09-09T07:39:56Z</time>
      </trkpt>
      <trkpt lat="43.51303" lon="1.43922">
        <ele>148.06044006</ele>
        <time>2018-09-09T07:40:00Z</time>
      </trkpt>
      <trkpt lat="43.51292" lon="1.43915">
        <ele>149.32792664</ele>
        <time>2018-09-09T07:40:03Z</time>
      </trkpt>
      <trkpt lat="43.51289" lon="1.43912">
        <ele>150.37295532</ele>
        <time>2018-09-09T07:40:04Z</time>
      </trkpt>
      <trkpt lat="43.51283" lon="1.43906">
        <ele>151.34107971</ele>
        <time>2018-09-09T07:40:07Z</time>
      </trkpt>
      <trkpt lat="43.51275" lon="1.43895">
        <ele>152.36166382</ele>
        <time>2018-09-09T07:40:11Z</time>
      </trkpt>
      <trkpt lat="43.51265" lon="1.43885">
        <ele>154.47541809</ele>
        <time>2018-09-09T07:40:16Z</time>
      </trkpt>
      <trkpt lat="43.51256" lon="1.43874">
        <ele>155.58972168</ele>
        <time>2018-09-09T07:40:19Z</time>
      </trkpt>
      <trkpt lat="43.51249" lon="1.43863">
        <ele>156.6894989</ele>
        <time>2018-09-09T07:40:23Z</time>
      </trkpt>
      <trkpt lat="43.5124" lon="1.43851">
        <ele>159.20782471</ele>
        <time>2018-09-09T07:40:27Z</time>
      </trkpt>
      <trkpt lat="43.51231" lon="1.4384">
        <ele>161.60682678</ele>
        <time>2018-09-09T07:40:32Z</time>
      </trkpt>
      <trkpt lat="43.51221" lon="1.4383">
        <ele>164.88876343</ele>
        <time>2018-09-09T07:40:37Z</time>
      </trkpt>
      <trkpt lat="43.51209" lon="1.43821">
        <ele>166.13189697</ele>
        <time>2018-09-09T07:40:41Z</time>
      </trkpt>
      <trkpt lat="43.51198" lon="1.43812">
        <ele>168.99525452</ele>
        <time>2018-09-09T07:40:46Z</time>
      </trkpt>
      <trkpt lat="43.51187" lon="1.43802">
        <ele>171.32131958</ele>
        <time>2018-09-09T07:40:50Z</time>
      </trkpt>
      <trkpt lat="43.51175" lon="1.43792">
        <ele>172.41986084</ele>
        <time>2018-09-09T07:40:53Z</time>
      </trkpt>
      <trkpt lat="43.51165" lon="1.43786">
        <ele>175.9969635</ele>
        <time>2018-09-09T07:40:59Z</time>
      </trkpt>
      <trkpt lat="43.51152" lon="1.43781">
        <ele>177.07606506</ele>
        <time>2018-09-09T07:41:03Z</time>
      </trkpt>
      <trkpt lat="43.51149" lon="1.4378">
        <ele>177.51387024</ele>
        <time>2018-09-09T07:41:04Z</time>
      </trkpt>
      <trkpt lat="43.51143" lon="1.43777">
        <ele>177.51387024</ele>
        <time>2018-09-09T07:41:08Z</time>
      </trkpt>
      <trkpt lat="43.51131" lon="1.43774">
        <ele>177.51387024</ele>
        <time>2018-09-09T07:41:14Z</time>
      </trkpt>
      <trkpt lat="43.5112" lon="1.43772">
        <ele>178.26324463</ele>
        <time>2018-09-09T07:42:30Z</time>
      </trkpt>
      <trkpt lat="43.51122" lon="1.43777">
        <ele>178.26324463</ele>
        <time>2018-09-09T07:42:37Z</time>
      </trkpt>
      <trkpt lat="43.51101" lon="1.43775">
        <ele>178.21340942</ele>
        <time>2018-09-09T07:42:40Z</time>
      </trkpt>
      <trkpt lat="43.51088" lon="1.43767">
        <ele>175.01333618</ele>
        <time>2018-09-09T07:42:43Z</time>
      </trkpt>
      <trkpt lat="43.51075" lon="1.43757">
        <ele>173.38023376</ele>
        <time>2018-09-09T07:42:45Z</time>
      </trkpt>
      <trkpt lat="43.51059" lon="1.43746">
        <ele>171.3604126</ele>
        <time>2018-09-09T07:42:47Z</time>
      </trkpt>
      <trkpt lat="43.51043" lon="1.43735">
        <ele>168.04270935</ele>
        <time>2018-09-09T07:42:49Z</time>
      </trkpt>
      <trkpt lat="43.51024" lon="1.4372">
        <ele>165.06347656</ele>
        <time>2018-09-09T07:42:51Z</time>
      </trkpt>
      <trkpt lat="43.51004" lon="1.43706">
        <ele>162.20817566</ele>
        <time>2018-09-09T07:42:53Z</time>
      </trkpt>
      <trkpt lat="43.50989" lon="1.43694">
        <ele>161.1255188</ele>
        <time>2018-09-09T07:42:54Z</time>
      </trkpt>
      <trkpt lat="43.50979" lon="1.43688">
        <ele>160.09761047</ele>
        <time>2018-09-09T07:42:55Z</time>
      </trkpt>
      <trkpt lat="43.50964" lon="1.43679">
        <ele>159.08561707</ele>
        <time>2018-09-09T07:42:57Z</time>
      </trkpt>
      <trkpt lat="43.50947" lon="1.43663">
        <ele>157.73272705</ele>
        <time>2018-09-09T07:42:59Z</time>
      </trkpt>
      <trkpt lat="43.50938" lon="1.43646">
        <ele>156.32513428</ele>
        <time>2018-09-09T07:43:00Z</time>
      </trkpt>
      <trkpt lat="43.50943" lon="1.43629">
        <ele>156.32513428</ele>
        <time>2018-09-09T07:43:01Z</time>
      </trkpt>
      <trkpt lat="43.50945" lon="1.43615">
        <ele>155.13565063</ele>
        <time>2018-09-09T07:43:02Z</time>
      </trkpt>
      <trkpt lat="43.5095" lon="1.436">
        <ele>155.13565063</ele>
        <time>2018-09-09T07:43:03Z</time>
      </trkpt>
      <trkpt lat="43.50959" lon="1.43575">
        <ele>153.0035553</ele>
        <time>2018-09-09T07:43:05Z</time>
      </trkpt>
      <trkpt lat="43.50961" lon="1.43561">
        <ele>153.0035553</ele>
        <time>2018-09-09T07:43:06Z</time>
      </trkpt>
      <trkpt lat="43.50963" lon="1.43547">
        <ele>151.61572266</ele>
        <time>2018-09-09T07:43:07Z</time>
      </trkpt>
      <trkpt lat="43.50966" lon="1.43534">
        <ele>151.61572266</ele>
        <time>2018-09-09T07:43:08Z</time>
      </trkpt>
      <trkpt lat="43.50967" lon="1.43523">
        <ele>151.61572266</ele>
        <time>2018-09-09T07:43:09Z</time>
      </trkpt>
      <trkpt lat="43.50968" lon="1.43512">
        <ele>150.4790802</ele>
        <time>2018-09-09T07:43:11Z</time>
      </trkpt>
      <trkpt lat="43.50961" lon="1.43505">
        <ele>150.4790802</ele>
        <time>2018-09-09T07:43:13Z</time>
      </trkpt>
      <trkpt lat="43.50947" lon="1.43503">
        <ele>149.25061035</ele>
        <time>2018-09-09T07:43:15Z</time>
      </trkpt>
      <trkpt lat="43.50937" lon="1.435">
        <ele>149.25061035</ele>
        <time>2018-09-09T07:43:17Z</time>
      </trkpt>
      <trkpt lat="43.50925" lon="1.43496">
        <ele>149.25061035</ele>
        <time>2018-09-09T07:43:20Z</time>
      </trkpt>
      <trkpt lat="43.50913" lon="1.43489">
        <ele>149.25061035</ele>
        <time>2018-09-09T07:43:23Z</time>
      </trkpt>
      <trkpt lat="43.50901" lon="1.43482">
        <ele>149.25061035</ele>
        <time>2018-09-09T07:43:26Z</time>
      </trkpt>
      <trkpt lat="43.5089" lon="1.43477">
        <ele>149.25061035</ele>
        <time>2018-09-09T07:43:30Z</time>
      </trkpt>
      <trkpt lat="43.5088" lon="1.4347">
        <ele>149.25061035</ele>
        <time>2018-09-09T07:43:32Z</time>
      </trkpt>
      <trkpt lat="43.50869" lon="1.43462">
        <ele>149.25061035</ele>
        <time>2018-09-09T07:43:35Z</time>
      </trkpt>
      <trkpt lat="43.5086" lon="1.43459">
        <ele>149.25061035</ele>
        <time>2018-09-09T07:43:38Z</time>
      </trkpt>
      <trkpt lat="43.50848" lon="1.43452">
        <ele>148.78929138</ele>
        <time>2018-09-09T07:43:42Z</time>
      </trkpt>
      <trkpt lat="43.50835" lon="1.43448">
        <ele>150.80831909</ele>
        <time>2018-09-09T07:43:45Z</time>
      </trkpt>
      <trkpt lat="43.50824" lon="1.43442">
        <ele>151.88587952</ele>
        <time>2018-09-09T07:43:49Z</time>
      </trkpt>
      <trkpt lat="43.50811" lon="1.43434">
        <ele>153.08149719</ele>
        <time>2018-09-09T07:43:52Z</time>
      </trkpt>
      <trkpt lat="43.50801" lon="1.43425">
        <ele>154.59432983</ele>
        <time>2018-09-09T07:43:56Z</time>
      </trkpt>
      <trkpt lat="43.50801" lon="1.43413">
        <ele>155.94154358</ele>
        <time>2018-09-09T07:43:59Z</time>
      </trkpt>
      <trkpt lat="43.50794" lon="1.43403">
        <ele>158.23710632</ele>
        <time>2018-09-09T07:44:03Z</time>
      </trkpt>
      <trkpt lat="43.50786" lon="1.43399">
        <ele>158.64604187</ele>
        <time>2018-09-09T07:44:04Z</time>
      </trkpt>
      <trkpt lat="43.50779" lon="1.43397">
        <ele>159.49186707</ele>
        <time>2018-09-09T07:44:06Z</time>
      </trkpt>
      <trkpt lat="43.50756" lon="1.43395">
        <ele>160.62635803</ele>
        <time>2018-09-09T07:44:13Z</time>
      </trkpt>
      <trkpt lat="43.50745" lon="1.43392">
        <ele>161.72825623</ele>
        <time>2018-09-09T07:44:16Z</time>
      </trkpt>
      <trkpt lat="43.50734" lon="1.43389">
        <ele>162.84854126</ele>
        <time>2018-09-09T07:44:19Z</time>
      </trkpt>
      <trkpt lat="43.50724" lon="1.43385">
        <ele>162.84854126</ele>
        <time>2018-09-09T07:44:23Z</time>
      </trkpt>
      <trkpt lat="43.50714" lon="1.43382">
        <ele>163.95378113</ele>
        <time>2018-09-09T07:44:25Z</time>
      </trkpt>
      <trkpt lat="43.50703" lon="1.43376">
        <ele>163.95378113</ele>
        <time>2018-09-09T07:44:29Z</time>
      </trkpt>
      <trkpt lat="43.50691" lon="1.43369">
        <ele>163.95378113</ele>
        <time>2018-09-09T07:44:32Z</time>
      </trkpt>
      <trkpt lat="43.50679" lon="1.43362">
        <ele>163.95378113</ele>
        <time>2018-09-09T07:44:37Z</time>
      </trkpt>
      <trkpt lat="43.50668" lon="1.43361">
        <ele>163.95378113</ele>
        <time>2018-09-09T07:44:39Z</time>
      </trkpt>
      <trkpt lat="43.50659" lon="1.4337">
        <ele>163.95378113</ele>
        <time>2018-09-09T07:44:42Z</time>
      </trkpt>
      <trkpt lat="43.50654" lon="1.43384">
        <ele>163.95378113</ele>
        <time>2018-09-09T07:44:44Z</time>
      </trkpt>
      <trkpt lat="43.50651" lon="1.43397">
        <ele>163.95378113</ele>
        <time>2018-09-09T07:44:47Z</time>
      </trkpt>
      <trkpt lat="43.50648" lon="1.4341">
        <ele>163.95378113</ele>
        <time>2018-09-09T07:44:49Z</time>
      </trkpt>
      <trkpt lat="43.50645" lon="1.43422">
        <ele>163.95378113</ele>
        <time>2018-09-09T07:44:51Z</time>
      </trkpt>
      <trkpt lat="43.50642" lon="1.43433">
        <ele>163.95378113</ele>
        <time>2018-09-09T07:44:53Z</time>
      </trkpt>
      <trkpt lat="43.50638" lon="1.43445">
        <ele>163.95378113</ele>
        <time>2018-09-09T07:44:55Z</time>
      </trkpt>
      <trkpt lat="43.50633" lon="1.43459">
        <ele>163.95378113</ele>
        <time>2018-09-09T07:44:57Z</time>
      </trkpt>
      <trkpt lat="43.50631" lon="1.43469">
        <ele>163.95378113</ele>
        <time>2018-09-09T07:45:00Z</time>
      </trkpt>
      <trkpt lat="43.50625" lon="1.4348">
        <ele>163.95378113</ele>
        <time>2018-09-09T07:45:03Z</time>
      </trkpt>
      <trkpt lat="43.50623" lon="1.43484">
        <ele>164.64555359</ele>
        <time>2018-09-09T07:45:04Z</time>
      </trkpt>
      <trkpt lat="43.50621" lon="1.43493">
        <ele>164.64555359</ele>
        <time>2018-09-09T07:45:06Z</time>
      </trkpt>
      <trkpt lat="43.50617" lon="1.43508">
        <ele>164.64555359</ele>
        <time>2018-09-09T07:45:08Z</time>
      </trkpt>
      <trkpt lat="43.50613" lon="1.43519">
        <ele>163.77305603</ele>
        <time>2018-09-09T07:45:11Z</time>
      </trkpt>
      <trkpt lat="43.50605" lon="1.43525">
        <ele>163.77305603</ele>
        <time>2018-09-09T07:45:13Z</time>
      </trkpt>
      <trkpt lat="43.50594" lon="1.43527">
        <ele>163.77305603</ele>
        <time>2018-09-09T07:45:18Z</time>
      </trkpt>
      <trkpt lat="43.50583" lon="1.43528">
        <ele>163.77305603</ele>
        <time>2018-09-09T07:45:24Z</time>
      </trkpt>
      <trkpt lat="43.50571" lon="1.4353">
        <ele>163.77305603</ele>
        <time>2018-09-09T07:45:31Z</time>
      </trkpt>
      <trkpt lat="43.50559" lon="1.43535">
        <ele>162.56848145</ele>
        <time>2018-09-09T07:45:35Z</time>
      </trkpt>
      <trkpt lat="43.50552" lon="1.43547">
        <ele>162.56848145</ele>
        <time>2018-09-09T07:45:37Z</time>
      </trkpt>
      <trkpt lat="43.50549" lon="1.4356">
        <ele>161.19177246</ele>
        <time>2018-09-09T07:45:39Z</time>
      </trkpt>
      <trkpt lat="43.50539" lon="1.43569">
        <ele>160.04161072</ele>
        <time>2018-09-09T07:45:42Z</time>
      </trkpt>
      <trkpt lat="43.50525" lon="1.43563">
        <ele>160.04161072</ele>
        <time>2018-09-09T07:45:44Z</time>
      </trkpt>
      <trkpt lat="43.50514" lon="1.43555">
        <ele>158.76312256</ele>
        <time>2018-09-09T07:45:46Z</time>
      </trkpt>
      <trkpt lat="43.50502" lon="1.43544">
        <ele>157.27865601</ele>
        <time>2018-09-09T07:45:48Z</time>
      </trkpt>
      <trkpt lat="43.50489" lon="1.43534">
        <ele>155.79507446</ele>
        <time>2018-09-09T07:45:50Z</time>
      </trkpt>
      <trkpt lat="43.50475" lon="1.43524">
        <ele>154.30352783</ele>
        <time>2018-09-09T07:45:52Z</time>
      </trkpt>
      <trkpt lat="43.5046" lon="1.43514">
        <ele>152.83132935</ele>
        <time>2018-09-09T07:45:54Z</time>
      </trkpt>
      <trkpt lat="43.50444" lon="1.43504">
        <ele>151.50094604</ele>
        <time>2018-09-09T07:45:56Z</time>
      </trkpt>
      <trkpt lat="43.50429" lon="1.43496">
        <ele>150.29492188</ele>
        <time>2018-09-09T07:45:58Z</time>
      </trkpt>
      <trkpt lat="43.50417" lon="1.43485">
        <ele>149.31109619</ele>
        <time>2018-09-09T07:46:00Z</time>
      </trkpt>
      <trkpt lat="43.50405" lon="1.43487">
        <ele>146.75521851</ele>
        <time>2018-09-09T07:46:03Z</time>
      </trkpt>
      <trkpt lat="43.504" lon="1.43493">
        <ele>145.32946777</ele>
        <time>2018-09-09T07:46:04Z</time>
      </trkpt>
      <trkpt lat="43.50389" lon="1.43502">
        <ele>143.78564453</ele>
        <time>2018-09-09T07:46:05Z</time>
      </trkpt>
      <trkpt lat="43.50373" lon="1.43511">
        <ele>140.54885864</ele>
        <time>2018-09-09T07:46:07Z</time>
      </trkpt>
      <trkpt lat="43.50357" lon="1.43516">
        <ele>136.88256836</ele>
        <time>2018-09-09T07:46:09Z</time>
      </trkpt>
      <trkpt lat="43.50341" lon="1.43521">
        <ele>132.82185364</ele>
        <time>2018-09-09T07:46:11Z</time>
      </trkpt>
      <trkpt lat="43.50325" lon="1.43526">
        <ele>128.43386841</ele>
        <time>2018-09-09T07:46:13Z</time>
      </trkpt>
      <trkpt lat="43.50308" lon="1.43528">
        <ele>124.07216644</ele>
        <time>2018-09-09T07:46:15Z</time>
      </trkpt>
      <trkpt lat="43.5029" lon="1.43527">
        <ele>120.03629303</ele>
        <time>2018-09-09T07:46:17Z</time>
      </trkpt>
      <trkpt lat="43.50272" lon="1.43518">
        <ele>116.58925629</ele>
        <time>2018-09-09T07:46:19Z</time>
      </trkpt>
      <trkpt lat="43.50258" lon="1.43512">
        <ele>113.64305115</ele>
        <time>2018-09-09T07:46:21Z</time>
      </trkpt>
      <trkpt lat="43.50246" lon="1.43503">
        <ele>111.29837036</ele>
        <time>2018-09-09T07:46:23Z</time>
      </trkpt>
      <trkpt lat="43.50243" lon="1.43486">
        <ele>109.86759949</ele>
        <time>2018-09-09T07:46:25Z</time>
      </trkpt>
      <trkpt lat="43.50245" lon="1.4347">
        <ele>109.86759949</ele>
        <time>2018-09-09T07:46:26Z</time>
      </trkpt>
      <trkpt lat="43.50245" lon="1.43448">
        <ele>108.10269165</ele>
        <time>2018-09-09T07:46:28Z</time>
      </trkpt>
      <trkpt lat="43.50244" lon="1.43438">
        <ele>106.51130676</ele>
        <time>2018-09-09T07:46:29Z</time>
      </trkpt>
      <trkpt lat="43.50243" lon="1.43423">
        <ele>105.30921936</ele>
        <time>2018-09-09T07:46:31Z</time>
      </trkpt>
      <trkpt lat="43.50241" lon="1.43405">
        <ele>105.30921936</ele>
        <time>2018-09-09T07:46:33Z</time>
      </trkpt>
      <trkpt lat="43.50239" lon="1.43394">
        <ele>104.2983017</ele>
        <time>2018-09-09T07:46:37Z</time>
      </trkpt>
      <trkpt lat="43.50237" lon="1.43392">
        <ele>104.2983017</ele>
        <time>2018-09-09T07:47:01Z</time>
      </trkpt>
      <trkpt lat="43.50226" lon="1.43402">
        <ele>102.78157806</ele>
        <time>2018-09-09T07:47:04Z</time>
      </trkpt>
      <trkpt lat="43.50219" lon="1.43412">
        <ele>102.12451172</ele>
        <time>2018-09-09T07:47:07Z</time>
      </trkpt>
      <trkpt lat="43.50208" lon="1.43429">
        <ele>100.66452026</ele>
        <time>2018-09-09T07:47:09Z</time>
      </trkpt>
      <trkpt lat="43.5019" lon="1.43458">
        <ele>99.39933014</ele>
        <time>2018-09-09T07:47:13Z</time>
      </trkpt>
      <trkpt lat="43.50181" lon="1.43472">
        <ele>98.16397858</ele>
        <time>2018-09-09T07:47:15Z</time>
      </trkpt>
      <trkpt lat="43.50171" lon="1.43484">
        <ele>98.16397858</ele>
        <time>2018-09-09T07:47:17Z</time>
      </trkpt>
      <trkpt lat="43.50163" lon="1.43497">
        <ele>98.16397858</ele>
        <time>2018-09-09T07:47:19Z</time>
      </trkpt>
      <trkpt lat="43.50153" lon="1.4351">
        <ele>97.21005249</ele>
        <time>2018-09-09T07:47:21Z</time>
      </trkpt>
      <trkpt lat="43.5014" lon="1.43517">
        <ele>97.21005249</ele>
        <time>2018-09-09T07:47:23Z</time>
      </trkpt>
      <trkpt lat="43.50129" lon="1.43513">
        <ele>97.21005249</ele>
        <time>2018-09-09T07:47:26Z</time>
      </trkpt>
      <trkpt lat="43.50116" lon="1.43507">
        <ele>97.21005249</ele>
        <time>2018-09-09T07:47:28Z</time>
      </trkpt>
      <trkpt lat="43.50103" lon="1.43503">
        <ele>97.1951828</ele>
        <time>2018-09-09T07:47:31Z</time>
      </trkpt>
      <trkpt lat="43.50092" lon="1.43499">
        <ele>98.64653015</ele>
        <time>2018-09-09T07:47:34Z</time>
      </trkpt>
      <trkpt lat="43.5008" lon="1.43492">
        <ele>99.66888428</ele>
        <time>2018-09-09T07:47:37Z</time>
      </trkpt>
      <trkpt lat="43.50067" lon="1.43484">
        <ele>100.79994965</ele>
        <time>2018-09-09T07:47:40Z</time>
      </trkpt>
      <trkpt lat="43.50055" lon="1.43478">
        <ele>100.79994965</ele>
        <time>2018-09-09T07:47:42Z</time>
      </trkpt>
      <trkpt lat="43.50042" lon="1.43474">
        <ele>102.11756897</ele>
        <time>2018-09-09T07:47:45Z</time>
      </trkpt>
      <trkpt lat="43.50029" lon="1.4347">
        <ele>103.39130402</ele>
        <time>2018-09-09T07:47:48Z</time>
      </trkpt>
      <trkpt lat="43.50016" lon="1.43462">
        <ele>104.72665405</ele>
        <time>2018-09-09T07:47:51Z</time>
      </trkpt>
      <trkpt lat="43.50004" lon="1.43456">
        <ele>106.02272034</ele>
        <time>2018-09-09T07:47:54Z</time>
      </trkpt>
      <trkpt lat="43.49992" lon="1.43451">
        <ele>107.25967407</ele>
        <time>2018-09-09T07:47:57Z</time>
      </trkpt>
      <trkpt lat="43.49981" lon="1.43446">
        <ele>108.31793976</ele>
        <time>2018-09-09T07:48:00Z</time>
      </trkpt>
      <trkpt lat="43.49967" lon="1.43445">
        <ele>109.54585266</ele>
        <time>2018-09-09T07:48:03Z</time>
      </trkpt>
      <trkpt lat="43.49962" lon="1.43442">
        <ele>110.55207825</ele>
        <time>2018-09-09T07:48:04Z</time>
      </trkpt>
      <trkpt lat="43.49955" lon="1.43438">
        <ele>110.55207825</ele>
        <time>2018-09-09T07:48:05Z</time>
      </trkpt>
      <trkpt lat="43.49944" lon="1.43435">
        <ele>111.57739258</ele>
        <time>2018-09-09T07:48:08Z</time>
      </trkpt>
      <trkpt lat="43.49933" lon="1.4343">
        <ele>112.78333282</ele>
        <time>2018-09-09T07:48:11Z</time>
      </trkpt>
      <trkpt lat="43.4992" lon="1.43426">
        <ele>113.93450165</ele>
        <time>2018-09-09T07:48:14Z</time>
      </trkpt>
      <trkpt lat="43.49907" lon="1.43419">
        <ele>116.37232208</ele>
        <time>2018-09-09T07:48:18Z</time>
      </trkpt>
      <trkpt lat="43.49896" lon="1.43412">
        <ele>116.37232208</ele>
        <time>2018-09-09T07:48:20Z</time>
      </trkpt>
      <trkpt lat="43.49884" lon="1.43409">
        <ele>119.20265198</ele>
        <time>2018-09-09T07:48:23Z</time>
      </trkpt>
      <trkpt lat="43.49873" lon="1.43404">
        <ele>120.45796967</ele>
        <time>2018-09-09T07:48:26Z</time>
      </trkpt>
      <trkpt lat="43.49862" lon="1.434">
        <ele>122.69007111</ele>
        <time>2018-09-09T07:48:30Z</time>
      </trkpt>
      <trkpt lat="43.49849" lon="1.43398">
        <ele>123.92900848</ele>
        <time>2018-09-09T07:48:34Z</time>
      </trkpt>
      <trkpt lat="43.49841" lon="1.43408">
        <ele>124.82965851</ele>
        <time>2018-09-09T07:48:38Z</time>
      </trkpt>
      <trkpt lat="43.49836" lon="1.4342">
        <ele>124.82965851</ele>
        <time>2018-09-09T07:48:41Z</time>
      </trkpt>
      <trkpt lat="43.49833" lon="1.43431">
        <ele>125.92075348</ele>
        <time>2018-09-09T07:48:45Z</time>
      </trkpt>
      <trkpt lat="43.49827" lon="1.43444">
        <ele>127.00212097</ele>
        <time>2018-09-09T07:48:48Z</time>
      </trkpt>
      <trkpt lat="43.49819" lon="1.43451">
        <ele>129.4389801</ele>
        <time>2018-09-09T07:48:53Z</time>
      </trkpt>
      <trkpt lat="43.49807" lon="1.43458">
        <ele>130.57519531</ele>
        <time>2018-09-09T07:49:02Z</time>
      </trkpt>
      <trkpt lat="43.49802" lon="1.43463">
        <ele>131.99177551</ele>
        <time>2018-09-09T07:49:04Z</time>
      </trkpt>
      <trkpt lat="43.498" lon="1.43463">
        <ele>132.09851074</ele>
        <time>2018-09-09T07:49:19Z</time>
      </trkpt>
      <trkpt lat="43.49818" lon="1.43451">
        <ele>130.06689453</ele>
        <time>2018-09-09T07:49:22Z</time>
      </trkpt>
      <trkpt lat="43.49824" lon="1.43449">
        <ele>128.68077087</ele>
        <time>2018-09-09T07:49:33Z</time>
      </trkpt>
      <trkpt lat="43.49806" lon="1.4346">
        <ele>130.41242981</ele>
        <time>2018-09-09T07:49:37Z</time>
      </trkpt>
      <trkpt lat="43.49794" lon="1.43468">
        <ele>131.47581482</ele>
        <time>2018-09-09T07:49:41Z</time>
      </trkpt>
      <trkpt lat="43.49788" lon="1.43479">
        <ele>131.47581482</ele>
        <time>2018-09-09T07:49:44Z</time>
      </trkpt>
      <trkpt lat="43.49776" lon="1.43487">
        <ele>132.49694824</ele>
        <time>2018-09-09T07:49:49Z</time>
      </trkpt>
      <trkpt lat="43.49765" lon="1.43491">
        <ele>132.49694824</ele>
        <time>2018-09-09T07:49:54Z</time>
      </trkpt>
      <trkpt lat="43.49753" lon="1.43501">
        <ele>132.66348267</ele>
        <time>2018-09-09T07:49:57Z</time>
      </trkpt>
      <trkpt lat="43.49741" lon="1.43513">
        <ele>130.87882996</ele>
        <time>2018-09-09T07:50:00Z</time>
      </trkpt>
      <trkpt lat="43.49729" lon="1.43521">
        <ele>130.87882996</ele>
        <time>2018-09-09T07:50:02Z</time>
      </trkpt>
      <trkpt lat="43.4972" lon="1.43525">
        <ele>128.95362854</ele>
        <time>2018-09-09T07:50:04Z</time>
      </trkpt>
      <trkpt lat="43.49711" lon="1.43528">
        <ele>128.01315308</ele>
        <time>2018-09-09T07:50:05Z</time>
      </trkpt>
      <trkpt lat="43.49699" lon="1.43532">
        <ele>126.90731812</ele>
        <time>2018-09-09T07:50:07Z</time>
      </trkpt>
      <trkpt lat="43.49686" lon="1.43533">
        <ele>125.3853302</ele>
        <time>2018-09-09T07:50:09Z</time>
      </trkpt>
      <trkpt lat="43.49673" lon="1.43536">
        <ele>122.84236145</ele>
        <time>2018-09-09T07:50:11Z</time>
      </trkpt>
      <trkpt lat="43.49658" lon="1.43538">
        <ele>120.60395813</ele>
        <time>2018-09-09T07:50:13Z</time>
      </trkpt>
      <trkpt lat="43.49642" lon="1.43538">
        <ele>118.04615021</ele>
        <time>2018-09-09T07:50:15Z</time>
      </trkpt>
      <trkpt lat="43.49624" lon="1.43539">
        <ele>115.27035522</ele>
        <time>2018-09-09T07:50:17Z</time>
      </trkpt>
      <trkpt lat="43.49608" lon="1.43541">
        <ele>113.72540283</ele>
        <time>2018-09-09T07:50:18Z</time>
      </trkpt>
      <trkpt lat="43.49596" lon="1.4354">
        <ele>112.14510345</ele>
        <time>2018-09-09T07:50:19Z</time>
      </trkpt>
      <trkpt lat="43.49585" lon="1.43538">
        <ele>110.45933533</ele>
        <time>2018-09-09T07:50:20Z</time>
      </trkpt>
      <trkpt lat="43.49571" lon="1.43537">
        <ele>108.62854004</ele>
        <time>2018-09-09T07:50:21Z</time>
      </trkpt>
      <trkpt lat="43.4956" lon="1.4354">
        <ele>106.6217804</ele>
        <time>2018-09-09T07:50:22Z</time>
      </trkpt>
      <trkpt lat="43.49544" lon="1.4354">
        <ele>104.51638031</ele>
        <time>2018-09-09T07:50:23Z</time>
      </trkpt>
      <trkpt lat="43.4953" lon="1.4354">
        <ele>102.407341</ele>
        <time>2018-09-09T07:50:24Z</time>
      </trkpt>
      <trkpt lat="43.49517" lon="1.43539">
        <ele>100.3718338</ele>
        <time>2018-09-09T07:50:25Z</time>
      </trkpt>
      <trkpt lat="43.49502" lon="1.43541">
        <ele>98.58036804</ele>
        <time>2018-09-09T07:50:26Z</time>
      </trkpt>
      <trkpt lat="43.49487" lon="1.43537">
        <ele>97.13635254</ele>
        <time>2018-09-09T07:50:27Z</time>
      </trkpt>
      <trkpt lat="43.49474" lon="1.43533">
        <ele>96.11069489</ele>
        <time>2018-09-09T07:50:28Z</time>
      </trkpt>
      <trkpt lat="43.49464" lon="1.43528">
        <ele>96.11069489</ele>
        <time>2018-09-09T07:50:29Z</time>
      </trkpt>
      <trkpt lat="43.49453" lon="1.43522">
        <ele>95.28269958</ele>
        <time>2018-09-09T07:50:31Z</time>
      </trkpt>
      <trkpt lat="43.4945" lon="1.43512">
        <ele>95.28269958</ele>
        <time>2018-09-09T07:50:36Z</time>
      </trkpt>
      <trkpt lat="43.49446" lon="1.4351">
        <ele>95.28269958</ele>
        <time>2018-09-09T07:50:38Z</time>
      </trkpt>
      <trkpt lat="43.49427" lon="1.43528">
        <ele>95.28269958</ele>
        <time>2018-09-09T07:50:50Z</time>
      </trkpt>
      <trkpt lat="43.49414" lon="1.43521">
        <ele>95.07331848</ele>
        <time>2018-09-09T07:50:52Z</time>
      </trkpt>
      <trkpt lat="43.49404" lon="1.43512">
        <ele>93.25331879</ele>
        <time>2018-09-09T07:50:56Z</time>
      </trkpt>
      <trkpt lat="43.49394" lon="1.43506">
        <ele>92.13808441</ele>
        <time>2018-09-09T07:51:00Z</time>
      </trkpt>
      <trkpt lat="43.49381" lon="1.43499">
        <ele>92.07941437</ele>
        <time>2018-09-09T07:51:03Z</time>
      </trkpt>
      <trkpt lat="43.49378" lon="1.43496">
        <ele>92.82783508</ele>
        <time>2018-09-09T07:51:04Z</time>
      </trkpt>
      <trkpt lat="43.49373" lon="1.4349">
        <ele>93.56922913</ele>
        <time>2018-09-09T07:51:06Z</time>
      </trkpt>
      <trkpt lat="43.49369" lon="1.43479">
        <ele>93.56922913</ele>
        <time>2018-09-09T07:51:09Z</time>
      </trkpt>
      <trkpt lat="43.49361" lon="1.43467">
        <ele>94.64774323</ele>
        <time>2018-09-09T07:51:13Z</time>
      </trkpt>
      <trkpt lat="43.49353" lon="1.43454">
        <ele>94.64774323</ele>
        <time>2018-09-09T07:51:15Z</time>
      </trkpt>
      <trkpt lat="43.49346" lon="1.43442">
        <ele>95.51950836</ele>
        <time>2018-09-09T07:51:18Z</time>
      </trkpt>
      <trkpt lat="43.4934" lon="1.43432">
        <ele>96.62249756</ele>
        <time>2018-09-09T07:51:22Z</time>
      </trkpt>
      <trkpt lat="43.49335" lon="1.4342">
        <ele>96.62249756</ele>
        <time>2018-09-09T07:51:23Z</time>
      </trkpt>
      <trkpt lat="43.49332" lon="1.43408">
        <ele>97.83943176</ele>
        <time>2018-09-09T07:51:25Z</time>
      </trkpt>
      <trkpt lat="43.49326" lon="1.43397">
        <ele>99.07884216</ele>
        <time>2018-09-09T07:51:28Z</time>
      </trkpt>
      <trkpt lat="43.4932" lon="1.43384">
        <ele>100.43309784</ele>
        <time>2018-09-09T07:51:32Z</time>
      </trkpt>
      <trkpt lat="43.49313" lon="1.43373">
        <ele>101.8421936</ele>
        <time>2018-09-09T07:51:34Z</time>
      </trkpt>
      <trkpt lat="43.49305" lon="1.43361">
        <ele>103.08457947</ele>
        <time>2018-09-09T07:51:37Z</time>
      </trkpt>
      <trkpt lat="43.49299" lon="1.4335">
        <ele>104.1630249</ele>
        <time>2018-09-09T07:51:41Z</time>
      </trkpt>
      <trkpt lat="43.49291" lon="1.43338">
        <ele>104.1630249</ele>
        <time>2018-09-09T07:51:44Z</time>
      </trkpt>
      <trkpt lat="43.49282" lon="1.43328">
        <ele>105.19557953</ele>
        <time>2018-09-09T07:51:48Z</time>
      </trkpt>
      <trkpt lat="43.4927" lon="1.43324">
        <ele>106.42240143</ele>
        <time>2018-09-09T07:51:52Z</time>
      </trkpt>
      <trkpt lat="43.4926" lon="1.43321">
        <ele>106.42240143</ele>
        <time>2018-09-09T07:51:57Z</time>
      </trkpt>
      <trkpt lat="43.49248" lon="1.43317">
        <ele>107.50900269</ele>
        <time>2018-09-09T07:52:03Z</time>
      </trkpt>
      <trkpt lat="43.49243" lon="1.43315">
        <ele>108.06610107</ele>
        <time>2018-09-09T07:52:04Z</time>
      </trkpt>
      <trkpt lat="43.49236" lon="1.43312">
        <ele>108.06610107</ele>
        <time>2018-09-09T07:52:11Z</time>
      </trkpt>
      <trkpt lat="43.49225" lon="1.43307">
        <ele>108.06610107</ele>
        <time>2018-09-09T07:52:21Z</time>
      </trkpt>
      <trkpt lat="43.49221" lon="1.43301">
        <ele>108.76508331</ele>
        <time>2018-09-09T07:52:28Z</time>
      </trkpt>
      <trkpt lat="43.49226" lon="1.43286">
        <ele>109.77976227</ele>
        <time>2018-09-09T07:52:32Z</time>
      </trkpt>
      <trkpt lat="43.49229" lon="1.43272">
        <ele>109.77976227</ele>
        <time>2018-09-09T07:52:34Z</time>
      </trkpt>
      <trkpt lat="43.4923" lon="1.43261">
        <ele>110.95940399</ele>
        <time>2018-09-09T07:52:36Z</time>
      </trkpt>
      <trkpt lat="43.49231" lon="1.43249">
        <ele>112.22219086</ele>
        <time>2018-09-09T07:52:38Z</time>
      </trkpt>
      <trkpt lat="43.49233" lon="1.43237">
        <ele>113.54519653</ele>
        <time>2018-09-09T07:52:41Z</time>
      </trkpt>
      <trkpt lat="43.49233" lon="1.43227">
        <ele>115.99334717</ele>
        <time>2018-09-09T07:52:44Z</time>
      </trkpt>
      <trkpt lat="43.49233" lon="1.43215">
        <ele>117.20783997</ele>
        <time>2018-09-09T07:52:46Z</time>
      </trkpt>
      <trkpt lat="43.49233" lon="1.43206">
        <ele>118.41078186</ele>
        <time>2018-09-09T07:52:49Z</time>
      </trkpt>
      <trkpt lat="43.49234" lon="1.43194">
        <ele>120.62150574</ele>
        <time>2018-09-09T07:52:52Z</time>
      </trkpt>
      <trkpt lat="43.49234" lon="1.43181">
        <ele>121.76532745</ele>
        <time>2018-09-09T07:52:55Z</time>
      </trkpt>
      <trkpt lat="43.49235" lon="1.43168">
        <ele>123.9169693</ele>
        <time>2018-09-09T07:52:58Z</time>
      </trkpt>
      <trkpt lat="43.49236" lon="1.43156">
        <ele>123.9169693</ele>
        <time>2018-09-09T07:53:00Z</time>
      </trkpt>
      <trkpt lat="43.49235" lon="1.43144">
        <ele>125.16912842</ele>
        <time>2018-09-09T07:53:03Z</time>
      </trkpt>
      <trkpt lat="43.49234" lon="1.43139">
        <ele>126.38816833</ele>
        <time>2018-09-09T07:53:04Z</time>
      </trkpt>
      <trkpt lat="43.49234" lon="1.4313">
        <ele>127.52830505</ele>
        <time>2018-09-09T07:53:06Z</time>
      </trkpt>
      <trkpt lat="43.49233" lon="1.43117">
        <ele>129.01557922</ele>
        <time>2018-09-09T07:53:09Z</time>
      </trkpt>
      <trkpt lat="43.49233" lon="1.43106">
        <ele>130.33792114</ele>
        <time>2018-09-09T07:53:12Z</time>
      </trkpt>
      <trkpt lat="43.49235" lon="1.43095">
        <ele>132.53004456</ele>
        <time>2018-09-09T07:53:16Z</time>
      </trkpt>
      <trkpt lat="43.49238" lon="1.43085">
        <ele>133.76321411</ele>
        <time>2018-09-09T07:53:19Z</time>
      </trkpt>
      <trkpt lat="43.49237" lon="1.43073">
        <ele>135.19296265</ele>
        <time>2018-09-09T07:53:23Z</time>
      </trkpt>
      <trkpt lat="43.49237" lon="1.43061">
        <ele>136.64312744</ele>
        <time>2018-09-09T07:53:26Z</time>
      </trkpt>
      <trkpt lat="43.49236" lon="1.43048">
        <ele>138.03608704</ele>
        <time>2018-09-09T07:53:29Z</time>
      </trkpt>
      <trkpt lat="43.49237" lon="1.43036">
        <ele>139.4319458</ele>
        <time>2018-09-09T07:53:32Z</time>
      </trkpt>
      <trkpt lat="43.49242" lon="1.43024">
        <ele>142.03851318</ele>
        <time>2018-09-09T07:53:36Z</time>
      </trkpt>
      <trkpt lat="43.49252" lon="1.43002">
        <ele>143.09463501</ele>
        <time>2018-09-09T07:53:43Z</time>
      </trkpt>
      <trkpt lat="43.49255" lon="1.42991">
        <ele>144.15655518</ele>
        <time>2018-09-09T07:53:46Z</time>
      </trkpt>
      <trkpt lat="43.4926" lon="1.4298">
        <ele>145.25584412</ele>
        <time>2018-09-09T07:53:49Z</time>
      </trkpt>
      <trkpt lat="43.49263" lon="1.42969">
        <ele>145.25584412</ele>
        <time>2018-09-09T07:53:53Z</time>
      </trkpt>
      <trkpt lat="43.49265" lon="1.42957">
        <ele>146.40008545</ele>
        <time>2018-09-09T07:53:56Z</time>
      </trkpt>
      <trkpt lat="43.49269" lon="1.42945">
        <ele>146.40008545</ele>
        <time>2018-09-09T07:53:59Z</time>
      </trkpt>
      <trkpt lat="43.49273" lon="1.42935">
        <ele>147.45948792</ele>
        <time>2018-09-09T07:54:03Z</time>
      </trkpt>
      <trkpt lat="43.49273" lon="1.42929">
        <ele>148.31646729</ele>
        <time>2018-09-09T07:54:04Z</time>
      </trkpt>
      <trkpt lat="43.49272" lon="1.4292">
        <ele>148.31646729</ele>
        <time>2018-09-09T07:54:07Z</time>
      </trkpt>
      <trkpt lat="43.49271" lon="1.42907">
        <ele>149.28245544</ele>
        <time>2018-09-09T07:54:10Z</time>
      </trkpt>
      <trkpt lat="43.49273" lon="1.42896">
        <ele>149.28245544</ele>
        <time>2018-09-09T07:54:12Z</time>
      </trkpt>
      <trkpt lat="43.49273" lon="1.42883">
        <ele>150.44825745</ele>
        <time>2018-09-09T07:54:15Z</time>
      </trkpt>
      <trkpt lat="43.49276" lon="1.42872">
        <ele>151.52685547</ele>
        <time>2018-09-09T07:54:19Z</time>
      </trkpt>
      <trkpt lat="43.49278" lon="1.42859">
        <ele>151.52685547</ele>
        <time>2018-09-09T07:54:23Z</time>
      </trkpt>
      <trkpt lat="43.49279" lon="1.42845">
        <ele>152.62503052</ele>
        <time>2018-09-09T07:54:26Z</time>
      </trkpt>
      <trkpt lat="43.49282" lon="1.42833">
        <ele>152.62503052</ele>
        <time>2018-09-09T07:54:29Z</time>
      </trkpt>
      <trkpt lat="43.49283" lon="1.42822">
        <ele>152.62503052</ele>
        <time>2018-09-09T07:54:31Z</time>
      </trkpt>
      <trkpt lat="43.49284" lon="1.4281">
        <ele>153.64880371</ele>
        <time>2018-09-09T07:54:34Z</time>
      </trkpt>
      <trkpt lat="43.49285" lon="1.42799">
        <ele>153.64880371</ele>
        <time>2018-09-09T07:54:37Z</time>
      </trkpt>
      <trkpt lat="43.49285" lon="1.42787">
        <ele>153.64880371</ele>
        <time>2018-09-09T07:54:40Z</time>
      </trkpt>
      <trkpt lat="43.49284" lon="1.42775">
        <ele>154.70529175</ele>
        <time>2018-09-09T07:54:43Z</time>
      </trkpt>
      <trkpt lat="43.49283" lon="1.42764">
        <ele>154.70529175</ele>
        <time>2018-09-09T07:54:46Z</time>
      </trkpt>
      <trkpt lat="43.49284" lon="1.42752">
        <ele>154.70529175</ele>
        <time>2018-09-09T07:54:48Z</time>
      </trkpt>
      <trkpt lat="43.49287" lon="1.4274">
        <ele>154.70529175</ele>
        <time>2018-09-09T07:54:51Z</time>
      </trkpt>
      <trkpt lat="43.49294" lon="1.42726">
        <ele>154.70529175</ele>
        <time>2018-09-09T07:54:53Z</time>
      </trkpt>
      <trkpt lat="43.49299" lon="1.42715">
        <ele>154.70529175</ele>
        <time>2018-09-09T07:54:55Z</time>
      </trkpt>
      <trkpt lat="43.49301" lon="1.42703">
        <ele>154.93537903</ele>
        <time>2018-09-09T07:54:57Z</time>
      </trkpt>
      <trkpt lat="43.49304" lon="1.42692">
        <ele>154.93537903</ele>
        <time>2018-09-09T07:54:59Z</time>
      </trkpt>
      <trkpt lat="43.49308" lon="1.42682">
        <ele>154.93537903</ele>
        <time>2018-09-09T07:55:01Z</time>
      </trkpt>
      <trkpt lat="43.4931" lon="1.4267">
        <ele>154.93537903</ele>
        <time>2018-09-09T07:55:03Z</time>
      </trkpt>
      <trkpt lat="43.49311" lon="1.42667">
        <ele>153.68075562</ele>
        <time>2018-09-09T07:55:04Z</time>
      </trkpt>
      <trkpt lat="43.49314" lon="1.42657">
        <ele>153.68075562</ele>
        <time>2018-09-09T07:55:05Z</time>
      </trkpt>
      <trkpt lat="43.49322" lon="1.42646">
        <ele>153.68075562</ele>
        <time>2018-09-09T07:55:08Z</time>
      </trkpt>
      <trkpt lat="43.49326" lon="1.42637">
        <ele>153.68075562</ele>
        <time>2018-09-09T07:55:13Z</time>
      </trkpt>
      <trkpt lat="43.4933" lon="1.42622">
        <ele>153.68075562</ele>
        <time>2018-09-09T07:55:17Z</time>
      </trkpt>
      <trkpt lat="43.49336" lon="1.42612">
        <ele>153.68075562</ele>
        <time>2018-09-09T07:55:22Z</time>
      </trkpt>
      <trkpt lat="43.49342" lon="1.42601">
        <ele>153.24568176</ele>
        <time>2018-09-09T07:55:31Z</time>
      </trkpt>
      <trkpt lat="43.49347" lon="1.42591">
        <ele>153.24568176</ele>
        <time>2018-09-09T07:55:36Z</time>
      </trkpt>
      <trkpt lat="43.49352" lon="1.42582">
        <ele>151.6260376</ele>
        <time>2018-09-09T07:55:43Z</time>
      </trkpt>
      <trkpt lat="43.49358" lon="1.4257">
        <ele>150.5589447</ele>
        <time>2018-09-09T07:55:49Z</time>
      </trkpt>
      <trkpt lat="43.49366" lon="1.42559">
        <ele>149.49761963</ele>
        <time>2018-09-09T07:55:55Z</time>
      </trkpt>
      <trkpt lat="43.49373" lon="1.42548">
        <ele>148.30345154</ele>
        <time>2018-09-09T07:56:00Z</time>
      </trkpt>
      <trkpt lat="43.49375" lon="1.42534">
        <ele>147.199646</ele>
        <time>2018-09-09T07:56:03Z</time>
      </trkpt>
      <trkpt lat="43.49377" lon="1.42531">
        <ele>146.18127441</ele>
        <time>2018-09-09T07:56:04Z</time>
      </trkpt>
      <trkpt lat="43.49386" lon="1.42521">
        <ele>145.11022949</ele>
        <time>2018-09-09T07:56:06Z</time>
      </trkpt>
      <trkpt lat="43.49399" lon="1.42505">
        <ele>143.67349243</ele>
        <time>2018-09-09T07:56:08Z</time>
      </trkpt>
      <trkpt lat="43.49412" lon="1.42496">
        <ele>142.29736328</ele>
        <time>2018-09-09T07:56:10Z</time>
      </trkpt>
      <trkpt lat="43.49416" lon="1.42486">
        <ele>142.29736328</ele>
        <time>2018-09-09T07:56:12Z</time>
      </trkpt>
      <trkpt lat="43.49411" lon="1.42476">
        <ele>142.29736328</ele>
        <time>2018-09-09T07:56:16Z</time>
      </trkpt>
      <trkpt lat="43.49402" lon="1.42466">
        <ele>141.90771484</ele>
        <time>2018-09-09T07:56:20Z</time>
      </trkpt>
      <trkpt lat="43.49392" lon="1.42457">
        <ele>144.18110657</ele>
        <time>2018-09-09T07:56:24Z</time>
      </trkpt>
      <trkpt lat="43.49387" lon="1.42446">
        <ele>145.56556702</ele>
        <time>2018-09-09T07:56:27Z</time>
      </trkpt>
      <trkpt lat="43.49382" lon="1.42435">
        <ele>146.86366272</ele>
        <time>2018-09-09T07:56:30Z</time>
      </trkpt>
      <trkpt lat="43.4938" lon="1.42422">
        <ele>147.91619873</ele>
        <time>2018-09-09T07:56:33Z</time>
      </trkpt>
      <trkpt lat="43.49381" lon="1.42408">
        <ele>147.91619873</ele>
        <time>2018-09-09T07:56:36Z</time>
      </trkpt>
      <trkpt lat="43.49381" lon="1.42395">
        <ele>147.91619873</ele>
        <time>2018-09-09T07:56:38Z</time>
      </trkpt>
      <trkpt lat="43.4938" lon="1.42383">
        <ele>148.94372559</ele>
        <time>2018-09-09T07:56:41Z</time>
      </trkpt>
      <trkpt lat="43.49381" lon="1.42369">
        <ele>148.94372559</ele>
        <time>2018-09-09T07:56:44Z</time>
      </trkpt>
      <trkpt lat="43.49385" lon="1.42357">
        <ele>149.88804626</ele>
        <time>2018-09-09T07:56:46Z</time>
      </trkpt>
      <trkpt lat="43.49387" lon="1.42346">
        <ele>151.03242493</ele>
        <time>2018-09-09T07:56:48Z</time>
      </trkpt>
      <trkpt lat="43.49391" lon="1.42336">
        <ele>151.03242493</ele>
        <time>2018-09-09T07:56:50Z</time>
      </trkpt>
      <trkpt lat="43.49396" lon="1.42325">
        <ele>152.0997467</ele>
        <time>2018-09-09T07:56:53Z</time>
      </trkpt>
      <trkpt lat="43.494" lon="1.4231">
        <ele>153.20855713</ele>
        <time>2018-09-09T07:56:56Z</time>
      </trkpt>
      <trkpt lat="43.49401" lon="1.42296">
        <ele>153.20855713</ele>
        <time>2018-09-09T07:56:59Z</time>
      </trkpt>
      <trkpt lat="43.49404" lon="1.42283">
        <ele>154.33430481</ele>
        <time>2018-09-09T07:57:02Z</time>
      </trkpt>
      <trkpt lat="43.49408" lon="1.42272">
        <ele>155.17272949</ele>
        <time>2018-09-09T07:57:04Z</time>
      </trkpt>
      <trkpt lat="43.49412" lon="1.42263">
        <ele>155.17272949</ele>
        <time>2018-09-09T07:57:06Z</time>
      </trkpt>
      <trkpt lat="43.49415" lon="1.42249">
        <ele>156.03086853</ele>
        <time>2018-09-09T07:57:09Z</time>
      </trkpt>
      <trkpt lat="43.49416" lon="1.42235">
        <ele>156.03086853</ele>
        <time>2018-09-09T07:57:11Z</time>
      </trkpt>
      <trkpt lat="43.49418" lon="1.42223">
        <ele>156.03086853</ele>
        <time>2018-09-09T07:57:13Z</time>
      </trkpt>
      <trkpt lat="43.49419" lon="1.42211">
        <ele>156.03086853</ele>
        <time>2018-09-09T07:57:15Z</time>
      </trkpt>
      <trkpt lat="43.49421" lon="1.422">
        <ele>157.14691162</ele>
        <time>2018-09-09T07:57:17Z</time>
      </trkpt>
      <trkpt lat="43.49423" lon="1.42189">
        <ele>157.14691162</ele>
        <time>2018-09-09T07:57:19Z</time>
      </trkpt>
      <trkpt lat="43.49425" lon="1.42177">
        <ele>158.26130676</ele>
        <time>2018-09-09T07:57:21Z</time>
      </trkpt>
      <trkpt lat="43.49426" lon="1.42166">
        <ele>158.26130676</ele>
        <time>2018-09-09T07:57:23Z</time>
      </trkpt>
      <trkpt lat="43.49427" lon="1.42154">
        <ele>158.26130676</ele>
        <time>2018-09-09T07:57:25Z</time>
      </trkpt>
      <trkpt lat="43.49429" lon="1.42143">
        <ele>159.48387146</ele>
        <time>2018-09-09T07:57:27Z</time>
      </trkpt>
      <trkpt lat="43.49429" lon="1.4213">
        <ele>160.75938416</ele>
        <time>2018-09-09T07:57:29Z</time>
      </trkpt>
      <trkpt lat="43.49428" lon="1.42117">
        <ele>160.75938416</ele>
        <time>2018-09-09T07:57:31Z</time>
      </trkpt>
      <trkpt lat="43.4943" lon="1.42105">
        <ele>161.82719421</ele>
        <time>2018-09-09T07:57:33Z</time>
      </trkpt>
      <trkpt lat="43.49434" lon="1.42094">
        <ele>163.21673584</ele>
        <time>2018-09-09T07:57:36Z</time>
      </trkpt>
      <trkpt lat="43.49429" lon="1.42083">
        <ele>164.68681335</ele>
        <time>2018-09-09T07:57:43Z</time>
      </trkpt>
      <trkpt lat="43.49416" lon="1.42081">
        <ele>165.88546753</ele>
        <time>2018-09-09T07:57:49Z</time>
      </trkpt>
      <trkpt lat="43.49406" lon="1.42076">
        <ele>165.88546753</ele>
        <time>2018-09-09T07:57:55Z</time>
      </trkpt>
      <trkpt lat="43.49394" lon="1.42069">
        <ele>165.88546753</ele>
        <time>2018-09-09T07:58:03Z</time>
      </trkpt>
      <trkpt lat="43.49391" lon="1.42069">
        <ele>166.58088684</ele>
        <time>2018-09-09T07:58:04Z</time>
      </trkpt>
      <trkpt lat="43.49395" lon="1.42075">
        <ele>166.58088684</ele>
        <time>2018-09-09T07:58:11Z</time>
      </trkpt>
      <trkpt lat="43.49408" lon="1.42079">
        <ele>166.58088684</ele>
        <time>2018-09-09T07:58:16Z</time>
      </trkpt>
      <trkpt lat="43.49405" lon="1.42085">
        <ele>166.58088684</ele>
        <time>2018-09-09T07:58:24Z</time>
      </trkpt>
      <trkpt lat="43.49395" lon="1.4207">
        <ele>166.58088684</ele>
        <time>2018-09-09T07:58:28Z</time>
      </trkpt>
      <trkpt lat="43.49386" lon="1.42057">
        <ele>166.58088684</ele>
        <time>2018-09-09T07:58:31Z</time>
      </trkpt>
      <trkpt lat="43.49374" lon="1.42049">
        <ele>166.58088684</ele>
        <time>2018-09-09T07:58:34Z</time>
      </trkpt>
      <trkpt lat="43.49361" lon="1.42048">
        <ele>166.91642761</ele>
        <time>2018-09-09T07:58:37Z</time>
      </trkpt>
      <trkpt lat="43.49349" lon="1.42039">
        <ele>168.51782227</ele>
        <time>2018-09-09T07:58:41Z</time>
      </trkpt>
      <trkpt lat="43.49339" lon="1.42025">
        <ele>168.51782227</ele>
        <time>2018-09-09T07:58:44Z</time>
      </trkpt>
      <trkpt lat="43.49329" lon="1.42013">
        <ele>169.6880188</ele>
        <time>2018-09-09T07:58:47Z</time>
      </trkpt>
      <trkpt lat="43.4932" lon="1.42">
        <ele>170.79086304</ele>
        <time>2018-09-09T07:58:50Z</time>
      </trkpt>
      <trkpt lat="43.4931" lon="1.41989">
        <ele>171.90698242</ele>
        <time>2018-09-09T07:58:53Z</time>
      </trkpt>
      <trkpt lat="43.493" lon="1.41979">
        <ele>171.90698242</ele>
        <time>2018-09-09T07:58:56Z</time>
      </trkpt>
      <trkpt lat="43.49291" lon="1.41967">
        <ele>172.92379761</ele>
        <time>2018-09-09T07:58:59Z</time>
      </trkpt>
      <trkpt lat="43.49281" lon="1.41955">
        <ele>174.02572632</ele>
        <time>2018-09-09T07:59:02Z</time>
      </trkpt>
      <trkpt lat="43.49276" lon="1.41947">
        <ele>174.93637085</ele>
        <time>2018-09-09T07:59:04Z</time>
      </trkpt>
      <trkpt lat="43.49271" lon="1.41937">
        <ele>174.93637085</ele>
        <time>2018-09-09T07:59:06Z</time>
      </trkpt>
      <trkpt lat="43.49263" lon="1.41923">
        <ele>175.89276123</ele>
        <time>2018-09-09T07:59:09Z</time>
      </trkpt>
      <trkpt lat="43.49255" lon="1.41908">
        <ele>177.11561584</ele>
        <time>2018-09-09T07:59:12Z</time>
      </trkpt>
      <trkpt lat="43.49248" lon="1.41893">
        <ele>177.11561584</ele>
        <time>2018-09-09T07:59:15Z</time>
      </trkpt>
      <trkpt lat="43.49239" lon="1.41879">
        <ele>177.11561584</ele>
        <time>2018-09-09T07:59:18Z</time>
      </trkpt>
      <trkpt lat="43.49229" lon="1.41867">
        <ele>178.21009827</ele>
        <time>2018-09-09T07:59:21Z</time>
      </trkpt>
      <trkpt lat="43.49218" lon="1.41861">
        <ele>178.21009827</ele>
        <time>2018-09-09T07:59:24Z</time>
      </trkpt>
      <trkpt lat="43.49204" lon="1.41858">
        <ele>178.21009827</ele>
        <time>2018-09-09T07:59:27Z</time>
      </trkpt>
      <trkpt lat="43.49191" lon="1.4186">
        <ele>178.21009827</ele>
        <time>2018-09-09T07:59:30Z</time>
      </trkpt>
      <trkpt lat="43.49177" lon="1.41861">
        <ele>178.92840576</ele>
        <time>2018-09-09T07:59:33Z</time>
      </trkpt>
      <trkpt lat="43.49165" lon="1.41862">
        <ele>178.92840576</ele>
        <time>2018-09-09T07:59:36Z</time>
      </trkpt>
      <trkpt lat="43.49152" lon="1.41863">
        <ele>180.1831665</ele>
        <time>2018-09-09T07:59:39Z</time>
      </trkpt>
      <trkpt lat="43.49139" lon="1.41864">
        <ele>181.27845764</ele>
        <time>2018-09-09T07:59:42Z</time>
      </trkpt>
      <trkpt lat="43.49128" lon="1.41866">
        <ele>182.38598633</ele>
        <time>2018-09-09T07:59:45Z</time>
      </trkpt>
      <trkpt lat="43.49115" lon="1.41866">
        <ele>183.55830383</ele>
        <time>2018-09-09T07:59:49Z</time>
      </trkpt>
      <trkpt lat="43.49102" lon="1.41866">
        <ele>184.64944458</ele>
        <time>2018-09-09T07:59:51Z</time>
      </trkpt>
      <trkpt lat="43.49089" lon="1.41868">
        <ele>185.76049805</ele>
        <time>2018-09-09T07:59:54Z</time>
      </trkpt>
      <trkpt lat="43.49074" lon="1.4187">
        <ele>185.76049805</ele>
        <time>2018-09-09T07:59:57Z</time>
      </trkpt>
      <trkpt lat="43.49061" lon="1.41871">
        <ele>186.96821594</ele>
        <time>2018-09-09T07:59:59Z</time>
      </trkpt>
      <trkpt lat="43.49049" lon="1.41873">
        <ele>188.19749451</ele>
        <time>2018-09-09T08:00:02Z</time>
      </trkpt>
      <trkpt lat="43.49043" lon="1.41873">
        <ele>189.11972046</ele>
        <time>2018-09-09T08:00:04Z</time>
      </trkpt>
      <trkpt lat="43.49035" lon="1.41874">
        <ele>190.04425049</ele>
        <time>2018-09-09T08:00:06Z</time>
      </trkpt>
      <trkpt lat="43.49023" lon="1.41876">
        <ele>191.16526794</ele>
        <time>2018-09-09T08:00:09Z</time>
      </trkpt>
      <trkpt lat="43.49012" lon="1.41877">
        <ele>192.19779968</ele>
        <time>2018-09-09T08:00:12Z</time>
      </trkpt>
      <trkpt lat="43.48999" lon="1.4188">
        <ele>193.35150146</ele>
        <time>2018-09-09T08:00:16Z</time>
      </trkpt>
      <trkpt lat="43.48986" lon="1.41881">
        <ele>193.35150146</ele>
        <time>2018-09-09T08:00:17Z</time>
      </trkpt>
      <trkpt lat="43.48975" lon="1.41882">
        <ele>194.44589233</ele>
        <time>2018-09-09T08:00:20Z</time>
      </trkpt>
      <trkpt lat="43.48962" lon="1.41885">
        <ele>195.47209167</ele>
        <time>2018-09-09T08:00:24Z</time>
      </trkpt>
      <trkpt lat="43.48951" lon="1.41893">
        <ele>196.58601379</ele>
        <time>2018-09-09T08:00:28Z</time>
      </trkpt>
      <trkpt lat="43.48941" lon="1.41906">
        <ele>196.58601379</ele>
        <time>2018-09-09T08:00:31Z</time>
      </trkpt>
      <trkpt lat="43.48934" lon="1.41919">
        <ele>196.58601379</ele>
        <time>2018-09-09T08:00:34Z</time>
      </trkpt>
      <trkpt lat="43.48929" lon="1.4193">
        <ele>196.58601379</ele>
        <time>2018-09-09T08:00:37Z</time>
      </trkpt>
      <trkpt lat="43.48922" lon="1.41943">
        <ele>196.58601379</ele>
        <time>2018-09-09T08:00:40Z</time>
      </trkpt>
      <trkpt lat="43.48916" lon="1.41956">
        <ele>196.58601379</ele>
        <time>2018-09-09T08:00:42Z</time>
      </trkpt>
      <trkpt lat="43.4891" lon="1.41967">
        <ele>196.58601379</ele>
        <time>2018-09-09T08:00:47Z</time>
      </trkpt>
      <trkpt lat="43.48903" lon="1.41978">
        <ele>196.58601379</ele>
        <time>2018-09-09T08:00:50Z</time>
      </trkpt>
      <trkpt lat="43.48896" lon="1.41991">
        <ele>196.58601379</ele>
        <time>2018-09-09T08:00:54Z</time>
      </trkpt>
      <trkpt lat="43.48885" lon="1.41996">
        <ele>196.58601379</ele>
        <time>2018-09-09T08:00:57Z</time>
      </trkpt>
      <trkpt lat="43.48881" lon="1.41991">
        <ele>196.68951416</ele>
        <time>2018-09-09T08:02:50Z</time>
      </trkpt>
      <trkpt lat="43.48882" lon="1.4199">
        <ele>196.68951416</ele>
        <time>2018-09-09T08:02:55Z</time>
      </trkpt>
      <trkpt lat="43.48861" lon="1.41986">
        <ele>196.51731873</ele>
        <time>2018-09-09T08:02:58Z</time>
      </trkpt>
      <trkpt lat="43.48848" lon="1.41981">
        <ele>196.51731873</ele>
        <time>2018-09-09T08:03:01Z</time>
      </trkpt>
      <trkpt lat="43.48837" lon="1.41975">
        <ele>194.2616272</ele>
        <time>2018-09-09T08:03:04Z</time>
      </trkpt>
      <trkpt lat="43.48825" lon="1.4197">
        <ele>194.2616272</ele>
        <time>2018-09-09T08:03:06Z</time>
      </trkpt>
      <trkpt lat="43.48813" lon="1.41965">
        <ele>194.2616272</ele>
        <time>2018-09-09T08:03:08Z</time>
      </trkpt>
      <trkpt lat="43.4879" lon="1.41959">
        <ele>193.57800293</ele>
        <time>2018-09-09T08:03:12Z</time>
      </trkpt>
      <trkpt lat="43.48778" lon="1.41954">
        <ele>192.40422058</ele>
        <time>2018-09-09T08:03:14Z</time>
      </trkpt>
      <trkpt lat="43.48765" lon="1.4195">
        <ele>192.40422058</ele>
        <time>2018-09-09T08:03:16Z</time>
      </trkpt>
      <trkpt lat="43.48755" lon="1.41945">
        <ele>192.40422058</ele>
        <time>2018-09-09T08:03:18Z</time>
      </trkpt>
      <trkpt lat="43.48743" lon="1.41943">
        <ele>192.40422058</ele>
        <time>2018-09-09T08:03:20Z</time>
      </trkpt>
      <trkpt lat="43.48733" lon="1.4194">
        <ele>191.28915405</ele>
        <time>2018-09-09T08:03:22Z</time>
      </trkpt>
      <trkpt lat="43.48721" lon="1.41936">
        <ele>191.28915405</ele>
        <time>2018-09-09T08:03:24Z</time>
      </trkpt>
      <trkpt lat="43.48708" lon="1.41932">
        <ele>189.99798584</ele>
        <time>2018-09-09T08:03:26Z</time>
      </trkpt>
      <trkpt lat="43.48694" lon="1.41927">
        <ele>188.61494446</ele>
        <time>2018-09-09T08:03:28Z</time>
      </trkpt>
      <trkpt lat="43.4868" lon="1.41921">
        <ele>187.2890625</ele>
        <time>2018-09-09T08:03:30Z</time>
      </trkpt>
      <trkpt lat="43.48666" lon="1.41915">
        <ele>187.2890625</ele>
        <time>2018-09-09T08:03:32Z</time>
      </trkpt>
      <trkpt lat="43.48652" lon="1.4191">
        <ele>186.15003967</ele>
        <time>2018-09-09T08:03:34Z</time>
      </trkpt>
      <trkpt lat="43.48639" lon="1.41905">
        <ele>186.15003967</ele>
        <time>2018-09-09T08:03:36Z</time>
      </trkpt>
      <trkpt lat="43.48629" lon="1.41899">
        <ele>186.15003967</ele>
        <time>2018-09-09T08:03:38Z</time>
      </trkpt>
      <trkpt lat="43.48617" lon="1.41906">
        <ele>183.08654785</ele>
        <time>2018-09-09T08:03:41Z</time>
      </trkpt>
      <trkpt lat="43.48603" lon="1.41921">
        <ele>183.08654785</ele>
        <time>2018-09-09T08:03:42Z</time>
      </trkpt>
      <trkpt lat="43.4859" lon="1.41936">
        <ele>181.19863892</ele>
        <time>2018-09-09T08:03:44Z</time>
      </trkpt>
      <trkpt lat="43.48578" lon="1.41943">
        <ele>181.19863892</ele>
        <time>2018-09-09T08:03:46Z</time>
      </trkpt>
      <trkpt lat="43.48577" lon="1.41948">
        <ele>179.18933105</ele>
        <time>2018-09-09T08:03:53Z</time>
      </trkpt>
      <trkpt lat="43.48565" lon="1.41964">
        <ele>177.86543274</ele>
        <time>2018-09-09T08:03:56Z</time>
      </trkpt>
      <trkpt lat="43.48549" lon="1.41978">
        <ele>176.63442993</ele>
        <time>2018-09-09T08:03:58Z</time>
      </trkpt>
      <trkpt lat="43.48536" lon="1.41989">
        <ele>176.63442993</ele>
        <time>2018-09-09T08:04:00Z</time>
      </trkpt>
      <trkpt lat="43.48527" lon="1.42">
        <ele>175.39216614</ele>
        <time>2018-09-09T08:04:02Z</time>
      </trkpt>
      <trkpt lat="43.48521" lon="1.42005">
        <ele>174.38543701</ele>
        <time>2018-09-09T08:04:04Z</time>
      </trkpt>
      <trkpt lat="43.48519" lon="1.42012">
        <ele>173.13330078</ele>
        <time>2018-09-09T08:04:06Z</time>
      </trkpt>
      <trkpt lat="43.48517" lon="1.42026">
        <ele>171.85676575</ele>
        <time>2018-09-09T08:04:08Z</time>
      </trkpt>
      <trkpt lat="43.48515" lon="1.42041">
        <ele>170.50552368</ele>
        <time>2018-09-09T08:04:10Z</time>
      </trkpt>
      <trkpt lat="43.48516" lon="1.42052">
        <ele>170.50552368</ele>
        <time>2018-09-09T08:04:12Z</time>
      </trkpt>
      <trkpt lat="43.48515" lon="1.42066">
        <ele>167.5692749</ele>
        <time>2018-09-09T08:04:14Z</time>
      </trkpt>
      <trkpt lat="43.48512" lon="1.42079">
        <ele>164.57434082</ele>
        <time>2018-09-09T08:04:17Z</time>
      </trkpt>
      <trkpt lat="43.4851" lon="1.42093">
        <ele>162.78634644</ele>
        <time>2018-09-09T08:04:19Z</time>
      </trkpt>
      <trkpt lat="43.4851" lon="1.42105">
        <ele>159.76571655</ele>
        <time>2018-09-09T08:04:21Z</time>
      </trkpt>
      <trkpt lat="43.48506" lon="1.42118">
        <ele>157.00682068</ele>
        <time>2018-09-09T08:04:23Z</time>
      </trkpt>
      <trkpt lat="43.48507" lon="1.42133">
        <ele>154.0486145</ele>
        <time>2018-09-09T08:04:25Z</time>
      </trkpt>
      <trkpt lat="43.4851" lon="1.42145">
        <ele>151.75193787</ele>
        <time>2018-09-09T08:04:27Z</time>
      </trkpt>
      <trkpt lat="43.48524" lon="1.4215">
        <ele>150.29977417</ele>
        <time>2018-09-09T08:04:29Z</time>
      </trkpt>
      <trkpt lat="43.48532" lon="1.4216">
        <ele>148.45962524</ele>
        <time>2018-09-09T08:04:31Z</time>
      </trkpt>
      <trkpt lat="43.48532" lon="1.4217">
        <ele>145.71749878</ele>
        <time>2018-09-09T08:04:34Z</time>
      </trkpt>
      <trkpt lat="43.48524" lon="1.42172">
        <ele>142.34997559</ele>
        <time>2018-09-09T08:04:49Z</time>
      </trkpt>
      <trkpt lat="43.48509" lon="1.42172">
        <ele>141.22494507</ele>
        <time>2018-09-09T08:04:53Z</time>
      </trkpt>
      <trkpt lat="43.48499" lon="1.42175">
        <ele>138.64804077</ele>
        <time>2018-09-09T08:04:58Z</time>
      </trkpt>
      <trkpt lat="43.48486" lon="1.42174">
        <ele>137.10978699</ele>
        <time>2018-09-09T08:05:04Z</time>
      </trkpt>
      <trkpt lat="43.48476" lon="1.42171">
        <ele>136.31694031</ele>
        <time>2018-09-09T08:05:08Z</time>
      </trkpt>
      <trkpt lat="43.48447" lon="1.42156">
        <ele>136.31694031</ele>
        <time>2018-09-09T08:05:15Z</time>
      </trkpt>
      <trkpt lat="43.48435" lon="1.42146">
        <ele>135.31208801</ele>
        <time>2018-09-09T08:05:19Z</time>
      </trkpt>
      <trkpt lat="43.4842" lon="1.42136">
        <ele>134.17385864</ele>
        <time>2018-09-09T08:05:22Z</time>
      </trkpt>
      <trkpt lat="43.48406" lon="1.42129">
        <ele>132.65618896</ele>
        <time>2018-09-09T08:05:25Z</time>
      </trkpt>
      <trkpt lat="43.48391" lon="1.42126">
        <ele>129.01573181</ele>
        <time>2018-09-09T08:05:28Z</time>
      </trkpt>
      <trkpt lat="43.48377" lon="1.42127">
        <ele>126.54950714</ele>
        <time>2018-09-09T08:05:30Z</time>
      </trkpt>
      <trkpt lat="43.48365" lon="1.42129">
        <ele>125.26191711</ele>
        <time>2018-09-09T08:05:33Z</time>
      </trkpt>
      <trkpt lat="43.48357" lon="1.42124">
        <ele>122.28413391</ele>
        <time>2018-09-09T08:05:52Z</time>
      </trkpt>
      <trkpt lat="43.48348" lon="1.42114">
        <ele>120.84588623</ele>
        <time>2018-09-09T08:06:01Z</time>
      </trkpt>
      <trkpt lat="43.48341" lon="1.42104">
        <ele>118.69151306</ele>
        <time>2018-09-09T08:06:04Z</time>
      </trkpt>
      <trkpt lat="43.48343" lon="1.42093">
        <ele>117.83679962</ele>
        <time>2018-09-09T08:06:06Z</time>
      </trkpt>
      <trkpt lat="43.48344" lon="1.42078">
        <ele>117.83679962</ele>
        <time>2018-09-09T08:06:08Z</time>
      </trkpt>
      <trkpt lat="43.48338" lon="1.42055">
        <ele>116.63370514</ele>
        <time>2018-09-09T08:06:13Z</time>
      </trkpt>
      <trkpt lat="43.48332" lon="1.42041">
        <ele>116.63370514</ele>
        <time>2018-09-09T08:06:15Z</time>
      </trkpt>
      <trkpt lat="43.48327" lon="1.42029">
        <ele>115.71530151</ele>
        <time>2018-09-09T08:06:18Z</time>
      </trkpt>
      <trkpt lat="43.48325" lon="1.42015">
        <ele>115.71530151</ele>
        <time>2018-09-09T08:06:20Z</time>
      </trkpt>
      <trkpt lat="43.48322" lon="1.42005">
        <ele>115.71530151</ele>
        <time>2018-09-09T08:06:21Z</time>
      </trkpt>
      <trkpt lat="43.48319" lon="1.41994">
        <ele>114.56050873</ele>
        <time>2018-09-09T08:06:23Z</time>
      </trkpt>
      <trkpt lat="43.48319" lon="1.4198">
        <ele>113.16184998</ele>
        <time>2018-09-09T08:06:25Z</time>
      </trkpt>
      <trkpt lat="43.48318" lon="1.41967">
        <ele>111.77230835</ele>
        <time>2018-09-09T08:06:27Z</time>
      </trkpt>
      <trkpt lat="43.4832" lon="1.4195">
        <ele>110.47738647</ele>
        <time>2018-09-09T08:06:29Z</time>
      </trkpt>
      <trkpt lat="43.48324" lon="1.41934">
        <ele>109.23623657</ele>
        <time>2018-09-09T08:06:31Z</time>
      </trkpt>
      <trkpt lat="43.48325" lon="1.41918">
        <ele>109.23623657</ele>
        <time>2018-09-09T08:06:33Z</time>
      </trkpt>
      <trkpt lat="43.48326" lon="1.41904">
        <ele>108.21377563</ele>
        <time>2018-09-09T08:06:35Z</time>
      </trkpt>
      <trkpt lat="43.48325" lon="1.41891">
        <ele>108.21377563</ele>
        <time>2018-09-09T08:06:38Z</time>
      </trkpt>
      <trkpt lat="43.48324" lon="1.41878">
        <ele>107.30099487</ele>
        <time>2018-09-09T08:06:41Z</time>
      </trkpt>
      <trkpt lat="43.48322" lon="1.41866">
        <ele>107.30099487</ele>
        <time>2018-09-09T08:06:43Z</time>
      </trkpt>
      <trkpt lat="43.4832" lon="1.41853">
        <ele>107.30099487</ele>
        <time>2018-09-09T08:06:45Z</time>
      </trkpt>
      <trkpt lat="43.48321" lon="1.4184">
        <ele>106.19174957</ele>
        <time>2018-09-09T08:06:48Z</time>
      </trkpt>
      <trkpt lat="43.48324" lon="1.41827">
        <ele>106.19174957</ele>
        <time>2018-09-09T08:06:50Z</time>
      </trkpt>
      <trkpt lat="43.48328" lon="1.41814">
        <ele>106.19174957</ele>
        <time>2018-09-09T08:06:52Z</time>
      </trkpt>
      <trkpt lat="43.48328" lon="1.41799">
        <ele>105.1448288</ele>
        <time>2018-09-09T08:06:54Z</time>
      </trkpt>
      <trkpt lat="43.4833" lon="1.41786">
        <ele>105.1448288</ele>
        <time>2018-09-09T08:06:56Z</time>
      </trkpt>
      <trkpt lat="43.48328" lon="1.41772">
        <ele>105.1448288</ele>
        <time>2018-09-09T08:06:58Z</time>
      </trkpt>
      <trkpt lat="43.48329" lon="1.41758">
        <ele>105.1448288</ele>
        <time>2018-09-09T08:07:01Z</time>
      </trkpt>
      <trkpt lat="43.48333" lon="1.41744">
        <ele>104.28666687</ele>
        <time>2018-09-09T08:07:03Z</time>
      </trkpt>
      <trkpt lat="43.48333" lon="1.41741">
        <ele>103.49303436</ele>
        <time>2018-09-09T08:07:04Z</time>
      </trkpt>
      <trkpt lat="43.48332" lon="1.41728">
        <ele>103.49303436</ele>
        <time>2018-09-09T08:07:05Z</time>
      </trkpt>
      <trkpt lat="43.4833" lon="1.41712">
        <ele>102.57254791</ele>
        <time>2018-09-09T08:07:06Z</time>
      </trkpt>
      <trkpt lat="43.4833" lon="1.417">
        <ele>102.57254791</ele>
        <time>2018-09-09T08:07:08Z</time>
      </trkpt>
      <trkpt lat="43.48322" lon="1.41688">
        <ele>101.33647919</ele>
        <time>2018-09-09T08:07:10Z</time>
      </trkpt>
      <trkpt lat="43.48316" lon="1.41676">
        <ele>101.33647919</ele>
        <time>2018-09-09T08:07:13Z</time>
      </trkpt>
      <trkpt lat="43.48311" lon="1.41659">
        <ele>101.33647919</ele>
        <time>2018-09-09T08:07:15Z</time>
      </trkpt>
      <trkpt lat="43.48301" lon="1.41649">
        <ele>101.33647919</ele>
        <time>2018-09-09T08:07:20Z</time>
      </trkpt>
      <trkpt lat="43.48291" lon="1.41639">
        <ele>101.33647919</ele>
        <time>2018-09-09T08:07:23Z</time>
      </trkpt>
      <trkpt lat="43.48282" lon="1.41626">
        <ele>101.33647919</ele>
        <time>2018-09-09T08:07:26Z</time>
      </trkpt>
      <trkpt lat="43.48276" lon="1.41613">
        <ele>101.33647919</ele>
        <time>2018-09-09T08:07:28Z</time>
      </trkpt>
      <trkpt lat="43.48273" lon="1.41599">
        <ele>101.33647919</ele>
        <time>2018-09-09T08:07:30Z</time>
      </trkpt>
      <trkpt lat="43.48264" lon="1.41587">
        <ele>101.33647919</ele>
        <time>2018-09-09T08:07:32Z</time>
      </trkpt>
      <trkpt lat="43.48251" lon="1.41578">
        <ele>97.31246948</ele>
        <time>2018-09-09T08:07:35Z</time>
      </trkpt>
      <trkpt lat="43.48237" lon="1.41557">
        <ele>94.99227142</ele>
        <time>2018-09-09T08:07:37Z</time>
      </trkpt>
      <trkpt lat="43.48229" lon="1.41541">
        <ele>94.99227142</ele>
        <time>2018-09-09T08:07:38Z</time>
      </trkpt>
      <trkpt lat="43.48222" lon="1.41528">
        <ele>91.84928894</ele>
        <time>2018-09-09T08:07:41Z</time>
      </trkpt>
      <trkpt lat="43.48212" lon="1.4152">
        <ele>89.96240234</ele>
        <time>2018-09-09T08:07:42Z</time>
      </trkpt>
      <trkpt lat="43.48195" lon="1.41515">
        <ele>86.8812561</ele>
        <time>2018-09-09T08:07:44Z</time>
      </trkpt>
      <trkpt lat="43.48177" lon="1.4151">
        <ele>85.79019165</ele>
        <time>2018-09-09T08:07:46Z</time>
      </trkpt>
      <trkpt lat="43.48165" lon="1.41505">
        <ele>84.89035797</ele>
        <time>2018-09-09T08:07:49Z</time>
      </trkpt>
      <trkpt lat="43.48154" lon="1.41505">
        <ele>83.96586609</ele>
        <time>2018-09-09T08:07:53Z</time>
      </trkpt>
      <trkpt lat="43.4814" lon="1.41503">
        <ele>83.96586609</ele>
        <time>2018-09-09T08:07:55Z</time>
      </trkpt>
      <trkpt lat="43.48129" lon="1.41506">
        <ele>83.96586609</ele>
        <time>2018-09-09T08:07:58Z</time>
      </trkpt>
      <trkpt lat="43.48115" lon="1.4151">
        <ele>82.98000336</ele>
        <time>2018-09-09T08:08:00Z</time>
      </trkpt>
      <trkpt lat="43.48101" lon="1.41517">
        <ele>82.98000336</ele>
        <time>2018-09-09T08:08:02Z</time>
      </trkpt>
      <trkpt lat="43.48093" lon="1.41523">
        <ele>82.35969543</ele>
        <time>2018-09-09T08:08:04Z</time>
      </trkpt>
      <trkpt lat="43.48079" lon="1.41528">
        <ele>82.35969543</ele>
        <time>2018-09-09T08:08:05Z</time>
      </trkpt>
      <trkpt lat="43.48066" lon="1.41531">
        <ele>82.35969543</ele>
        <time>2018-09-09T08:08:07Z</time>
      </trkpt>
      <trkpt lat="43.48053" lon="1.41532">
        <ele>82.35969543</ele>
        <time>2018-09-09T08:08:09Z</time>
      </trkpt>
      <trkpt lat="43.48041" lon="1.41536">
        <ele>82.35969543</ele>
        <time>2018-09-09T08:08:11Z</time>
      </trkpt>
      <trkpt lat="43.48025" lon="1.4154">
        <ele>82.35969543</ele>
        <time>2018-09-09T08:08:13Z</time>
      </trkpt>
      <trkpt lat="43.48012" lon="1.41544">
        <ele>82.35969543</ele>
        <time>2018-09-09T08:08:15Z</time>
      </trkpt>
      <trkpt lat="43.48" lon="1.4155">
        <ele>82.35969543</ele>
        <time>2018-09-09T08:08:17Z</time>
      </trkpt>
      <trkpt lat="43.4799" lon="1.41556">
        <ele>82.35969543</ele>
        <time>2018-09-09T08:08:19Z</time>
      </trkpt>
      <trkpt lat="43.47978" lon="1.41563">
        <ele>82.35969543</ele>
        <time>2018-09-09T08:08:22Z</time>
      </trkpt>
      <trkpt lat="43.47963" lon="1.4157">
        <ele>82.35969543</ele>
        <time>2018-09-09T08:08:25Z</time>
      </trkpt>
      <trkpt lat="43.4795" lon="1.41577">
        <ele>82.35969543</ele>
        <time>2018-09-09T08:08:28Z</time>
      </trkpt>
      <trkpt lat="43.47937" lon="1.4158">
        <ele>82.35969543</ele>
        <time>2018-09-09T08:08:30Z</time>
      </trkpt>
      <trkpt lat="43.47926" lon="1.41582">
        <ele>82.35969543</ele>
        <time>2018-09-09T08:08:32Z</time>
      </trkpt>
      <trkpt lat="43.47915" lon="1.41589">
        <ele>82.35969543</ele>
        <time>2018-09-09T08:08:35Z</time>
      </trkpt>
      <trkpt lat="43.47903" lon="1.41595">
        <ele>82.35969543</ele>
        <time>2018-09-09T08:08:37Z</time>
      </trkpt>
      <trkpt lat="43.47893" lon="1.41601">
        <ele>82.35969543</ele>
        <time>2018-09-09T08:08:39Z</time>
      </trkpt>
      <trkpt lat="43.47883" lon="1.41609">
        <ele>82.35969543</ele>
        <time>2018-09-09T08:08:42Z</time>
      </trkpt>
      <trkpt lat="43.47871" lon="1.4162">
        <ele>82.35969543</ele>
        <time>2018-09-09T08:08:45Z</time>
      </trkpt>
      <trkpt lat="43.4786" lon="1.41632">
        <ele>82.35969543</ele>
        <time>2018-09-09T08:08:47Z</time>
      </trkpt>
      <trkpt lat="43.47852" lon="1.41645">
        <ele>82.35969543</ele>
        <time>2018-09-09T08:08:49Z</time>
      </trkpt>
      <trkpt lat="43.47841" lon="1.41654">
        <ele>82.35969543</ele>
        <time>2018-09-09T08:08:51Z</time>
      </trkpt>
      <trkpt lat="43.47829" lon="1.41659">
        <ele>81.63208008</ele>
        <time>2018-09-09T08:08:53Z</time>
      </trkpt>
      <trkpt lat="43.47817" lon="1.41666">
        <ele>81.63208008</ele>
        <time>2018-09-09T08:08:56Z</time>
      </trkpt>
      <trkpt lat="43.47809" lon="1.41682">
        <ele>81.63208008</ele>
        <time>2018-09-09T08:08:58Z</time>
      </trkpt>
      <trkpt lat="43.47804" lon="1.41693">
        <ele>81.63208008</ele>
        <time>2018-09-09T08:09:01Z</time>
      </trkpt>
      <trkpt lat="43.47796" lon="1.41707">
        <ele>81.63208008</ele>
        <time>2018-09-09T08:09:03Z</time>
      </trkpt>
      <trkpt lat="43.47794" lon="1.4171">
        <ele>81.09078979</ele>
        <time>2018-09-09T08:09:04Z</time>
      </trkpt>
      <trkpt lat="43.4779" lon="1.41723">
        <ele>81.09078979</ele>
        <time>2018-09-09T08:09:05Z</time>
      </trkpt>
      <trkpt lat="43.47785" lon="1.41741">
        <ele>81.09078979</ele>
        <time>2018-09-09T08:09:07Z</time>
      </trkpt>
      <trkpt lat="43.47778" lon="1.41756">
        <ele>81.09078979</ele>
        <time>2018-09-09T08:09:09Z</time>
      </trkpt>
      <trkpt lat="43.47773" lon="1.41772">
        <ele>81.09078979</ele>
        <time>2018-09-09T08:09:11Z</time>
      </trkpt>
      <trkpt lat="43.47768" lon="1.41786">
        <ele>81.09078979</ele>
        <time>2018-09-09T08:09:13Z</time>
      </trkpt>
      <trkpt lat="43.47762" lon="1.41798">
        <ele>81.09078979</ele>
        <time>2018-09-09T08:09:15Z</time>
      </trkpt>
      <trkpt lat="43.47754" lon="1.41809">
        <ele>81.09078979</ele>
        <time>2018-09-09T08:09:17Z</time>
      </trkpt>
      <trkpt lat="43.47748" lon="1.4182">
        <ele>81.89416504</ele>
        <time>2018-09-09T08:09:19Z</time>
      </trkpt>
      <trkpt lat="43.47741" lon="1.41831">
        <ele>81.89416504</ele>
        <time>2018-09-09T08:09:21Z</time>
      </trkpt>
      <trkpt lat="43.47733" lon="1.41842">
        <ele>81.89416504</ele>
        <time>2018-09-09T08:09:24Z</time>
      </trkpt>
      <trkpt lat="43.4772" lon="1.41846">
        <ele>81.89416504</ele>
        <time>2018-09-09T08:09:27Z</time>
      </trkpt>
      <trkpt lat="43.47706" lon="1.41849">
        <ele>81.89416504</ele>
        <time>2018-09-09T08:09:29Z</time>
      </trkpt>
      <trkpt lat="43.47693" lon="1.41853">
        <ele>82.58243561</ele>
        <time>2018-09-09T08:09:32Z</time>
      </trkpt>
      <trkpt lat="43.47681" lon="1.41853">
        <ele>82.58243561</ele>
        <time>2018-09-09T08:09:34Z</time>
      </trkpt>
      <trkpt lat="43.47671" lon="1.4185">
        <ele>82.58243561</ele>
        <time>2018-09-09T08:09:37Z</time>
      </trkpt>
      <trkpt lat="43.47659" lon="1.41857">
        <ele>82.58243561</ele>
        <time>2018-09-09T08:09:41Z</time>
      </trkpt>
      <trkpt lat="43.47649" lon="1.41866">
        <ele>82.58243561</ele>
        <time>2018-09-09T08:09:45Z</time>
      </trkpt>
      <trkpt lat="43.47638" lon="1.41871">
        <ele>82.58243561</ele>
        <time>2018-09-09T08:09:50Z</time>
      </trkpt>
      <trkpt lat="43.47628" lon="1.4188">
        <ele>82.58243561</ele>
        <time>2018-09-09T08:09:55Z</time>
      </trkpt>
      <trkpt lat="43.47615" lon="1.41889">
        <ele>82.58243561</ele>
        <time>2018-09-09T08:09:59Z</time>
      </trkpt>
      <trkpt lat="43.47604" lon="1.41901">
        <ele>82.58243561</ele>
        <time>2018-09-09T08:10:02Z</time>
      </trkpt>
      <trkpt lat="43.47599" lon="1.41906">
        <ele>81.68544006</ele>
        <time>2018-09-09T08:10:04Z</time>
      </trkpt>
      <trkpt lat="43.47595" lon="1.4191">
        <ele>81.68544006</ele>
        <time>2018-09-09T08:10:06Z</time>
      </trkpt>
      <trkpt lat="43.47581" lon="1.41919">
        <ele>81.68544006</ele>
        <time>2018-09-09T08:10:11Z</time>
      </trkpt>
      <trkpt lat="43.47568" lon="1.41929">
        <ele>81.68544006</ele>
        <time>2018-09-09T08:10:13Z</time>
      </trkpt>
      <trkpt lat="43.47557" lon="1.41938">
        <ele>81.68544006</ele>
        <time>2018-09-09T08:10:16Z</time>
      </trkpt>
      <trkpt lat="43.47549" lon="1.41949">
        <ele>81.68544006</ele>
        <time>2018-09-09T08:10:19Z</time>
      </trkpt>
      <trkpt lat="43.4754" lon="1.41957">
        <ele>81.68544006</ele>
        <time>2018-09-09T08:10:24Z</time>
      </trkpt>
      <trkpt lat="43.47527" lon="1.41956">
        <ele>81.68544006</ele>
        <time>2018-09-09T08:10:27Z</time>
      </trkpt>
      <trkpt lat="43.47517" lon="1.41955">
        <ele>81.68544006</ele>
        <time>2018-09-09T08:10:31Z</time>
      </trkpt>
      <trkpt lat="43.47504" lon="1.41959">
        <ele>81.68544006</ele>
        <time>2018-09-09T08:10:34Z</time>
      </trkpt>
      <trkpt lat="43.47492" lon="1.41964">
        <ele>81.68544006</ele>
        <time>2018-09-09T08:10:37Z</time>
      </trkpt>
      <trkpt lat="43.47482" lon="1.41969">
        <ele>81.68544006</ele>
        <time>2018-09-09T08:10:41Z</time>
      </trkpt>
      <trkpt lat="43.47467" lon="1.41973">
        <ele>81.68544006</ele>
        <time>2018-09-09T08:10:43Z</time>
      </trkpt>
      <trkpt lat="43.47457" lon="1.41978">
        <ele>81.68544006</ele>
        <time>2018-09-09T08:10:46Z</time>
      </trkpt>
      <trkpt lat="43.47445" lon="1.41984">
        <ele>82.0141983</ele>
        <time>2018-09-09T08:10:49Z</time>
      </trkpt>
      <trkpt lat="43.47434" lon="1.41989">
        <ele>82.0141983</ele>
        <time>2018-09-09T08:10:52Z</time>
      </trkpt>
      <trkpt lat="43.47422" lon="1.41993">
        <ele>82.0141983</ele>
        <time>2018-09-09T08:10:55Z</time>
      </trkpt>
      <trkpt lat="43.47411" lon="1.41998">
        <ele>82.0141983</ele>
        <time>2018-09-09T08:10:58Z</time>
      </trkpt>
      <trkpt lat="43.474" lon="1.42003">
        <ele>82.0141983</ele>
        <time>2018-09-09T08:11:01Z</time>
      </trkpt>
      <trkpt lat="43.47389" lon="1.4201">
        <ele>82.38199615</ele>
        <time>2018-09-09T08:11:04Z</time>
      </trkpt>
      <trkpt lat="43.47378" lon="1.42017">
        <ele>82.38199615</ele>
        <time>2018-09-09T08:11:05Z</time>
      </trkpt>
      <trkpt lat="43.47366" lon="1.42018">
        <ele>82.38199615</ele>
        <time>2018-09-09T08:11:08Z</time>
      </trkpt>
      <trkpt lat="43.47352" lon="1.42021">
        <ele>82.38199615</ele>
        <time>2018-09-09T08:11:11Z</time>
      </trkpt>
      <trkpt lat="43.47338" lon="1.42022">
        <ele>82.38199615</ele>
        <time>2018-09-09T08:11:15Z</time>
      </trkpt>
      <trkpt lat="43.47323" lon="1.42023">
        <ele>82.38199615</ele>
        <time>2018-09-09T08:11:17Z</time>
      </trkpt>
      <trkpt lat="43.47307" lon="1.42024">
        <ele>82.38199615</ele>
        <time>2018-09-09T08:11:20Z</time>
      </trkpt>
      <trkpt lat="43.47292" lon="1.42025">
        <ele>82.38199615</ele>
        <time>2018-09-09T08:11:23Z</time>
      </trkpt>
      <trkpt lat="43.47276" lon="1.42026">
        <ele>82.38199615</ele>
        <time>2018-09-09T08:11:26Z</time>
      </trkpt>
      <trkpt lat="43.47262" lon="1.42028">
        <ele>82.38199615</ele>
        <time>2018-09-09T08:11:28Z</time>
      </trkpt>
      <trkpt lat="43.47252" lon="1.4203">
        <ele>82.38199615</ele>
        <time>2018-09-09T08:11:31Z</time>
      </trkpt>
      <trkpt lat="43.47239" lon="1.42033">
        <ele>82.38199615</ele>
        <time>2018-09-09T08:11:34Z</time>
      </trkpt>
      <trkpt lat="43.47226" lon="1.42035">
        <ele>82.38199615</ele>
        <time>2018-09-09T08:11:37Z</time>
      </trkpt>
      <trkpt lat="43.47213" lon="1.42036">
        <ele>82.38199615</ele>
        <time>2018-09-09T08:11:40Z</time>
      </trkpt>
      <trkpt lat="43.47202" lon="1.42038">
        <ele>82.38199615</ele>
        <time>2018-09-09T08:11:44Z</time>
      </trkpt>
      <trkpt lat="43.472" lon="1.42037">
        <ele>82.38199615</ele>
        <time>2018-09-09T08:12:00Z</time>
      </trkpt>
      <trkpt lat="43.47207" lon="1.4204">
        <ele>82.14948273</ele>
        <time>2018-09-09T08:12:04Z</time>
      </trkpt>
      <trkpt lat="43.47199" lon="1.42033">
        <ele>82.14948273</ele>
        <time>2018-09-09T08:12:07Z</time>
      </trkpt>
      <trkpt lat="43.47192" lon="1.42021">
        <ele>82.14948273</ele>
        <time>2018-09-09T08:12:14Z</time>
      </trkpt>
      <trkpt lat="43.47181" lon="1.42015">
        <ele>82.14948273</ele>
        <time>2018-09-09T08:12:20Z</time>
      </trkpt>
      <trkpt lat="43.47168" lon="1.42016">
        <ele>82.14948273</ele>
        <time>2018-09-09T08:12:25Z</time>
      </trkpt>
      <trkpt lat="43.47155" lon="1.42021">
        <ele>82.14948273</ele>
        <time>2018-09-09T08:12:29Z</time>
      </trkpt>
      <trkpt lat="43.47144" lon="1.42019">
        <ele>82.14948273</ele>
        <time>2018-09-09T08:12:34Z</time>
      </trkpt>
      <trkpt lat="43.47133" lon="1.42017">
        <ele>82.14948273</ele>
        <time>2018-09-09T08:12:38Z</time>
      </trkpt>
      <trkpt lat="43.47109" lon="1.42014">
        <ele>82.14948273</ele>
        <time>2018-09-09T08:12:48Z</time>
      </trkpt>
      <trkpt lat="43.47099" lon="1.42008">
        <ele>82.14948273</ele>
        <time>2018-09-09T08:12:53Z</time>
      </trkpt>
      <trkpt lat="43.47086" lon="1.42004">
        <ele>82.14948273</ele>
        <time>2018-09-09T08:12:59Z</time>
      </trkpt>
      <trkpt lat="43.47074" lon="1.42005">
        <ele>82.14948273</ele>
        <time>2018-09-09T08:13:03Z</time>
      </trkpt>
      <trkpt lat="43.47069" lon="1.42006">
        <ele>82.23948669</ele>
        <time>2018-09-09T08:13:04Z</time>
      </trkpt>
      <trkpt lat="43.47059" lon="1.42008">
        <ele>82.23948669</ele>
        <time>2018-09-09T08:13:06Z</time>
      </trkpt>
      <trkpt lat="43.47047" lon="1.42007">
        <ele>82.23948669</ele>
        <time>2018-09-09T08:13:09Z</time>
      </trkpt>
      <trkpt lat="43.47037" lon="1.42">
        <ele>82.23948669</ele>
        <time>2018-09-09T08:13:14Z</time>
      </trkpt>
      <trkpt lat="43.47027" lon="1.41996">
        <ele>82.23948669</ele>
        <time>2018-09-09T08:13:20Z</time>
      </trkpt>
      <trkpt lat="43.47014" lon="1.41999">
        <ele>82.23948669</ele>
        <time>2018-09-09T08:13:23Z</time>
      </trkpt>
      <trkpt lat="43.47003" lon="1.41997">
        <ele>82.23948669</ele>
        <time>2018-09-09T08:13:28Z</time>
      </trkpt>
      <trkpt lat="43.46993" lon="1.41996">
        <ele>82.23948669</ele>
        <time>2018-09-09T08:13:32Z</time>
      </trkpt>
      <trkpt lat="43.46982" lon="1.41995">
        <ele>82.23948669</ele>
        <time>2018-09-09T08:13:37Z</time>
      </trkpt>
      <trkpt lat="43.4697" lon="1.41992">
        <ele>82.23948669</ele>
        <time>2018-09-09T08:13:42Z</time>
      </trkpt>
      <trkpt lat="43.46959" lon="1.4199">
        <ele>82.23948669</ele>
        <time>2018-09-09T08:13:49Z</time>
      </trkpt>
      <trkpt lat="43.46949" lon="1.41985">
        <ele>82.23948669</ele>
        <time>2018-09-09T08:13:54Z</time>
      </trkpt>
      <trkpt lat="43.46938" lon="1.41992">
        <ele>82.23948669</ele>
        <time>2018-09-09T08:13:57Z</time>
      </trkpt>
      <trkpt lat="43.46928" lon="1.41989">
        <ele>82.52270508</ele>
        <time>2018-09-09T08:14:04Z</time>
      </trkpt>
      <trkpt lat="43.46919" lon="1.41978">
        <ele>82.52270508</ele>
        <time>2018-09-09T08:14:08Z</time>
      </trkpt>
      <trkpt lat="43.46896" lon="1.41959">
        <ele>82.52270508</ele>
        <time>2018-09-09T08:14:14Z</time>
      </trkpt>
      <trkpt lat="43.46884" lon="1.41953">
        <ele>82.04353333</ele>
        <time>2018-09-09T08:14:18Z</time>
      </trkpt>
      <trkpt lat="43.46867" lon="1.41949">
        <ele>82.04353333</ele>
        <time>2018-09-09T08:14:20Z</time>
      </trkpt>
      <trkpt lat="43.46855" lon="1.41947">
        <ele>82.04353333</ele>
        <time>2018-09-09T08:14:22Z</time>
      </trkpt>
      <trkpt lat="43.46841" lon="1.41947">
        <ele>82.04353333</ele>
        <time>2018-09-09T08:14:24Z</time>
      </trkpt>
      <trkpt lat="43.46829" lon="1.41945">
        <ele>82.04353333</ele>
        <time>2018-09-09T08:14:26Z</time>
      </trkpt>
      <trkpt lat="43.46816" lon="1.41946">
        <ele>82.04353333</ele>
        <time>2018-09-09T08:14:29Z</time>
      </trkpt>
      <trkpt lat="43.46806" lon="1.41946">
        <ele>82.04353333</ele>
        <time>2018-09-09T08:14:33Z</time>
      </trkpt>
      <trkpt lat="43.46793" lon="1.41943">
        <ele>82.04353333</ele>
        <time>2018-09-09T08:14:36Z</time>
      </trkpt>
      <trkpt lat="43.46782" lon="1.4194">
        <ele>82.04353333</ele>
        <time>2018-09-09T08:14:39Z</time>
      </trkpt>
      <trkpt lat="43.46769" lon="1.4194">
        <ele>82.04353333</ele>
        <time>2018-09-09T08:14:42Z</time>
      </trkpt>
      <trkpt lat="43.46757" lon="1.41935">
        <ele>82.04353333</ele>
        <time>2018-09-09T08:14:45Z</time>
      </trkpt>
      <trkpt lat="43.46745" lon="1.41932">
        <ele>82.04353333</ele>
        <time>2018-09-09T08:14:49Z</time>
      </trkpt>
      <trkpt lat="43.46733" lon="1.41927">
        <ele>82.04353333</ele>
        <time>2018-09-09T08:14:53Z</time>
      </trkpt>
      <trkpt lat="43.46722" lon="1.41922">
        <ele>82.04353333</ele>
        <time>2018-09-09T08:14:57Z</time>
      </trkpt>
      <trkpt lat="43.46711" lon="1.41919">
        <ele>82.04353333</ele>
        <time>2018-09-09T08:15:00Z</time>
      </trkpt>
      <trkpt lat="43.467" lon="1.41916">
        <ele>82.04353333</ele>
        <time>2018-09-09T08:15:03Z</time>
      </trkpt>
      <trkpt lat="43.46697" lon="1.41916">
        <ele>81.36987305</ele>
        <time>2018-09-09T08:15:04Z</time>
      </trkpt>
      <trkpt lat="43.46688" lon="1.41915">
        <ele>81.36987305</ele>
        <time>2018-09-09T08:15:06Z</time>
      </trkpt>
      <trkpt lat="43.46676" lon="1.41914">
        <ele>81.36987305</ele>
        <time>2018-09-09T08:15:09Z</time>
      </trkpt>
      <trkpt lat="43.46665" lon="1.41913">
        <ele>81.36987305</ele>
        <time>2018-09-09T08:15:13Z</time>
      </trkpt>
      <trkpt lat="43.46655" lon="1.41919">
        <ele>81.36987305</ele>
        <time>2018-09-09T08:15:17Z</time>
      </trkpt>
      <trkpt lat="43.46643" lon="1.4192">
        <ele>81.36987305</ele>
        <time>2018-09-09T08:15:20Z</time>
      </trkpt>
      <trkpt lat="43.46631" lon="1.41916">
        <ele>81.36987305</ele>
        <time>2018-09-09T08:15:24Z</time>
      </trkpt>
      <trkpt lat="43.46618" lon="1.41915">
        <ele>81.36987305</ele>
        <time>2018-09-09T08:15:27Z</time>
      </trkpt>
      <trkpt lat="43.46606" lon="1.41914">
        <ele>81.36987305</ele>
        <time>2018-09-09T08:15:30Z</time>
      </trkpt>
      <trkpt lat="43.46594" lon="1.41915">
        <ele>81.36987305</ele>
        <time>2018-09-09T08:15:33Z</time>
      </trkpt>
      <trkpt lat="43.46581" lon="1.41914">
        <ele>81.36987305</ele>
        <time>2018-09-09T08:15:36Z</time>
      </trkpt>
      <trkpt lat="43.46568" lon="1.41917">
        <ele>81.36987305</ele>
        <time>2018-09-09T08:15:39Z</time>
      </trkpt>
      <trkpt lat="43.46558" lon="1.41919">
        <ele>81.36987305</ele>
        <time>2018-09-09T08:15:42Z</time>
      </trkpt>
      <trkpt lat="43.46545" lon="1.41921">
        <ele>81.36987305</ele>
        <time>2018-09-09T08:15:45Z</time>
      </trkpt>
      <trkpt lat="43.46534" lon="1.41923">
        <ele>81.36987305</ele>
        <time>2018-09-09T08:15:48Z</time>
      </trkpt>
      <trkpt lat="43.46523" lon="1.41924">
        <ele>81.36987305</ele>
        <time>2018-09-09T08:15:51Z</time>
      </trkpt>
      <trkpt lat="43.46512" lon="1.41926">
        <ele>81.36987305</ele>
        <time>2018-09-09T08:15:54Z</time>
      </trkpt>
      <trkpt lat="43.46501" lon="1.41927">
        <ele>81.36987305</ele>
        <time>2018-09-09T08:15:57Z</time>
      </trkpt>
      <trkpt lat="43.46488" lon="1.41929">
        <ele>81.36987305</ele>
        <time>2018-09-09T08:15:59Z</time>
      </trkpt>
      <trkpt lat="43.46474" lon="1.41933">
        <ele>81.36987305</ele>
        <time>2018-09-09T08:16:02Z</time>
      </trkpt>
      <trkpt lat="43.46467" lon="1.41935">
        <ele>82.00927734</ele>
        <time>2018-09-09T08:16:04Z</time>
      </trkpt>
      <trkpt lat="43.46458" lon="1.41938">
        <ele>82.00927734</ele>
        <time>2018-09-09T08:16:06Z</time>
      </trkpt>
      <trkpt lat="43.46445" lon="1.4194">
        <ele>82.00927734</ele>
        <time>2018-09-09T08:16:10Z</time>
      </trkpt>
      <trkpt lat="43.46433" lon="1.41942">
        <ele>82.00927734</ele>
        <time>2018-09-09T08:16:11Z</time>
      </trkpt>
      <trkpt lat="43.46422" lon="1.41945">
        <ele>82.00927734</ele>
        <time>2018-09-09T08:16:13Z</time>
      </trkpt>
      <trkpt lat="43.46412" lon="1.41947">
        <ele>82.00927734</ele>
        <time>2018-09-09T08:16:15Z</time>
      </trkpt>
      <trkpt lat="43.46401" lon="1.41948">
        <ele>82.00927734</ele>
        <time>2018-09-09T08:16:18Z</time>
      </trkpt>
      <trkpt lat="43.46391" lon="1.41949">
        <ele>82.00927734</ele>
        <time>2018-09-09T08:16:21Z</time>
      </trkpt>
      <trkpt lat="43.46378" lon="1.41953">
        <ele>82.00927734</ele>
        <time>2018-09-09T08:16:24Z</time>
      </trkpt>
      <trkpt lat="43.46363" lon="1.41958">
        <ele>82.00927734</ele>
        <time>2018-09-09T08:16:27Z</time>
      </trkpt>
      <trkpt lat="43.4635" lon="1.41961">
        <ele>82.00927734</ele>
        <time>2018-09-09T08:16:30Z</time>
      </trkpt>
      <trkpt lat="43.46338" lon="1.41965">
        <ele>82.00927734</ele>
        <time>2018-09-09T08:16:33Z</time>
      </trkpt>
      <trkpt lat="43.46325" lon="1.4197">
        <ele>82.00927734</ele>
        <time>2018-09-09T08:16:36Z</time>
      </trkpt>
      <trkpt lat="43.46311" lon="1.41976">
        <ele>82.00927734</ele>
        <time>2018-09-09T08:16:39Z</time>
      </trkpt>
      <trkpt lat="43.46298" lon="1.41984">
        <ele>82.00927734</ele>
        <time>2018-09-09T08:16:42Z</time>
      </trkpt>
      <trkpt lat="43.46286" lon="1.41993">
        <ele>82.00927734</ele>
        <time>2018-09-09T08:16:45Z</time>
      </trkpt>
      <trkpt lat="43.46273" lon="1.42001">
        <ele>82.00927734</ele>
        <time>2018-09-09T08:16:48Z</time>
      </trkpt>
      <trkpt lat="43.4626" lon="1.42007">
        <ele>82.00927734</ele>
        <time>2018-09-09T08:16:51Z</time>
      </trkpt>
      <trkpt lat="43.46248" lon="1.42015">
        <ele>82.00927734</ele>
        <time>2018-09-09T08:16:54Z</time>
      </trkpt>
      <trkpt lat="43.46236" lon="1.42026">
        <ele>82.00927734</ele>
        <time>2018-09-09T08:16:58Z</time>
      </trkpt>
      <trkpt lat="43.46222" lon="1.42028">
        <ele>82.00927734</ele>
        <time>2018-09-09T08:17:01Z</time>
      </trkpt>
      <trkpt lat="43.4621" lon="1.42032">
        <ele>81.82318878</ele>
        <time>2018-09-09T08:17:04Z</time>
      </trkpt>
      <trkpt lat="43.46198" lon="1.42037">
        <ele>81.82318878</ele>
        <time>2018-09-09T08:17:06Z</time>
      </trkpt>
      <trkpt lat="43.46185" lon="1.42044">
        <ele>81.82318878</ele>
        <time>2018-09-09T08:17:08Z</time>
      </trkpt>
      <trkpt lat="43.46173" lon="1.42051">
        <ele>81.82318878</ele>
        <time>2018-09-09T08:17:11Z</time>
      </trkpt>
      <trkpt lat="43.46159" lon="1.42054">
        <ele>81.82318878</ele>
        <time>2018-09-09T08:17:13Z</time>
      </trkpt>
      <trkpt lat="43.46148" lon="1.42059">
        <ele>81.82318878</ele>
        <time>2018-09-09T08:17:15Z</time>
      </trkpt>
      <trkpt lat="43.46135" lon="1.42065">
        <ele>81.82318878</ele>
        <time>2018-09-09T08:17:18Z</time>
      </trkpt>
      <trkpt lat="43.46122" lon="1.4207">
        <ele>81.82318878</ele>
        <time>2018-09-09T08:17:20Z</time>
      </trkpt>
      <trkpt lat="43.46111" lon="1.42077">
        <ele>81.82318878</ele>
        <time>2018-09-09T08:17:23Z</time>
      </trkpt>
      <trkpt lat="43.46096" lon="1.42085">
        <ele>81.82318878</ele>
        <time>2018-09-09T08:17:26Z</time>
      </trkpt>
      <trkpt lat="43.46083" lon="1.42089">
        <ele>81.82318878</ele>
        <time>2018-09-09T08:17:29Z</time>
      </trkpt>
      <trkpt lat="43.4607" lon="1.42094">
        <ele>81.82318878</ele>
        <time>2018-09-09T08:17:32Z</time>
      </trkpt>
      <trkpt lat="43.46058" lon="1.421">
        <ele>81.82318878</ele>
        <time>2018-09-09T08:17:34Z</time>
      </trkpt>
      <trkpt lat="43.46046" lon="1.42108">
        <ele>81.82318878</ele>
        <time>2018-09-09T08:17:37Z</time>
      </trkpt>
      <trkpt lat="43.46025" lon="1.42121">
        <ele>81.82318878</ele>
        <time>2018-09-09T08:17:43Z</time>
      </trkpt>
      <trkpt lat="43.46013" lon="1.42127">
        <ele>81.82318878</ele>
        <time>2018-09-09T08:17:46Z</time>
      </trkpt>
      <trkpt lat="43.46001" lon="1.42136">
        <ele>81.82318878</ele>
        <time>2018-09-09T08:17:49Z</time>
      </trkpt>
      <trkpt lat="43.45993" lon="1.42149">
        <ele>81.82318878</ele>
        <time>2018-09-09T08:17:51Z</time>
      </trkpt>
      <trkpt lat="43.45986" lon="1.42163">
        <ele>81.82318878</ele>
        <time>2018-09-09T08:17:53Z</time>
      </trkpt>
      <trkpt lat="43.45981" lon="1.42176">
        <ele>81.82318878</ele>
        <time>2018-09-09T08:17:56Z</time>
      </trkpt>
      <trkpt lat="43.45977" lon="1.42187">
        <ele>81.82318878</ele>
        <time>2018-09-09T08:17:58Z</time>
      </trkpt>
      <trkpt lat="43.45972" lon="1.42199">
        <ele>81.82318878</ele>
        <time>2018-09-09T08:18:00Z</time>
      </trkpt>
      <trkpt lat="43.45968" lon="1.42213">
        <ele>81.82318878</ele>
        <time>2018-09-09T08:18:02Z</time>
      </trkpt>
      <trkpt lat="43.45965" lon="1.42223">
        <ele>81.80617523</ele>
        <time>2018-09-09T08:18:04Z</time>
      </trkpt>
      <trkpt lat="43.45964" lon="1.42235">
        <ele>81.80617523</ele>
        <time>2018-09-09T08:18:05Z</time>
      </trkpt>
      <trkpt lat="43.45963" lon="1.42249">
        <ele>81.80617523</ele>
        <time>2018-09-09T08:18:07Z</time>
      </trkpt>
      <trkpt lat="43.4596" lon="1.42261">
        <ele>81.80617523</ele>
        <time>2018-09-09T08:18:09Z</time>
      </trkpt>
      <trkpt lat="43.45956" lon="1.42275">
        <ele>81.80617523</ele>
        <time>2018-09-09T08:18:11Z</time>
      </trkpt>
      <trkpt lat="43.45953" lon="1.42288">
        <ele>81.80617523</ele>
        <time>2018-09-09T08:18:13Z</time>
      </trkpt>
      <trkpt lat="43.45953" lon="1.423">
        <ele>81.80617523</ele>
        <time>2018-09-09T08:18:16Z</time>
      </trkpt>
      <trkpt lat="43.45949" lon="1.42312">
        <ele>81.80617523</ele>
        <time>2018-09-09T08:18:18Z</time>
      </trkpt>
      <trkpt lat="43.45944" lon="1.42325">
        <ele>81.80617523</ele>
        <time>2018-09-09T08:18:20Z</time>
      </trkpt>
      <trkpt lat="43.45939" lon="1.42339">
        <ele>81.80617523</ele>
        <time>2018-09-09T08:18:22Z</time>
      </trkpt>
      <trkpt lat="43.45937" lon="1.42352">
        <ele>81.80617523</ele>
        <time>2018-09-09T08:18:24Z</time>
      </trkpt>
      <trkpt lat="43.45936" lon="1.42365">
        <ele>81.80617523</ele>
        <time>2018-09-09T08:18:27Z</time>
      </trkpt>
      <trkpt lat="43.45941" lon="1.42381">
        <ele>81.80617523</ele>
        <time>2018-09-09T08:18:28Z</time>
      </trkpt>
      <trkpt lat="43.45945" lon="1.42393">
        <ele>81.80617523</ele>
        <time>2018-09-09T08:18:31Z</time>
      </trkpt>
      <trkpt lat="43.45951" lon="1.42404">
        <ele>81.80617523</ele>
        <time>2018-09-09T08:18:34Z</time>
      </trkpt>
      <trkpt lat="43.45957" lon="1.42415">
        <ele>81.80617523</ele>
        <time>2018-09-09T08:18:37Z</time>
      </trkpt>
      <trkpt lat="43.45964" lon="1.42428">
        <ele>81.80617523</ele>
        <time>2018-09-09T08:18:41Z</time>
      </trkpt>
      <trkpt lat="43.4597" lon="1.42441">
        <ele>82.41630554</ele>
        <time>2018-09-09T08:18:43Z</time>
      </trkpt>
      <trkpt lat="43.45974" lon="1.42452">
        <ele>82.41630554</ele>
        <time>2018-09-09T08:18:45Z</time>
      </trkpt>
      <trkpt lat="43.45977" lon="1.42463">
        <ele>82.41630554</ele>
        <time>2018-09-09T08:18:48Z</time>
      </trkpt>
      <trkpt lat="43.45984" lon="1.42476">
        <ele>82.41630554</ele>
        <time>2018-09-09T08:18:51Z</time>
      </trkpt>
      <trkpt lat="43.45989" lon="1.4249">
        <ele>82.41630554</ele>
        <time>2018-09-09T08:18:54Z</time>
      </trkpt>
      <trkpt lat="43.45993" lon="1.42503">
        <ele>82.41630554</ele>
        <time>2018-09-09T08:18:56Z</time>
      </trkpt>
      <trkpt lat="43.45998" lon="1.42514">
        <ele>82.41630554</ele>
        <time>2018-09-09T08:18:58Z</time>
      </trkpt>
      <trkpt lat="43.46004" lon="1.42527">
        <ele>83.53331757</ele>
        <time>2018-09-09T08:19:01Z</time>
      </trkpt>
      <trkpt lat="43.46009" lon="1.42538">
        <ele>84.25553131</ele>
        <time>2018-09-09T08:19:04Z</time>
      </trkpt>
      <trkpt lat="43.46016" lon="1.42549">
        <ele>84.25553131</ele>
        <time>2018-09-09T08:19:06Z</time>
      </trkpt>
      <trkpt lat="43.46026" lon="1.42558">
        <ele>84.25553131</ele>
        <time>2018-09-09T08:19:09Z</time>
      </trkpt>
      <trkpt lat="43.46036" lon="1.42563">
        <ele>84.25553131</ele>
        <time>2018-09-09T08:19:12Z</time>
      </trkpt>
      <trkpt lat="43.46048" lon="1.42566">
        <ele>84.96477509</ele>
        <time>2018-09-09T08:19:15Z</time>
      </trkpt>
      <trkpt lat="43.46058" lon="1.42563">
        <ele>84.96477509</ele>
        <time>2018-09-09T08:19:20Z</time>
      </trkpt>
      <trkpt lat="43.46066" lon="1.42554">
        <ele>84.96477509</ele>
        <time>2018-09-09T08:19:25Z</time>
      </trkpt>
      <trkpt lat="43.46074" lon="1.4254">
        <ele>84.96477509</ele>
        <time>2018-09-09T08:19:29Z</time>
      </trkpt>
      <trkpt lat="43.46086" lon="1.42529">
        <ele>84.96477509</ele>
        <time>2018-09-09T08:19:34Z</time>
      </trkpt>
      <trkpt lat="43.46097" lon="1.42524">
        <ele>84.96477509</ele>
        <time>2018-09-09T08:19:44Z</time>
      </trkpt>
      <trkpt lat="43.46105" lon="1.42538">
        <ele>84.96477509</ele>
        <time>2018-09-09T08:19:55Z</time>
      </trkpt>
      <trkpt lat="43.46118" lon="1.42544">
        <ele>85.70578003</ele>
        <time>2018-09-09T08:19:59Z</time>
      </trkpt>
      <trkpt lat="43.4613" lon="1.42547">
        <ele>85.70578003</ele>
        <time>2018-09-09T08:20:03Z</time>
      </trkpt>
      <trkpt lat="43.46134" lon="1.42547">
        <ele>86.98287964</ele>
        <time>2018-09-09T08:20:04Z</time>
      </trkpt>
      <trkpt lat="43.46141" lon="1.42545">
        <ele>86.98287964</ele>
        <time>2018-09-09T08:20:09Z</time>
      </trkpt>
      <trkpt lat="43.46146" lon="1.4253">
        <ele>86.98287964</ele>
        <time>2018-09-09T08:20:12Z</time>
      </trkpt>
      <trkpt lat="43.46148" lon="1.42519">
        <ele>86.98287964</ele>
        <time>2018-09-09T08:20:13Z</time>
      </trkpt>
      <trkpt lat="43.4615" lon="1.42506">
        <ele>86.98287964</ele>
        <time>2018-09-09T08:20:15Z</time>
      </trkpt>
      <trkpt lat="43.46151" lon="1.42491">
        <ele>87.12237549</ele>
        <time>2018-09-09T08:20:18Z</time>
      </trkpt>
      <trkpt lat="43.46153" lon="1.42477">
        <ele>87.12237549</ele>
        <time>2018-09-09T08:20:19Z</time>
      </trkpt>
      <trkpt lat="43.46154" lon="1.42462">
        <ele>87.12237549</ele>
        <time>2018-09-09T08:20:21Z</time>
      </trkpt>
      <trkpt lat="43.46155" lon="1.42447">
        <ele>87.12237549</ele>
        <time>2018-09-09T08:20:23Z</time>
      </trkpt>
      <trkpt lat="43.46154" lon="1.4243">
        <ele>87.12237549</ele>
        <time>2018-09-09T08:20:25Z</time>
      </trkpt>
      <trkpt lat="43.46152" lon="1.42415">
        <ele>87.12237549</ele>
        <time>2018-09-09T08:20:27Z</time>
      </trkpt>
      <trkpt lat="43.46151" lon="1.424">
        <ele>87.12237549</ele>
        <time>2018-09-09T08:20:29Z</time>
      </trkpt>
      <trkpt lat="43.46149" lon="1.42384">
        <ele>87.12237549</ele>
        <time>2018-09-09T08:20:31Z</time>
      </trkpt>
      <trkpt lat="43.46146" lon="1.42366">
        <ele>87.12237549</ele>
        <time>2018-09-09T08:20:33Z</time>
      </trkpt>
      <trkpt lat="43.46145" lon="1.42352">
        <ele>87.12237549</ele>
        <time>2018-09-09T08:20:35Z</time>
      </trkpt>
      <trkpt lat="43.46138" lon="1.42335">
        <ele>87.12237549</ele>
        <time>2018-09-09T08:20:37Z</time>
      </trkpt>
      <trkpt lat="43.46133" lon="1.42321">
        <ele>87.12237549</ele>
        <time>2018-09-09T08:20:39Z</time>
      </trkpt>
      <trkpt lat="43.46129" lon="1.42309">
        <ele>87.12237549</ele>
        <time>2018-09-09T08:20:41Z</time>
      </trkpt>
      <trkpt lat="43.46125" lon="1.42294">
        <ele>87.12237549</ele>
        <time>2018-09-09T08:20:43Z</time>
      </trkpt>
      <trkpt lat="43.46122" lon="1.4228">
        <ele>87.12237549</ele>
        <time>2018-09-09T08:20:45Z</time>
      </trkpt>
      <trkpt lat="43.46118" lon="1.42266">
        <ele>87.12237549</ele>
        <time>2018-09-09T08:20:47Z</time>
      </trkpt>
      <trkpt lat="43.46114" lon="1.42252">
        <ele>87.12237549</ele>
        <time>2018-09-09T08:20:49Z</time>
      </trkpt>
      <trkpt lat="43.46112" lon="1.42238">
        <ele>87.12237549</ele>
        <time>2018-09-09T08:20:51Z</time>
      </trkpt>
      <trkpt lat="43.46107" lon="1.42225">
        <ele>87.12237549</ele>
        <time>2018-09-09T08:20:53Z</time>
      </trkpt>
      <trkpt lat="43.461" lon="1.4221">
        <ele>87.12237549</ele>
        <time>2018-09-09T08:20:55Z</time>
      </trkpt>
      <trkpt lat="43.46095" lon="1.42195">
        <ele>86.44800568</ele>
        <time>2018-09-09T08:20:57Z</time>
      </trkpt>
      <trkpt lat="43.46091" lon="1.42183">
        <ele>86.44800568</ele>
        <time>2018-09-09T08:20:59Z</time>
      </trkpt>
      <trkpt lat="43.46086" lon="1.42167">
        <ele>86.44800568</ele>
        <time>2018-09-09T08:21:01Z</time>
      </trkpt>
      <trkpt lat="43.4608" lon="1.42152">
        <ele>86.44800568</ele>
        <time>2018-09-09T08:21:03Z</time>
      </trkpt>
      <trkpt lat="43.46079" lon="1.42149">
        <ele>87.89898682</ele>
        <time>2018-09-09T08:21:04Z</time>
      </trkpt>
      <trkpt lat="43.46076" lon="1.42138">
        <ele>87.89898682</ele>
        <time>2018-09-09T08:21:05Z</time>
      </trkpt>
      <trkpt lat="43.46073" lon="1.42124">
        <ele>87.89898682</ele>
        <time>2018-09-09T08:21:07Z</time>
      </trkpt>
      <trkpt lat="43.46068" lon="1.4211">
        <ele>87.89898682</ele>
        <time>2018-09-09T08:21:09Z</time>
      </trkpt>
      <trkpt lat="43.46064" lon="1.42095">
        <ele>87.89898682</ele>
        <time>2018-09-09T08:21:11Z</time>
      </trkpt>
      <trkpt lat="43.46061" lon="1.42082">
        <ele>87.89898682</ele>
        <time>2018-09-09T08:21:13Z</time>
      </trkpt>
      <trkpt lat="43.46057" lon="1.42067">
        <ele>87.89898682</ele>
        <time>2018-09-09T08:21:15Z</time>
      </trkpt>
      <trkpt lat="43.46053" lon="1.42053">
        <ele>88.93792725</ele>
        <time>2018-09-09T08:21:17Z</time>
      </trkpt>
      <trkpt lat="43.46048" lon="1.42039">
        <ele>88.93792725</ele>
        <time>2018-09-09T08:21:19Z</time>
      </trkpt>
      <trkpt lat="43.46044" lon="1.42026">
        <ele>88.93792725</ele>
        <time>2018-09-09T08:21:21Z</time>
      </trkpt>
      <trkpt lat="43.46041" lon="1.42012">
        <ele>88.93792725</ele>
        <time>2018-09-09T08:21:23Z</time>
      </trkpt>
      <trkpt lat="43.46036" lon="1.41999">
        <ele>88.93792725</ele>
        <time>2018-09-09T08:21:25Z</time>
      </trkpt>
      <trkpt lat="43.46032" lon="1.41989">
        <ele>88.93792725</ele>
        <time>2018-09-09T08:21:27Z</time>
      </trkpt>
      <trkpt lat="43.46028" lon="1.41976">
        <ele>88.93792725</ele>
        <time>2018-09-09T08:21:30Z</time>
      </trkpt>
      <trkpt lat="43.46023" lon="1.41963">
        <ele>88.93792725</ele>
        <time>2018-09-09T08:21:32Z</time>
      </trkpt>
      <trkpt lat="43.4602" lon="1.41953">
        <ele>88.93792725</ele>
        <time>2018-09-09T08:21:34Z</time>
      </trkpt>
      <trkpt lat="43.46019" lon="1.41941">
        <ele>88.93792725</ele>
        <time>2018-09-09T08:21:37Z</time>
      </trkpt>
      <trkpt lat="43.46009" lon="1.41923">
        <ele>88.93792725</ele>
        <time>2018-09-09T08:21:39Z</time>
      </trkpt>
      <trkpt lat="43.46001" lon="1.4191">
        <ele>88.93792725</ele>
        <time>2018-09-09T08:21:41Z</time>
      </trkpt>
      <trkpt lat="43.45994" lon="1.419">
        <ele>88.93792725</ele>
        <time>2018-09-09T08:21:43Z</time>
      </trkpt>
      <trkpt lat="43.45987" lon="1.4189">
        <ele>89.23427582</ele>
        <time>2018-09-09T08:21:45Z</time>
      </trkpt>
      <trkpt lat="43.4598" lon="1.41879">
        <ele>89.23427582</ele>
        <time>2018-09-09T08:21:47Z</time>
      </trkpt>
      <trkpt lat="43.45973" lon="1.41868">
        <ele>89.23427582</ele>
        <time>2018-09-09T08:21:49Z</time>
      </trkpt>
      <trkpt lat="43.45963" lon="1.41855">
        <ele>87.58009338</ele>
        <time>2018-09-09T08:21:52Z</time>
      </trkpt>
      <trkpt lat="43.45951" lon="1.41843">
        <ele>87.58009338</ele>
        <time>2018-09-09T08:21:54Z</time>
      </trkpt>
      <trkpt lat="43.45941" lon="1.41834">
        <ele>87.58009338</ele>
        <time>2018-09-09T08:21:56Z</time>
      </trkpt>
      <trkpt lat="43.45927" lon="1.41824">
        <ele>87.58009338</ele>
        <time>2018-09-09T08:21:58Z</time>
      </trkpt>
      <trkpt lat="43.45917" lon="1.41813">
        <ele>86.52967834</ele>
        <time>2018-09-09T08:22:00Z</time>
      </trkpt>
      <trkpt lat="43.45906" lon="1.41803">
        <ele>86.52967834</ele>
        <time>2018-09-09T08:22:02Z</time>
      </trkpt>
      <trkpt lat="43.45897" lon="1.41795">
        <ele>85.48817444</ele>
        <time>2018-09-09T08:22:04Z</time>
      </trkpt>
      <trkpt lat="43.45886" lon="1.41788">
        <ele>85.48817444</ele>
        <time>2018-09-09T08:22:05Z</time>
      </trkpt>
      <trkpt lat="43.45874" lon="1.41778">
        <ele>85.48817444</ele>
        <time>2018-09-09T08:22:07Z</time>
      </trkpt>
      <trkpt lat="43.45861" lon="1.41766">
        <ele>85.48817444</ele>
        <time>2018-09-09T08:22:09Z</time>
      </trkpt>
      <trkpt lat="43.45843" lon="1.41742">
        <ele>85.48817444</ele>
        <time>2018-09-09T08:22:13Z</time>
      </trkpt>
      <trkpt lat="43.45837" lon="1.41728">
        <ele>85.48817444</ele>
        <time>2018-09-09T08:22:15Z</time>
      </trkpt>
      <trkpt lat="43.45833" lon="1.41715">
        <ele>85.48817444</ele>
        <time>2018-09-09T08:22:16Z</time>
      </trkpt>
      <trkpt lat="43.4582" lon="1.41704">
        <ele>84.52494049</ele>
        <time>2018-09-09T08:22:19Z</time>
      </trkpt>
      <trkpt lat="43.4581" lon="1.41692">
        <ele>84.52494049</ele>
        <time>2018-09-09T08:22:21Z</time>
      </trkpt>
      <trkpt lat="43.45801" lon="1.4168">
        <ele>84.52494049</ele>
        <time>2018-09-09T08:22:23Z</time>
      </trkpt>
      <trkpt lat="43.45792" lon="1.41667">
        <ele>84.52494049</ele>
        <time>2018-09-09T08:22:25Z</time>
      </trkpt>
      <trkpt lat="43.45784" lon="1.41653">
        <ele>84.52494049</ele>
        <time>2018-09-09T08:22:27Z</time>
      </trkpt>
      <trkpt lat="43.45776" lon="1.4164">
        <ele>84.52494049</ele>
        <time>2018-09-09T08:22:29Z</time>
      </trkpt>
      <trkpt lat="43.45769" lon="1.41626">
        <ele>84.52494049</ele>
        <time>2018-09-09T08:22:31Z</time>
      </trkpt>
      <trkpt lat="43.45765" lon="1.41613">
        <ele>84.52494049</ele>
        <time>2018-09-09T08:22:33Z</time>
      </trkpt>
      <trkpt lat="43.45762" lon="1.41601">
        <ele>84.52494049</ele>
        <time>2018-09-09T08:22:35Z</time>
      </trkpt>
      <trkpt lat="43.45764" lon="1.4159">
        <ele>84.52494049</ele>
        <time>2018-09-09T08:22:38Z</time>
      </trkpt>
      <trkpt lat="43.45773" lon="1.4158">
        <ele>84.34602356</ele>
        <time>2018-09-09T08:22:43Z</time>
      </trkpt>
      <trkpt lat="43.45783" lon="1.4157">
        <ele>84.34602356</ele>
        <time>2018-09-09T08:22:51Z</time>
      </trkpt>
      <trkpt lat="43.45792" lon="1.4157">
        <ele>85.82888794</ele>
        <time>2018-09-09T08:23:25Z</time>
      </trkpt>
      <trkpt lat="43.45794" lon="1.4157">
        <ele>85.82888794</ele>
        <time>2018-09-09T08:23:31Z</time>
      </trkpt>
      <trkpt lat="43.45808" lon="1.41556">
        <ele>85.82888794</ele>
        <time>2018-09-09T08:23:34Z</time>
      </trkpt>
      <trkpt lat="43.4582" lon="1.41552">
        <ele>85.82888794</ele>
        <time>2018-09-09T08:23:37Z</time>
      </trkpt>
      <trkpt lat="43.45843" lon="1.41543">
        <ele>85.82888794</ele>
        <time>2018-09-09T08:23:43Z</time>
      </trkpt>
      <trkpt lat="43.45853" lon="1.41536">
        <ele>85.82888794</ele>
        <time>2018-09-09T08:23:46Z</time>
      </trkpt>
      <trkpt lat="43.45865" lon="1.41529">
        <ele>85.82888794</ele>
        <time>2018-09-09T08:23:49Z</time>
      </trkpt>
      <trkpt lat="43.45876" lon="1.41523">
        <ele>85.82888794</ele>
        <time>2018-09-09T08:23:52Z</time>
      </trkpt>
      <trkpt lat="43.45887" lon="1.41517">
        <ele>85.82888794</ele>
        <time>2018-09-09T08:23:55Z</time>
      </trkpt>
      <trkpt lat="43.459" lon="1.41511">
        <ele>85.82888794</ele>
        <time>2018-09-09T08:23:59Z</time>
      </trkpt>
      <trkpt lat="43.45912" lon="1.41504">
        <ele>85.82888794</ele>
        <time>2018-09-09T08:24:01Z</time>
      </trkpt>
      <trkpt lat="43.45919" lon="1.41499">
        <ele>85.71121216</ele>
        <time>2018-09-09T08:24:04Z</time>
      </trkpt>
      <trkpt lat="43.4593" lon="1.41491">
        <ele>85.71121216</ele>
        <time>2018-09-09T08:24:06Z</time>
      </trkpt>
      <trkpt lat="43.45942" lon="1.41488">
        <ele>85.71121216</ele>
        <time>2018-09-09T08:24:12Z</time>
      </trkpt>
      <trkpt lat="43.45952" lon="1.41483">
        <ele>85.71121216</ele>
        <time>2018-09-09T08:24:16Z</time>
      </trkpt>
      <trkpt lat="43.45966" lon="1.41477">
        <ele>85.71121216</ele>
        <time>2018-09-09T08:24:19Z</time>
      </trkpt>
      <trkpt lat="43.45977" lon="1.41471">
        <ele>85.71121216</ele>
        <time>2018-09-09T08:24:22Z</time>
      </trkpt>
      <trkpt lat="43.45989" lon="1.41464">
        <ele>85.71121216</ele>
        <time>2018-09-09T08:24:26Z</time>
      </trkpt>
      <trkpt lat="43.46" lon="1.41457">
        <ele>86.38559723</ele>
        <time>2018-09-09T08:24:29Z</time>
      </trkpt>
      <trkpt lat="43.46009" lon="1.41454">
        <ele>87.11802673</ele>
        <time>2018-09-09T08:25:04Z</time>
      </trkpt>
      <trkpt lat="43.4602" lon="1.41447">
        <ele>87.11802673</ele>
        <time>2018-09-09T08:25:12Z</time>
      </trkpt>
      <trkpt lat="43.4603" lon="1.41443">
        <ele>87.11802673</ele>
        <time>2018-09-09T08:25:21Z</time>
      </trkpt>
      <trkpt lat="43.46042" lon="1.4144">
        <ele>87.11802673</ele>
        <time>2018-09-09T08:25:29Z</time>
      </trkpt>
      <trkpt lat="43.46055" lon="1.41436">
        <ele>87.11802673</ele>
        <time>2018-09-09T08:25:39Z</time>
      </trkpt>
      <trkpt lat="43.46064" lon="1.41432">
        <ele>87.11802673</ele>
        <time>2018-09-09T08:25:52Z</time>
      </trkpt>
      <trkpt lat="43.46076" lon="1.41427">
        <ele>87.11802673</ele>
        <time>2018-09-09T08:25:57Z</time>
      </trkpt>
      <trkpt lat="43.46088" lon="1.41424">
        <ele>85.95901489</ele>
        <time>2018-09-09T08:26:04Z</time>
      </trkpt>
      <trkpt lat="43.46078" lon="1.41435">
        <ele>85.11256409</ele>
        <time>2018-09-09T08:26:06Z</time>
      </trkpt>
      <trkpt lat="43.46069" lon="1.41445">
        <ele>85.11256409</ele>
        <time>2018-09-09T08:26:09Z</time>
      </trkpt>
      <trkpt lat="43.46076" lon="1.41449">
        <ele>83.89707947</ele>
        <time>2018-09-09T08:26:14Z</time>
      </trkpt>
      <trkpt lat="43.46087" lon="1.41444">
        <ele>83.89707947</ele>
        <time>2018-09-09T08:26:17Z</time>
      </trkpt>
      <trkpt lat="43.46098" lon="1.41448">
        <ele>83.1263504</ele>
        <time>2018-09-09T08:26:22Z</time>
      </trkpt>
      <trkpt lat="43.4611" lon="1.41457">
        <ele>83.1263504</ele>
        <time>2018-09-09T08:26:26Z</time>
      </trkpt>
      <trkpt lat="43.4612" lon="1.41465">
        <ele>83.1263504</ele>
        <time>2018-09-09T08:26:31Z</time>
      </trkpt>
      <trkpt lat="43.46133" lon="1.41471">
        <ele>83.1263504</ele>
        <time>2018-09-09T08:26:35Z</time>
      </trkpt>
      <trkpt lat="43.46146" lon="1.41479">
        <ele>83.1263504</ele>
        <time>2018-09-09T08:26:38Z</time>
      </trkpt>
      <trkpt lat="43.46157" lon="1.41486">
        <ele>83.1263504</ele>
        <time>2018-09-09T08:26:41Z</time>
      </trkpt>
      <trkpt lat="43.46169" lon="1.41494">
        <ele>83.1263504</ele>
        <time>2018-09-09T08:26:44Z</time>
      </trkpt>
      <trkpt lat="43.46181" lon="1.41503">
        <ele>83.1263504</ele>
        <time>2018-09-09T08:26:48Z</time>
      </trkpt>
      <trkpt lat="43.46174" lon="1.41514">
        <ele>83.1263504</ele>
        <time>2018-09-09T08:26:53Z</time>
      </trkpt>
      <trkpt lat="43.46166" lon="1.4153">
        <ele>83.1263504</ele>
        <time>2018-09-09T08:26:55Z</time>
      </trkpt>
      <trkpt lat="43.46161" lon="1.4154">
        <ele>83.1263504</ele>
        <time>2018-09-09T08:26:58Z</time>
      </trkpt>
      <trkpt lat="43.46155" lon="1.41552">
        <ele>83.1263504</ele>
        <time>2018-09-09T08:27:02Z</time>
      </trkpt>
      <trkpt lat="43.4615" lon="1.4156">
        <ele>81.99375916</ele>
        <time>2018-09-09T08:27:04Z</time>
      </trkpt>
      <trkpt lat="43.46147" lon="1.41569">
        <ele>81.99375916</ele>
        <time>2018-09-09T08:27:05Z</time>
      </trkpt>
      <trkpt lat="43.46141" lon="1.41582">
        <ele>81.99375916</ele>
        <time>2018-09-09T08:27:08Z</time>
      </trkpt>
      <trkpt lat="43.46132" lon="1.41608">
        <ele>81.99375916</ele>
        <time>2018-09-09T08:27:12Z</time>
      </trkpt>
      <trkpt lat="43.4613" lon="1.41618">
        <ele>81.99375916</ele>
        <time>2018-09-09T08:27:15Z</time>
      </trkpt>
      <trkpt lat="43.46125" lon="1.41629">
        <ele>81.99375916</ele>
        <time>2018-09-09T08:27:18Z</time>
      </trkpt>
      <trkpt lat="43.46119" lon="1.4164">
        <ele>81.99375916</ele>
        <time>2018-09-09T08:27:21Z</time>
      </trkpt>
      <trkpt lat="43.46112" lon="1.41649">
        <ele>81.99375916</ele>
        <time>2018-09-09T08:27:24Z</time>
      </trkpt>
      <trkpt lat="43.46111" lon="1.41662">
        <ele>81.99375916</ele>
        <time>2018-09-09T08:27:27Z</time>
      </trkpt>
      <trkpt lat="43.46118" lon="1.41676">
        <ele>81.99375916</ele>
        <time>2018-09-09T08:27:29Z</time>
      </trkpt>
      <trkpt lat="43.46121" lon="1.41687">
        <ele>81.99375916</ele>
        <time>2018-09-09T08:27:31Z</time>
      </trkpt>
      <trkpt lat="43.46125" lon="1.41699">
        <ele>81.99375916</ele>
        <time>2018-09-09T08:27:34Z</time>
      </trkpt>
      <trkpt lat="43.46133" lon="1.41709">
        <ele>81.99375916</ele>
        <time>2018-09-09T08:27:39Z</time>
      </trkpt>
      <trkpt lat="43.46145" lon="1.41719">
        <ele>81.99375916</ele>
        <time>2018-09-09T08:27:44Z</time>
      </trkpt>
      <trkpt lat="43.46151" lon="1.41734">
        <ele>81.99375916</ele>
        <time>2018-09-09T08:27:46Z</time>
      </trkpt>
      <trkpt lat="43.46155" lon="1.41745">
        <ele>81.99375916</ele>
        <time>2018-09-09T08:27:50Z</time>
      </trkpt>
      <trkpt lat="43.46162" lon="1.41755">
        <ele>81.99375916</ele>
        <time>2018-09-09T08:27:54Z</time>
      </trkpt>
      <trkpt lat="43.46171" lon="1.41763">
        <ele>82.0868454</ele>
        <time>2018-09-09T08:28:28Z</time>
      </trkpt>
      <trkpt lat="43.46178" lon="1.41772">
        <ele>82.0868454</ele>
        <time>2018-09-09T08:28:37Z</time>
      </trkpt>
      <trkpt lat="43.46191" lon="1.41774">
        <ele>82.0868454</ele>
        <time>2018-09-09T08:28:42Z</time>
      </trkpt>
      <trkpt lat="43.46206" lon="1.4178">
        <ele>82.0868454</ele>
        <time>2018-09-09T08:28:46Z</time>
      </trkpt>
      <trkpt lat="43.46219" lon="1.41786">
        <ele>82.0868454</ele>
        <time>2018-09-09T08:28:49Z</time>
      </trkpt>
      <trkpt lat="43.46233" lon="1.41794">
        <ele>82.0868454</ele>
        <time>2018-09-09T08:28:52Z</time>
      </trkpt>
      <trkpt lat="43.46248" lon="1.41802">
        <ele>82.0868454</ele>
        <time>2018-09-09T08:28:55Z</time>
      </trkpt>
      <trkpt lat="43.46262" lon="1.4181">
        <ele>82.0868454</ele>
        <time>2018-09-09T08:28:58Z</time>
      </trkpt>
      <trkpt lat="43.46276" lon="1.41812">
        <ele>82.0868454</ele>
        <time>2018-09-09T08:29:01Z</time>
      </trkpt>
      <trkpt lat="43.46293" lon="1.41815">
        <ele>81.7879715</ele>
        <time>2018-09-09T08:29:04Z</time>
      </trkpt>
      <trkpt lat="43.463" lon="1.41822">
        <ele>81.7879715</ele>
        <time>2018-09-09T08:29:06Z</time>
      </trkpt>
      <trkpt lat="43.46311" lon="1.41827">
        <ele>81.7879715</ele>
        <time>2018-09-09T08:29:09Z</time>
      </trkpt>
      <trkpt lat="43.46338" lon="1.4183">
        <ele>81.18076324</ele>
        <time>2018-09-09T08:29:14Z</time>
      </trkpt>
      <trkpt lat="43.46354" lon="1.41829">
        <ele>81.18076324</ele>
        <time>2018-09-09T08:29:16Z</time>
      </trkpt>
      <trkpt lat="43.46366" lon="1.41828">
        <ele>81.18076324</ele>
        <time>2018-09-09T08:29:19Z</time>
      </trkpt>
      <trkpt lat="43.46378" lon="1.41825">
        <ele>81.18076324</ele>
        <time>2018-09-09T08:29:22Z</time>
      </trkpt>
      <trkpt lat="43.46384" lon="1.41817">
        <ele>81.18076324</ele>
        <time>2018-09-09T08:29:24Z</time>
      </trkpt>
      <trkpt lat="43.46394" lon="1.41809">
        <ele>81.18076324</ele>
        <time>2018-09-09T08:29:27Z</time>
      </trkpt>
      <trkpt lat="43.46404" lon="1.41808">
        <ele>80.72412109</ele>
        <time>2018-09-09T08:29:34Z</time>
      </trkpt>
      <trkpt lat="43.46412" lon="1.41822">
        <ele>80.72412109</ele>
        <time>2018-09-09T08:29:38Z</time>
      </trkpt>
      <trkpt lat="43.46421" lon="1.41829">
        <ele>80.72412109</ele>
        <time>2018-09-09T08:29:40Z</time>
      </trkpt>
      <trkpt lat="43.46432" lon="1.41826">
        <ele>80.72412109</ele>
        <time>2018-09-09T08:29:45Z</time>
      </trkpt>
      <trkpt lat="43.46443" lon="1.4182">
        <ele>80.72412109</ele>
        <time>2018-09-09T08:29:50Z</time>
      </trkpt>
      <trkpt lat="43.46453" lon="1.41828">
        <ele>80.72412109</ele>
        <time>2018-09-09T08:29:54Z</time>
      </trkpt>
      <trkpt lat="43.46463" lon="1.41836">
        <ele>81.27309418</ele>
        <time>2018-09-09T08:29:58Z</time>
      </trkpt>
      <trkpt lat="43.46476" lon="1.41835">
        <ele>81.27309418</ele>
        <time>2018-09-09T08:30:01Z</time>
      </trkpt>
      <trkpt lat="43.46489" lon="1.41832">
        <ele>81.27309418</ele>
        <time>2018-09-09T08:30:03Z</time>
      </trkpt>
      <trkpt lat="43.46492" lon="1.41831">
        <ele>80.23956299</ele>
        <time>2018-09-09T08:30:04Z</time>
      </trkpt>
      <trkpt lat="43.46502" lon="1.41825">
        <ele>80.23956299</ele>
        <time>2018-09-09T08:30:06Z</time>
      </trkpt>
      <trkpt lat="43.46515" lon="1.41821">
        <ele>80.23956299</ele>
        <time>2018-09-09T08:30:08Z</time>
      </trkpt>
      <trkpt lat="43.46527" lon="1.41817">
        <ele>80.23956299</ele>
        <time>2018-09-09T08:30:10Z</time>
      </trkpt>
      <trkpt lat="43.46541" lon="1.41817">
        <ele>80.23956299</ele>
        <time>2018-09-09T08:30:12Z</time>
      </trkpt>
      <trkpt lat="43.46554" lon="1.41815">
        <ele>80.23956299</ele>
        <time>2018-09-09T08:30:14Z</time>
      </trkpt>
      <trkpt lat="43.46565" lon="1.41812">
        <ele>80.23956299</ele>
        <time>2018-09-09T08:30:16Z</time>
      </trkpt>
      <trkpt lat="43.46578" lon="1.41815">
        <ele>80.23956299</ele>
        <time>2018-09-09T08:30:18Z</time>
      </trkpt>
      <trkpt lat="43.46589" lon="1.41813">
        <ele>80.23956299</ele>
        <time>2018-09-09T08:30:20Z</time>
      </trkpt>
      <trkpt lat="43.46602" lon="1.41813">
        <ele>80.23956299</ele>
        <time>2018-09-09T08:30:22Z</time>
      </trkpt>
      <trkpt lat="43.46615" lon="1.41813">
        <ele>80.23956299</ele>
        <time>2018-09-09T08:30:24Z</time>
      </trkpt>
      <trkpt lat="43.46628" lon="1.41808">
        <ele>79.58575439</ele>
        <time>2018-09-09T08:30:26Z</time>
      </trkpt>
      <trkpt lat="43.4664" lon="1.41809">
        <ele>79.58575439</ele>
        <time>2018-09-09T08:30:28Z</time>
      </trkpt>
      <trkpt lat="43.46653" lon="1.41809">
        <ele>79.58575439</ele>
        <time>2018-09-09T08:30:31Z</time>
      </trkpt>
      <trkpt lat="43.46667" lon="1.41804">
        <ele>79.58575439</ele>
        <time>2018-09-09T08:30:34Z</time>
      </trkpt>
      <trkpt lat="43.46679" lon="1.41805">
        <ele>79.58575439</ele>
        <time>2018-09-09T08:30:37Z</time>
      </trkpt>
      <trkpt lat="43.4669" lon="1.41812">
        <ele>78.77786255</ele>
        <time>2018-09-09T08:42:26Z</time>
      </trkpt>
      <trkpt lat="43.4669" lon="1.41809">
        <ele>78.77786255</ele>
        <time>2018-09-09T08:42:32Z</time>
      </trkpt>
      <trkpt lat="43.46708" lon="1.41813">
        <ele>78.77786255</ele>
        <time>2018-09-09T08:42:38Z</time>
      </trkpt>
      <trkpt lat="43.46719" lon="1.41815">
        <ele>78.77786255</ele>
        <time>2018-09-09T08:42:40Z</time>
      </trkpt>
      <trkpt lat="43.46732" lon="1.41819">
        <ele>78.54898071</ele>
        <time>2018-09-09T08:42:44Z</time>
      </trkpt>
      <trkpt lat="43.46743" lon="1.41828">
        <ele>78.54898071</ele>
        <time>2018-09-09T08:42:49Z</time>
      </trkpt>
      <trkpt lat="43.46752" lon="1.41827">
        <ele>78.54898071</ele>
        <time>2018-09-09T08:42:55Z</time>
      </trkpt>
      <trkpt lat="43.46763" lon="1.41834">
        <ele>78.54898071</ele>
        <time>2018-09-09T08:43:00Z</time>
      </trkpt>
      <trkpt lat="43.46773" lon="1.41838">
        <ele>77.5763092</ele>
        <time>2018-09-09T08:43:04Z</time>
      </trkpt>
      <trkpt lat="43.46783" lon="1.41841">
        <ele>77.5763092</ele>
        <time>2018-09-09T08:43:07Z</time>
      </trkpt>
      <trkpt lat="43.46796" lon="1.41841">
        <ele>77.5763092</ele>
        <time>2018-09-09T08:43:11Z</time>
      </trkpt>
      <trkpt lat="43.46808" lon="1.41841">
        <ele>77.5763092</ele>
        <time>2018-09-09T08:43:15Z</time>
      </trkpt>
      <trkpt lat="43.4682" lon="1.41842">
        <ele>77.5763092</ele>
        <time>2018-09-09T08:43:19Z</time>
      </trkpt>
      <trkpt lat="43.46833" lon="1.41846">
        <ele>77.5763092</ele>
        <time>2018-09-09T08:43:22Z</time>
      </trkpt>
      <trkpt lat="43.46846" lon="1.41849">
        <ele>77.5763092</ele>
        <time>2018-09-09T08:43:25Z</time>
      </trkpt>
      <trkpt lat="43.46855" lon="1.41849">
        <ele>77.43138123</ele>
        <time>2018-09-09T08:43:46Z</time>
      </trkpt>
      <trkpt lat="43.46866" lon="1.41846">
        <ele>78.6001358</ele>
        <time>2018-09-09T08:43:53Z</time>
      </trkpt>
      <trkpt lat="43.4688" lon="1.41848">
        <ele>78.6001358</ele>
        <time>2018-09-09T08:43:57Z</time>
      </trkpt>
      <trkpt lat="43.4689" lon="1.41848">
        <ele>78.6001358</ele>
        <time>2018-09-09T08:44:01Z</time>
      </trkpt>
      <trkpt lat="43.46903" lon="1.41851">
        <ele>78.6001358</ele>
        <time>2018-09-09T08:44:03Z</time>
      </trkpt>
      <trkpt lat="43.46906" lon="1.41853">
        <ele>79.78686523</ele>
        <time>2018-09-09T08:44:04Z</time>
      </trkpt>
      <trkpt lat="43.46913" lon="1.41856">
        <ele>79.78686523</ele>
        <time>2018-09-09T08:44:06Z</time>
      </trkpt>
      <trkpt lat="43.46939" lon="1.4187">
        <ele>79.78686523</ele>
        <time>2018-09-09T08:44:13Z</time>
      </trkpt>
      <trkpt lat="43.46954" lon="1.41878">
        <ele>79.19413757</ele>
        <time>2018-09-09T08:44:14Z</time>
      </trkpt>
      <trkpt lat="43.46967" lon="1.41884">
        <ele>79.19413757</ele>
        <time>2018-09-09T08:44:17Z</time>
      </trkpt>
      <trkpt lat="43.4698" lon="1.41886">
        <ele>79.19413757</ele>
        <time>2018-09-09T08:44:20Z</time>
      </trkpt>
      <trkpt lat="43.46991" lon="1.4189">
        <ele>79.19413757</ele>
        <time>2018-09-09T08:44:23Z</time>
      </trkpt>
      <trkpt lat="43.47005" lon="1.41896">
        <ele>79.19413757</ele>
        <time>2018-09-09T08:44:26Z</time>
      </trkpt>
      <trkpt lat="43.47017" lon="1.419">
        <ele>79.19413757</ele>
        <time>2018-09-09T08:44:28Z</time>
      </trkpt>
      <trkpt lat="43.47027" lon="1.41901">
        <ele>79.19413757</ele>
        <time>2018-09-09T08:44:32Z</time>
      </trkpt>
      <trkpt lat="43.4704" lon="1.41905">
        <ele>79.19413757</ele>
        <time>2018-09-09T08:44:36Z</time>
      </trkpt>
      <trkpt lat="43.47054" lon="1.41908">
        <ele>79.19413757</ele>
        <time>2018-09-09T08:44:38Z</time>
      </trkpt>
      <trkpt lat="43.47066" lon="1.4191">
        <ele>79.19413757</ele>
        <time>2018-09-09T08:44:41Z</time>
      </trkpt>
      <trkpt lat="43.47077" lon="1.41912">
        <ele>79.19413757</ele>
        <time>2018-09-09T08:44:43Z</time>
      </trkpt>
      <trkpt lat="43.47089" lon="1.41917">
        <ele>79.19413757</ele>
        <time>2018-09-09T08:44:47Z</time>
      </trkpt>
      <trkpt lat="43.47103" lon="1.41919">
        <ele>79.19413757</ele>
        <time>2018-09-09T08:44:50Z</time>
      </trkpt>
      <trkpt lat="43.47113" lon="1.41919">
        <ele>79.19413757</ele>
        <time>2018-09-09T08:44:53Z</time>
      </trkpt>
      <trkpt lat="43.47124" lon="1.41916">
        <ele>79.19413757</ele>
        <time>2018-09-09T08:44:56Z</time>
      </trkpt>
      <trkpt lat="43.47136" lon="1.41917">
        <ele>79.19413757</ele>
        <time>2018-09-09T08:44:59Z</time>
      </trkpt>
      <trkpt lat="43.4715" lon="1.41919">
        <ele>79.19413757</ele>
        <time>2018-09-09T08:45:02Z</time>
      </trkpt>
      <trkpt lat="43.47158" lon="1.4192">
        <ele>77.8392334</ele>
        <time>2018-09-09T08:45:04Z</time>
      </trkpt>
      <trkpt lat="43.47167" lon="1.4192">
        <ele>77.8392334</ele>
        <time>2018-09-09T08:45:07Z</time>
      </trkpt>
      <trkpt lat="43.47179" lon="1.41918">
        <ele>77.8392334</ele>
        <time>2018-09-09T08:45:10Z</time>
      </trkpt>
      <trkpt lat="43.47189" lon="1.41919">
        <ele>77.8392334</ele>
        <time>2018-09-09T08:45:12Z</time>
      </trkpt>
      <trkpt lat="43.47202" lon="1.41921">
        <ele>77.8392334</ele>
        <time>2018-09-09T08:45:16Z</time>
      </trkpt>
      <trkpt lat="43.47215" lon="1.41921">
        <ele>77.8392334</ele>
        <time>2018-09-09T08:45:18Z</time>
      </trkpt>
      <trkpt lat="43.47226" lon="1.41921">
        <ele>77.8392334</ele>
        <time>2018-09-09T08:45:22Z</time>
      </trkpt>
      <trkpt lat="43.47242" lon="1.41923">
        <ele>77.8392334</ele>
        <time>2018-09-09T08:45:25Z</time>
      </trkpt>
      <trkpt lat="43.47256" lon="1.41921">
        <ele>77.8392334</ele>
        <time>2018-09-09T08:45:28Z</time>
      </trkpt>
      <trkpt lat="43.47269" lon="1.4192">
        <ele>77.8392334</ele>
        <time>2018-09-09T08:45:31Z</time>
      </trkpt>
      <trkpt lat="43.47281" lon="1.41916">
        <ele>77.8392334</ele>
        <time>2018-09-09T08:45:34Z</time>
      </trkpt>
      <trkpt lat="43.47295" lon="1.41915">
        <ele>77.8392334</ele>
        <time>2018-09-09T08:45:37Z</time>
      </trkpt>
      <trkpt lat="43.47309" lon="1.41918">
        <ele>77.8392334</ele>
        <time>2018-09-09T08:45:40Z</time>
      </trkpt>
      <trkpt lat="43.47322" lon="1.41915">
        <ele>77.8392334</ele>
        <time>2018-09-09T08:45:45Z</time>
      </trkpt>
      <trkpt lat="43.47334" lon="1.41913">
        <ele>77.8392334</ele>
        <time>2018-09-09T08:45:48Z</time>
      </trkpt>
      <trkpt lat="43.47347" lon="1.41911">
        <ele>77.8392334</ele>
        <time>2018-09-09T08:45:51Z</time>
      </trkpt>
      <trkpt lat="43.47358" lon="1.41902">
        <ele>77.8392334</ele>
        <time>2018-09-09T08:45:54Z</time>
      </trkpt>
      <trkpt lat="43.47371" lon="1.41899">
        <ele>77.8392334</ele>
        <time>2018-09-09T08:45:57Z</time>
      </trkpt>
      <trkpt lat="43.47382" lon="1.41893">
        <ele>77.8392334</ele>
        <time>2018-09-09T08:46:01Z</time>
      </trkpt>
      <trkpt lat="43.47395" lon="1.41893">
        <ele>77.8392334</ele>
        <time>2018-09-09T08:46:03Z</time>
      </trkpt>
      <trkpt lat="43.47398" lon="1.41893">
        <ele>77.66448975</ele>
        <time>2018-09-09T08:46:04Z</time>
      </trkpt>
      <trkpt lat="43.47406" lon="1.41891">
        <ele>77.66448975</ele>
        <time>2018-09-09T08:46:06Z</time>
      </trkpt>
      <trkpt lat="43.47436" lon="1.41884">
        <ele>77.66448975</ele>
        <time>2018-09-09T08:46:11Z</time>
      </trkpt>
      <trkpt lat="43.47446" lon="1.41878">
        <ele>77.66448975</ele>
        <time>2018-09-09T08:46:17Z</time>
      </trkpt>
      <trkpt lat="43.47456" lon="1.41874">
        <ele>77.66448975</ele>
        <time>2018-09-09T08:46:23Z</time>
      </trkpt>
      <trkpt lat="43.47466" lon="1.41868">
        <ele>77.66448975</ele>
        <time>2018-09-09T08:46:27Z</time>
      </trkpt>
      <trkpt lat="43.47479" lon="1.41862">
        <ele>77.66448975</ele>
        <time>2018-09-09T08:46:31Z</time>
      </trkpt>
      <trkpt lat="43.4749" lon="1.41851">
        <ele>77.66448975</ele>
        <time>2018-09-09T08:46:36Z</time>
      </trkpt>
      <trkpt lat="43.47502" lon="1.41838">
        <ele>77.66448975</ele>
        <time>2018-09-09T08:46:39Z</time>
      </trkpt>
      <trkpt lat="43.47512" lon="1.41827">
        <ele>77.66448975</ele>
        <time>2018-09-09T08:46:43Z</time>
      </trkpt>
      <trkpt lat="43.47522" lon="1.41816">
        <ele>77.66448975</ele>
        <time>2018-09-09T08:46:48Z</time>
      </trkpt>
      <trkpt lat="43.47538" lon="1.41801">
        <ele>77.66448975</ele>
        <time>2018-09-09T08:46:51Z</time>
      </trkpt>
      <trkpt lat="43.47558" lon="1.41788">
        <ele>77.66448975</ele>
        <time>2018-09-09T08:46:53Z</time>
      </trkpt>
      <trkpt lat="43.47574" lon="1.41778">
        <ele>77.66448975</ele>
        <time>2018-09-09T08:46:55Z</time>
      </trkpt>
      <trkpt lat="43.47588" lon="1.4177">
        <ele>77.66448975</ele>
        <time>2018-09-09T08:46:57Z</time>
      </trkpt>
      <trkpt lat="43.47599" lon="1.4176">
        <ele>77.48548889</ele>
        <time>2018-09-09T08:46:59Z</time>
      </trkpt>
      <trkpt lat="43.47609" lon="1.4175">
        <ele>77.48548889</ele>
        <time>2018-09-09T08:47:02Z</time>
      </trkpt>
      <trkpt lat="43.47615" lon="1.41744">
        <ele>76.30409241</ele>
        <time>2018-09-09T08:47:04Z</time>
      </trkpt>
      <trkpt lat="43.47622" lon="1.41737">
        <ele>76.30409241</ele>
        <time>2018-09-09T08:47:05Z</time>
      </trkpt>
      <trkpt lat="43.47627" lon="1.41725">
        <ele>76.30409241</ele>
        <time>2018-09-09T08:47:07Z</time>
      </trkpt>
      <trkpt lat="43.47629" lon="1.41713">
        <ele>76.30409241</ele>
        <time>2018-09-09T08:47:09Z</time>
      </trkpt>
      <trkpt lat="43.47636" lon="1.41703">
        <ele>76.30409241</ele>
        <time>2018-09-09T08:47:12Z</time>
      </trkpt>
      <trkpt lat="43.47646" lon="1.41691">
        <ele>76.30409241</ele>
        <time>2018-09-09T08:47:15Z</time>
      </trkpt>
      <trkpt lat="43.47656" lon="1.41678">
        <ele>76.30409241</ele>
        <time>2018-09-09T08:47:18Z</time>
      </trkpt>
      <trkpt lat="43.47663" lon="1.41665">
        <ele>76.30409241</ele>
        <time>2018-09-09T08:47:20Z</time>
      </trkpt>
      <trkpt lat="43.47662" lon="1.41655">
        <ele>75.99480438</ele>
        <time>2018-09-09T08:47:26Z</time>
      </trkpt>
      <trkpt lat="43.47665" lon="1.41645">
        <ele>75.99480438</ele>
        <time>2018-09-09T08:47:30Z</time>
      </trkpt>
      <trkpt lat="43.47669" lon="1.41633">
        <ele>75.99480438</ele>
        <time>2018-09-09T08:47:34Z</time>
      </trkpt>
      <trkpt lat="43.47672" lon="1.41622">
        <ele>75.99480438</ele>
        <time>2018-09-09T08:47:37Z</time>
      </trkpt>
      <trkpt lat="43.47679" lon="1.41611">
        <ele>75.99480438</ele>
        <time>2018-09-09T08:47:41Z</time>
      </trkpt>
      <trkpt lat="43.47689" lon="1.416">
        <ele>75.99480438</ele>
        <time>2018-09-09T08:47:45Z</time>
      </trkpt>
      <trkpt lat="43.47701" lon="1.41595">
        <ele>75.99480438</ele>
        <time>2018-09-09T08:47:48Z</time>
      </trkpt>
      <trkpt lat="43.4771" lon="1.4159">
        <ele>75.99480438</ele>
        <time>2018-09-09T08:47:52Z</time>
      </trkpt>
      <trkpt lat="43.47719" lon="1.41578">
        <ele>75.99480438</ele>
        <time>2018-09-09T08:47:55Z</time>
      </trkpt>
      <trkpt lat="43.47726" lon="1.41566">
        <ele>75.99480438</ele>
        <time>2018-09-09T08:47:58Z</time>
      </trkpt>
      <trkpt lat="43.47733" lon="1.41554">
        <ele>75.99480438</ele>
        <time>2018-09-09T08:48:02Z</time>
      </trkpt>
      <trkpt lat="43.47739" lon="1.41545">
        <ele>77.48107147</ele>
        <time>2018-09-09T08:48:04Z</time>
      </trkpt>
      <trkpt lat="43.47744" lon="1.41538">
        <ele>77.48107147</ele>
        <time>2018-09-09T08:48:06Z</time>
      </trkpt>
      <trkpt lat="43.47752" lon="1.41528">
        <ele>77.48107147</ele>
        <time>2018-09-09T08:48:09Z</time>
      </trkpt>
      <trkpt lat="43.47759" lon="1.41515">
        <ele>77.48107147</ele>
        <time>2018-09-09T08:48:12Z</time>
      </trkpt>
      <trkpt lat="43.47769" lon="1.41501">
        <ele>77.48107147</ele>
        <time>2018-09-09T08:48:15Z</time>
      </trkpt>
      <trkpt lat="43.4778" lon="1.41485">
        <ele>77.48107147</ele>
        <time>2018-09-09T08:48:18Z</time>
      </trkpt>
      <trkpt lat="43.47786" lon="1.41476">
        <ele>77.48107147</ele>
        <time>2018-09-09T08:48:21Z</time>
      </trkpt>
      <trkpt lat="43.47791" lon="1.41466">
        <ele>77.48107147</ele>
        <time>2018-09-09T08:48:24Z</time>
      </trkpt>
      <trkpt lat="43.47795" lon="1.41452">
        <ele>77.48107147</ele>
        <time>2018-09-09T08:48:27Z</time>
      </trkpt>
      <trkpt lat="43.47799" lon="1.4144">
        <ele>77.48107147</ele>
        <time>2018-09-09T08:48:30Z</time>
      </trkpt>
      <trkpt lat="43.47802" lon="1.41427">
        <ele>77.48107147</ele>
        <time>2018-09-09T08:48:33Z</time>
      </trkpt>
      <trkpt lat="43.47805" lon="1.41412">
        <ele>77.48107147</ele>
        <time>2018-09-09T08:48:35Z</time>
      </trkpt>
      <trkpt lat="43.47809" lon="1.41401">
        <ele>77.48107147</ele>
        <time>2018-09-09T08:48:38Z</time>
      </trkpt>
      <trkpt lat="43.47815" lon="1.41389">
        <ele>77.48107147</ele>
        <time>2018-09-09T08:48:43Z</time>
      </trkpt>
      <trkpt lat="43.47826" lon="1.41378">
        <ele>77.48107147</ele>
        <time>2018-09-09T08:48:46Z</time>
      </trkpt>
      <trkpt lat="43.47833" lon="1.41367">
        <ele>77.48107147</ele>
        <time>2018-09-09T08:48:49Z</time>
      </trkpt>
      <trkpt lat="43.47841" lon="1.41356">
        <ele>77.48107147</ele>
        <time>2018-09-09T08:48:51Z</time>
      </trkpt>
      <trkpt lat="43.4785" lon="1.41344">
        <ele>77.48107147</ele>
        <time>2018-09-09T08:48:55Z</time>
      </trkpt>
      <trkpt lat="43.47859" lon="1.41335">
        <ele>77.48107147</ele>
        <time>2018-09-09T08:49:00Z</time>
      </trkpt>
      <trkpt lat="43.47873" lon="1.41328">
        <ele>77.48107147</ele>
        <time>2018-09-09T08:49:03Z</time>
      </trkpt>
      <trkpt lat="43.47877" lon="1.41326">
        <ele>77.45491791</ele>
        <time>2018-09-09T08:49:04Z</time>
      </trkpt>
      <trkpt lat="43.47885" lon="1.41319">
        <ele>77.45491791</ele>
        <time>2018-09-09T08:49:08Z</time>
      </trkpt>
      <trkpt lat="43.47896" lon="1.41303">
        <ele>77.45491791</ele>
        <time>2018-09-09T08:49:13Z</time>
      </trkpt>
      <trkpt lat="43.47902" lon="1.4129">
        <ele>77.45491791</ele>
        <time>2018-09-09T08:49:16Z</time>
      </trkpt>
      <trkpt lat="43.47908" lon="1.41278">
        <ele>77.45491791</ele>
        <time>2018-09-09T08:49:19Z</time>
      </trkpt>
      <trkpt lat="43.47913" lon="1.41267">
        <ele>77.45491791</ele>
        <time>2018-09-09T08:49:22Z</time>
      </trkpt>
      <trkpt lat="43.47915" lon="1.41256">
        <ele>77.45491791</ele>
        <time>2018-09-09T08:49:23Z</time>
      </trkpt>
      <trkpt lat="43.47917" lon="1.41244">
        <ele>77.45491791</ele>
        <time>2018-09-09T08:49:25Z</time>
      </trkpt>
      <trkpt lat="43.47922" lon="1.41232">
        <ele>77.45491791</ele>
        <time>2018-09-09T08:49:27Z</time>
      </trkpt>
      <trkpt lat="43.4793" lon="1.41221">
        <ele>77.45491791</ele>
        <time>2018-09-09T08:49:30Z</time>
      </trkpt>
      <trkpt lat="43.47938" lon="1.41211">
        <ele>77.45491791</ele>
        <time>2018-09-09T08:49:34Z</time>
      </trkpt>
      <trkpt lat="43.47944" lon="1.41199">
        <ele>77.45491791</ele>
        <time>2018-09-09T08:49:37Z</time>
      </trkpt>
      <trkpt lat="43.47954" lon="1.41188">
        <ele>77.45491791</ele>
        <time>2018-09-09T08:49:42Z</time>
      </trkpt>
      <trkpt lat="43.47961" lon="1.41177">
        <ele>77.45491791</ele>
        <time>2018-09-09T08:49:45Z</time>
      </trkpt>
      <trkpt lat="43.47966" lon="1.41167">
        <ele>77.45491791</ele>
        <time>2018-09-09T08:49:48Z</time>
      </trkpt>
      <trkpt lat="43.47975" lon="1.41156">
        <ele>77.45491791</ele>
        <time>2018-09-09T08:49:51Z</time>
      </trkpt>
      <trkpt lat="43.47986" lon="1.41145">
        <ele>77.45491791</ele>
        <time>2018-09-09T08:49:54Z</time>
      </trkpt>
      <trkpt lat="43.47998" lon="1.41133">
        <ele>77.45491791</ele>
        <time>2018-09-09T08:49:57Z</time>
      </trkpt>
      <trkpt lat="43.48009" lon="1.41121">
        <ele>77.45491791</ele>
        <time>2018-09-09T08:50:00Z</time>
      </trkpt>
      <trkpt lat="43.48015" lon="1.41109">
        <ele>77.45491791</ele>
        <time>2018-09-09T08:50:02Z</time>
      </trkpt>
      <trkpt lat="43.48022" lon="1.41099">
        <ele>77.71590424</ele>
        <time>2018-09-09T08:50:05Z</time>
      </trkpt>
      <trkpt lat="43.48028" lon="1.41088">
        <ele>77.71590424</ele>
        <time>2018-09-09T08:50:07Z</time>
      </trkpt>
      <trkpt lat="43.48035" lon="1.41067">
        <ele>77.71590424</ele>
        <time>2018-09-09T08:50:22Z</time>
      </trkpt>
      <trkpt lat="43.48044" lon="1.41081">
        <ele>77.71590424</ele>
        <time>2018-09-09T08:50:46Z</time>
      </trkpt>
      <trkpt lat="43.48053" lon="1.41082">
        <ele>77.71590424</ele>
        <time>2018-09-09T08:50:53Z</time>
      </trkpt>
      <trkpt lat="43.4806" lon="1.41068">
        <ele>77.71590424</ele>
        <time>2018-09-09T08:50:56Z</time>
      </trkpt>
      <trkpt lat="43.48066" lon="1.41057">
        <ele>77.71590424</ele>
        <time>2018-09-09T08:50:59Z</time>
      </trkpt>
      <trkpt lat="43.4807" lon="1.41046">
        <ele>77.71590424</ele>
        <time>2018-09-09T08:51:02Z</time>
      </trkpt>
      <trkpt lat="43.48076" lon="1.41036">
        <ele>77.73551941</ele>
        <time>2018-09-09T08:51:05Z</time>
      </trkpt>
      <trkpt lat="43.48082" lon="1.41026">
        <ele>77.73551941</ele>
        <time>2018-09-09T08:51:06Z</time>
      </trkpt>
      <trkpt lat="43.48087" lon="1.41013">
        <ele>77.73551941</ele>
        <time>2018-09-09T08:51:08Z</time>
      </trkpt>
      <trkpt lat="43.48094" lon="1.41001">
        <ele>77.73551941</ele>
        <time>2018-09-09T08:51:12Z</time>
      </trkpt>
      <trkpt lat="43.48101" lon="1.40989">
        <ele>77.73551941</ele>
        <time>2018-09-09T08:51:15Z</time>
      </trkpt>
      <trkpt lat="43.48108" lon="1.40978">
        <ele>77.73551941</ele>
        <time>2018-09-09T08:51:19Z</time>
      </trkpt>
      <trkpt lat="43.48118" lon="1.40965">
        <ele>77.73551941</ele>
        <time>2018-09-09T08:51:23Z</time>
      </trkpt>
      <trkpt lat="43.48128" lon="1.40954">
        <ele>77.73551941</ele>
        <time>2018-09-09T08:51:26Z</time>
      </trkpt>
      <trkpt lat="43.48135" lon="1.40939">
        <ele>77.73551941</ele>
        <time>2018-09-09T08:51:29Z</time>
      </trkpt>
      <trkpt lat="43.48144" lon="1.40926">
        <ele>77.73551941</ele>
        <time>2018-09-09T08:51:32Z</time>
      </trkpt>
      <trkpt lat="43.48152" lon="1.40912">
        <ele>77.73551941</ele>
        <time>2018-09-09T08:51:34Z</time>
      </trkpt>
      <trkpt lat="43.48158" lon="1.40897">
        <ele>77.73551941</ele>
        <time>2018-09-09T08:51:36Z</time>
      </trkpt>
      <trkpt lat="43.48165" lon="1.40885">
        <ele>77.73551941</ele>
        <time>2018-09-09T08:51:39Z</time>
      </trkpt>
      <trkpt lat="43.48175" lon="1.40871">
        <ele>77.73551941</ele>
        <time>2018-09-09T08:51:42Z</time>
      </trkpt>
      <trkpt lat="43.48184" lon="1.40856">
        <ele>76.55870819</ele>
        <time>2018-09-09T08:51:44Z</time>
      </trkpt>
      <trkpt lat="43.48192" lon="1.40843">
        <ele>76.55870819</ele>
        <time>2018-09-09T08:51:46Z</time>
      </trkpt>
      <trkpt lat="43.48198" lon="1.4083">
        <ele>76.55870819</ele>
        <time>2018-09-09T08:51:48Z</time>
      </trkpt>
      <trkpt lat="43.48196" lon="1.4082">
        <ele>76.55870819</ele>
        <time>2018-09-09T08:51:50Z</time>
      </trkpt>
      <trkpt lat="43.48193" lon="1.40809">
        <ele>76.24638367</ele>
        <time>2018-09-09T08:51:52Z</time>
      </trkpt>
      <trkpt lat="43.48192" lon="1.40799">
        <ele>76.24638367</ele>
        <time>2018-09-09T08:51:55Z</time>
      </trkpt>
      <trkpt lat="43.48196" lon="1.40786">
        <ele>76.24638367</ele>
        <time>2018-09-09T08:51:58Z</time>
      </trkpt>
      <trkpt lat="43.48207" lon="1.40774">
        <ele>76.24638367</ele>
        <time>2018-09-09T08:52:01Z</time>
      </trkpt>
      <trkpt lat="43.48215" lon="1.4076">
        <ele>76.24638367</ele>
        <time>2018-09-09T08:52:04Z</time>
      </trkpt>
      <trkpt lat="43.48218" lon="1.40756">
        <ele>77.45230865</ele>
        <time>2018-09-09T08:52:05Z</time>
      </trkpt>
      <trkpt lat="43.48222" lon="1.40748">
        <ele>77.45230865</ele>
        <time>2018-09-09T08:52:06Z</time>
      </trkpt>
      <trkpt lat="43.48229" lon="1.40738">
        <ele>77.45230865</ele>
        <time>2018-09-09T08:52:08Z</time>
      </trkpt>
      <trkpt lat="43.48236" lon="1.40725">
        <ele>77.45230865</ele>
        <time>2018-09-09T08:52:11Z</time>
      </trkpt>
      <trkpt lat="43.48246" lon="1.4071">
        <ele>77.45230865</ele>
        <time>2018-09-09T08:52:14Z</time>
      </trkpt>
      <trkpt lat="43.48257" lon="1.40698">
        <ele>77.45230865</ele>
        <time>2018-09-09T08:52:17Z</time>
      </trkpt>
      <trkpt lat="43.48267" lon="1.40684">
        <ele>77.45230865</ele>
        <time>2018-09-09T08:52:20Z</time>
      </trkpt>
      <trkpt lat="43.48278" lon="1.40674">
        <ele>77.45230865</ele>
        <time>2018-09-09T08:52:23Z</time>
      </trkpt>
      <trkpt lat="43.48289" lon="1.40663">
        <ele>77.45230865</ele>
        <time>2018-09-09T08:52:26Z</time>
      </trkpt>
      <trkpt lat="43.48299" lon="1.4065">
        <ele>77.45230865</ele>
        <time>2018-09-09T08:52:29Z</time>
      </trkpt>
      <trkpt lat="43.48312" lon="1.40636">
        <ele>77.45230865</ele>
        <time>2018-09-09T08:52:32Z</time>
      </trkpt>
      <trkpt lat="43.48323" lon="1.40623">
        <ele>77.45230865</ele>
        <time>2018-09-09T08:52:34Z</time>
      </trkpt>
      <trkpt lat="43.48332" lon="1.40613">
        <ele>77.45230865</ele>
        <time>2018-09-09T08:52:36Z</time>
      </trkpt>
      <trkpt lat="43.4834" lon="1.40603">
        <ele>77.45230865</ele>
        <time>2018-09-09T08:52:38Z</time>
      </trkpt>
      <trkpt lat="43.48347" lon="1.4059">
        <ele>77.45230865</ele>
        <time>2018-09-09T08:52:41Z</time>
      </trkpt>
      <trkpt lat="43.48357" lon="1.40578">
        <ele>77.45230865</ele>
        <time>2018-09-09T08:52:43Z</time>
      </trkpt>
      <trkpt lat="43.48366" lon="1.40566">
        <ele>77.45230865</ele>
        <time>2018-09-09T08:52:45Z</time>
      </trkpt>
      <trkpt lat="43.48375" lon="1.40555">
        <ele>77.45230865</ele>
        <time>2018-09-09T08:52:48Z</time>
      </trkpt>
      <trkpt lat="43.48385" lon="1.40543">
        <ele>77.45230865</ele>
        <time>2018-09-09T08:52:50Z</time>
      </trkpt>
      <trkpt lat="43.48391" lon="1.40532">
        <ele>77.45230865</ele>
        <time>2018-09-09T08:52:52Z</time>
      </trkpt>
      <trkpt lat="43.48397" lon="1.40521">
        <ele>77.45230865</ele>
        <time>2018-09-09T08:52:54Z</time>
      </trkpt>
      <trkpt lat="43.48405" lon="1.4051">
        <ele>76.9686203</ele>
        <time>2018-09-09T08:52:56Z</time>
      </trkpt>
      <trkpt lat="43.48413" lon="1.405">
        <ele>76.9686203</ele>
        <time>2018-09-09T08:52:58Z</time>
      </trkpt>
      <trkpt lat="43.4842" lon="1.40489">
        <ele>76.9686203</ele>
        <time>2018-09-09T08:53:00Z</time>
      </trkpt>
      <trkpt lat="43.48431" lon="1.40476">
        <ele>76.9686203</ele>
        <time>2018-09-09T08:53:03Z</time>
      </trkpt>
      <trkpt lat="43.48439" lon="1.4047">
        <ele>76.16092682</ele>
        <time>2018-09-09T08:53:05Z</time>
      </trkpt>
      <trkpt lat="43.48447" lon="1.40464">
        <ele>76.16092682</ele>
        <time>2018-09-09T08:53:07Z</time>
      </trkpt>
      <trkpt lat="43.48458" lon="1.40455">
        <ele>76.16092682</ele>
        <time>2018-09-09T08:53:11Z</time>
      </trkpt>
      <trkpt lat="43.48463" lon="1.40443">
        <ele>76.16092682</ele>
        <time>2018-09-09T08:53:14Z</time>
      </trkpt>
      <trkpt lat="43.48459" lon="1.40428">
        <ele>76.16092682</ele>
        <time>2018-09-09T08:53:16Z</time>
      </trkpt>
      <trkpt lat="43.48456" lon="1.40412">
        <ele>76.16092682</ele>
        <time>2018-09-09T08:53:18Z</time>
      </trkpt>
      <trkpt lat="43.48452" lon="1.40402">
        <ele>76.16092682</ele>
        <time>2018-09-09T08:53:21Z</time>
      </trkpt>
      <trkpt lat="43.48457" lon="1.40393">
        <ele>76.16092682</ele>
        <time>2018-09-09T08:53:25Z</time>
      </trkpt>
      <trkpt lat="43.48469" lon="1.40394">
        <ele>76.22246552</ele>
        <time>2018-09-09T08:53:29Z</time>
      </trkpt>
      <trkpt lat="43.4848" lon="1.40402">
        <ele>76.22246552</ele>
        <time>2018-09-09T08:53:31Z</time>
      </trkpt>
      <trkpt lat="43.48487" lon="1.40413">
        <ele>76.22246552</ele>
        <time>2018-09-09T08:53:33Z</time>
      </trkpt>
      <trkpt lat="43.48494" lon="1.40423">
        <ele>76.22246552</ele>
        <time>2018-09-09T08:53:36Z</time>
      </trkpt>
      <trkpt lat="43.48506" lon="1.40436">
        <ele>76.22246552</ele>
        <time>2018-09-09T08:53:39Z</time>
      </trkpt>
      <trkpt lat="43.48518" lon="1.40447">
        <ele>76.22246552</ele>
        <time>2018-09-09T08:53:42Z</time>
      </trkpt>
      <trkpt lat="43.48532" lon="1.40456">
        <ele>76.22246552</ele>
        <time>2018-09-09T08:53:45Z</time>
      </trkpt>
      <trkpt lat="43.48544" lon="1.40465">
        <ele>76.22246552</ele>
        <time>2018-09-09T08:53:48Z</time>
      </trkpt>
      <trkpt lat="43.48558" lon="1.40474">
        <ele>76.22246552</ele>
        <time>2018-09-09T08:53:50Z</time>
      </trkpt>
      <trkpt lat="43.4857" lon="1.40476">
        <ele>76.22246552</ele>
        <time>2018-09-09T08:53:53Z</time>
      </trkpt>
      <trkpt lat="43.48583" lon="1.4048">
        <ele>76.22246552</ele>
        <time>2018-09-09T08:53:56Z</time>
      </trkpt>
      <trkpt lat="43.48597" lon="1.40489">
        <ele>76.22246552</ele>
        <time>2018-09-09T08:54:00Z</time>
      </trkpt>
      <trkpt lat="43.48609" lon="1.405">
        <ele>76.22246552</ele>
        <time>2018-09-09T08:54:01Z</time>
      </trkpt>
      <trkpt lat="43.48617" lon="1.40512">
        <ele>76.22246552</ele>
        <time>2018-09-09T08:54:04Z</time>
      </trkpt>
      <trkpt lat="43.48621" lon="1.40517">
        <ele>77.11315918</ele>
        <time>2018-09-09T08:54:05Z</time>
      </trkpt>
      <trkpt lat="43.48631" lon="1.40525">
        <ele>77.11315918</ele>
        <time>2018-09-09T08:54:06Z</time>
      </trkpt>
      <trkpt lat="43.48641" lon="1.40535">
        <ele>77.11315918</ele>
        <time>2018-09-09T08:54:09Z</time>
      </trkpt>
      <trkpt lat="43.48652" lon="1.40547">
        <ele>77.11315918</ele>
        <time>2018-09-09T08:54:12Z</time>
      </trkpt>
      <trkpt lat="43.48663" lon="1.40559">
        <ele>77.11315918</ele>
        <time>2018-09-09T08:54:14Z</time>
      </trkpt>
      <trkpt lat="43.48671" lon="1.40567">
        <ele>77.11315918</ele>
        <time>2018-09-09T08:54:17Z</time>
      </trkpt>
      <trkpt lat="43.48683" lon="1.40576">
        <ele>77.11315918</ele>
        <time>2018-09-09T08:54:20Z</time>
      </trkpt>
      <trkpt lat="43.48692" lon="1.40587">
        <ele>77.11315918</ele>
        <time>2018-09-09T08:54:23Z</time>
      </trkpt>
      <trkpt lat="43.48702" lon="1.40598">
        <ele>77.11315918</ele>
        <time>2018-09-09T08:54:26Z</time>
      </trkpt>
      <trkpt lat="43.48712" lon="1.40612">
        <ele>77.11315918</ele>
        <time>2018-09-09T08:54:29Z</time>
      </trkpt>
      <trkpt lat="43.48722" lon="1.40624">
        <ele>77.11315918</ele>
        <time>2018-09-09T08:54:32Z</time>
      </trkpt>
      <trkpt lat="43.4873" lon="1.40632">
        <ele>77.11315918</ele>
        <time>2018-09-09T08:54:37Z</time>
      </trkpt>
      <trkpt lat="43.48737" lon="1.40647">
        <ele>77.11315918</ele>
        <time>2018-09-09T08:54:40Z</time>
      </trkpt>
      <trkpt lat="43.48742" lon="1.40662">
        <ele>77.11315918</ele>
        <time>2018-09-09T08:54:42Z</time>
      </trkpt>
      <trkpt lat="43.48745" lon="1.40675">
        <ele>77.11315918</ele>
        <time>2018-09-09T08:54:44Z</time>
      </trkpt>
      <trkpt lat="43.48749" lon="1.40688">
        <ele>77.11315918</ele>
        <time>2018-09-09T08:54:46Z</time>
      </trkpt>
      <trkpt lat="43.48749" lon="1.40699">
        <ele>77.01916504</ele>
        <time>2018-09-09T08:54:49Z</time>
      </trkpt>
      <trkpt lat="43.4875" lon="1.40712">
        <ele>77.01916504</ele>
        <time>2018-09-09T08:54:52Z</time>
      </trkpt>
      <trkpt lat="43.48753" lon="1.40726">
        <ele>77.01916504</ele>
        <time>2018-09-09T08:54:55Z</time>
      </trkpt>
      <trkpt lat="43.48761" lon="1.40742">
        <ele>77.01916504</ele>
        <time>2018-09-09T08:54:58Z</time>
      </trkpt>
      <trkpt lat="43.48771" lon="1.40758">
        <ele>77.01916504</ele>
        <time>2018-09-09T08:55:01Z</time>
      </trkpt>
      <trkpt lat="43.4878" lon="1.4077">
        <ele>77.01916504</ele>
        <time>2018-09-09T08:55:04Z</time>
      </trkpt>
      <trkpt lat="43.48784" lon="1.40775">
        <ele>76.00376129</ele>
        <time>2018-09-09T08:55:05Z</time>
      </trkpt>
      <trkpt lat="43.48788" lon="1.40782">
        <ele>76.00376129</ele>
        <time>2018-09-09T08:55:06Z</time>
      </trkpt>
      <trkpt lat="43.48792" lon="1.40793">
        <ele>76.00376129</ele>
        <time>2018-09-09T08:55:09Z</time>
      </trkpt>
      <trkpt lat="43.48797" lon="1.40806">
        <ele>76.00376129</ele>
        <time>2018-09-09T08:55:12Z</time>
      </trkpt>
      <trkpt lat="43.488" lon="1.40823">
        <ele>76.00376129</ele>
        <time>2018-09-09T08:55:14Z</time>
      </trkpt>
      <trkpt lat="43.48803" lon="1.40839">
        <ele>76.00376129</ele>
        <time>2018-09-09T08:55:15Z</time>
      </trkpt>
      <trkpt lat="43.48807" lon="1.40852">
        <ele>75.87090302</ele>
        <time>2018-09-09T08:55:17Z</time>
      </trkpt>
      <trkpt lat="43.48813" lon="1.40872">
        <ele>75.87090302</ele>
        <time>2018-09-09T08:55:19Z</time>
      </trkpt>
      <trkpt lat="43.48819" lon="1.40889">
        <ele>75.87090302</ele>
        <time>2018-09-09T08:55:21Z</time>
      </trkpt>
      <trkpt lat="43.48823" lon="1.40903">
        <ele>75.87090302</ele>
        <time>2018-09-09T08:55:23Z</time>
      </trkpt>
      <trkpt lat="43.48827" lon="1.40918">
        <ele>75.87090302</ele>
        <time>2018-09-09T08:55:25Z</time>
      </trkpt>
      <trkpt lat="43.48832" lon="1.40931">
        <ele>75.87090302</ele>
        <time>2018-09-09T08:55:27Z</time>
      </trkpt>
      <trkpt lat="43.48838" lon="1.40944">
        <ele>75.87090302</ele>
        <time>2018-09-09T08:55:29Z</time>
      </trkpt>
      <trkpt lat="43.48842" lon="1.40955">
        <ele>75.87090302</ele>
        <time>2018-09-09T08:55:31Z</time>
      </trkpt>
      <trkpt lat="43.48845" lon="1.40969">
        <ele>75.87090302</ele>
        <time>2018-09-09T08:55:34Z</time>
      </trkpt>
      <trkpt lat="43.4885" lon="1.40984">
        <ele>75.87090302</ele>
        <time>2018-09-09T08:55:36Z</time>
      </trkpt>
      <trkpt lat="43.48855" lon="1.40998">
        <ele>75.87090302</ele>
        <time>2018-09-09T08:55:38Z</time>
      </trkpt>
      <trkpt lat="43.4886" lon="1.41013">
        <ele>75.87090302</ele>
        <time>2018-09-09T08:55:41Z</time>
      </trkpt>
      <trkpt lat="43.48864" lon="1.41022">
        <ele>75.87090302</ele>
        <time>2018-09-09T08:55:45Z</time>
      </trkpt>
      <trkpt lat="43.48867" lon="1.41034">
        <ele>75.87090302</ele>
        <time>2018-09-09T08:55:48Z</time>
      </trkpt>
      <trkpt lat="43.48872" lon="1.41046">
        <ele>75.87090302</ele>
        <time>2018-09-09T08:55:51Z</time>
      </trkpt>
      <trkpt lat="43.48876" lon="1.4106">
        <ele>75.87090302</ele>
        <time>2018-09-09T08:55:55Z</time>
      </trkpt>
      <trkpt lat="43.48885" lon="1.41072">
        <ele>75.87090302</ele>
        <time>2018-09-09T08:55:57Z</time>
      </trkpt>
      <trkpt lat="43.48892" lon="1.41084">
        <ele>75.87090302</ele>
        <time>2018-09-09T08:56:00Z</time>
      </trkpt>
      <trkpt lat="43.48896" lon="1.41101">
        <ele>75.87090302</ele>
        <time>2018-09-09T08:56:02Z</time>
      </trkpt>
      <trkpt lat="43.48901" lon="1.41116">
        <ele>75.87090302</ele>
        <time>2018-09-09T08:56:04Z</time>
      </trkpt>
      <trkpt lat="43.48903" lon="1.41121">
        <ele>74.25125885</ele>
        <time>2018-09-09T08:56:05Z</time>
      </trkpt>
      <trkpt lat="43.48909" lon="1.41131">
        <ele>74.25125885</ele>
        <time>2018-09-09T08:56:06Z</time>
      </trkpt>
      <trkpt lat="43.48917" lon="1.41146">
        <ele>74.25125885</ele>
        <time>2018-09-09T08:56:08Z</time>
      </trkpt>
      <trkpt lat="43.4894" lon="1.41174">
        <ele>74.25125885</ele>
        <time>2018-09-09T08:56:12Z</time>
      </trkpt>
      <trkpt lat="43.48949" lon="1.41188">
        <ele>74.25125885</ele>
        <time>2018-09-09T08:56:15Z</time>
      </trkpt>
      <trkpt lat="43.48959" lon="1.41203">
        <ele>74.25125885</ele>
        <time>2018-09-09T08:56:17Z</time>
      </trkpt>
      <trkpt lat="43.48962" lon="1.41215">
        <ele>74.25125885</ele>
        <time>2018-09-09T08:56:19Z</time>
      </trkpt>
      <trkpt lat="43.48969" lon="1.41225">
        <ele>74.25125885</ele>
        <time>2018-09-09T08:56:24Z</time>
      </trkpt>
      <trkpt lat="43.48983" lon="1.41232">
        <ele>73.77883911</ele>
        <time>2018-09-09T08:56:27Z</time>
      </trkpt>
      <trkpt lat="43.48995" lon="1.41238">
        <ele>73.77883911</ele>
        <time>2018-09-09T08:56:30Z</time>
      </trkpt>
      <trkpt lat="43.49008" lon="1.41244">
        <ele>73.77883911</ele>
        <time>2018-09-09T08:56:31Z</time>
      </trkpt>
      <trkpt lat="43.49022" lon="1.41251">
        <ele>73.77883911</ele>
        <time>2018-09-09T08:56:34Z</time>
      </trkpt>
      <trkpt lat="43.49035" lon="1.41263">
        <ele>73.77883911</ele>
        <time>2018-09-09T08:56:37Z</time>
      </trkpt>
      <trkpt lat="43.49049" lon="1.41261">
        <ele>73.77883911</ele>
        <time>2018-09-09T08:56:40Z</time>
      </trkpt>
      <trkpt lat="43.49063" lon="1.41259">
        <ele>73.77883911</ele>
        <time>2018-09-09T08:56:43Z</time>
      </trkpt>
      <trkpt lat="43.49072" lon="1.41253">
        <ele>73.03308868</ele>
        <time>2018-09-09T08:57:23Z</time>
      </trkpt>
      <trkpt lat="43.49076" lon="1.41253">
        <ele>73.03308868</ele>
        <time>2018-09-09T08:57:42Z</time>
      </trkpt>
      <trkpt lat="43.49089" lon="1.41244">
        <ele>73.03308868</ele>
        <time>2018-09-09T08:57:46Z</time>
      </trkpt>
      <trkpt lat="43.49098" lon="1.4123">
        <ele>73.03308868</ele>
        <time>2018-09-09T08:57:51Z</time>
      </trkpt>
      <trkpt lat="43.49107" lon="1.4122">
        <ele>73.03308868</ele>
        <time>2018-09-09T08:57:55Z</time>
      </trkpt>
      <trkpt lat="43.49118" lon="1.41217">
        <ele>73.28605652</ele>
        <time>2018-09-09T08:58:05Z</time>
      </trkpt>
      <trkpt lat="43.49124" lon="1.41211">
        <ele>73.28605652</ele>
        <time>2018-09-09T08:58:09Z</time>
      </trkpt>
      <trkpt lat="43.49135" lon="1.41199">
        <ele>73.28605652</ele>
        <time>2018-09-09T08:58:15Z</time>
      </trkpt>
      <trkpt lat="43.49147" lon="1.41193">
        <ele>73.28605652</ele>
        <time>2018-09-09T08:58:21Z</time>
      </trkpt>
      <trkpt lat="43.49152" lon="1.41186">
        <ele>73.28605652</ele>
        <time>2018-09-09T08:58:30Z</time>
      </trkpt>
      <trkpt lat="43.4916" lon="1.41176">
        <ele>73.28605652</ele>
        <time>2018-09-09T08:58:35Z</time>
      </trkpt>
      <trkpt lat="43.49171" lon="1.41168">
        <ele>73.28605652</ele>
        <time>2018-09-09T08:58:40Z</time>
      </trkpt>
      <trkpt lat="43.49183" lon="1.41158">
        <ele>73.54229736</ele>
        <time>2018-09-09T08:58:45Z</time>
      </trkpt>
      <trkpt lat="43.49193" lon="1.41149">
        <ele>73.54229736</ele>
        <time>2018-09-09T08:58:49Z</time>
      </trkpt>
      <trkpt lat="43.49207" lon="1.41139">
        <ele>73.54229736</ele>
        <time>2018-09-09T08:58:52Z</time>
      </trkpt>
      <trkpt lat="43.49217" lon="1.41131">
        <ele>73.54229736</ele>
        <time>2018-09-09T08:58:55Z</time>
      </trkpt>
      <trkpt lat="43.49229" lon="1.4112">
        <ele>73.54229736</ele>
        <time>2018-09-09T08:58:58Z</time>
      </trkpt>
      <trkpt lat="43.49241" lon="1.41113">
        <ele>73.54229736</ele>
        <time>2018-09-09T08:59:01Z</time>
      </trkpt>
      <trkpt lat="43.49252" lon="1.41106">
        <ele>73.54229736</ele>
        <time>2018-09-09T08:59:02Z</time>
      </trkpt>
      <trkpt lat="43.49264" lon="1.41099">
        <ele>73.54229736</ele>
        <time>2018-09-09T08:59:04Z</time>
      </trkpt>
      <trkpt lat="43.49267" lon="1.41097">
        <ele>73.86764526</ele>
        <time>2018-09-09T08:59:05Z</time>
      </trkpt>
      <trkpt lat="43.49275" lon="1.41092">
        <ele>73.86764526</ele>
        <time>2018-09-09T08:59:06Z</time>
      </trkpt>
      <trkpt lat="43.49286" lon="1.41085">
        <ele>73.86764526</ele>
        <time>2018-09-09T08:59:08Z</time>
      </trkpt>
      <trkpt lat="43.49298" lon="1.41079">
        <ele>73.86764526</ele>
        <time>2018-09-09T08:59:11Z</time>
      </trkpt>
      <trkpt lat="43.4931" lon="1.41073">
        <ele>74.01494598</ele>
        <time>2018-09-09T08:59:14Z</time>
      </trkpt>
      <trkpt lat="43.49319" lon="1.41066">
        <ele>74.01494598</ele>
        <time>2018-09-09T08:59:19Z</time>
      </trkpt>
      <trkpt lat="43.49333" lon="1.41064">
        <ele>74.01494598</ele>
        <time>2018-09-09T08:59:21Z</time>
      </trkpt>
      <trkpt lat="43.49345" lon="1.4106">
        <ele>74.01494598</ele>
        <time>2018-09-09T08:59:23Z</time>
      </trkpt>
      <trkpt lat="43.49355" lon="1.41055">
        <ele>74.01494598</ele>
        <time>2018-09-09T08:59:26Z</time>
      </trkpt>
      <trkpt lat="43.49365" lon="1.41048">
        <ele>74.01494598</ele>
        <time>2018-09-09T08:59:29Z</time>
      </trkpt>
      <trkpt lat="43.49377" lon="1.41043">
        <ele>74.01494598</ele>
        <time>2018-09-09T08:59:32Z</time>
      </trkpt>
      <trkpt lat="43.4939" lon="1.41039">
        <ele>74.01494598</ele>
        <time>2018-09-09T08:59:34Z</time>
      </trkpt>
      <trkpt lat="43.49401" lon="1.41031">
        <ele>74.01494598</ele>
        <time>2018-09-09T08:59:37Z</time>
      </trkpt>
      <trkpt lat="43.49411" lon="1.41018">
        <ele>74.01494598</ele>
        <time>2018-09-09T08:59:39Z</time>
      </trkpt>
      <trkpt lat="43.49422" lon="1.41012">
        <ele>74.01494598</ele>
        <time>2018-09-09T08:59:42Z</time>
      </trkpt>
      <trkpt lat="43.49435" lon="1.41005">
        <ele>74.01494598</ele>
        <time>2018-09-09T08:59:45Z</time>
      </trkpt>
      <trkpt lat="43.49448" lon="1.40999">
        <ele>74.01494598</ele>
        <time>2018-09-09T08:59:48Z</time>
      </trkpt>
      <trkpt lat="43.49461" lon="1.40993">
        <ele>74.01494598</ele>
        <time>2018-09-09T08:59:51Z</time>
      </trkpt>
      <trkpt lat="43.49475" lon="1.40988">
        <ele>74.01494598</ele>
        <time>2018-09-09T08:59:54Z</time>
      </trkpt>
      <trkpt lat="43.49488" lon="1.4098">
        <ele>74.01494598</ele>
        <time>2018-09-09T08:59:57Z</time>
      </trkpt>
      <trkpt lat="43.49501" lon="1.40972">
        <ele>74.01494598</ele>
        <time>2018-09-09T09:00:00Z</time>
      </trkpt>
      <trkpt lat="43.49513" lon="1.40965">
        <ele>74.01494598</ele>
        <time>2018-09-09T09:00:02Z</time>
      </trkpt>
      <trkpt lat="43.49523" lon="1.4096">
        <ele>75.05303955</ele>
        <time>2018-09-09T09:00:05Z</time>
      </trkpt>
      <trkpt lat="43.49533" lon="1.40954">
        <ele>75.05303955</ele>
        <time>2018-09-09T09:00:06Z</time>
      </trkpt>
      <trkpt lat="43.49544" lon="1.40949">
        <ele>75.05303955</ele>
        <time>2018-09-09T09:00:08Z</time>
      </trkpt>
      <trkpt lat="43.49554" lon="1.40943">
        <ele>75.05303955</ele>
        <time>2018-09-09T09:00:10Z</time>
      </trkpt>
      <trkpt lat="43.49567" lon="1.40937">
        <ele>75.05303955</ele>
        <time>2018-09-09T09:00:12Z</time>
      </trkpt>
      <trkpt lat="43.49579" lon="1.40934">
        <ele>75.05303955</ele>
        <time>2018-09-09T09:00:14Z</time>
      </trkpt>
      <trkpt lat="43.49594" lon="1.40928">
        <ele>74.54760742</ele>
        <time>2018-09-09T09:00:16Z</time>
      </trkpt>
      <trkpt lat="43.49608" lon="1.4092">
        <ele>74.54760742</ele>
        <time>2018-09-09T09:00:18Z</time>
      </trkpt>
      <trkpt lat="43.49617" lon="1.40907">
        <ele>74.54760742</ele>
        <time>2018-09-09T09:00:20Z</time>
      </trkpt>
      <trkpt lat="43.49624" lon="1.40895">
        <ele>74.54760742</ele>
        <time>2018-09-09T09:00:22Z</time>
      </trkpt>
      <trkpt lat="43.49635" lon="1.40886">
        <ele>74.54760742</ele>
        <time>2018-09-09T09:00:25Z</time>
      </trkpt>
      <trkpt lat="43.49647" lon="1.40879">
        <ele>74.54760742</ele>
        <time>2018-09-09T09:00:28Z</time>
      </trkpt>
      <trkpt lat="43.49659" lon="1.4087">
        <ele>74.54760742</ele>
        <time>2018-09-09T09:00:30Z</time>
      </trkpt>
      <trkpt lat="43.49667" lon="1.40855">
        <ele>74.54760742</ele>
        <time>2018-09-09T09:00:32Z</time>
      </trkpt>
      <trkpt lat="43.49675" lon="1.40842">
        <ele>74.54760742</ele>
        <time>2018-09-09T09:00:35Z</time>
      </trkpt>
      <trkpt lat="43.49686" lon="1.40837">
        <ele>74.54760742</ele>
        <time>2018-09-09T09:00:37Z</time>
      </trkpt>
      <trkpt lat="43.49697" lon="1.40831">
        <ele>74.54760742</ele>
        <time>2018-09-09T09:00:40Z</time>
      </trkpt>
      <trkpt lat="43.49709" lon="1.40823">
        <ele>74.54760742</ele>
        <time>2018-09-09T09:00:41Z</time>
      </trkpt>
      <trkpt lat="43.49718" lon="1.40809">
        <ele>74.54760742</ele>
        <time>2018-09-09T09:00:43Z</time>
      </trkpt>
      <trkpt lat="43.49726" lon="1.40794">
        <ele>74.54760742</ele>
        <time>2018-09-09T09:00:45Z</time>
      </trkpt>
      <trkpt lat="43.49735" lon="1.40782">
        <ele>74.54760742</ele>
        <time>2018-09-09T09:00:47Z</time>
      </trkpt>
      <trkpt lat="43.49746" lon="1.40772">
        <ele>74.54760742</ele>
        <time>2018-09-09T09:00:49Z</time>
      </trkpt>
      <trkpt lat="43.49758" lon="1.4076">
        <ele>74.54760742</ele>
        <time>2018-09-09T09:00:52Z</time>
      </trkpt>
      <trkpt lat="43.49772" lon="1.40749">
        <ele>74.54760742</ele>
        <time>2018-09-09T09:00:55Z</time>
      </trkpt>
      <trkpt lat="43.49783" lon="1.4074">
        <ele>74.54760742</ele>
        <time>2018-09-09T09:00:56Z</time>
      </trkpt>
      <trkpt lat="43.49794" lon="1.4073">
        <ele>74.54760742</ele>
        <time>2018-09-09T09:00:58Z</time>
      </trkpt>
      <trkpt lat="43.49804" lon="1.40716">
        <ele>74.54760742</ele>
        <time>2018-09-09T09:01:00Z</time>
      </trkpt>
      <trkpt lat="43.49816" lon="1.40703">
        <ele>74.54760742</ele>
        <time>2018-09-09T09:01:02Z</time>
      </trkpt>
      <trkpt lat="43.49827" lon="1.40691">
        <ele>74.54760742</ele>
        <time>2018-09-09T09:01:04Z</time>
      </trkpt>
      <trkpt lat="43.4983" lon="1.40689">
        <ele>73.66329193</ele>
        <time>2018-09-09T09:01:05Z</time>
      </trkpt>
      <trkpt lat="43.49839" lon="1.40684">
        <ele>73.66329193</ele>
        <time>2018-09-09T09:01:06Z</time>
      </trkpt>
      <trkpt lat="43.49852" lon="1.40682">
        <ele>73.66329193</ele>
        <time>2018-09-09T09:01:08Z</time>
      </trkpt>
      <trkpt lat="43.49878" lon="1.40665">
        <ele>73.66329193</ele>
        <time>2018-09-09T09:01:14Z</time>
      </trkpt>
      <trkpt lat="43.49888" lon="1.40654">
        <ele>73.66329193</ele>
        <time>2018-09-09T09:01:17Z</time>
      </trkpt>
      <trkpt lat="43.49881" lon="1.40642">
        <ele>73.55049133</ele>
        <time>2018-09-09T09:01:20Z</time>
      </trkpt>
      <trkpt lat="43.49872" lon="1.40631">
        <ele>73.55049133</ele>
        <time>2018-09-09T09:01:23Z</time>
      </trkpt>
      <trkpt lat="43.49861" lon="1.40626">
        <ele>73.55049133</ele>
        <time>2018-09-09T09:01:27Z</time>
      </trkpt>
      <trkpt lat="43.4985" lon="1.40629">
        <ele>77.38240814</ele>
        <time>2018-09-09T09:01:33Z</time>
      </trkpt>
      <trkpt lat="43.49854" lon="1.40646">
        <ele>79.66041565</ele>
        <time>2018-09-09T09:01:37Z</time>
      </trkpt>
      <trkpt lat="43.49851" lon="1.40649">
        <ele>81.24835968</ele>
        <time>2018-09-09T09:03:22Z</time>
      </trkpt>
      <trkpt lat="43.49851" lon="1.40649">
        <ele>81.24835968</ele>
        <time>2018-09-09T09:03:48Z</time>
      </trkpt>
      <trkpt lat="43.49852" lon="1.40666">
        <ele>81.24835968</ele>
        <time>2018-09-09T09:03:52Z</time>
      </trkpt>
      <trkpt lat="43.49859" lon="1.40676">
        <ele>81.24835968</ele>
        <time>2018-09-09T09:03:56Z</time>
      </trkpt>
      <trkpt lat="43.49867" lon="1.40687">
        <ele>81.24835968</ele>
        <time>2018-09-09T09:04:00Z</time>
      </trkpt>
      <trkpt lat="43.49877" lon="1.407">
        <ele>81.24835968</ele>
        <time>2018-09-09T09:04:03Z</time>
      </trkpt>
      <trkpt lat="43.49882" lon="1.40708">
        <ele>80.88181305</ele>
        <time>2018-09-09T09:04:05Z</time>
      </trkpt>
      <trkpt lat="43.49889" lon="1.40718">
        <ele>80.88181305</ele>
        <time>2018-09-09T09:04:07Z</time>
      </trkpt>
      <trkpt lat="43.49897" lon="1.4073">
        <ele>80.88181305</ele>
        <time>2018-09-09T09:04:09Z</time>
      </trkpt>
      <trkpt lat="43.49906" lon="1.40743">
        <ele>80.88181305</ele>
        <time>2018-09-09T09:04:12Z</time>
      </trkpt>
      <trkpt lat="43.49916" lon="1.40756">
        <ele>80.88181305</ele>
        <time>2018-09-09T09:04:15Z</time>
      </trkpt>
      <trkpt lat="43.49923" lon="1.40769">
        <ele>80.88181305</ele>
        <time>2018-09-09T09:04:17Z</time>
      </trkpt>
      <trkpt lat="43.49928" lon="1.40779">
        <ele>80.88181305</ele>
        <time>2018-09-09T09:04:19Z</time>
      </trkpt>
      <trkpt lat="43.49936" lon="1.40792">
        <ele>80.88181305</ele>
        <time>2018-09-09T09:04:22Z</time>
      </trkpt>
      <trkpt lat="43.49944" lon="1.40805">
        <ele>80.88181305</ele>
        <time>2018-09-09T09:04:24Z</time>
      </trkpt>
      <trkpt lat="43.49953" lon="1.40816">
        <ele>80.88181305</ele>
        <time>2018-09-09T09:04:26Z</time>
      </trkpt>
      <trkpt lat="43.4996" lon="1.40828">
        <ele>80.88181305</ele>
        <time>2018-09-09T09:04:28Z</time>
      </trkpt>
      <trkpt lat="43.49968" lon="1.40842">
        <ele>80.51158905</ele>
        <time>2018-09-09T09:04:30Z</time>
      </trkpt>
      <trkpt lat="43.49976" lon="1.40855">
        <ele>80.51158905</ele>
        <time>2018-09-09T09:04:32Z</time>
      </trkpt>
      <trkpt lat="43.49984" lon="1.40869">
        <ele>80.51158905</ele>
        <time>2018-09-09T09:04:34Z</time>
      </trkpt>
      <trkpt lat="43.49993" lon="1.40882">
        <ele>80.51158905</ele>
        <time>2018-09-09T09:04:36Z</time>
      </trkpt>
      <trkpt lat="43.5" lon="1.40894">
        <ele>80.51158905</ele>
        <time>2018-09-09T09:04:38Z</time>
      </trkpt>
      <trkpt lat="43.50008" lon="1.40908">
        <ele>80.51158905</ele>
        <time>2018-09-09T09:04:40Z</time>
      </trkpt>
      <trkpt lat="43.50017" lon="1.40923">
        <ele>78.93348694</ele>
        <time>2018-09-09T09:04:42Z</time>
      </trkpt>
      <trkpt lat="43.50023" lon="1.40937">
        <ele>78.93348694</ele>
        <time>2018-09-09T09:04:45Z</time>
      </trkpt>
      <trkpt lat="43.50025" lon="1.40952">
        <ele>78.93348694</ele>
        <time>2018-09-09T09:04:46Z</time>
      </trkpt>
      <trkpt lat="43.50022" lon="1.40967">
        <ele>78.93348694</ele>
        <time>2018-09-09T09:04:48Z</time>
      </trkpt>
      <trkpt lat="43.50018" lon="1.40979">
        <ele>78.93348694</ele>
        <time>2018-09-09T09:04:50Z</time>
      </trkpt>
      <trkpt lat="43.50011" lon="1.40991">
        <ele>78.93348694</ele>
        <time>2018-09-09T09:04:52Z</time>
      </trkpt>
      <trkpt lat="43.50001" lon="1.40993">
        <ele>78.93348694</ele>
        <time>2018-09-09T09:04:55Z</time>
      </trkpt>
      <trkpt lat="43.49987" lon="1.40987">
        <ele>77.95801544</ele>
        <time>2018-09-09T09:04:58Z</time>
      </trkpt>
      <trkpt lat="43.49973" lon="1.40979">
        <ele>77.95801544</ele>
        <time>2018-09-09T09:05:00Z</time>
      </trkpt>
      <trkpt lat="43.49962" lon="1.40973">
        <ele>77.95801544</ele>
        <time>2018-09-09T09:05:03Z</time>
      </trkpt>
      <trkpt lat="43.49952" lon="1.4097">
        <ele>77.5324173</ele>
        <time>2018-09-09T09:05:05Z</time>
      </trkpt>
      <trkpt lat="43.49945" lon="1.40967">
        <ele>77.5324173</ele>
        <time>2018-09-09T09:05:07Z</time>
      </trkpt>
      <trkpt lat="43.49932" lon="1.40964">
        <ele>77.5324173</ele>
        <time>2018-09-09T09:05:10Z</time>
      </trkpt>
      <trkpt lat="43.49908" lon="1.40962">
        <ele>78.08987427</ele>
        <time>2018-09-09T09:05:15Z</time>
      </trkpt>
      <trkpt lat="43.49897" lon="1.40962">
        <ele>78.08987427</ele>
        <time>2018-09-09T09:05:16Z</time>
      </trkpt>
      <trkpt lat="43.49887" lon="1.40963">
        <ele>78.08987427</ele>
        <time>2018-09-09T09:05:18Z</time>
      </trkpt>
      <trkpt lat="43.49877" lon="1.40965">
        <ele>78.08987427</ele>
        <time>2018-09-09T09:05:20Z</time>
      </trkpt>
      <trkpt lat="43.49865" lon="1.40969">
        <ele>79.35734558</ele>
        <time>2018-09-09T09:05:23Z</time>
      </trkpt>
      <trkpt lat="43.49852" lon="1.40973">
        <ele>79.35734558</ele>
        <time>2018-09-09T09:05:26Z</time>
      </trkpt>
      <trkpt lat="43.49839" lon="1.4098">
        <ele>79.35734558</ele>
        <time>2018-09-09T09:05:29Z</time>
      </trkpt>
      <trkpt lat="43.49826" lon="1.40982">
        <ele>79.35734558</ele>
        <time>2018-09-09T09:05:32Z</time>
      </trkpt>
      <trkpt lat="43.49816" lon="1.40983">
        <ele>79.35734558</ele>
        <time>2018-09-09T09:05:36Z</time>
      </trkpt>
      <trkpt lat="43.49806" lon="1.40985">
        <ele>80.4704895</ele>
        <time>2018-09-09T09:05:42Z</time>
      </trkpt>
      <trkpt lat="43.49791" lon="1.40983">
        <ele>80.4704895</ele>
        <time>2018-09-09T09:05:44Z</time>
      </trkpt>
      <trkpt lat="43.4978" lon="1.40979">
        <ele>80.4704895</ele>
        <time>2018-09-09T09:05:47Z</time>
      </trkpt>
      <trkpt lat="43.49767" lon="1.40973">
        <ele>80.4704895</ele>
        <time>2018-09-09T09:05:49Z</time>
      </trkpt>
      <trkpt lat="43.49757" lon="1.4097">
        <ele>80.4704895</ele>
        <time>2018-09-09T09:05:52Z</time>
      </trkpt>
      <trkpt lat="43.49746" lon="1.40973">
        <ele>80.4704895</ele>
        <time>2018-09-09T09:05:55Z</time>
      </trkpt>
      <trkpt lat="43.49736" lon="1.40979">
        <ele>80.4704895</ele>
        <time>2018-09-09T09:05:58Z</time>
      </trkpt>
      <trkpt lat="43.49724" lon="1.40986">
        <ele>80.4704895</ele>
        <time>2018-09-09T09:06:01Z</time>
      </trkpt>
      <trkpt lat="43.49711" lon="1.40992">
        <ele>80.4704895</ele>
        <time>2018-09-09T09:06:04Z</time>
      </trkpt>
      <trkpt lat="43.49706" lon="1.40994">
        <ele>80.70961761</ele>
        <time>2018-09-09T09:06:05Z</time>
      </trkpt>
      <trkpt lat="43.49699" lon="1.40997">
        <ele>80.70961761</ele>
        <time>2018-09-09T09:06:07Z</time>
      </trkpt>
      <trkpt lat="43.49687" lon="1.41003">
        <ele>79.55157471</ele>
        <time>2018-09-09T09:06:10Z</time>
      </trkpt>
      <trkpt lat="43.49674" lon="1.41013">
        <ele>77.68534088</ele>
        <time>2018-09-09T09:06:12Z</time>
      </trkpt>
      <trkpt lat="43.49661" lon="1.41022">
        <ele>76.47798157</ele>
        <time>2018-09-09T09:06:14Z</time>
      </trkpt>
      <trkpt lat="43.49647" lon="1.41028">
        <ele>76.47798157</ele>
        <time>2018-09-09T09:06:16Z</time>
      </trkpt>
      <trkpt lat="43.49633" lon="1.41031">
        <ele>75.40517426</ele>
        <time>2018-09-09T09:06:19Z</time>
      </trkpt>
      <trkpt lat="43.49619" lon="1.41033">
        <ele>75.40517426</ele>
        <time>2018-09-09T09:06:20Z</time>
      </trkpt>
      <trkpt lat="43.49603" lon="1.41035">
        <ele>74.37825012</ele>
        <time>2018-09-09T09:06:22Z</time>
      </trkpt>
      <trkpt lat="43.49586" lon="1.41038">
        <ele>74.37825012</ele>
        <time>2018-09-09T09:06:24Z</time>
      </trkpt>
      <trkpt lat="43.4957" lon="1.41046">
        <ele>74.37825012</ele>
        <time>2018-09-09T09:06:26Z</time>
      </trkpt>
      <trkpt lat="43.49558" lon="1.4106">
        <ele>74.37825012</ele>
        <time>2018-09-09T09:06:28Z</time>
      </trkpt>
      <trkpt lat="43.49547" lon="1.41069">
        <ele>74.37825012</ele>
        <time>2018-09-09T09:06:30Z</time>
      </trkpt>
      <trkpt lat="43.49537" lon="1.41076">
        <ele>74.07859039</ele>
        <time>2018-09-09T09:06:32Z</time>
      </trkpt>
      <trkpt lat="43.49524" lon="1.41085">
        <ele>74.07859039</ele>
        <time>2018-09-09T09:06:35Z</time>
      </trkpt>
      <trkpt lat="43.49511" lon="1.41095">
        <ele>76.02186584</ele>
        <time>2018-09-09T09:06:38Z</time>
      </trkpt>
      <trkpt lat="43.49498" lon="1.41103">
        <ele>76.02186584</ele>
        <time>2018-09-09T09:06:41Z</time>
      </trkpt>
      <trkpt lat="43.49484" lon="1.41114">
        <ele>76.02186584</ele>
        <time>2018-09-09T09:06:44Z</time>
      </trkpt>
      <trkpt lat="43.49471" lon="1.41124">
        <ele>77.16721344</ele>
        <time>2018-09-09T09:06:53Z</time>
      </trkpt>
      <trkpt lat="43.49463" lon="1.41127">
        <ele>77.34229279</ele>
        <time>2018-09-09T09:06:57Z</time>
      </trkpt>
      <trkpt lat="43.4945" lon="1.41131">
        <ele>77.34229279</ele>
        <time>2018-09-09T09:06:59Z</time>
      </trkpt>
      <trkpt lat="43.49437" lon="1.41138">
        <ele>77.34229279</ele>
        <time>2018-09-09T09:07:02Z</time>
      </trkpt>
      <trkpt lat="43.49426" lon="1.41146">
        <ele>75.51031494</ele>
        <time>2018-09-09T09:07:05Z</time>
      </trkpt>
      <trkpt lat="43.49414" lon="1.41155">
        <ele>75.51031494</ele>
        <time>2018-09-09T09:07:07Z</time>
      </trkpt>
      <trkpt lat="43.49402" lon="1.41162">
        <ele>75.51031494</ele>
        <time>2018-09-09T09:07:10Z</time>
      </trkpt>
      <trkpt lat="43.4939" lon="1.41166">
        <ele>75.51031494</ele>
        <time>2018-09-09T09:07:12Z</time>
      </trkpt>
      <trkpt lat="43.4938" lon="1.41169">
        <ele>75.51031494</ele>
        <time>2018-09-09T09:07:14Z</time>
      </trkpt>
      <trkpt lat="43.49367" lon="1.41175">
        <ele>75.51031494</ele>
        <time>2018-09-09T09:07:17Z</time>
      </trkpt>
      <trkpt lat="43.49354" lon="1.41181">
        <ele>75.51031494</ele>
        <time>2018-09-09T09:07:21Z</time>
      </trkpt>
      <trkpt lat="43.49342" lon="1.41184">
        <ele>75.51031494</ele>
        <time>2018-09-09T09:07:24Z</time>
      </trkpt>
      <trkpt lat="43.49328" lon="1.41185">
        <ele>75.51031494</ele>
        <time>2018-09-09T09:07:26Z</time>
      </trkpt>
      <trkpt lat="43.49316" lon="1.41188">
        <ele>75.51031494</ele>
        <time>2018-09-09T09:07:30Z</time>
      </trkpt>
      <trkpt lat="43.49302" lon="1.4119">
        <ele>75.51031494</ele>
        <time>2018-09-09T09:07:33Z</time>
      </trkpt>
      <trkpt lat="43.4929" lon="1.41195">
        <ele>75.51031494</ele>
        <time>2018-09-09T09:07:37Z</time>
      </trkpt>
      <trkpt lat="43.49279" lon="1.41199">
        <ele>75.51031494</ele>
        <time>2018-09-09T09:07:39Z</time>
      </trkpt>
      <trkpt lat="43.49267" lon="1.41202">
        <ele>75.51031494</ele>
        <time>2018-09-09T09:07:42Z</time>
      </trkpt>
      <trkpt lat="43.49255" lon="1.41208">
        <ele>75.51031494</ele>
        <time>2018-09-09T09:07:46Z</time>
      </trkpt>
      <trkpt lat="43.49243" lon="1.41211">
        <ele>75.51031494</ele>
        <time>2018-09-09T09:07:47Z</time>
      </trkpt>
      <trkpt lat="43.49234" lon="1.41216">
        <ele>75.51031494</ele>
        <time>2018-09-09T09:07:50Z</time>
      </trkpt>
      <trkpt lat="43.49226" lon="1.41224">
        <ele>75.50721741</ele>
        <time>2018-09-09T09:07:53Z</time>
      </trkpt>
      <trkpt lat="43.49217" lon="1.41233">
        <ele>75.50721741</ele>
        <time>2018-09-09T09:07:57Z</time>
      </trkpt>
      <trkpt lat="43.49206" lon="1.41243">
        <ele>75.50721741</ele>
        <time>2018-09-09T09:08:02Z</time>
      </trkpt>
      <trkpt lat="43.49197" lon="1.41246">
        <ele>75.54576874</ele>
        <time>2018-09-09T09:08:05Z</time>
      </trkpt>
      <trkpt lat="43.49188" lon="1.41252">
        <ele>75.54576874</ele>
        <time>2018-09-09T09:08:07Z</time>
      </trkpt>
      <trkpt lat="43.49173" lon="1.41265">
        <ele>75.54576874</ele>
        <time>2018-09-09T09:08:10Z</time>
      </trkpt>
      <trkpt lat="43.49167" lon="1.41278">
        <ele>75.49127197</ele>
        <time>2018-09-09T09:08:13Z</time>
      </trkpt>
      <trkpt lat="43.49161" lon="1.41288">
        <ele>78.95869446</ele>
        <time>2018-09-09T09:08:18Z</time>
      </trkpt>
      <trkpt lat="43.49151" lon="1.41299">
        <ele>78.71362305</ele>
        <time>2018-09-09T09:08:21Z</time>
      </trkpt>
      <trkpt lat="43.49138" lon="1.41305">
        <ele>76.78012848</ele>
        <time>2018-09-09T09:08:23Z</time>
      </trkpt>
      <trkpt lat="43.49127" lon="1.41307">
        <ele>75.07881165</ele>
        <time>2018-09-09T09:08:25Z</time>
      </trkpt>
      <trkpt lat="43.49118" lon="1.41315">
        <ele>73.94280243</ele>
        <time>2018-09-09T09:08:30Z</time>
      </trkpt>
      <trkpt lat="43.49104" lon="1.4132">
        <ele>73.94280243</ele>
        <time>2018-09-09T09:08:35Z</time>
      </trkpt>
      <trkpt lat="43.49091" lon="1.41326">
        <ele>73.94280243</ele>
        <time>2018-09-09T09:08:38Z</time>
      </trkpt>
      <trkpt lat="43.4908" lon="1.41333">
        <ele>73.88627625</ele>
        <time>2018-09-09T09:08:42Z</time>
      </trkpt>
      <trkpt lat="43.49073" lon="1.41343">
        <ele>75.35696411</ele>
        <time>2018-09-09T09:08:47Z</time>
      </trkpt>
      <trkpt lat="43.49065" lon="1.41352">
        <ele>75.35696411</ele>
        <time>2018-09-09T09:08:52Z</time>
      </trkpt>
      <trkpt lat="43.49054" lon="1.41354">
        <ele>75.98799896</ele>
        <time>2018-09-09T09:08:56Z</time>
      </trkpt>
      <trkpt lat="43.49042" lon="1.41356">
        <ele>77.85453796</ele>
        <time>2018-09-09T09:09:02Z</time>
      </trkpt>
      <trkpt lat="43.49035" lon="1.41363">
        <ele>78.5320816</ele>
        <time>2018-09-09T09:09:05Z</time>
      </trkpt>
      <trkpt lat="43.49026" lon="1.41366">
        <ele>78.5320816</ele>
        <time>2018-09-09T09:09:08Z</time>
      </trkpt>
      <trkpt lat="43.49014" lon="1.41372">
        <ele>78.5320816</ele>
        <time>2018-09-09T09:09:10Z</time>
      </trkpt>
      <trkpt lat="43.49004" lon="1.41373">
        <ele>78.5320816</ele>
        <time>2018-09-09T09:09:13Z</time>
      </trkpt>
      <trkpt lat="43.48995" lon="1.41363">
        <ele>78.5320816</ele>
        <time>2018-09-09T09:09:18Z</time>
      </trkpt>
      <trkpt lat="43.48982" lon="1.41356">
        <ele>78.37153625</ele>
        <time>2018-09-09T09:09:22Z</time>
      </trkpt>
      <trkpt lat="43.48966" lon="1.41355">
        <ele>78.37153625</ele>
        <time>2018-09-09T09:09:24Z</time>
      </trkpt>
      <trkpt lat="43.48957" lon="1.41359">
        <ele>78.37153625</ele>
        <time>2018-09-09T09:09:27Z</time>
      </trkpt>
      <trkpt lat="43.48945" lon="1.41355">
        <ele>77.64810944</ele>
        <time>2018-09-09T09:09:31Z</time>
      </trkpt>
      <trkpt lat="43.48932" lon="1.41353">
        <ele>80.41750336</ele>
        <time>2018-09-09T09:09:36Z</time>
      </trkpt>
      <trkpt lat="43.48925" lon="1.41343">
        <ele>80.41750336</ele>
        <time>2018-09-09T09:09:39Z</time>
      </trkpt>
      <trkpt lat="43.48914" lon="1.41333">
        <ele>80.37308502</ele>
        <time>2018-09-09T09:09:42Z</time>
      </trkpt>
      <trkpt lat="43.48902" lon="1.41332">
        <ele>80.37308502</ele>
        <time>2018-09-09T09:09:43Z</time>
      </trkpt>
      <trkpt lat="43.48893" lon="1.41337">
        <ele>80.37308502</ele>
        <time>2018-09-09T09:09:47Z</time>
      </trkpt>
      <trkpt lat="43.48879" lon="1.41343">
        <ele>80.37308502</ele>
        <time>2018-09-09T09:09:50Z</time>
      </trkpt>
      <trkpt lat="43.48867" lon="1.41346">
        <ele>79.83016968</ele>
        <time>2018-09-09T09:09:53Z</time>
      </trkpt>
      <trkpt lat="43.48855" lon="1.41357">
        <ele>81.49651337</ele>
        <time>2018-09-09T09:09:57Z</time>
      </trkpt>
      <trkpt lat="43.48844" lon="1.41363">
        <ele>81.49651337</ele>
        <time>2018-09-09T09:10:00Z</time>
      </trkpt>
      <trkpt lat="43.48834" lon="1.41369">
        <ele>81.49651337</ele>
        <time>2018-09-09T09:10:03Z</time>
      </trkpt>
      <trkpt lat="43.48827" lon="1.41372">
        <ele>82.36749268</ele>
        <time>2018-09-09T09:10:05Z</time>
      </trkpt>
      <trkpt lat="43.48819" lon="1.41368">
        <ele>82.36749268</ele>
        <time>2018-09-09T09:10:07Z</time>
      </trkpt>
      <trkpt lat="43.48806" lon="1.41363">
        <ele>82.36749268</ele>
        <time>2018-09-09T09:10:10Z</time>
      </trkpt>
      <trkpt lat="43.48795" lon="1.41359">
        <ele>82.36749268</ele>
        <time>2018-09-09T09:10:13Z</time>
      </trkpt>
      <trkpt lat="43.48783" lon="1.41358">
        <ele>82.36749268</ele>
        <time>2018-09-09T09:10:15Z</time>
      </trkpt>
      <trkpt lat="43.48773" lon="1.41356">
        <ele>82.35657501</ele>
        <time>2018-09-09T09:10:18Z</time>
      </trkpt>
      <trkpt lat="43.48759" lon="1.41349">
        <ele>82.35657501</ele>
        <time>2018-09-09T09:10:21Z</time>
      </trkpt>
      <trkpt lat="43.48746" lon="1.41343">
        <ele>81.06162262</ele>
        <time>2018-09-09T09:10:23Z</time>
      </trkpt>
      <trkpt lat="43.48735" lon="1.41339">
        <ele>81.06162262</ele>
        <time>2018-09-09T09:10:26Z</time>
      </trkpt>
      <trkpt lat="43.48722" lon="1.41337">
        <ele>81.06162262</ele>
        <time>2018-09-09T09:10:29Z</time>
      </trkpt>
      <trkpt lat="43.48707" lon="1.41339">
        <ele>81.06162262</ele>
        <time>2018-09-09T09:10:32Z</time>
      </trkpt>
      <trkpt lat="43.48695" lon="1.41347">
        <ele>81.06162262</ele>
        <time>2018-09-09T09:10:35Z</time>
      </trkpt>
      <trkpt lat="43.48684" lon="1.41353">
        <ele>80.67440796</ele>
        <time>2018-09-09T09:10:38Z</time>
      </trkpt>
      <trkpt lat="43.48658" lon="1.41361">
        <ele>80.67440796</ele>
        <time>2018-09-09T09:10:43Z</time>
      </trkpt>
      <trkpt lat="43.48647" lon="1.41368">
        <ele>82.31301117</ele>
        <time>2018-09-09T09:10:46Z</time>
      </trkpt>
      <trkpt lat="43.48634" lon="1.4138">
        <ele>82.31301117</ele>
        <time>2018-09-09T09:10:49Z</time>
      </trkpt>
      <trkpt lat="43.48622" lon="1.4139">
        <ele>82.31301117</ele>
        <time>2018-09-09T09:10:51Z</time>
      </trkpt>
      <trkpt lat="43.4861" lon="1.41393">
        <ele>82.31301117</ele>
        <time>2018-09-09T09:10:53Z</time>
      </trkpt>
      <trkpt lat="43.48599" lon="1.41394">
        <ele>82.31301117</ele>
        <time>2018-09-09T09:10:55Z</time>
      </trkpt>
      <trkpt lat="43.48588" lon="1.41397">
        <ele>82.31301117</ele>
        <time>2018-09-09T09:10:57Z</time>
      </trkpt>
      <trkpt lat="43.48575" lon="1.41395">
        <ele>82.31301117</ele>
        <time>2018-09-09T09:10:59Z</time>
      </trkpt>
      <trkpt lat="43.48562" lon="1.41396">
        <ele>82.31301117</ele>
        <time>2018-09-09T09:11:01Z</time>
      </trkpt>
      <trkpt lat="43.48551" lon="1.41399">
        <ele>82.73738098</ele>
        <time>2018-09-09T09:11:03Z</time>
      </trkpt>
      <trkpt lat="43.48542" lon="1.414">
        <ele>81.74660492</ele>
        <time>2018-09-09T09:11:05Z</time>
      </trkpt>
      <trkpt lat="43.48534" lon="1.41398">
        <ele>81.74660492</ele>
        <time>2018-09-09T09:11:06Z</time>
      </trkpt>
      <trkpt lat="43.48523" lon="1.41394">
        <ele>81.74660492</ele>
        <time>2018-09-09T09:11:08Z</time>
      </trkpt>
      <trkpt lat="43.48512" lon="1.41392">
        <ele>81.74660492</ele>
        <time>2018-09-09T09:11:10Z</time>
      </trkpt>
      <trkpt lat="43.485" lon="1.41393">
        <ele>81.74660492</ele>
        <time>2018-09-09T09:11:12Z</time>
      </trkpt>
      <trkpt lat="43.48486" lon="1.41394">
        <ele>81.74660492</ele>
        <time>2018-09-09T09:11:14Z</time>
      </trkpt>
      <trkpt lat="43.48473" lon="1.41396">
        <ele>81.34126282</ele>
        <time>2018-09-09T09:11:16Z</time>
      </trkpt>
      <trkpt lat="43.48459" lon="1.414">
        <ele>81.34126282</ele>
        <time>2018-09-09T09:11:19Z</time>
      </trkpt>
      <trkpt lat="43.48446" lon="1.41403">
        <ele>81.34126282</ele>
        <time>2018-09-09T09:11:20Z</time>
      </trkpt>
      <trkpt lat="43.48434" lon="1.41404">
        <ele>81.34126282</ele>
        <time>2018-09-09T09:11:22Z</time>
      </trkpt>
      <trkpt lat="43.48424" lon="1.41406">
        <ele>81.34126282</ele>
        <time>2018-09-09T09:11:24Z</time>
      </trkpt>
      <trkpt lat="43.48413" lon="1.41405">
        <ele>81.34126282</ele>
        <time>2018-09-09T09:11:26Z</time>
      </trkpt>
      <trkpt lat="43.48401" lon="1.41405">
        <ele>81.34126282</ele>
        <time>2018-09-09T09:11:28Z</time>
      </trkpt>
      <trkpt lat="43.48389" lon="1.41408">
        <ele>81.34126282</ele>
        <time>2018-09-09T09:11:30Z</time>
      </trkpt>
      <trkpt lat="43.4838" lon="1.41412">
        <ele>81.34126282</ele>
        <time>2018-09-09T09:11:32Z</time>
      </trkpt>
      <trkpt lat="43.48369" lon="1.41419">
        <ele>81.34126282</ele>
        <time>2018-09-09T09:11:35Z</time>
      </trkpt>
      <trkpt lat="43.48355" lon="1.41427">
        <ele>81.34126282</ele>
        <time>2018-09-09T09:11:38Z</time>
      </trkpt>
      <trkpt lat="43.48343" lon="1.41435">
        <ele>80.62255096</ele>
        <time>2018-09-09T09:11:42Z</time>
      </trkpt>
      <trkpt lat="43.4833" lon="1.41439">
        <ele>80.62255096</ele>
        <time>2018-09-09T09:11:44Z</time>
      </trkpt>
      <trkpt lat="43.48315" lon="1.41445">
        <ele>80.62255096</ele>
        <time>2018-09-09T09:11:47Z</time>
      </trkpt>
      <trkpt lat="43.48301" lon="1.41458">
        <ele>82.31232452</ele>
        <time>2018-09-09T09:11:50Z</time>
      </trkpt>
      <trkpt lat="43.48288" lon="1.4147">
        <ele>82.31232452</ele>
        <time>2018-09-09T09:11:53Z</time>
      </trkpt>
      <trkpt lat="43.48274" lon="1.41477">
        <ele>82.31232452</ele>
        <time>2018-09-09T09:11:56Z</time>
      </trkpt>
      <trkpt lat="43.4826" lon="1.41485">
        <ele>82.31232452</ele>
        <time>2018-09-09T09:11:58Z</time>
      </trkpt>
      <trkpt lat="43.4825" lon="1.41492">
        <ele>82.31232452</ele>
        <time>2018-09-09T09:12:01Z</time>
      </trkpt>
      <trkpt lat="43.48241" lon="1.415">
        <ele>83.94902802</ele>
        <time>2018-09-09T09:12:05Z</time>
      </trkpt>
      <trkpt lat="43.4823" lon="1.41511">
        <ele>84.79151154</ele>
        <time>2018-09-09T09:12:09Z</time>
      </trkpt>
      <trkpt lat="43.48225" lon="1.4152">
        <ele>86.05602264</ele>
        <time>2018-09-09T09:12:15Z</time>
      </trkpt>
      <trkpt lat="43.48227" lon="1.41534">
        <ele>87.15599823</ele>
        <time>2018-09-09T09:12:19Z</time>
      </trkpt>
      <trkpt lat="43.48234" lon="1.41546">
        <ele>88.41842651</ele>
        <time>2018-09-09T09:12:22Z</time>
      </trkpt>
      <trkpt lat="43.4824" lon="1.41557">
        <ele>89.69580841</ele>
        <time>2018-09-09T09:12:26Z</time>
      </trkpt>
      <trkpt lat="43.48247" lon="1.4157">
        <ele>92.18534851</ele>
        <time>2018-09-09T09:12:29Z</time>
      </trkpt>
      <trkpt lat="43.48254" lon="1.4158">
        <ele>93.42615509</ele>
        <time>2018-09-09T09:12:32Z</time>
      </trkpt>
      <trkpt lat="43.48264" lon="1.41588">
        <ele>95.76054382</ele>
        <time>2018-09-09T09:12:36Z</time>
      </trkpt>
      <trkpt lat="43.48272" lon="1.41598">
        <ele>96.86077118</ele>
        <time>2018-09-09T09:12:40Z</time>
      </trkpt>
      <trkpt lat="43.48279" lon="1.41611">
        <ele>96.86077118</ele>
        <time>2018-09-09T09:12:43Z</time>
      </trkpt>
      <trkpt lat="43.48285" lon="1.41622">
        <ele>96.86077118</ele>
        <time>2018-09-09T09:12:46Z</time>
      </trkpt>
      <trkpt lat="43.48293" lon="1.41633">
        <ele>96.86077118</ele>
        <time>2018-09-09T09:12:49Z</time>
      </trkpt>
      <trkpt lat="43.48301" lon="1.41645">
        <ele>96.86077118</ele>
        <time>2018-09-09T09:12:52Z</time>
      </trkpt>
      <trkpt lat="43.48306" lon="1.41655">
        <ele>96.86077118</ele>
        <time>2018-09-09T09:12:56Z</time>
      </trkpt>
      <trkpt lat="43.48312" lon="1.4167">
        <ele>96.86077118</ele>
        <time>2018-09-09T09:12:59Z</time>
      </trkpt>
      <trkpt lat="43.48317" lon="1.41684">
        <ele>96.86077118</ele>
        <time>2018-09-09T09:13:02Z</time>
      </trkpt>
      <trkpt lat="43.48322" lon="1.41696">
        <ele>97.48805237</ele>
        <time>2018-09-09T09:13:05Z</time>
      </trkpt>
      <trkpt lat="43.48326" lon="1.41707">
        <ele>97.48805237</ele>
        <time>2018-09-09T09:13:06Z</time>
      </trkpt>
      <trkpt lat="43.48326" lon="1.41719">
        <ele>97.48805237</ele>
        <time>2018-09-09T09:13:09Z</time>
      </trkpt>
      <trkpt lat="43.48327" lon="1.4173">
        <ele>98.30677795</ele>
        <time>2018-09-09T09:13:12Z</time>
      </trkpt>
      <trkpt lat="43.48325" lon="1.41745">
        <ele>98.30677795</ele>
        <time>2018-09-09T09:13:15Z</time>
      </trkpt>
      <trkpt lat="43.48322" lon="1.4176">
        <ele>99.59815216</ele>
        <time>2018-09-09T09:13:16Z</time>
      </trkpt>
      <trkpt lat="43.48322" lon="1.41772">
        <ele>99.59815216</ele>
        <time>2018-09-09T09:13:19Z</time>
      </trkpt>
      <trkpt lat="43.48322" lon="1.41784">
        <ele>99.59815216</ele>
        <time>2018-09-09T09:13:22Z</time>
      </trkpt>
      <trkpt lat="43.4832" lon="1.41797">
        <ele>99.59815216</ele>
        <time>2018-09-09T09:13:24Z</time>
      </trkpt>
      <trkpt lat="43.4832" lon="1.41809">
        <ele>99.59815216</ele>
        <time>2018-09-09T09:13:27Z</time>
      </trkpt>
      <trkpt lat="43.4832" lon="1.41822">
        <ele>99.59815216</ele>
        <time>2018-09-09T09:13:29Z</time>
      </trkpt>
      <trkpt lat="43.4832" lon="1.41834">
        <ele>100.74814606</ele>
        <time>2018-09-09T09:13:31Z</time>
      </trkpt>
      <trkpt lat="43.4832" lon="1.41847">
        <ele>100.74814606</ele>
        <time>2018-09-09T09:13:33Z</time>
      </trkpt>
      <trkpt lat="43.48319" lon="1.41859">
        <ele>100.74814606</ele>
        <time>2018-09-09T09:13:35Z</time>
      </trkpt>
      <trkpt lat="43.48317" lon="1.41871">
        <ele>100.74814606</ele>
        <time>2018-09-09T09:13:37Z</time>
      </trkpt>
      <trkpt lat="43.48314" lon="1.41883">
        <ele>101.76135254</ele>
        <time>2018-09-09T09:13:39Z</time>
      </trkpt>
      <trkpt lat="43.48313" lon="1.41896">
        <ele>101.76135254</ele>
        <time>2018-09-09T09:13:42Z</time>
      </trkpt>
      <trkpt lat="43.48312" lon="1.41909">
        <ele>103.06403351</ele>
        <time>2018-09-09T09:13:44Z</time>
      </trkpt>
      <trkpt lat="43.48313" lon="1.41921">
        <ele>103.06403351</ele>
        <time>2018-09-09T09:13:46Z</time>
      </trkpt>
      <trkpt lat="43.48312" lon="1.41932">
        <ele>104.20480347</ele>
        <time>2018-09-09T09:13:48Z</time>
      </trkpt>
      <trkpt lat="43.48311" lon="1.41945">
        <ele>104.20480347</ele>
        <time>2018-09-09T09:13:51Z</time>
      </trkpt>
      <trkpt lat="43.48311" lon="1.41956">
        <ele>105.35176086</ele>
        <time>2018-09-09T09:13:52Z</time>
      </trkpt>
      <trkpt lat="43.48311" lon="1.41968">
        <ele>105.35176086</ele>
        <time>2018-09-09T09:13:54Z</time>
      </trkpt>
      <trkpt lat="43.4831" lon="1.4198">
        <ele>106.61619568</ele>
        <time>2018-09-09T09:13:56Z</time>
      </trkpt>
      <trkpt lat="43.48312" lon="1.41991">
        <ele>107.8832016</ele>
        <time>2018-09-09T09:13:58Z</time>
      </trkpt>
      <trkpt lat="43.48313" lon="1.42">
        <ele>107.8832016</ele>
        <time>2018-09-09T09:14:00Z</time>
      </trkpt>
      <trkpt lat="43.48316" lon="1.42012">
        <ele>109.02045441</ele>
        <time>2018-09-09T09:14:03Z</time>
      </trkpt>
      <trkpt lat="43.48317" lon="1.42022">
        <ele>109.99386597</ele>
        <time>2018-09-09T09:14:05Z</time>
      </trkpt>
      <trkpt lat="43.4832" lon="1.42032">
        <ele>109.99386597</ele>
        <time>2018-09-09T09:14:07Z</time>
      </trkpt>
      <trkpt lat="43.48323" lon="1.42045">
        <ele>110.86375427</ele>
        <time>2018-09-09T09:14:10Z</time>
      </trkpt>
      <trkpt lat="43.48325" lon="1.42059">
        <ele>110.86375427</ele>
        <time>2018-09-09T09:14:13Z</time>
      </trkpt>
      <trkpt lat="43.48328" lon="1.42073">
        <ele>111.81240082</ele>
        <time>2018-09-09T09:14:15Z</time>
      </trkpt>
      <trkpt lat="43.48332" lon="1.42085">
        <ele>111.81240082</ele>
        <time>2018-09-09T09:14:17Z</time>
      </trkpt>
      <trkpt lat="43.48336" lon="1.42095">
        <ele>113.01515198</ele>
        <time>2018-09-09T09:14:20Z</time>
      </trkpt>
      <trkpt lat="43.48343" lon="1.42109">
        <ele>114.23900604</ele>
        <time>2018-09-09T09:14:23Z</time>
      </trkpt>
      <trkpt lat="43.48353" lon="1.42121">
        <ele>115.3237381</ele>
        <time>2018-09-09T09:14:27Z</time>
      </trkpt>
      <trkpt lat="43.48364" lon="1.42129">
        <ele>117.59101105</ele>
        <time>2018-09-09T09:14:33Z</time>
      </trkpt>
      <trkpt lat="43.48373" lon="1.42137">
        <ele>117.59101105</ele>
        <time>2018-09-09T09:14:38Z</time>
      </trkpt>
      <trkpt lat="43.48395" lon="1.42162">
        <ele>118.52746582</ele>
        <time>2018-09-09T09:14:46Z</time>
      </trkpt>
      <trkpt lat="43.48405" lon="1.42175">
        <ele>118.52746582</ele>
        <time>2018-09-09T09:14:51Z</time>
      </trkpt>
      <trkpt lat="43.48413" lon="1.42186">
        <ele>119.61841583</ele>
        <time>2018-09-09T09:14:57Z</time>
      </trkpt>
      <trkpt lat="43.48417" lon="1.42197">
        <ele>119.61841583</ele>
        <time>2018-09-09T09:15:02Z</time>
      </trkpt>
      <trkpt lat="43.4842" lon="1.42207">
        <ele>120.69081116</ele>
        <time>2018-09-09T09:15:05Z</time>
      </trkpt>
      <trkpt lat="43.48422" lon="1.42215">
        <ele>120.69081116</ele>
        <time>2018-09-09T09:15:08Z</time>
      </trkpt>
      <trkpt lat="43.48425" lon="1.42229">
        <ele>121.56082153</ele>
        <time>2018-09-09T09:15:12Z</time>
      </trkpt>
      <trkpt lat="43.48428" lon="1.4224">
        <ele>121.56082153</ele>
        <time>2018-09-09T09:15:14Z</time>
      </trkpt>
      <trkpt lat="43.48428" lon="1.42252">
        <ele>122.88777161</ele>
        <time>2018-09-09T09:15:17Z</time>
      </trkpt>
      <trkpt lat="43.48426" lon="1.42263">
        <ele>125.12467957</ele>
        <time>2018-09-09T09:15:21Z</time>
      </trkpt>
      <trkpt lat="43.48423" lon="1.42275">
        <ele>126.33931732</ele>
        <time>2018-09-09T09:15:24Z</time>
      </trkpt>
      <trkpt lat="43.48422" lon="1.42286">
        <ele>127.59073639</ele>
        <time>2018-09-09T09:15:27Z</time>
      </trkpt>
      <trkpt lat="43.48419" lon="1.42297">
        <ele>128.71131897</ele>
        <time>2018-09-09T09:15:30Z</time>
      </trkpt>
      <trkpt lat="43.48415" lon="1.42308">
        <ele>129.84779358</ele>
        <time>2018-09-09T09:15:34Z</time>
      </trkpt>
      <trkpt lat="43.48413" lon="1.42322">
        <ele>131.00476074</ele>
        <time>2018-09-09T09:15:37Z</time>
      </trkpt>
      <trkpt lat="43.48412" lon="1.42334">
        <ele>132.1184082</ele>
        <time>2018-09-09T09:15:40Z</time>
      </trkpt>
      <trkpt lat="43.48408" lon="1.42359">
        <ele>132.1184082</ele>
        <time>2018-09-09T09:15:46Z</time>
      </trkpt>
      <trkpt lat="43.48404" lon="1.42372">
        <ele>134.375</ele>
        <time>2018-09-09T09:15:50Z</time>
      </trkpt>
      <trkpt lat="43.48402" lon="1.42385">
        <ele>135.47360229</ele>
        <time>2018-09-09T09:15:53Z</time>
      </trkpt>
      <trkpt lat="43.48399" lon="1.42399">
        <ele>136.62715149</ele>
        <time>2018-09-09T09:15:55Z</time>
      </trkpt>
      <trkpt lat="43.48397" lon="1.4241">
        <ele>137.7882843</ele>
        <time>2018-09-09T09:15:58Z</time>
      </trkpt>
      <trkpt lat="43.48394" lon="1.42423">
        <ele>138.90264893</ele>
        <time>2018-09-09T09:16:01Z</time>
      </trkpt>
      <trkpt lat="43.48393" lon="1.42435">
        <ele>139.91641235</ele>
        <time>2018-09-09T09:16:04Z</time>
      </trkpt>
      <trkpt lat="43.48393" lon="1.42439">
        <ele>140.70608521</ele>
        <time>2018-09-09T09:16:05Z</time>
      </trkpt>
      <trkpt lat="43.48393" lon="1.42446">
        <ele>140.70608521</ele>
        <time>2018-09-09T09:16:07Z</time>
      </trkpt>
      <trkpt lat="43.48393" lon="1.42459">
        <ele>141.57850647</ele>
        <time>2018-09-09T09:16:10Z</time>
      </trkpt>
      <trkpt lat="43.48391" lon="1.4247">
        <ele>141.57850647</ele>
        <time>2018-09-09T09:16:12Z</time>
      </trkpt>
      <trkpt lat="43.48391" lon="1.42482">
        <ele>142.69255066</ele>
        <time>2018-09-09T09:16:14Z</time>
      </trkpt>
      <trkpt lat="43.48391" lon="1.42492">
        <ele>142.69255066</ele>
        <time>2018-09-09T09:16:16Z</time>
      </trkpt>
      <trkpt lat="43.48391" lon="1.42503">
        <ele>143.96078491</ele>
        <time>2018-09-09T09:16:18Z</time>
      </trkpt>
      <trkpt lat="43.4839" lon="1.42515">
        <ele>145.15408325</ele>
        <time>2018-09-09T09:16:21Z</time>
      </trkpt>
      <trkpt lat="43.48388" lon="1.42526">
        <ele>145.15408325</ele>
        <time>2018-09-09T09:16:24Z</time>
      </trkpt>
      <trkpt lat="43.48384" lon="1.42537">
        <ele>146.25750732</ele>
        <time>2018-09-09T09:16:27Z</time>
      </trkpt>
      <trkpt lat="43.48382" lon="1.4255">
        <ele>147.38108826</ele>
        <time>2018-09-09T09:16:30Z</time>
      </trkpt>
      <trkpt lat="43.4838" lon="1.42562">
        <ele>148.55157471</ele>
        <time>2018-09-09T09:16:33Z</time>
      </trkpt>
      <trkpt lat="43.48376" lon="1.42576">
        <ele>148.55157471</ele>
        <time>2018-09-09T09:16:36Z</time>
      </trkpt>
      <trkpt lat="43.48373" lon="1.4259">
        <ele>148.55157471</ele>
        <time>2018-09-09T09:16:39Z</time>
      </trkpt>
      <trkpt lat="43.48372" lon="1.42603">
        <ele>149.56443787</ele>
        <time>2018-09-09T09:16:43Z</time>
      </trkpt>
      <trkpt lat="43.48367" lon="1.42616">
        <ele>150.64884949</ele>
        <time>2018-09-09T09:16:45Z</time>
      </trkpt>
      <trkpt lat="43.48365" lon="1.42627">
        <ele>150.64884949</ele>
        <time>2018-09-09T09:16:48Z</time>
      </trkpt>
      <trkpt lat="43.48362" lon="1.42639">
        <ele>151.73129272</ele>
        <time>2018-09-09T09:16:51Z</time>
      </trkpt>
      <trkpt lat="43.48359" lon="1.42652">
        <ele>151.73129272</ele>
        <time>2018-09-09T09:16:54Z</time>
      </trkpt>
      <trkpt lat="43.48356" lon="1.42665">
        <ele>152.87669373</ele>
        <time>2018-09-09T09:16:57Z</time>
      </trkpt>
      <trkpt lat="43.48354" lon="1.42677">
        <ele>152.87669373</ele>
        <time>2018-09-09T09:16:59Z</time>
      </trkpt>
      <trkpt lat="43.48352" lon="1.42689">
        <ele>153.79917908</ele>
        <time>2018-09-09T09:17:01Z</time>
      </trkpt>
      <trkpt lat="43.48349" lon="1.42701">
        <ele>153.79917908</ele>
        <time>2018-09-09T09:17:04Z</time>
      </trkpt>
      <trkpt lat="43.48347" lon="1.42706">
        <ele>154.96263123</ele>
        <time>2018-09-09T09:17:05Z</time>
      </trkpt>
      <trkpt lat="43.48345" lon="1.42715">
        <ele>154.96263123</ele>
        <time>2018-09-09T09:17:07Z</time>
      </trkpt>
      <trkpt lat="43.48341" lon="1.42728">
        <ele>155.90634155</ele>
        <time>2018-09-09T09:17:10Z</time>
      </trkpt>
      <trkpt lat="43.48336" lon="1.42742">
        <ele>156.9284668</ele>
        <time>2018-09-09T09:17:14Z</time>
      </trkpt>
      <trkpt lat="43.48332" lon="1.42753">
        <ele>157.99932861</ele>
        <time>2018-09-09T09:17:16Z</time>
      </trkpt>
      <trkpt lat="43.48328" lon="1.42765">
        <ele>157.99932861</ele>
        <time>2018-09-09T09:17:19Z</time>
      </trkpt>
      <trkpt lat="43.48323" lon="1.42776">
        <ele>159.18786621</ele>
        <time>2018-09-09T09:17:22Z</time>
      </trkpt>
      <trkpt lat="43.48319" lon="1.42789">
        <ele>160.24160767</ele>
        <time>2018-09-09T09:17:25Z</time>
      </trkpt>
      <trkpt lat="43.48318" lon="1.42803">
        <ele>161.29251099</ele>
        <time>2018-09-09T09:17:28Z</time>
      </trkpt>
      <trkpt lat="43.48314" lon="1.42817">
        <ele>161.29251099</ele>
        <time>2018-09-09T09:17:31Z</time>
      </trkpt>
      <trkpt lat="43.4831" lon="1.4283">
        <ele>162.42626953</ele>
        <time>2018-09-09T09:17:33Z</time>
      </trkpt>
      <trkpt lat="43.48306" lon="1.42842">
        <ele>163.63113403</ele>
        <time>2018-09-09T09:17:36Z</time>
      </trkpt>
      <trkpt lat="43.48301" lon="1.42855">
        <ele>163.63113403</ele>
        <time>2018-09-09T09:17:39Z</time>
      </trkpt>
      <trkpt lat="43.48291" lon="1.42879">
        <ele>165.84039307</ele>
        <time>2018-09-09T09:17:45Z</time>
      </trkpt>
      <trkpt lat="43.48285" lon="1.42892">
        <ele>166.93882751</ele>
        <time>2018-09-09T09:17:48Z</time>
      </trkpt>
      <trkpt lat="43.48281" lon="1.42904">
        <ele>167.98764038</ele>
        <time>2018-09-09T09:17:51Z</time>
      </trkpt>
      <trkpt lat="43.48275" lon="1.42917">
        <ele>167.98764038</ele>
        <time>2018-09-09T09:17:53Z</time>
      </trkpt>
      <trkpt lat="43.48271" lon="1.42926">
        <ele>167.98764038</ele>
        <time>2018-09-09T09:17:56Z</time>
      </trkpt>
      <trkpt lat="43.48265" lon="1.42938">
        <ele>169.05438232</ele>
        <time>2018-09-09T09:17:59Z</time>
      </trkpt>
      <trkpt lat="43.48257" lon="1.4295">
        <ele>170.41290283</ele>
        <time>2018-09-09T09:18:02Z</time>
      </trkpt>
      <trkpt lat="43.48251" lon="1.42958">
        <ele>171.34072876</ele>
        <time>2018-09-09T09:18:05Z</time>
      </trkpt>
      <trkpt lat="43.48245" lon="1.42966">
        <ele>171.34072876</ele>
        <time>2018-09-09T09:18:07Z</time>
      </trkpt>
      <trkpt lat="43.48239" lon="1.42977">
        <ele>172.30802917</ele>
        <time>2018-09-09T09:18:10Z</time>
      </trkpt>
      <trkpt lat="43.48232" lon="1.4299">
        <ele>173.49258423</ele>
        <time>2018-09-09T09:18:13Z</time>
      </trkpt>
      <trkpt lat="43.48227" lon="1.43003">
        <ele>174.70048523</ele>
        <time>2018-09-09T09:18:16Z</time>
      </trkpt>
      <trkpt lat="43.48221" lon="1.43015">
        <ele>175.77348328</ele>
        <time>2018-09-09T09:18:19Z</time>
      </trkpt>
      <trkpt lat="43.48218" lon="1.43026">
        <ele>177.00956726</ele>
        <time>2018-09-09T09:18:22Z</time>
      </trkpt>
      <trkpt lat="43.48213" lon="1.43037">
        <ele>178.12884521</ele>
        <time>2018-09-09T09:18:25Z</time>
      </trkpt>
      <trkpt lat="43.48206" lon="1.43049">
        <ele>179.29119873</ele>
        <time>2018-09-09T09:18:28Z</time>
      </trkpt>
      <trkpt lat="43.48203" lon="1.43061">
        <ele>180.42811584</ele>
        <time>2018-09-09T09:18:30Z</time>
      </trkpt>
      <trkpt lat="43.48199" lon="1.43073">
        <ele>181.59431458</ele>
        <time>2018-09-09T09:18:33Z</time>
      </trkpt>
      <trkpt lat="43.48195" lon="1.43087">
        <ele>181.59431458</ele>
        <time>2018-09-09T09:18:36Z</time>
      </trkpt>
      <trkpt lat="43.4819" lon="1.43101">
        <ele>182.67102051</ele>
        <time>2018-09-09T09:18:39Z</time>
      </trkpt>
      <trkpt lat="43.48183" lon="1.43114">
        <ele>183.91343689</ele>
        <time>2018-09-09T09:18:42Z</time>
      </trkpt>
      <trkpt lat="43.48178" lon="1.43126">
        <ele>185.05989075</ele>
        <time>2018-09-09T09:18:45Z</time>
      </trkpt>
      <trkpt lat="43.48174" lon="1.43138">
        <ele>186.20648193</ele>
        <time>2018-09-09T09:18:49Z</time>
      </trkpt>
      <trkpt lat="43.48169" lon="1.4315">
        <ele>186.20648193</ele>
        <time>2018-09-09T09:18:54Z</time>
      </trkpt>
      <trkpt lat="43.48165" lon="1.43164">
        <ele>187.23335266</ele>
        <time>2018-09-09T09:18:58Z</time>
      </trkpt>
      <trkpt lat="43.48163" lon="1.43174">
        <ele>187.23335266</ele>
        <time>2018-09-09T09:19:04Z</time>
      </trkpt>
      <trkpt lat="43.4816" lon="1.43179">
        <ele>187.96218872</ele>
        <time>2018-09-09T09:19:05Z</time>
      </trkpt>
      <trkpt lat="43.48155" lon="1.43185">
        <ele>187.96218872</ele>
        <time>2018-09-09T09:19:10Z</time>
      </trkpt>
      <trkpt lat="43.48157" lon="1.43195">
        <ele>188.60958862</ele>
        <time>2018-09-09T09:19:22Z</time>
      </trkpt>
      <trkpt lat="43.48167" lon="1.43203">
        <ele>188.60958862</ele>
        <time>2018-09-09T09:19:30Z</time>
      </trkpt>
      <trkpt lat="43.4818" lon="1.43208">
        <ele>188.60958862</ele>
        <time>2018-09-09T09:19:34Z</time>
      </trkpt>
      <trkpt lat="43.48192" lon="1.43213">
        <ele>189.40940857</ele>
        <time>2018-09-09T09:19:42Z</time>
      </trkpt>
      <trkpt lat="43.48188" lon="1.43219">
        <ele>189.40940857</ele>
        <time>2018-09-09T09:19:49Z</time>
      </trkpt>
      <trkpt lat="43.48179" lon="1.4323">
        <ele>189.40940857</ele>
        <time>2018-09-09T09:19:55Z</time>
      </trkpt>
      <trkpt lat="43.4817" lon="1.4324">
        <ele>191.27076721</ele>
        <time>2018-09-09T09:20:05Z</time>
      </trkpt>
      <trkpt lat="43.48163" lon="1.43249">
        <ele>191.27076721</ele>
        <time>2018-09-09T09:20:12Z</time>
      </trkpt>
      <trkpt lat="43.48154" lon="1.43259">
        <ele>191.27076721</ele>
        <time>2018-09-09T09:20:17Z</time>
      </trkpt>
      <trkpt lat="43.48146" lon="1.43269">
        <ele>191.27076721</ele>
        <time>2018-09-09T09:20:21Z</time>
      </trkpt>
      <trkpt lat="43.48138" lon="1.43283">
        <ele>191.27076721</ele>
        <time>2018-09-09T09:20:24Z</time>
      </trkpt>
      <trkpt lat="43.48133" lon="1.43297">
        <ele>191.08163452</ele>
        <time>2018-09-09T09:20:27Z</time>
      </trkpt>
      <trkpt lat="43.48127" lon="1.43313">
        <ele>191.08163452</ele>
        <time>2018-09-09T09:20:29Z</time>
      </trkpt>
      <trkpt lat="43.48123" lon="1.43329">
        <ele>191.08163452</ele>
        <time>2018-09-09T09:20:31Z</time>
      </trkpt>
      <trkpt lat="43.48117" lon="1.43344">
        <ele>189.53831482</ele>
        <time>2018-09-09T09:20:33Z</time>
      </trkpt>
      <trkpt lat="43.48113" lon="1.43357">
        <ele>189.53831482</ele>
        <time>2018-09-09T09:20:35Z</time>
      </trkpt>
      <trkpt lat="43.48109" lon="1.43369">
        <ele>189.53831482</ele>
        <time>2018-09-09T09:20:37Z</time>
      </trkpt>
      <trkpt lat="43.48105" lon="1.43383">
        <ele>189.53831482</ele>
        <time>2018-09-09T09:20:39Z</time>
      </trkpt>
      <trkpt lat="43.48101" lon="1.43399">
        <ele>189.53831482</ele>
        <time>2018-09-09T09:20:41Z</time>
      </trkpt>
      <trkpt lat="43.48099" lon="1.43414">
        <ele>189.53831482</ele>
        <time>2018-09-09T09:20:43Z</time>
      </trkpt>
      <trkpt lat="43.48097" lon="1.43428">
        <ele>188.61877441</ele>
        <time>2018-09-09T09:20:45Z</time>
      </trkpt>
      <trkpt lat="43.48098" lon="1.43445">
        <ele>188.61877441</ele>
        <time>2018-09-09T09:20:47Z</time>
      </trkpt>
      <trkpt lat="43.48099" lon="1.4346">
        <ele>187.38378906</ele>
        <time>2018-09-09T09:20:48Z</time>
      </trkpt>
      <trkpt lat="43.48099" lon="1.43471">
        <ele>187.38378906</ele>
        <time>2018-09-09T09:20:49Z</time>
      </trkpt>
      <trkpt lat="43.48101" lon="1.43481">
        <ele>185.57751465</ele>
        <time>2018-09-09T09:20:50Z</time>
      </trkpt>
      <trkpt lat="43.48101" lon="1.43493">
        <ele>185.57751465</ele>
        <time>2018-09-09T09:20:51Z</time>
      </trkpt>
      <trkpt lat="43.48099" lon="1.43518">
        <ele>182.11914062</ele>
        <time>2018-09-09T09:20:53Z</time>
      </trkpt>
      <trkpt lat="43.48099" lon="1.43533">
        <ele>181.07225037</ele>
        <time>2018-09-09T09:20:54Z</time>
      </trkpt>
      <trkpt lat="43.48101" lon="1.43548">
        <ele>180.01524353</ele>
        <time>2018-09-09T09:20:55Z</time>
      </trkpt>
      <trkpt lat="43.48103" lon="1.43562">
        <ele>178.99876404</ele>
        <time>2018-09-09T09:20:56Z</time>
      </trkpt>
      <trkpt lat="43.48106" lon="1.43575">
        <ele>177.93838501</ele>
        <time>2018-09-09T09:20:57Z</time>
      </trkpt>
      <trkpt lat="43.48112" lon="1.4359">
        <ele>176.70782471</ele>
        <time>2018-09-09T09:20:58Z</time>
      </trkpt>
      <trkpt lat="43.48121" lon="1.43604">
        <ele>175.3863678</ele>
        <time>2018-09-09T09:20:59Z</time>
      </trkpt>
      <trkpt lat="43.4813" lon="1.43617">
        <ele>174.12797546</ele>
        <time>2018-09-09T09:21:00Z</time>
      </trkpt>
      <trkpt lat="43.48139" lon="1.43628">
        <ele>172.87843323</ele>
        <time>2018-09-09T09:21:01Z</time>
      </trkpt>
      <trkpt lat="43.48145" lon="1.43642">
        <ele>171.61932373</ele>
        <time>2018-09-09T09:21:02Z</time>
      </trkpt>
      <trkpt lat="43.48148" lon="1.43659">
        <ele>170.26631165</ele>
        <time>2018-09-09T09:21:03Z</time>
      </trkpt>
      <trkpt lat="43.48148" lon="1.43678">
        <ele>168.83683777</ele>
        <time>2018-09-09T09:21:04Z</time>
      </trkpt>
      <trkpt lat="43.48146" lon="1.43696">
        <ele>167.33651733</ele>
        <time>2018-09-09T09:21:05Z</time>
      </trkpt>
      <trkpt lat="43.48142" lon="1.43714">
        <ele>165.86503601</ele>
        <time>2018-09-09T09:21:06Z</time>
      </trkpt>
      <trkpt lat="43.48138" lon="1.43732">
        <ele>164.46017456</ele>
        <time>2018-09-09T09:21:07Z</time>
      </trkpt>
      <trkpt lat="43.48134" lon="1.43749">
        <ele>163.12393188</ele>
        <time>2018-09-09T09:21:08Z</time>
      </trkpt>
      <trkpt lat="43.48129" lon="1.43786">
        <ele>160.27784729</ele>
        <time>2018-09-09T09:21:10Z</time>
      </trkpt>
      <trkpt lat="43.48127" lon="1.43825">
        <ele>157.2227478</ele>
        <time>2018-09-09T09:21:12Z</time>
      </trkpt>
      <trkpt lat="43.48126" lon="1.43846">
        <ele>155.77055359</ele>
        <time>2018-09-09T09:21:13Z</time>
      </trkpt>
      <trkpt lat="43.48126" lon="1.43866">
        <ele>154.6268158</ele>
        <time>2018-09-09T09:21:14Z</time>
      </trkpt>
      <trkpt lat="43.48125" lon="1.43885">
        <ele>153.62046814</ele>
        <time>2018-09-09T09:21:15Z</time>
      </trkpt>
      <trkpt lat="43.48124" lon="1.43904">
        <ele>152.56370544</ele>
        <time>2018-09-09T09:21:16Z</time>
      </trkpt>
      <trkpt lat="43.48123" lon="1.43924">
        <ele>151.48970032</ele>
        <time>2018-09-09T09:21:17Z</time>
      </trkpt>
      <trkpt lat="43.48121" lon="1.43942">
        <ele>150.31123352</ele>
        <time>2018-09-09T09:21:18Z</time>
      </trkpt>
      <trkpt lat="43.48119" lon="1.43961">
        <ele>149.08087158</ele>
        <time>2018-09-09T09:21:19Z</time>
      </trkpt>
      <trkpt lat="43.48118" lon="1.43981">
        <ele>147.7297821</ele>
        <time>2018-09-09T09:21:20Z</time>
      </trkpt>
      <trkpt lat="43.48117" lon="1.43999">
        <ele>146.22691345</ele>
        <time>2018-09-09T09:21:21Z</time>
      </trkpt>
      <trkpt lat="43.48115" lon="1.44019">
        <ele>144.67887878</ele>
        <time>2018-09-09T09:21:22Z</time>
      </trkpt>
      <trkpt lat="43.48114" lon="1.44038">
        <ele>143.18357849</ele>
        <time>2018-09-09T09:21:23Z</time>
      </trkpt>
      <trkpt lat="43.48112" lon="1.44058">
        <ele>141.74201965</ele>
        <time>2018-09-09T09:21:24Z</time>
      </trkpt>
      <trkpt lat="43.48107" lon="1.44076">
        <ele>140.33837891</ele>
        <time>2018-09-09T09:21:25Z</time>
      </trkpt>
      <trkpt lat="43.48102" lon="1.44094">
        <ele>138.88804626</ele>
        <time>2018-09-09T09:21:26Z</time>
      </trkpt>
      <trkpt lat="43.48098" lon="1.44113">
        <ele>137.52401733</ele>
        <time>2018-09-09T09:21:27Z</time>
      </trkpt>
      <trkpt lat="43.48094" lon="1.44131">
        <ele>136.14334106</ele>
        <time>2018-09-09T09:21:28Z</time>
      </trkpt>
      <trkpt lat="43.48093" lon="1.44149">
        <ele>134.57492065</ele>
        <time>2018-09-09T09:21:29Z</time>
      </trkpt>
      <trkpt lat="43.48098" lon="1.44166">
        <ele>133.00213623</ele>
        <time>2018-09-09T09:21:30Z</time>
      </trkpt>
      <trkpt lat="43.48115" lon="1.44176">
        <ele>131.49273682</ele>
        <time>2018-09-09T09:21:31Z</time>
      </trkpt>
      <trkpt lat="43.4813" lon="1.44185">
        <ele>129.97387695</ele>
        <time>2018-09-09T09:21:32Z</time>
      </trkpt>
      <trkpt lat="43.48143" lon="1.44188">
        <ele>128.53974915</ele>
        <time>2018-09-09T09:21:33Z</time>
      </trkpt>
      <trkpt lat="43.48156" lon="1.44193">
        <ele>127.13738251</ele>
        <time>2018-09-09T09:21:34Z</time>
      </trkpt>
      <trkpt lat="43.4818" lon="1.44214">
        <ele>124.12100983</ele>
        <time>2018-09-09T09:21:36Z</time>
      </trkpt>
      <trkpt lat="43.48189" lon="1.44229">
        <ele>122.57525635</ele>
        <time>2018-09-09T09:21:37Z</time>
      </trkpt>
      <trkpt lat="43.48191" lon="1.44249">
        <ele>120.94019318</ele>
        <time>2018-09-09T09:21:38Z</time>
      </trkpt>
      <trkpt lat="43.48193" lon="1.44269">
        <ele>119.42034149</ele>
        <time>2018-09-09T09:21:39Z</time>
      </trkpt>
      <trkpt lat="43.48195" lon="1.4429">
        <ele>117.99681854</ele>
        <time>2018-09-09T09:21:40Z</time>
      </trkpt>
      <trkpt lat="43.482" lon="1.44329">
        <ele>115.12494659</ele>
        <time>2018-09-09T09:21:42Z</time>
      </trkpt>
      <trkpt lat="43.48201" lon="1.44349">
        <ele>113.82757568</ele>
        <time>2018-09-09T09:21:43Z</time>
      </trkpt>
      <trkpt lat="43.48202" lon="1.44369">
        <ele>112.65235901</ele>
        <time>2018-09-09T09:21:44Z</time>
      </trkpt>
      <trkpt lat="43.48203" lon="1.44387">
        <ele>111.64854431</ele>
        <time>2018-09-09T09:21:45Z</time>
      </trkpt>
      <trkpt lat="43.48203" lon="1.44404">
        <ele>111.64854431</ele>
        <time>2018-09-09T09:21:46Z</time>
      </trkpt>
      <trkpt lat="43.48203" lon="1.44422">
        <ele>111.64854431</ele>
        <time>2018-09-09T09:21:47Z</time>
      </trkpt>
      <trkpt lat="43.48203" lon="1.44438">
        <ele>111.64854431</ele>
        <time>2018-09-09T09:21:48Z</time>
      </trkpt>
      <trkpt lat="43.48202" lon="1.44452">
        <ele>111.64854431</ele>
        <time>2018-09-09T09:21:49Z</time>
      </trkpt>
      <trkpt lat="43.482" lon="1.44464">
        <ele>111.64854431</ele>
        <time>2018-09-09T09:21:50Z</time>
      </trkpt>
      <trkpt lat="43.48198" lon="1.44475">
        <ele>114.17528534</ele>
        <time>2018-09-09T09:21:52Z</time>
      </trkpt>
      <trkpt lat="43.48197" lon="1.44488">
        <ele>114.17528534</ele>
        <time>2018-09-09T09:21:53Z</time>
      </trkpt>
      <trkpt lat="43.48196" lon="1.445">
        <ele>115.62295532</ele>
        <time>2018-09-09T09:21:55Z</time>
      </trkpt>
      <trkpt lat="43.48196" lon="1.4451">
        <ele>118.58446503</ele>
        <time>2018-09-09T09:21:58Z</time>
      </trkpt>
      <trkpt lat="43.48194" lon="1.44521">
        <ele>119.69380951</ele>
        <time>2018-09-09T09:22:02Z</time>
      </trkpt>
      <trkpt lat="43.48197" lon="1.44528">
        <ele>121.28661346</ele>
        <time>2018-09-09T09:22:05Z</time>
      </trkpt>
      <trkpt lat="43.48199" lon="1.44537">
        <ele>121.98543549</ele>
        <time>2018-09-09T09:22:09Z</time>
      </trkpt>
      <trkpt lat="43.48196" lon="1.44549">
        <ele>122.95175171</ele>
        <time>2018-09-09T09:22:13Z</time>
      </trkpt>
      <trkpt lat="43.48194" lon="1.44562">
        <ele>124.09837341</ele>
        <time>2018-09-09T09:22:17Z</time>
      </trkpt>
      <trkpt lat="43.48193" lon="1.44572">
        <ele>125.21076965</ele>
        <time>2018-09-09T09:22:21Z</time>
      </trkpt>
      <trkpt lat="43.48193" lon="1.44585">
        <ele>126.27436829</ele>
        <time>2018-09-09T09:22:24Z</time>
      </trkpt>
      <trkpt lat="43.48191" lon="1.44595">
        <ele>126.27436829</ele>
        <time>2018-09-09T09:22:27Z</time>
      </trkpt>
      <trkpt lat="43.48189" lon="1.44607">
        <ele>127.4723053</ele>
        <time>2018-09-09T09:22:30Z</time>
      </trkpt>
      <trkpt lat="43.48188" lon="1.44619">
        <ele>127.4723053</ele>
        <time>2018-09-09T09:22:32Z</time>
      </trkpt>
      <trkpt lat="43.48185" lon="1.4463">
        <ele>128.61154175</ele>
        <time>2018-09-09T09:22:35Z</time>
      </trkpt>
      <trkpt lat="43.4818" lon="1.44642">
        <ele>129.81079102</ele>
        <time>2018-09-09T09:22:38Z</time>
      </trkpt>
      <trkpt lat="43.48172" lon="1.44666">
        <ele>132.11730957</ele>
        <time>2018-09-09T09:22:45Z</time>
      </trkpt>
      <trkpt lat="43.48165" lon="1.44679">
        <ele>132.11730957</ele>
        <time>2018-09-09T09:22:48Z</time>
      </trkpt>
      <trkpt lat="43.48158" lon="1.44692">
        <ele>133.11897278</ele>
        <time>2018-09-09T09:22:51Z</time>
      </trkpt>
      <trkpt lat="43.48149" lon="1.44707">
        <ele>133.11897278</ele>
        <time>2018-09-09T09:22:54Z</time>
      </trkpt>
      <trkpt lat="43.48143" lon="1.4472">
        <ele>134.43170166</ele>
        <time>2018-09-09T09:22:56Z</time>
      </trkpt>
      <trkpt lat="43.48139" lon="1.4473">
        <ele>134.43170166</ele>
        <time>2018-09-09T09:22:58Z</time>
      </trkpt>
      <trkpt lat="43.48135" lon="1.44741">
        <ele>135.40979004</ele>
        <time>2018-09-09T09:23:00Z</time>
      </trkpt>
      <trkpt lat="43.4813" lon="1.44752">
        <ele>136.43525696</ele>
        <time>2018-09-09T09:23:02Z</time>
      </trkpt>
      <trkpt lat="43.48126" lon="1.44761">
        <ele>137.2804718</ele>
        <time>2018-09-09T09:23:05Z</time>
      </trkpt>
      <trkpt lat="43.48121" lon="1.44769">
        <ele>137.2804718</ele>
        <time>2018-09-09T09:23:07Z</time>
      </trkpt>
      <trkpt lat="43.48117" lon="1.44781">
        <ele>137.2804718</ele>
        <time>2018-09-09T09:23:10Z</time>
      </trkpt>
      <trkpt lat="43.48113" lon="1.44793">
        <ele>138.11372375</ele>
        <time>2018-09-09T09:23:13Z</time>
      </trkpt>
      <trkpt lat="43.48109" lon="1.44804">
        <ele>139.22781372</ele>
        <time>2018-09-09T09:23:16Z</time>
      </trkpt>
      <trkpt lat="43.48105" lon="1.44818">
        <ele>139.22781372</ele>
        <time>2018-09-09T09:23:19Z</time>
      </trkpt>
      <trkpt lat="43.48101" lon="1.44831">
        <ele>139.22781372</ele>
        <time>2018-09-09T09:23:21Z</time>
      </trkpt>
      <trkpt lat="43.48099" lon="1.44842">
        <ele>139.22781372</ele>
        <time>2018-09-09T09:23:24Z</time>
      </trkpt>
      <trkpt lat="43.48095" lon="1.44855">
        <ele>139.22781372</ele>
        <time>2018-09-09T09:23:27Z</time>
      </trkpt>
      <trkpt lat="43.48092" lon="1.44869">
        <ele>139.22781372</ele>
        <time>2018-09-09T09:23:30Z</time>
      </trkpt>
      <trkpt lat="43.48091" lon="1.44881">
        <ele>139.22781372</ele>
        <time>2018-09-09T09:23:32Z</time>
      </trkpt>
      <trkpt lat="43.48091" lon="1.44892">
        <ele>139.22781372</ele>
        <time>2018-09-09T09:23:34Z</time>
      </trkpt>
      <trkpt lat="43.48091" lon="1.44905">
        <ele>139.92070007</ele>
        <time>2018-09-09T09:23:36Z</time>
      </trkpt>
      <trkpt lat="43.48092" lon="1.44919">
        <ele>139.92070007</ele>
        <time>2018-09-09T09:23:38Z</time>
      </trkpt>
      <trkpt lat="43.48092" lon="1.44935">
        <ele>137.86419678</ele>
        <time>2018-09-09T09:23:40Z</time>
      </trkpt>
      <trkpt lat="43.4809" lon="1.44954">
        <ele>136.70553589</ele>
        <time>2018-09-09T09:23:42Z</time>
      </trkpt>
      <trkpt lat="43.4809" lon="1.4497">
        <ele>135.39196777</ele>
        <time>2018-09-09T09:23:43Z</time>
      </trkpt>
      <trkpt lat="43.4809" lon="1.44983">
        <ele>135.39196777</ele>
        <time>2018-09-09T09:23:44Z</time>
      </trkpt>
      <trkpt lat="43.48091" lon="1.44996">
        <ele>133.90208435</ele>
        <time>2018-09-09T09:23:45Z</time>
      </trkpt>
      <trkpt lat="43.48093" lon="1.4501">
        <ele>133.90208435</ele>
        <time>2018-09-09T09:23:46Z</time>
      </trkpt>
      <trkpt lat="43.48095" lon="1.45023">
        <ele>132.1605835</ele>
        <time>2018-09-09T09:23:47Z</time>
      </trkpt>
      <trkpt lat="43.481" lon="1.45035">
        <ele>132.1605835</ele>
        <time>2018-09-09T09:23:48Z</time>
      </trkpt>
      <trkpt lat="43.48107" lon="1.45047">
        <ele>130.29312134</ele>
        <time>2018-09-09T09:23:49Z</time>
      </trkpt>
      <trkpt lat="43.48115" lon="1.45058">
        <ele>130.29312134</ele>
        <time>2018-09-09T09:23:50Z</time>
      </trkpt>
      <trkpt lat="43.48129" lon="1.4508">
        <ele>128.44659424</ele>
        <time>2018-09-09T09:23:52Z</time>
      </trkpt>
      <trkpt lat="43.4814" lon="1.45102">
        <ele>126.78924561</ele>
        <time>2018-09-09T09:23:54Z</time>
      </trkpt>
      <trkpt lat="43.48144" lon="1.45115">
        <ele>125.06752014</ele>
        <time>2018-09-09T09:23:55Z</time>
      </trkpt>
      <trkpt lat="43.48146" lon="1.45128">
        <ele>125.06752014</ele>
        <time>2018-09-09T09:23:56Z</time>
      </trkpt>
      <trkpt lat="43.48146" lon="1.45141">
        <ele>125.06752014</ele>
        <time>2018-09-09T09:23:57Z</time>
      </trkpt>
      <trkpt lat="43.48147" lon="1.45154">
        <ele>123.75380707</ele>
        <time>2018-09-09T09:23:58Z</time>
      </trkpt>
      <trkpt lat="43.48147" lon="1.45166">
        <ele>123.75380707</ele>
        <time>2018-09-09T09:23:59Z</time>
      </trkpt>
      <trkpt lat="43.48147" lon="1.45179">
        <ele>123.75380707</ele>
        <time>2018-09-09T09:24:00Z</time>
      </trkpt>
      <trkpt lat="43.48147" lon="1.4519">
        <ele>123.75380707</ele>
        <time>2018-09-09T09:24:01Z</time>
      </trkpt>
      <trkpt lat="43.48147" lon="1.45201">
        <ele>122.828125</ele>
        <time>2018-09-09T09:24:02Z</time>
      </trkpt>
      <trkpt lat="43.48147" lon="1.45212">
        <ele>122.828125</ele>
        <time>2018-09-09T09:24:03Z</time>
      </trkpt>
      <trkpt lat="43.48148" lon="1.45223">
        <ele>122.828125</ele>
        <time>2018-09-09T09:24:04Z</time>
      </trkpt>
      <trkpt lat="43.48149" lon="1.45235">
        <ele>121.84799194</ele>
        <time>2018-09-09T09:24:05Z</time>
      </trkpt>
      <trkpt lat="43.4815" lon="1.45246">
        <ele>121.84799194</ele>
        <time>2018-09-09T09:24:06Z</time>
      </trkpt>
      <trkpt lat="43.48151" lon="1.45258">
        <ele>121.84799194</ele>
        <time>2018-09-09T09:24:07Z</time>
      </trkpt>
      <trkpt lat="43.4815" lon="1.45269">
        <ele>120.91145325</ele>
        <time>2018-09-09T09:24:08Z</time>
      </trkpt>
      <trkpt lat="43.48147" lon="1.45279">
        <ele>120.91145325</ele>
        <time>2018-09-09T09:24:09Z</time>
      </trkpt>
      <trkpt lat="43.48142" lon="1.45292">
        <ele>120.91145325</ele>
        <time>2018-09-09T09:24:11Z</time>
      </trkpt>
      <trkpt lat="43.48135" lon="1.45307">
        <ele>120.91145325</ele>
        <time>2018-09-09T09:24:13Z</time>
      </trkpt>
      <trkpt lat="43.4813" lon="1.45318">
        <ele>120.91145325</ele>
        <time>2018-09-09T09:24:15Z</time>
      </trkpt>
      <trkpt lat="43.48127" lon="1.4533">
        <ele>120.91145325</ele>
        <time>2018-09-09T09:24:17Z</time>
      </trkpt>
      <trkpt lat="43.48121" lon="1.45342">
        <ele>120.91145325</ele>
        <time>2018-09-09T09:24:19Z</time>
      </trkpt>
      <trkpt lat="43.48112" lon="1.45354">
        <ele>120.89356995</ele>
        <time>2018-09-09T09:24:22Z</time>
      </trkpt>
      <trkpt lat="43.48101" lon="1.45369">
        <ele>120.89356995</ele>
        <time>2018-09-09T09:24:25Z</time>
      </trkpt>
      <trkpt lat="43.48091" lon="1.45384">
        <ele>120.89356995</ele>
        <time>2018-09-09T09:24:28Z</time>
      </trkpt>
      <trkpt lat="43.48082" lon="1.454">
        <ele>120.89356995</ele>
        <time>2018-09-09T09:24:30Z</time>
      </trkpt>
      <trkpt lat="43.48074" lon="1.45412">
        <ele>120.89356995</ele>
        <time>2018-09-09T09:24:32Z</time>
      </trkpt>
      <trkpt lat="43.48063" lon="1.45425">
        <ele>120.89356995</ele>
        <time>2018-09-09T09:24:35Z</time>
      </trkpt>
      <trkpt lat="43.48049" lon="1.45436">
        <ele>120.89356995</ele>
        <time>2018-09-09T09:24:38Z</time>
      </trkpt>
      <trkpt lat="43.48035" lon="1.45449">
        <ele>120.89356995</ele>
        <time>2018-09-09T09:24:42Z</time>
      </trkpt>
      <trkpt lat="43.48021" lon="1.45459">
        <ele>120.89356995</ele>
        <time>2018-09-09T09:24:43Z</time>
      </trkpt>
      <trkpt lat="43.4801" lon="1.45467">
        <ele>121.94360352</ele>
        <time>2018-09-09T09:24:45Z</time>
      </trkpt>
      <trkpt lat="43.47997" lon="1.45474">
        <ele>119.57615662</ele>
        <time>2018-09-09T09:24:47Z</time>
      </trkpt>
      <trkpt lat="43.47983" lon="1.4548">
        <ele>117.86079407</ele>
        <time>2018-09-09T09:24:49Z</time>
      </trkpt>
      <trkpt lat="43.47967" lon="1.45488">
        <ele>116.57629395</ele>
        <time>2018-09-09T09:24:51Z</time>
      </trkpt>
      <trkpt lat="43.47951" lon="1.45496">
        <ele>115.28204346</ele>
        <time>2018-09-09T09:24:53Z</time>
      </trkpt>
      <trkpt lat="43.47935" lon="1.45504">
        <ele>114.00448608</ele>
        <time>2018-09-09T09:24:55Z</time>
      </trkpt>
      <trkpt lat="43.4792" lon="1.45516">
        <ele>112.5199585</ele>
        <time>2018-09-09T09:24:57Z</time>
      </trkpt>
      <trkpt lat="43.4791" lon="1.4553">
        <ele>112.5199585</ele>
        <time>2018-09-09T09:24:58Z</time>
      </trkpt>
      <trkpt lat="43.47905" lon="1.45542">
        <ele>111.11338806</ele>
        <time>2018-09-09T09:24:59Z</time>
      </trkpt>
      <trkpt lat="43.47901" lon="1.45553">
        <ele>111.11338806</ele>
        <time>2018-09-09T09:25:00Z</time>
      </trkpt>
      <trkpt lat="43.47897" lon="1.45565">
        <ele>109.59649658</ele>
        <time>2018-09-09T09:25:01Z</time>
      </trkpt>
      <trkpt lat="43.47894" lon="1.45577">
        <ele>109.59649658</ele>
        <time>2018-09-09T09:25:02Z</time>
      </trkpt>
      <trkpt lat="43.47892" lon="1.4559">
        <ele>108.06407166</ele>
        <time>2018-09-09T09:25:03Z</time>
      </trkpt>
      <trkpt lat="43.47891" lon="1.45605">
        <ele>108.06407166</ele>
        <time>2018-09-09T09:25:04Z</time>
      </trkpt>
      <trkpt lat="43.47891" lon="1.45618">
        <ele>106.39572906</ele>
        <time>2018-09-09T09:25:05Z</time>
      </trkpt>
      <trkpt lat="43.47892" lon="1.45631">
        <ele>106.39572906</ele>
        <time>2018-09-09T09:25:06Z</time>
      </trkpt>
      <trkpt lat="43.47897" lon="1.45642">
        <ele>106.39572906</ele>
        <time>2018-09-09T09:25:07Z</time>
      </trkpt>
      <trkpt lat="43.47908" lon="1.45653">
        <ele>106.92823792</ele>
        <time>2018-09-09T09:25:09Z</time>
      </trkpt>
      <trkpt lat="43.47921" lon="1.45661">
        <ele>108.46443176</ele>
        <time>2018-09-09T09:25:11Z</time>
      </trkpt>
      <trkpt lat="43.47934" lon="1.45665">
        <ele>109.75782776</ele>
        <time>2018-09-09T09:25:13Z</time>
      </trkpt>
      <trkpt lat="43.47945" lon="1.45671">
        <ele>110.8971405</ele>
        <time>2018-09-09T09:25:15Z</time>
      </trkpt>
      <trkpt lat="43.47953" lon="1.4568">
        <ele>111.93493652</ele>
        <time>2018-09-09T09:25:17Z</time>
      </trkpt>
      <trkpt lat="43.47955" lon="1.45694">
        <ele>112.9258194</ele>
        <time>2018-09-09T09:25:19Z</time>
      </trkpt>
      <trkpt lat="43.47952" lon="1.45708">
        <ele>112.9258194</ele>
        <time>2018-09-09T09:25:21Z</time>
      </trkpt>
      <trkpt lat="43.47942" lon="1.4572">
        <ele>114.15309906</ele>
        <time>2018-09-09T09:25:24Z</time>
      </trkpt>
      <trkpt lat="43.47931" lon="1.45729">
        <ele>117.05724335</ele>
        <time>2018-09-09T09:25:28Z</time>
      </trkpt>
      <trkpt lat="43.47928" lon="1.45728">
        <ele>118.2516098</ele>
        <time>2018-09-09T09:25:39Z</time>
      </trkpt>
      <trkpt lat="43.47947" lon="1.45709">
        <ele>118.57391357</ele>
        <time>2018-09-09T09:25:42Z</time>
      </trkpt>
      <trkpt lat="43.47956" lon="1.4569">
        <ele>116.26078796</ele>
        <time>2018-09-09T09:25:44Z</time>
      </trkpt>
      <trkpt lat="43.47956" lon="1.45674">
        <ele>116.26078796</ele>
        <time>2018-09-09T09:25:45Z</time>
      </trkpt>
      <trkpt lat="43.47948" lon="1.45661">
        <ele>114.55963135</ele>
        <time>2018-09-09T09:25:47Z</time>
      </trkpt>
      <trkpt lat="43.4793" lon="1.45654">
        <ele>112.73038483</ele>
        <time>2018-09-09T09:25:49Z</time>
      </trkpt>
      <trkpt lat="43.47912" lon="1.45647">
        <ele>111.03944397</ele>
        <time>2018-09-09T09:25:51Z</time>
      </trkpt>
      <trkpt lat="43.47902" lon="1.45636">
        <ele>109.89527893</ele>
        <time>2018-09-09T09:25:53Z</time>
      </trkpt>
      <trkpt lat="43.47897" lon="1.45625">
        <ele>108.96100616</ele>
        <time>2018-09-09T09:25:55Z</time>
      </trkpt>
      <trkpt lat="43.47895" lon="1.45615">
        <ele>108.96100616</ele>
        <time>2018-09-09T09:25:57Z</time>
      </trkpt>
      <trkpt lat="43.47895" lon="1.45604">
        <ele>108.96100616</ele>
        <time>2018-09-09T09:26:00Z</time>
      </trkpt>
      <trkpt lat="43.47896" lon="1.45589">
        <ele>108.96100616</ele>
        <time>2018-09-09T09:26:02Z</time>
      </trkpt>
      <trkpt lat="43.47899" lon="1.45576">
        <ele>108.96100616</ele>
        <time>2018-09-09T09:26:04Z</time>
      </trkpt>
      <trkpt lat="43.479" lon="1.45573">
        <ele>108.17832184</ele>
        <time>2018-09-09T09:26:05Z</time>
      </trkpt>
      <trkpt lat="43.47902" lon="1.45565">
        <ele>108.17832184</ele>
        <time>2018-09-09T09:26:06Z</time>
      </trkpt>
      <trkpt lat="43.47904" lon="1.45554">
        <ele>108.88385773</ele>
        <time>2018-09-09T09:26:08Z</time>
      </trkpt>
      <trkpt lat="43.47909" lon="1.45542">
        <ele>109.9743042</ele>
        <time>2018-09-09T09:26:12Z</time>
      </trkpt>
      <trkpt lat="43.47915" lon="1.45528">
        <ele>109.9743042</ele>
        <time>2018-09-09T09:26:14Z</time>
      </trkpt>
      <trkpt lat="43.47914" lon="1.45519">
        <ele>112.20944977</ele>
        <time>2018-09-09T09:26:23Z</time>
      </trkpt>
      <trkpt lat="43.47899" lon="1.45533">
        <ele>112.20944977</ele>
        <time>2018-09-09T09:26:28Z</time>
      </trkpt>
      <trkpt lat="43.47885" lon="1.45544">
        <ele>112.20944977</ele>
        <time>2018-09-09T09:26:31Z</time>
      </trkpt>
      <trkpt lat="43.47872" lon="1.45555">
        <ele>112.20944977</ele>
        <time>2018-09-09T09:26:35Z</time>
      </trkpt>
      <trkpt lat="43.47858" lon="1.45569">
        <ele>112.20944977</ele>
        <time>2018-09-09T09:26:38Z</time>
      </trkpt>
      <trkpt lat="43.47845" lon="1.4558">
        <ele>112.20944977</ele>
        <time>2018-09-09T09:26:42Z</time>
      </trkpt>
      <trkpt lat="43.47831" lon="1.4559">
        <ele>112.24960327</ele>
        <time>2018-09-09T09:26:44Z</time>
      </trkpt>
      <trkpt lat="43.47818" lon="1.45599">
        <ele>112.24960327</ele>
        <time>2018-09-09T09:26:47Z</time>
      </trkpt>
      <trkpt lat="43.47806" lon="1.45602">
        <ele>111.67396545</ele>
        <time>2018-09-09T09:26:50Z</time>
      </trkpt>
      <trkpt lat="43.47794" lon="1.45603">
        <ele>111.67396545</ele>
        <time>2018-09-09T09:26:53Z</time>
      </trkpt>
      <trkpt lat="43.4778" lon="1.45607">
        <ele>111.67396545</ele>
        <time>2018-09-09T09:26:56Z</time>
      </trkpt>
      <trkpt lat="43.47766" lon="1.45609">
        <ele>111.67396545</ele>
        <time>2018-09-09T09:26:58Z</time>
      </trkpt>
      <trkpt lat="43.47756" lon="1.45613">
        <ele>112.26237488</ele>
        <time>2018-09-09T09:27:00Z</time>
      </trkpt>
      <trkpt lat="43.47745" lon="1.45614">
        <ele>112.26237488</ele>
        <time>2018-09-09T09:27:02Z</time>
      </trkpt>
      <trkpt lat="43.47732" lon="1.4562">
        <ele>112.26237488</ele>
        <time>2018-09-09T09:27:04Z</time>
      </trkpt>
      <trkpt lat="43.47728" lon="1.45625">
        <ele>110.79850006</ele>
        <time>2018-09-09T09:27:05Z</time>
      </trkpt>
      <trkpt lat="43.47718" lon="1.4563">
        <ele>110.79850006</ele>
        <time>2018-09-09T09:27:07Z</time>
      </trkpt>
      <trkpt lat="43.47703" lon="1.45636">
        <ele>110.79850006</ele>
        <time>2018-09-09T09:27:10Z</time>
      </trkpt>
      <trkpt lat="43.47691" lon="1.45638">
        <ele>110.79850006</ele>
        <time>2018-09-09T09:27:12Z</time>
      </trkpt>
      <trkpt lat="43.47679" lon="1.45647">
        <ele>110.79850006</ele>
        <time>2018-09-09T09:27:14Z</time>
      </trkpt>
      <trkpt lat="43.47668" lon="1.45663">
        <ele>110.79850006</ele>
        <time>2018-09-09T09:27:16Z</time>
      </trkpt>
      <trkpt lat="43.47657" lon="1.45672">
        <ele>110.79850006</ele>
        <time>2018-09-09T09:27:18Z</time>
      </trkpt>
      <trkpt lat="43.47647" lon="1.45679">
        <ele>110.79850006</ele>
        <time>2018-09-09T09:27:20Z</time>
      </trkpt>
      <trkpt lat="43.47636" lon="1.45688">
        <ele>110.79850006</ele>
        <time>2018-09-09T09:27:22Z</time>
      </trkpt>
      <trkpt lat="43.47623" lon="1.45697">
        <ele>110.79850006</ele>
        <time>2018-09-09T09:27:25Z</time>
      </trkpt>
      <trkpt lat="43.4761" lon="1.45703">
        <ele>110.79850006</ele>
        <time>2018-09-09T09:27:27Z</time>
      </trkpt>
      <trkpt lat="43.47598" lon="1.45711">
        <ele>110.79850006</ele>
        <time>2018-09-09T09:27:30Z</time>
      </trkpt>
      <trkpt lat="43.47586" lon="1.45721">
        <ele>110.79850006</ele>
        <time>2018-09-09T09:27:33Z</time>
      </trkpt>
      <trkpt lat="43.47574" lon="1.45734">
        <ele>110.79850006</ele>
        <time>2018-09-09T09:27:36Z</time>
      </trkpt>
      <trkpt lat="43.47561" lon="1.45741">
        <ele>110.57432556</ele>
        <time>2018-09-09T09:27:39Z</time>
      </trkpt>
      <trkpt lat="43.4755" lon="1.45747">
        <ele>110.57432556</ele>
        <time>2018-09-09T09:27:43Z</time>
      </trkpt>
      <trkpt lat="43.47537" lon="1.45755">
        <ele>110.57432556</ele>
        <time>2018-09-09T09:27:47Z</time>
      </trkpt>
      <trkpt lat="43.47525" lon="1.45761">
        <ele>110.57432556</ele>
        <time>2018-09-09T09:27:50Z</time>
      </trkpt>
      <trkpt lat="43.47513" lon="1.45768">
        <ele>110.57432556</ele>
        <time>2018-09-09T09:27:54Z</time>
      </trkpt>
      <trkpt lat="43.47499" lon="1.45776">
        <ele>112.42541504</ele>
        <time>2018-09-09T09:27:57Z</time>
      </trkpt>
      <trkpt lat="43.47488" lon="1.45783">
        <ele>112.42541504</ele>
        <time>2018-09-09T09:28:00Z</time>
      </trkpt>
      <trkpt lat="43.47475" lon="1.45791">
        <ele>112.42541504</ele>
        <time>2018-09-09T09:28:03Z</time>
      </trkpt>
      <trkpt lat="43.47469" lon="1.45798">
        <ele>113.88908386</ele>
        <time>2018-09-09T09:28:05Z</time>
      </trkpt>
      <trkpt lat="43.47464" lon="1.45806">
        <ele>113.88908386</ele>
        <time>2018-09-09T09:28:08Z</time>
      </trkpt>
      <trkpt lat="43.47455" lon="1.45822">
        <ele>113.88908386</ele>
        <time>2018-09-09T09:28:11Z</time>
      </trkpt>
      <trkpt lat="43.47448" lon="1.45835">
        <ele>113.88908386</ele>
        <time>2018-09-09T09:28:13Z</time>
      </trkpt>
      <trkpt lat="43.4744" lon="1.45845">
        <ele>114.37173462</ele>
        <time>2018-09-09T09:28:16Z</time>
      </trkpt>
      <trkpt lat="43.47432" lon="1.45859">
        <ele>114.37173462</ele>
        <time>2018-09-09T09:28:19Z</time>
      </trkpt>
      <trkpt lat="43.47424" lon="1.45868">
        <ele>115.56044769</ele>
        <time>2018-09-09T09:28:24Z</time>
      </trkpt>
      <trkpt lat="43.47412" lon="1.45874">
        <ele>115.56044769</ele>
        <time>2018-09-09T09:28:28Z</time>
      </trkpt>
      <trkpt lat="43.47401" lon="1.45878">
        <ele>115.56044769</ele>
        <time>2018-09-09T09:28:31Z</time>
      </trkpt>
      <trkpt lat="43.4739" lon="1.45878">
        <ele>116.38307953</ele>
        <time>2018-09-09T09:28:34Z</time>
      </trkpt>
      <trkpt lat="43.47379" lon="1.45873">
        <ele>117.85850525</ele>
        <time>2018-09-09T09:28:38Z</time>
      </trkpt>
      <trkpt lat="43.47368" lon="1.45866">
        <ele>117.85850525</ele>
        <time>2018-09-09T09:28:41Z</time>
      </trkpt>
      <trkpt lat="43.47356" lon="1.45862">
        <ele>117.85850525</ele>
        <time>2018-09-09T09:28:44Z</time>
      </trkpt>
      <trkpt lat="43.47345" lon="1.45859">
        <ele>117.85850525</ele>
        <time>2018-09-09T09:28:48Z</time>
      </trkpt>
      <trkpt lat="43.47331" lon="1.45859">
        <ele>117.85850525</ele>
        <time>2018-09-09T09:28:52Z</time>
      </trkpt>
      <trkpt lat="43.47318" lon="1.45865">
        <ele>117.85850525</ele>
        <time>2018-09-09T09:28:55Z</time>
      </trkpt>
      <trkpt lat="43.47306" lon="1.4587">
        <ele>117.85850525</ele>
        <time>2018-09-09T09:28:57Z</time>
      </trkpt>
      <trkpt lat="43.47294" lon="1.45876">
        <ele>117.85850525</ele>
        <time>2018-09-09T09:29:00Z</time>
      </trkpt>
      <trkpt lat="43.47282" lon="1.4588">
        <ele>117.85850525</ele>
        <time>2018-09-09T09:29:03Z</time>
      </trkpt>
      <trkpt lat="43.47273" lon="1.45883">
        <ele>117.95051575</ele>
        <time>2018-09-09T09:29:05Z</time>
      </trkpt>
      <trkpt lat="43.47265" lon="1.45887">
        <ele>117.95051575</ele>
        <time>2018-09-09T09:29:07Z</time>
      </trkpt>
      <trkpt lat="43.47241" lon="1.45901">
        <ele>117.95051575</ele>
        <time>2018-09-09T09:29:13Z</time>
      </trkpt>
      <trkpt lat="43.47228" lon="1.45908">
        <ele>117.95051575</ele>
        <time>2018-09-09T09:29:17Z</time>
      </trkpt>
      <trkpt lat="43.47214" lon="1.45912">
        <ele>118.24625397</ele>
        <time>2018-09-09T09:29:19Z</time>
      </trkpt>
      <trkpt lat="43.472" lon="1.45913">
        <ele>118.24625397</ele>
        <time>2018-09-09T09:29:22Z</time>
      </trkpt>
      <trkpt lat="43.47186" lon="1.45912">
        <ele>119.62044525</ele>
        <time>2018-09-09T09:29:25Z</time>
      </trkpt>
      <trkpt lat="43.47173" lon="1.45913">
        <ele>119.62044525</ele>
        <time>2018-09-09T09:29:28Z</time>
      </trkpt>
      <trkpt lat="43.47162" lon="1.45923">
        <ele>119.62044525</ele>
        <time>2018-09-09T09:29:32Z</time>
      </trkpt>
      <trkpt lat="43.47154" lon="1.45938">
        <ele>119.62044525</ele>
        <time>2018-09-09T09:29:35Z</time>
      </trkpt>
      <trkpt lat="43.47143" lon="1.4595">
        <ele>119.62044525</ele>
        <time>2018-09-09T09:29:38Z</time>
      </trkpt>
      <trkpt lat="43.4713" lon="1.45959">
        <ele>120.55443573</ele>
        <time>2018-09-09T09:29:41Z</time>
      </trkpt>
      <trkpt lat="43.47118" lon="1.45963">
        <ele>120.55443573</ele>
        <time>2018-09-09T09:29:44Z</time>
      </trkpt>
      <trkpt lat="43.47105" lon="1.45969">
        <ele>120.55443573</ele>
        <time>2018-09-09T09:29:47Z</time>
      </trkpt>
      <trkpt lat="43.47091" lon="1.45974">
        <ele>121.86116791</ele>
        <time>2018-09-09T09:29:50Z</time>
      </trkpt>
      <trkpt lat="43.47078" lon="1.4598">
        <ele>121.86116791</ele>
        <time>2018-09-09T09:29:53Z</time>
      </trkpt>
      <trkpt lat="43.47065" lon="1.45983">
        <ele>121.86116791</ele>
        <time>2018-09-09T09:29:56Z</time>
      </trkpt>
      <trkpt lat="43.47055" lon="1.4599">
        <ele>122.78327942</ele>
        <time>2018-09-09T09:29:59Z</time>
      </trkpt>
      <trkpt lat="43.47043" lon="1.45997">
        <ele>122.78327942</ele>
        <time>2018-09-09T09:30:02Z</time>
      </trkpt>
      <trkpt lat="43.47033" lon="1.46005">
        <ele>123.71511078</ele>
        <time>2018-09-09T09:30:05Z</time>
      </trkpt>
      <trkpt lat="43.47022" lon="1.46014">
        <ele>123.71511078</ele>
        <time>2018-09-09T09:30:07Z</time>
      </trkpt>
      <trkpt lat="43.46994" lon="1.46029">
        <ele>123.71511078</ele>
        <time>2018-09-09T09:30:12Z</time>
      </trkpt>
      <trkpt lat="43.46986" lon="1.46039">
        <ele>124.77373505</ele>
        <time>2018-09-09T09:30:14Z</time>
      </trkpt>
      <trkpt lat="43.46982" lon="1.46053">
        <ele>124.77373505</ele>
        <time>2018-09-09T09:30:16Z</time>
      </trkpt>
      <trkpt lat="43.46977" lon="1.46065">
        <ele>124.77373505</ele>
        <time>2018-09-09T09:30:18Z</time>
      </trkpt>
      <trkpt lat="43.4697" lon="1.46074">
        <ele>125.86264038</ele>
        <time>2018-09-09T09:30:21Z</time>
      </trkpt>
      <trkpt lat="43.46958" lon="1.46076">
        <ele>127.1844635</ele>
        <time>2018-09-09T09:30:24Z</time>
      </trkpt>
      <trkpt lat="43.46945" lon="1.46071">
        <ele>127.1844635</ele>
        <time>2018-09-09T09:30:27Z</time>
      </trkpt>
      <trkpt lat="43.4693" lon="1.46068">
        <ele>127.1844635</ele>
        <time>2018-09-09T09:30:30Z</time>
      </trkpt>
      <trkpt lat="43.46918" lon="1.46076">
        <ele>127.1844635</ele>
        <time>2018-09-09T09:30:34Z</time>
      </trkpt>
      <trkpt lat="43.46908" lon="1.46086">
        <ele>127.1844635</ele>
        <time>2018-09-09T09:30:38Z</time>
      </trkpt>
      <trkpt lat="43.46897" lon="1.46094">
        <ele>127.1844635</ele>
        <time>2018-09-09T09:30:42Z</time>
      </trkpt>
      <trkpt lat="43.46886" lon="1.461">
        <ele>129.66163635</ele>
        <time>2018-09-09T09:31:14Z</time>
      </trkpt>
      <trkpt lat="43.46882" lon="1.46102">
        <ele>129.66163635</ele>
        <time>2018-09-09T09:31:19Z</time>
      </trkpt>
      <trkpt lat="43.46868" lon="1.46105">
        <ele>129.66163635</ele>
        <time>2018-09-09T09:31:24Z</time>
      </trkpt>
      <trkpt lat="43.46856" lon="1.4611">
        <ele>129.84107971</ele>
        <time>2018-09-09T09:31:28Z</time>
      </trkpt>
      <trkpt lat="43.46844" lon="1.46114">
        <ele>131.64422607</ele>
        <time>2018-09-09T09:31:31Z</time>
      </trkpt>
      <trkpt lat="43.46833" lon="1.46116">
        <ele>134.27593994</ele>
        <time>2018-09-09T09:31:35Z</time>
      </trkpt>
      <trkpt lat="43.4682" lon="1.4612">
        <ele>135.63766479</ele>
        <time>2018-09-09T09:31:39Z</time>
      </trkpt>
      <trkpt lat="43.46806" lon="1.46121">
        <ele>136.80427551</ele>
        <time>2018-09-09T09:31:42Z</time>
      </trkpt>
      <trkpt lat="43.46796" lon="1.46122">
        <ele>138.00079346</ele>
        <time>2018-09-09T09:31:45Z</time>
      </trkpt>
      <trkpt lat="43.46785" lon="1.46121">
        <ele>139.27328491</ele>
        <time>2018-09-09T09:31:48Z</time>
      </trkpt>
      <trkpt lat="43.46774" lon="1.4612">
        <ele>139.27328491</ele>
        <time>2018-09-09T09:31:51Z</time>
      </trkpt>
      <trkpt lat="43.46763" lon="1.46119">
        <ele>140.45254517</ele>
        <time>2018-09-09T09:31:55Z</time>
      </trkpt>
      <trkpt lat="43.46753" lon="1.46117">
        <ele>141.51800537</ele>
        <time>2018-09-09T09:31:57Z</time>
      </trkpt>
      <trkpt lat="43.46741" lon="1.46116">
        <ele>142.7855835</ele>
        <time>2018-09-09T09:32:01Z</time>
      </trkpt>
      <trkpt lat="43.4673" lon="1.46115">
        <ele>144.59628296</ele>
        <time>2018-09-09T09:32:05Z</time>
      </trkpt>
      <trkpt lat="43.46721" lon="1.46113">
        <ele>145.34414673</ele>
        <time>2018-09-09T09:32:08Z</time>
      </trkpt>
      <trkpt lat="43.46709" lon="1.46112">
        <ele>146.58068848</ele>
        <time>2018-09-09T09:32:12Z</time>
      </trkpt>
      <trkpt lat="43.46697" lon="1.4611">
        <ele>147.80221558</ele>
        <time>2018-09-09T09:32:16Z</time>
      </trkpt>
      <trkpt lat="43.46686" lon="1.46109">
        <ele>148.92390442</ele>
        <time>2018-09-09T09:32:20Z</time>
      </trkpt>
      <trkpt lat="43.46675" lon="1.46109">
        <ele>150.19033813</ele>
        <time>2018-09-09T09:32:24Z</time>
      </trkpt>
      <trkpt lat="43.46664" lon="1.46113">
        <ele>152.54295349</ele>
        <time>2018-09-09T09:32:28Z</time>
      </trkpt>
      <trkpt lat="43.46653" lon="1.46121">
        <ele>153.7003479</ele>
        <time>2018-09-09T09:32:33Z</time>
      </trkpt>
      <trkpt lat="43.4664" lon="1.4613">
        <ele>154.87553406</ele>
        <time>2018-09-09T09:32:36Z</time>
      </trkpt>
      <trkpt lat="43.4663" lon="1.46138">
        <ele>154.87553406</ele>
        <time>2018-09-09T09:32:39Z</time>
      </trkpt>
      <trkpt lat="43.46621" lon="1.46148">
        <ele>155.97584534</ele>
        <time>2018-09-09T09:32:43Z</time>
      </trkpt>
      <trkpt lat="43.4661" lon="1.4616">
        <ele>158.17617798</ele>
        <time>2018-09-09T09:32:47Z</time>
      </trkpt>
      <trkpt lat="43.46598" lon="1.4617">
        <ele>159.38035583</ele>
        <time>2018-09-09T09:32:51Z</time>
      </trkpt>
      <trkpt lat="43.46588" lon="1.46182">
        <ele>160.48500061</ele>
        <time>2018-09-09T09:32:54Z</time>
      </trkpt>
      <trkpt lat="43.46578" lon="1.46194">
        <ele>160.48500061</ele>
        <time>2018-09-09T09:32:57Z</time>
      </trkpt>
      <trkpt lat="43.46566" lon="1.46206">
        <ele>162.64689636</ele>
        <time>2018-09-09T09:33:01Z</time>
      </trkpt>
      <trkpt lat="43.46554" lon="1.46217">
        <ele>162.64689636</ele>
        <time>2018-09-09T09:33:04Z</time>
      </trkpt>
      <trkpt lat="43.46551" lon="1.46221">
        <ele>164.16287231</ele>
        <time>2018-09-09T09:33:05Z</time>
      </trkpt>
      <trkpt lat="43.46545" lon="1.46227">
        <ele>164.16287231</ele>
        <time>2018-09-09T09:33:07Z</time>
      </trkpt>
      <trkpt lat="43.46534" lon="1.46253">
        <ele>165.98855591</ele>
        <time>2018-09-09T09:33:13Z</time>
      </trkpt>
      <trkpt lat="43.46526" lon="1.46268">
        <ele>165.98855591</ele>
        <time>2018-09-09T09:33:16Z</time>
      </trkpt>
      <trkpt lat="43.46517" lon="1.46282">
        <ele>167.12794495</ele>
        <time>2018-09-09T09:33:19Z</time>
      </trkpt>
      <trkpt lat="43.46512" lon="1.46295">
        <ele>167.12794495</ele>
        <time>2018-09-09T09:33:21Z</time>
      </trkpt>
      <trkpt lat="43.46508" lon="1.46307">
        <ele>168.10249329</ele>
        <time>2018-09-09T09:33:24Z</time>
      </trkpt>
      <trkpt lat="43.46502" lon="1.46319">
        <ele>169.33485413</ele>
        <time>2018-09-09T09:33:27Z</time>
      </trkpt>
      <trkpt lat="43.46497" lon="1.46333">
        <ele>169.33485413</ele>
        <time>2018-09-09T09:33:30Z</time>
      </trkpt>
      <trkpt lat="43.4649" lon="1.46347">
        <ele>170.30439758</ele>
        <time>2018-09-09T09:33:33Z</time>
      </trkpt>
      <trkpt lat="43.46484" lon="1.46359">
        <ele>170.30439758</ele>
        <time>2018-09-09T09:33:35Z</time>
      </trkpt>
      <trkpt lat="43.46479" lon="1.4637">
        <ele>171.46954346</ele>
        <time>2018-09-09T09:33:38Z</time>
      </trkpt>
      <trkpt lat="43.46472" lon="1.46384">
        <ele>171.46954346</ele>
        <time>2018-09-09T09:33:41Z</time>
      </trkpt>
      <trkpt lat="43.46465" lon="1.46397">
        <ele>172.57897949</ele>
        <time>2018-09-09T09:33:43Z</time>
      </trkpt>
      <trkpt lat="43.46459" lon="1.46409">
        <ele>172.57897949</ele>
        <time>2018-09-09T09:33:46Z</time>
      </trkpt>
      <trkpt lat="43.46454" lon="1.46421">
        <ele>173.73040771</ele>
        <time>2018-09-09T09:33:48Z</time>
      </trkpt>
      <trkpt lat="43.46449" lon="1.46433">
        <ele>173.73040771</ele>
        <time>2018-09-09T09:33:51Z</time>
      </trkpt>
      <trkpt lat="43.46445" lon="1.46445">
        <ele>174.8001709</ele>
        <time>2018-09-09T09:33:54Z</time>
      </trkpt>
      <trkpt lat="43.46444" lon="1.46455">
        <ele>175.9753418</ele>
        <time>2018-09-09T09:33:58Z</time>
      </trkpt>
      <trkpt lat="43.46445" lon="1.46466">
        <ele>175.9753418</ele>
        <time>2018-09-09T09:34:02Z</time>
      </trkpt>
      <trkpt lat="43.46447" lon="1.46471">
        <ele>176.80368042</ele>
        <time>2018-09-09T09:34:05Z</time>
      </trkpt>
      <trkpt lat="43.46448" lon="1.46477">
        <ele>176.16140747</ele>
        <time>2018-09-09T09:34:30Z</time>
      </trkpt>
      <trkpt lat="43.46457" lon="1.46491">
        <ele>174.85302734</ele>
        <time>2018-09-09T09:34:33Z</time>
      </trkpt>
      <trkpt lat="43.46468" lon="1.46506">
        <ele>173.40887451</ele>
        <time>2018-09-09T09:34:35Z</time>
      </trkpt>
      <trkpt lat="43.46482" lon="1.46519">
        <ele>169.87838745</ele>
        <time>2018-09-09T09:34:37Z</time>
      </trkpt>
      <trkpt lat="43.46499" lon="1.46533">
        <ele>167.29666138</ele>
        <time>2018-09-09T09:34:39Z</time>
      </trkpt>
      <trkpt lat="43.46528" lon="1.4657">
        <ele>163.5100708</ele>
        <time>2018-09-09T09:34:42Z</time>
      </trkpt>
      <trkpt lat="43.46532" lon="1.46584">
        <ele>162.4369812</ele>
        <time>2018-09-09T09:34:43Z</time>
      </trkpt>
      <trkpt lat="43.46529" lon="1.46599">
        <ele>162.4369812</ele>
        <time>2018-09-09T09:34:44Z</time>
      </trkpt>
      <trkpt lat="43.46526" lon="1.46613">
        <ele>161.37524414</ele>
        <time>2018-09-09T09:34:45Z</time>
      </trkpt>
      <trkpt lat="43.46515" lon="1.46626">
        <ele>161.37524414</ele>
        <time>2018-09-09T09:34:47Z</time>
      </trkpt>
      <trkpt lat="43.46503" lon="1.4664">
        <ele>161.37524414</ele>
        <time>2018-09-09T09:34:49Z</time>
      </trkpt>
      <trkpt lat="43.46492" lon="1.46652">
        <ele>161.37524414</ele>
        <time>2018-09-09T09:34:51Z</time>
      </trkpt>
      <trkpt lat="43.46484" lon="1.46664">
        <ele>161.37524414</ele>
        <time>2018-09-09T09:34:53Z</time>
      </trkpt>
      <trkpt lat="43.46476" lon="1.46675">
        <ele>161.31231689</ele>
        <time>2018-09-09T09:34:56Z</time>
      </trkpt>
      <trkpt lat="43.46467" lon="1.46688">
        <ele>162.86242676</ele>
        <time>2018-09-09T09:34:59Z</time>
      </trkpt>
      <trkpt lat="43.46457" lon="1.46702">
        <ele>162.86242676</ele>
        <time>2018-09-09T09:35:02Z</time>
      </trkpt>
      <trkpt lat="43.46448" lon="1.46715">
        <ele>162.86242676</ele>
        <time>2018-09-09T09:35:04Z</time>
      </trkpt>
      <trkpt lat="43.46446" lon="1.46717">
        <ele>163.54338074</ele>
        <time>2018-09-09T09:35:05Z</time>
      </trkpt>
      <trkpt lat="43.46441" lon="1.46726">
        <ele>163.54338074</ele>
        <time>2018-09-09T09:35:06Z</time>
      </trkpt>
      <trkpt lat="43.46434" lon="1.46737">
        <ele>163.54338074</ele>
        <time>2018-09-09T09:35:08Z</time>
      </trkpt>
      <trkpt lat="43.46421" lon="1.4676">
        <ele>164.34031677</ele>
        <time>2018-09-09T09:35:12Z</time>
      </trkpt>
      <trkpt lat="43.46414" lon="1.46771">
        <ele>164.34031677</ele>
        <time>2018-09-09T09:35:14Z</time>
      </trkpt>
      <trkpt lat="43.46407" lon="1.46781">
        <ele>164.34031677</ele>
        <time>2018-09-09T09:35:16Z</time>
      </trkpt>
      <trkpt lat="43.464" lon="1.46792">
        <ele>165.59468079</ele>
        <time>2018-09-09T09:35:18Z</time>
      </trkpt>
      <trkpt lat="43.46393" lon="1.46804">
        <ele>165.59468079</ele>
        <time>2018-09-09T09:35:20Z</time>
      </trkpt>
      <trkpt lat="43.46386" lon="1.46815">
        <ele>166.72607422</ele>
        <time>2018-09-09T09:35:22Z</time>
      </trkpt>
      <trkpt lat="43.46378" lon="1.46827">
        <ele>166.72607422</ele>
        <time>2018-09-09T09:35:24Z</time>
      </trkpt>
      <trkpt lat="43.46371" lon="1.46839">
        <ele>168.08639526</ele>
        <time>2018-09-09T09:35:26Z</time>
      </trkpt>
      <trkpt lat="43.46365" lon="1.4685">
        <ele>169.47242737</ele>
        <time>2018-09-09T09:35:28Z</time>
      </trkpt>
      <trkpt lat="43.46357" lon="1.46861">
        <ele>169.47242737</ele>
        <time>2018-09-09T09:35:30Z</time>
      </trkpt>
      <trkpt lat="43.46349" lon="1.46873">
        <ele>172.27926636</ele>
        <time>2018-09-09T09:35:33Z</time>
      </trkpt>
      <trkpt lat="43.46341" lon="1.46885">
        <ele>173.47114563</ele>
        <time>2018-09-09T09:35:36Z</time>
      </trkpt>
      <trkpt lat="43.46335" lon="1.46895">
        <ele>174.90707397</ele>
        <time>2018-09-09T09:35:39Z</time>
      </trkpt>
      <trkpt lat="43.46329" lon="1.46905">
        <ele>176.11747742</ele>
        <time>2018-09-09T09:35:42Z</time>
      </trkpt>
      <trkpt lat="43.46323" lon="1.46917">
        <ele>176.11747742</ele>
        <time>2018-09-09T09:35:45Z</time>
      </trkpt>
      <trkpt lat="43.46315" lon="1.46929">
        <ele>177.29330444</ele>
        <time>2018-09-09T09:35:48Z</time>
      </trkpt>
      <trkpt lat="43.46308" lon="1.4694">
        <ele>178.48127747</ele>
        <time>2018-09-09T09:35:51Z</time>
      </trkpt>
      <trkpt lat="43.46301" lon="1.46952">
        <ele>179.5715332</ele>
        <time>2018-09-09T09:35:54Z</time>
      </trkpt>
      <trkpt lat="43.46293" lon="1.46963">
        <ele>180.61247253</ele>
        <time>2018-09-09T09:35:57Z</time>
      </trkpt>
      <trkpt lat="43.46288" lon="1.46974">
        <ele>183.20501709</ele>
        <time>2018-09-09T09:36:00Z</time>
      </trkpt>
      <trkpt lat="43.4629" lon="1.46985">
        <ele>184.3372345</ele>
        <time>2018-09-09T09:36:04Z</time>
      </trkpt>
      <trkpt lat="43.46294" lon="1.46988">
        <ele>184.84709167</ele>
        <time>2018-09-09T09:36:05Z</time>
      </trkpt>
      <trkpt lat="43.46302" lon="1.46992">
        <ele>184.84709167</ele>
        <time>2018-09-09T09:36:07Z</time>
      </trkpt>
      <trkpt lat="43.46325" lon="1.47004">
        <ele>184.84709167</ele>
        <time>2018-09-09T09:36:13Z</time>
      </trkpt>
      <trkpt lat="43.46337" lon="1.47014">
        <ele>184.35179138</ele>
        <time>2018-09-09T09:36:16Z</time>
      </trkpt>
      <trkpt lat="43.46351" lon="1.47023">
        <ele>184.35179138</ele>
        <time>2018-09-09T09:36:19Z</time>
      </trkpt>
      <trkpt lat="43.46364" lon="1.47032">
        <ele>183.0566864</ele>
        <time>2018-09-09T09:36:22Z</time>
      </trkpt>
      <trkpt lat="43.46378" lon="1.4704">
        <ele>183.0566864</ele>
        <time>2018-09-09T09:36:25Z</time>
      </trkpt>
      <trkpt lat="43.46391" lon="1.47049">
        <ele>182.0098114</ele>
        <time>2018-09-09T09:36:28Z</time>
      </trkpt>
      <trkpt lat="43.46404" lon="1.47055">
        <ele>182.0098114</ele>
        <time>2018-09-09T09:36:31Z</time>
      </trkpt>
      <trkpt lat="43.46415" lon="1.47064">
        <ele>182.0098114</ele>
        <time>2018-09-09T09:36:34Z</time>
      </trkpt>
      <trkpt lat="43.46423" lon="1.47077">
        <ele>182.0098114</ele>
        <time>2018-09-09T09:36:37Z</time>
      </trkpt>
      <trkpt lat="43.46436" lon="1.47105">
        <ele>181.0280304</ele>
        <time>2018-09-09T09:36:43Z</time>
      </trkpt>
      <trkpt lat="43.46442" lon="1.47117">
        <ele>181.0280304</ele>
        <time>2018-09-09T09:36:46Z</time>
      </trkpt>
      <trkpt lat="43.46446" lon="1.47129">
        <ele>181.0280304</ele>
        <time>2018-09-09T09:36:50Z</time>
      </trkpt>
      <trkpt lat="43.46451" lon="1.4714">
        <ele>181.0280304</ele>
        <time>2018-09-09T09:36:55Z</time>
      </trkpt>
      <trkpt lat="43.46456" lon="1.47151">
        <ele>181.0280304</ele>
        <time>2018-09-09T09:37:00Z</time>
      </trkpt>
      <trkpt lat="43.46462" lon="1.47167">
        <ele>180.53761292</ele>
        <time>2018-09-09T09:37:05Z</time>
      </trkpt>
      <trkpt lat="43.46464" lon="1.47173">
        <ele>180.53761292</ele>
        <time>2018-09-09T09:37:08Z</time>
      </trkpt>
      <trkpt lat="43.46469" lon="1.47185">
        <ele>180.53761292</ele>
        <time>2018-09-09T09:37:11Z</time>
      </trkpt>
      <trkpt lat="43.46473" lon="1.47196">
        <ele>180.53761292</ele>
        <time>2018-09-09T09:37:14Z</time>
      </trkpt>
      <trkpt lat="43.46478" lon="1.47207">
        <ele>180.53761292</ele>
        <time>2018-09-09T09:37:17Z</time>
      </trkpt>
      <trkpt lat="43.46486" lon="1.47219">
        <ele>180.85372925</ele>
        <time>2018-09-09T09:37:22Z</time>
      </trkpt>
      <trkpt lat="43.46496" lon="1.47231">
        <ele>180.85372925</ele>
        <time>2018-09-09T09:37:25Z</time>
      </trkpt>
      <trkpt lat="43.46504" lon="1.47244">
        <ele>182.26676941</ele>
        <time>2018-09-09T09:37:29Z</time>
      </trkpt>
      <trkpt lat="43.46513" lon="1.47257">
        <ele>183.44297791</ele>
        <time>2018-09-09T09:37:33Z</time>
      </trkpt>
      <trkpt lat="43.46523" lon="1.4727">
        <ele>184.6134491</ele>
        <time>2018-09-09T09:37:38Z</time>
      </trkpt>
      <trkpt lat="43.46532" lon="1.47283">
        <ele>184.6134491</ele>
        <time>2018-09-09T09:37:42Z</time>
      </trkpt>
      <trkpt lat="43.46542" lon="1.4729">
        <ele>185.58222961</ele>
        <time>2018-09-09T09:37:48Z</time>
      </trkpt>
      <trkpt lat="43.46553" lon="1.47301">
        <ele>185.67501831</ele>
        <time>2018-09-09T09:37:51Z</time>
      </trkpt>
      <trkpt lat="43.46564" lon="1.47313">
        <ele>183.90895081</ele>
        <time>2018-09-09T09:37:53Z</time>
      </trkpt>
      <trkpt lat="43.46573" lon="1.47325">
        <ele>182.64875793</ele>
        <time>2018-09-09T09:37:56Z</time>
      </trkpt>
      <trkpt lat="43.4658" lon="1.47337">
        <ele>180.17845154</ele>
        <time>2018-09-09T09:37:59Z</time>
      </trkpt>
      <trkpt lat="43.4659" lon="1.4735">
        <ele>177.67779541</ele>
        <time>2018-09-09T09:38:03Z</time>
      </trkpt>
      <trkpt lat="43.46601" lon="1.47365">
        <ele>177.67779541</ele>
        <time>2018-09-09T09:38:04Z</time>
      </trkpt>
      <trkpt lat="43.46604" lon="1.47369">
        <ele>176.12071228</ele>
        <time>2018-09-09T09:38:05Z</time>
      </trkpt>
      <trkpt lat="43.46613" lon="1.47378">
        <ele>176.12071228</ele>
        <time>2018-09-09T09:38:06Z</time>
      </trkpt>
      <trkpt lat="43.46623" lon="1.47394">
        <ele>175.32449341</ele>
        <time>2018-09-09T09:38:08Z</time>
      </trkpt>
      <trkpt lat="43.46633" lon="1.47409">
        <ele>174.24694824</ele>
        <time>2018-09-09T09:38:11Z</time>
      </trkpt>
      <trkpt lat="43.46644" lon="1.47427">
        <ele>174.24694824</ele>
        <time>2018-09-09T09:38:12Z</time>
      </trkpt>
      <trkpt lat="43.46653" lon="1.47439">
        <ele>174.24694824</ele>
        <time>2018-09-09T09:38:14Z</time>
      </trkpt>
      <trkpt lat="43.46664" lon="1.47452">
        <ele>173.17044067</ele>
        <time>2018-09-09T09:38:17Z</time>
      </trkpt>
      <trkpt lat="43.46674" lon="1.47465">
        <ele>173.17044067</ele>
        <time>2018-09-09T09:38:20Z</time>
      </trkpt>
      <trkpt lat="43.46683" lon="1.47476">
        <ele>173.17044067</ele>
        <time>2018-09-09T09:38:23Z</time>
      </trkpt>
      <trkpt lat="43.46692" lon="1.47489">
        <ele>172.52752686</ele>
        <time>2018-09-09T09:38:26Z</time>
      </trkpt>
      <trkpt lat="43.46705" lon="1.47502">
        <ele>170.76858521</ele>
        <time>2018-09-09T09:38:29Z</time>
      </trkpt>
      <trkpt lat="43.46716" lon="1.47515">
        <ele>169.27020264</ele>
        <time>2018-09-09T09:38:31Z</time>
      </trkpt>
      <trkpt lat="43.46726" lon="1.47528">
        <ele>167.515625</ele>
        <time>2018-09-09T09:38:33Z</time>
      </trkpt>
      <trkpt lat="43.46737" lon="1.47543">
        <ele>164.90101624</ele>
        <time>2018-09-09T09:38:35Z</time>
      </trkpt>
      <trkpt lat="43.46748" lon="1.47561">
        <ele>162.7097168</ele>
        <time>2018-09-09T09:38:37Z</time>
      </trkpt>
      <trkpt lat="43.46758" lon="1.47579">
        <ele>161.64588928</ele>
        <time>2018-09-09T09:38:39Z</time>
      </trkpt>
      <trkpt lat="43.46769" lon="1.47598">
        <ele>160.24237061</ele>
        <time>2018-09-09T09:38:41Z</time>
      </trkpt>
      <trkpt lat="43.46781" lon="1.47614">
        <ele>158.80558777</ele>
        <time>2018-09-09T09:38:43Z</time>
      </trkpt>
      <trkpt lat="43.46793" lon="1.47628">
        <ele>157.65785217</ele>
        <time>2018-09-09T09:38:45Z</time>
      </trkpt>
      <trkpt lat="43.46804" lon="1.4764">
        <ele>157.65785217</ele>
        <time>2018-09-09T09:38:48Z</time>
      </trkpt>
      <trkpt lat="43.46815" lon="1.47651">
        <ele>157.65785217</ele>
        <time>2018-09-09T09:38:50Z</time>
      </trkpt>
      <trkpt lat="43.46827" lon="1.47662">
        <ele>157.65785217</ele>
        <time>2018-09-09T09:38:53Z</time>
      </trkpt>
      <trkpt lat="43.46838" lon="1.47673">
        <ele>157.72688293</ele>
        <time>2018-09-09T09:38:56Z</time>
      </trkpt>
      <trkpt lat="43.46849" lon="1.47684">
        <ele>159.37269592</ele>
        <time>2018-09-09T09:39:00Z</time>
      </trkpt>
      <trkpt lat="43.46861" lon="1.47697">
        <ele>160.60491943</ele>
        <time>2018-09-09T09:39:04Z</time>
      </trkpt>
      <trkpt lat="43.46866" lon="1.47702">
        <ele>161.09742737</ele>
        <time>2018-09-09T09:39:05Z</time>
      </trkpt>
      <trkpt lat="43.46874" lon="1.4771">
        <ele>161.09742737</ele>
        <time>2018-09-09T09:39:08Z</time>
      </trkpt>
      <trkpt lat="43.46888" lon="1.47721">
        <ele>161.09742737</ele>
        <time>2018-09-09T09:39:11Z</time>
      </trkpt>
      <trkpt lat="43.469" lon="1.47732">
        <ele>161.09742737</ele>
        <time>2018-09-09T09:39:14Z</time>
      </trkpt>
      <trkpt lat="43.46901" lon="1.47741">
        <ele>161.09742737</ele>
        <time>2018-09-09T09:39:23Z</time>
      </trkpt>
      <trkpt lat="43.4689" lon="1.47752">
        <ele>161.09742737</ele>
        <time>2018-09-09T09:39:28Z</time>
      </trkpt>
      <trkpt lat="43.46879" lon="1.47762">
        <ele>161.09742737</ele>
        <time>2018-09-09T09:39:33Z</time>
      </trkpt>
      <trkpt lat="43.46868" lon="1.47773">
        <ele>161.29808044</ele>
        <time>2018-09-09T09:39:37Z</time>
      </trkpt>
      <trkpt lat="43.46849" lon="1.47792">
        <ele>161.29808044</ele>
        <time>2018-09-09T09:39:45Z</time>
      </trkpt>
      <trkpt lat="43.46838" lon="1.47802">
        <ele>161.29808044</ele>
        <time>2018-09-09T09:39:49Z</time>
      </trkpt>
      <trkpt lat="43.46827" lon="1.47813">
        <ele>161.29808044</ele>
        <time>2018-09-09T09:39:53Z</time>
      </trkpt>
      <trkpt lat="43.46816" lon="1.47825">
        <ele>161.29808044</ele>
        <time>2018-09-09T09:39:57Z</time>
      </trkpt>
      <trkpt lat="43.46806" lon="1.47836">
        <ele>162.64616394</ele>
        <time>2018-09-09T09:40:00Z</time>
      </trkpt>
      <trkpt lat="43.46799" lon="1.47846">
        <ele>162.64616394</ele>
        <time>2018-09-09T09:40:04Z</time>
      </trkpt>
      <trkpt lat="43.46796" lon="1.4785">
        <ele>163.69334412</ele>
        <time>2018-09-09T09:40:05Z</time>
      </trkpt>
      <trkpt lat="43.46791" lon="1.47857">
        <ele>163.69334412</ele>
        <time>2018-09-09T09:40:08Z</time>
      </trkpt>
      <trkpt lat="43.46783" lon="1.47867">
        <ele>163.69334412</ele>
        <time>2018-09-09T09:40:12Z</time>
      </trkpt>
      <trkpt lat="43.46773" lon="1.47878">
        <ele>164.62690735</ele>
        <time>2018-09-09T09:40:16Z</time>
      </trkpt>
      <trkpt lat="43.46764" lon="1.47889">
        <ele>164.62690735</ele>
        <time>2018-09-09T09:40:19Z</time>
      </trkpt>
      <trkpt lat="43.46757" lon="1.47902">
        <ele>164.62690735</ele>
        <time>2018-09-09T09:40:23Z</time>
      </trkpt>
      <trkpt lat="43.46754" lon="1.47916">
        <ele>164.62690735</ele>
        <time>2018-09-09T09:40:25Z</time>
      </trkpt>
      <trkpt lat="43.46762" lon="1.47931">
        <ele>164.62690735</ele>
        <time>2018-09-09T09:40:27Z</time>
      </trkpt>
      <trkpt lat="43.46773" lon="1.47944">
        <ele>164.80192566</ele>
        <time>2018-09-09T09:40:29Z</time>
      </trkpt>
      <trkpt lat="43.46785" lon="1.47955">
        <ele>163.05702209</ele>
        <time>2018-09-09T09:40:31Z</time>
      </trkpt>
      <trkpt lat="43.46796" lon="1.47972">
        <ele>161.81774902</ele>
        <time>2018-09-09T09:40:33Z</time>
      </trkpt>
      <trkpt lat="43.46803" lon="1.47988">
        <ele>160.48899841</ele>
        <time>2018-09-09T09:40:34Z</time>
      </trkpt>
      <trkpt lat="43.46807" lon="1.48">
        <ele>160.48899841</ele>
        <time>2018-09-09T09:40:35Z</time>
      </trkpt>
      <trkpt lat="43.46809" lon="1.48011">
        <ele>158.83137512</ele>
        <time>2018-09-09T09:40:36Z</time>
      </trkpt>
      <trkpt lat="43.4681" lon="1.48021">
        <ele>157.00045776</ele>
        <time>2018-09-09T09:40:38Z</time>
      </trkpt>
      <trkpt lat="43.46811" lon="1.48035">
        <ele>155.32040405</ele>
        <time>2018-09-09T09:40:39Z</time>
      </trkpt>
      <trkpt lat="43.46815" lon="1.48053">
        <ele>152.8183136</ele>
        <time>2018-09-09T09:40:41Z</time>
      </trkpt>
      <trkpt lat="43.46824" lon="1.48066">
        <ele>148.85592651</ele>
        <time>2018-09-09T09:40:44Z</time>
      </trkpt>
      <trkpt lat="43.4684" lon="1.48068">
        <ele>147.77568054</ele>
        <time>2018-09-09T09:40:45Z</time>
      </trkpt>
      <trkpt lat="43.46857" lon="1.48057">
        <ele>145.58493042</ele>
        <time>2018-09-09T09:40:47Z</time>
      </trkpt>
      <trkpt lat="43.4687" lon="1.48046">
        <ele>143.06632996</ele>
        <time>2018-09-09T09:40:49Z</time>
      </trkpt>
      <trkpt lat="43.46882" lon="1.48045">
        <ele>140.1217804</ele>
        <time>2018-09-09T09:40:51Z</time>
      </trkpt>
      <trkpt lat="43.469" lon="1.48049">
        <ele>137.62641907</ele>
        <time>2018-09-09T09:40:53Z</time>
      </trkpt>
      <trkpt lat="43.46914" lon="1.48053">
        <ele>135.11280823</ele>
        <time>2018-09-09T09:40:55Z</time>
      </trkpt>
      <trkpt lat="43.4692" lon="1.48068">
        <ele>132.53717041</ele>
        <time>2018-09-09T09:40:57Z</time>
      </trkpt>
      <trkpt lat="43.46917" lon="1.48089">
        <ele>131.3114624</ele>
        <time>2018-09-09T09:40:58Z</time>
      </trkpt>
      <trkpt lat="43.46912" lon="1.4811">
        <ele>130.12661743</ele>
        <time>2018-09-09T09:40:59Z</time>
      </trkpt>
      <trkpt lat="43.46908" lon="1.48125">
        <ele>128.92767334</ele>
        <time>2018-09-09T09:41:00Z</time>
      </trkpt>
      <trkpt lat="43.46906" lon="1.4814">
        <ele>127.72019196</ele>
        <time>2018-09-09T09:41:01Z</time>
      </trkpt>
      <trkpt lat="43.46908" lon="1.48153">
        <ele>126.37747955</ele>
        <time>2018-09-09T09:41:02Z</time>
      </trkpt>
      <trkpt lat="43.46911" lon="1.48164">
        <ele>125.09753418</ele>
        <time>2018-09-09T09:41:03Z</time>
      </trkpt>
      <trkpt lat="43.46915" lon="1.48175">
        <ele>123.92663574</ele>
        <time>2018-09-09T09:41:04Z</time>
      </trkpt>
      <trkpt lat="43.4692" lon="1.48186">
        <ele>122.97667694</ele>
        <time>2018-09-09T09:41:06Z</time>
      </trkpt>
      <trkpt lat="43.46928" lon="1.48186">
        <ele>121.05783081</ele>
        <time>2018-09-09T09:41:12Z</time>
      </trkpt>
      <trkpt lat="43.4694" lon="1.48173">
        <ele>120.024086</ele>
        <time>2018-09-09T09:41:16Z</time>
      </trkpt>
      <trkpt lat="43.4695" lon="1.48164">
        <ele>120.024086</ele>
        <time>2018-09-09T09:41:20Z</time>
      </trkpt>
      <trkpt lat="43.46963" lon="1.48156">
        <ele>118.92282867</ele>
        <time>2018-09-09T09:41:24Z</time>
      </trkpt>
      <trkpt lat="43.46974" lon="1.48146">
        <ele>118.92282867</ele>
        <time>2018-09-09T09:41:29Z</time>
      </trkpt>
      <trkpt lat="43.46985" lon="1.48134">
        <ele>118.92282867</ele>
        <time>2018-09-09T09:41:33Z</time>
      </trkpt>
      <trkpt lat="43.46997" lon="1.48122">
        <ele>118.92282867</ele>
        <time>2018-09-09T09:41:37Z</time>
      </trkpt>
      <trkpt lat="43.4702" lon="1.48103">
        <ele>118.92282867</ele>
        <time>2018-09-09T09:41:43Z</time>
      </trkpt>
      <trkpt lat="43.4703" lon="1.48095">
        <ele>118.92282867</ele>
        <time>2018-09-09T09:41:46Z</time>
      </trkpt>
      <trkpt lat="43.47041" lon="1.48088">
        <ele>118.92282867</ele>
        <time>2018-09-09T09:41:49Z</time>
      </trkpt>
      <trkpt lat="43.47053" lon="1.48082">
        <ele>118.19612122</ele>
        <time>2018-09-09T09:41:52Z</time>
      </trkpt>
      <trkpt lat="43.47065" lon="1.48077">
        <ele>116.88611603</ele>
        <time>2018-09-09T09:41:55Z</time>
      </trkpt>
      <trkpt lat="43.4708" lon="1.48071">
        <ele>116.88611603</ele>
        <time>2018-09-09T09:41:58Z</time>
      </trkpt>
      <trkpt lat="43.47093" lon="1.48063">
        <ele>115.79810333</ele>
        <time>2018-09-09T09:42:00Z</time>
      </trkpt>
      <trkpt lat="43.47106" lon="1.48055">
        <ele>115.79810333</ele>
        <time>2018-09-09T09:42:02Z</time>
      </trkpt>
      <trkpt lat="43.47118" lon="1.48044">
        <ele>115.79810333</ele>
        <time>2018-09-09T09:42:04Z</time>
      </trkpt>
      <trkpt lat="43.47121" lon="1.48041">
        <ele>114.90755463</ele>
        <time>2018-09-09T09:42:05Z</time>
      </trkpt>
      <trkpt lat="43.4713" lon="1.48031">
        <ele>114.90755463</ele>
        <time>2018-09-09T09:42:06Z</time>
      </trkpt>
      <trkpt lat="43.47144" lon="1.48021">
        <ele>114.90755463</ele>
        <time>2018-09-09T09:42:08Z</time>
      </trkpt>
      <trkpt lat="43.47156" lon="1.48013">
        <ele>114.90755463</ele>
        <time>2018-09-09T09:42:11Z</time>
      </trkpt>
      <trkpt lat="43.47167" lon="1.48005">
        <ele>114.90755463</ele>
        <time>2018-09-09T09:42:12Z</time>
      </trkpt>
      <trkpt lat="43.47177" lon="1.47994">
        <ele>114.90755463</ele>
        <time>2018-09-09T09:42:14Z</time>
      </trkpt>
      <trkpt lat="43.47187" lon="1.47984">
        <ele>114.90755463</ele>
        <time>2018-09-09T09:42:16Z</time>
      </trkpt>
      <trkpt lat="43.47196" lon="1.47974">
        <ele>114.90755463</ele>
        <time>2018-09-09T09:42:18Z</time>
      </trkpt>
      <trkpt lat="43.47207" lon="1.47962">
        <ele>114.90755463</ele>
        <time>2018-09-09T09:42:21Z</time>
      </trkpt>
      <trkpt lat="43.47216" lon="1.4795">
        <ele>114.90755463</ele>
        <time>2018-09-09T09:42:23Z</time>
      </trkpt>
      <trkpt lat="43.47225" lon="1.47938">
        <ele>114.90755463</ele>
        <time>2018-09-09T09:42:26Z</time>
      </trkpt>
      <trkpt lat="43.47235" lon="1.47938">
        <ele>114.90755463</ele>
        <time>2018-09-09T09:42:31Z</time>
      </trkpt>
      <trkpt lat="43.47248" lon="1.47949">
        <ele>114.33195496</ele>
        <time>2018-09-09T09:42:34Z</time>
      </trkpt>
      <trkpt lat="43.4726" lon="1.47962">
        <ele>114.33195496</ele>
        <time>2018-09-09T09:42:37Z</time>
      </trkpt>
      <trkpt lat="43.47274" lon="1.47975">
        <ele>114.33195496</ele>
        <time>2018-09-09T09:42:40Z</time>
      </trkpt>
      <trkpt lat="43.47288" lon="1.47985">
        <ele>114.33195496</ele>
        <time>2018-09-09T09:42:43Z</time>
      </trkpt>
      <trkpt lat="43.47299" lon="1.47995">
        <ele>114.33195496</ele>
        <time>2018-09-09T09:42:46Z</time>
      </trkpt>
      <trkpt lat="43.47311" lon="1.48007">
        <ele>113.25263977</ele>
        <time>2018-09-09T09:42:50Z</time>
      </trkpt>
      <trkpt lat="43.47323" lon="1.48016">
        <ele>115.54134369</ele>
        <time>2018-09-09T09:42:53Z</time>
      </trkpt>
      <trkpt lat="43.47338" lon="1.48028">
        <ele>115.23162079</ele>
        <time>2018-09-09T09:42:56Z</time>
      </trkpt>
      <trkpt lat="43.47352" lon="1.48042">
        <ele>115.23162079</ele>
        <time>2018-09-09T09:42:58Z</time>
      </trkpt>
      <trkpt lat="43.47363" lon="1.48037">
        <ele>115.23162079</ele>
        <time>2018-09-09T09:43:02Z</time>
      </trkpt>
      <trkpt lat="43.47369" lon="1.48019">
        <ele>113.68441772</ele>
        <time>2018-09-09T09:43:04Z</time>
      </trkpt>
      <trkpt lat="43.47371" lon="1.48016">
        <ele>113.32687378</ele>
        <time>2018-09-09T09:43:05Z</time>
      </trkpt>
      <trkpt lat="43.47373" lon="1.48005">
        <ele>113.32687378</ele>
        <time>2018-09-09T09:43:06Z</time>
      </trkpt>
      <trkpt lat="43.47376" lon="1.47988">
        <ele>113.32687378</ele>
        <time>2018-09-09T09:43:08Z</time>
      </trkpt>
      <trkpt lat="43.47379" lon="1.4797">
        <ele>113.32687378</ele>
        <time>2018-09-09T09:43:10Z</time>
      </trkpt>
      <trkpt lat="43.47382" lon="1.47952">
        <ele>112.73034668</ele>
        <time>2018-09-09T09:43:13Z</time>
      </trkpt>
      <trkpt lat="43.47385" lon="1.47934">
        <ele>112.73034668</ele>
        <time>2018-09-09T09:43:14Z</time>
      </trkpt>
      <trkpt lat="43.47389" lon="1.47917">
        <ele>112.73034668</ele>
        <time>2018-09-09T09:43:16Z</time>
      </trkpt>
      <trkpt lat="43.47392" lon="1.47899">
        <ele>112.73034668</ele>
        <time>2018-09-09T09:43:18Z</time>
      </trkpt>
      <trkpt lat="43.47396" lon="1.47881">
        <ele>112.73034668</ele>
        <time>2018-09-09T09:43:20Z</time>
      </trkpt>
      <trkpt lat="43.474" lon="1.47863">
        <ele>112.73034668</ele>
        <time>2018-09-09T09:43:22Z</time>
      </trkpt>
      <trkpt lat="43.47403" lon="1.47844">
        <ele>111.56130219</ele>
        <time>2018-09-09T09:43:24Z</time>
      </trkpt>
      <trkpt lat="43.47408" lon="1.47825">
        <ele>111.56130219</ele>
        <time>2018-09-09T09:43:26Z</time>
      </trkpt>
      <trkpt lat="43.47413" lon="1.47807">
        <ele>111.56130219</ele>
        <time>2018-09-09T09:43:28Z</time>
      </trkpt>
      <trkpt lat="43.47419" lon="1.4779">
        <ele>111.56130219</ele>
        <time>2018-09-09T09:43:30Z</time>
      </trkpt>
      <trkpt lat="43.47424" lon="1.47774">
        <ele>111.56130219</ele>
        <time>2018-09-09T09:43:32Z</time>
      </trkpt>
      <trkpt lat="43.4743" lon="1.47759">
        <ele>111.56130219</ele>
        <time>2018-09-09T09:43:34Z</time>
      </trkpt>
      <trkpt lat="43.47437" lon="1.47744">
        <ele>111.56130219</ele>
        <time>2018-09-09T09:43:36Z</time>
      </trkpt>
      <trkpt lat="43.47444" lon="1.47728">
        <ele>111.56130219</ele>
        <time>2018-09-09T09:43:38Z</time>
      </trkpt>
      <trkpt lat="43.47458" lon="1.47696">
        <ele>111.56130219</ele>
        <time>2018-09-09T09:43:42Z</time>
      </trkpt>
      <trkpt lat="43.47466" lon="1.47681">
        <ele>111.56130219</ele>
        <time>2018-09-09T09:43:44Z</time>
      </trkpt>
      <trkpt lat="43.47472" lon="1.47665">
        <ele>111.56130219</ele>
        <time>2018-09-09T09:43:46Z</time>
      </trkpt>
      <trkpt lat="43.47479" lon="1.4765">
        <ele>111.56130219</ele>
        <time>2018-09-09T09:43:48Z</time>
      </trkpt>
      <trkpt lat="43.47486" lon="1.47634">
        <ele>111.56130219</ele>
        <time>2018-09-09T09:43:50Z</time>
      </trkpt>
      <trkpt lat="43.47493" lon="1.47619">
        <ele>110.58914948</ele>
        <time>2018-09-09T09:43:52Z</time>
      </trkpt>
      <trkpt lat="43.475" lon="1.47603">
        <ele>110.58914948</ele>
        <time>2018-09-09T09:43:54Z</time>
      </trkpt>
      <trkpt lat="43.47507" lon="1.47587">
        <ele>110.58914948</ele>
        <time>2018-09-09T09:43:56Z</time>
      </trkpt>
      <trkpt lat="43.47513" lon="1.47572">
        <ele>110.58914948</ele>
        <time>2018-09-09T09:43:58Z</time>
      </trkpt>
      <trkpt lat="43.47519" lon="1.47558">
        <ele>110.58914948</ele>
        <time>2018-09-09T09:44:00Z</time>
      </trkpt>
      <trkpt lat="43.47525" lon="1.47546">
        <ele>110.58914948</ele>
        <time>2018-09-09T09:44:02Z</time>
      </trkpt>
      <trkpt lat="43.47531" lon="1.47532">
        <ele>110.58914948</ele>
        <time>2018-09-09T09:44:04Z</time>
      </trkpt>
      <trkpt lat="43.47533" lon="1.47529">
        <ele>110.18191528</ele>
        <time>2018-09-09T09:44:05Z</time>
      </trkpt>
      <trkpt lat="43.47537" lon="1.47519">
        <ele>110.18191528</ele>
        <time>2018-09-09T09:44:06Z</time>
      </trkpt>
      <trkpt lat="43.47543" lon="1.47506">
        <ele>110.18191528</ele>
        <time>2018-09-09T09:44:08Z</time>
      </trkpt>
      <trkpt lat="43.47556" lon="1.47477">
        <ele>110.18191528</ele>
        <time>2018-09-09T09:44:12Z</time>
      </trkpt>
      <trkpt lat="43.47562" lon="1.47461">
        <ele>110.18191528</ele>
        <time>2018-09-09T09:44:14Z</time>
      </trkpt>
      <trkpt lat="43.47569" lon="1.47446">
        <ele>110.18191528</ele>
        <time>2018-09-09T09:44:16Z</time>
      </trkpt>
      <trkpt lat="43.47576" lon="1.47431">
        <ele>110.18191528</ele>
        <time>2018-09-09T09:44:18Z</time>
      </trkpt>
      <trkpt lat="43.47584" lon="1.47417">
        <ele>110.18191528</ele>
        <time>2018-09-09T09:44:20Z</time>
      </trkpt>
      <trkpt lat="43.47592" lon="1.47404">
        <ele>110.18191528</ele>
        <time>2018-09-09T09:44:22Z</time>
      </trkpt>
      <trkpt lat="43.47601" lon="1.4739">
        <ele>110.18191528</ele>
        <time>2018-09-09T09:44:24Z</time>
      </trkpt>
      <trkpt lat="43.47609" lon="1.47377">
        <ele>110.18191528</ele>
        <time>2018-09-09T09:44:26Z</time>
      </trkpt>
      <trkpt lat="43.47618" lon="1.47365">
        <ele>110.12674713</ele>
        <time>2018-09-09T09:44:28Z</time>
      </trkpt>
      <trkpt lat="43.47626" lon="1.47351">
        <ele>110.12674713</ele>
        <time>2018-09-09T09:44:30Z</time>
      </trkpt>
      <trkpt lat="43.47635" lon="1.47338">
        <ele>110.12674713</ele>
        <time>2018-09-09T09:44:32Z</time>
      </trkpt>
      <trkpt lat="43.47643" lon="1.47325">
        <ele>110.12674713</ele>
        <time>2018-09-09T09:44:34Z</time>
      </trkpt>
      <trkpt lat="43.47651" lon="1.47311">
        <ele>110.12674713</ele>
        <time>2018-09-09T09:44:36Z</time>
      </trkpt>
      <trkpt lat="43.4766" lon="1.47298">
        <ele>110.12674713</ele>
        <time>2018-09-09T09:44:38Z</time>
      </trkpt>
      <trkpt lat="43.47669" lon="1.47284">
        <ele>110.12674713</ele>
        <time>2018-09-09T09:44:40Z</time>
      </trkpt>
      <trkpt lat="43.47677" lon="1.47271">
        <ele>110.12674713</ele>
        <time>2018-09-09T09:44:42Z</time>
      </trkpt>
      <trkpt lat="43.47684" lon="1.47256">
        <ele>110.12674713</ele>
        <time>2018-09-09T09:44:44Z</time>
      </trkpt>
      <trkpt lat="43.47692" lon="1.47242">
        <ele>110.12674713</ele>
        <time>2018-09-09T09:44:46Z</time>
      </trkpt>
      <trkpt lat="43.47699" lon="1.47227">
        <ele>110.12674713</ele>
        <time>2018-09-09T09:44:48Z</time>
      </trkpt>
      <trkpt lat="43.47706" lon="1.47213">
        <ele>108.88851929</ele>
        <time>2018-09-09T09:44:50Z</time>
      </trkpt>
      <trkpt lat="43.47713" lon="1.472">
        <ele>108.88851929</ele>
        <time>2018-09-09T09:44:52Z</time>
      </trkpt>
      <trkpt lat="43.4772" lon="1.47187">
        <ele>108.88851929</ele>
        <time>2018-09-09T09:44:54Z</time>
      </trkpt>
      <trkpt lat="43.47727" lon="1.47174">
        <ele>108.88851929</ele>
        <time>2018-09-09T09:44:56Z</time>
      </trkpt>
      <trkpt lat="43.47736" lon="1.47167">
        <ele>108.08625793</ele>
        <time>2018-09-09T09:44:58Z</time>
      </trkpt>
      <trkpt lat="43.47747" lon="1.47179">
        <ele>108.08625793</ele>
        <time>2018-09-09T09:45:00Z</time>
      </trkpt>
      <trkpt lat="43.47754" lon="1.47191">
        <ele>108.08625793</ele>
        <time>2018-09-09T09:45:02Z</time>
      </trkpt>
      <trkpt lat="43.47761" lon="1.47196">
        <ele>107.29322052</ele>
        <time>2018-09-09T09:45:05Z</time>
      </trkpt>
      <trkpt lat="43.47769" lon="1.4719">
        <ele>107.29322052</ele>
        <time>2018-09-09T09:45:09Z</time>
      </trkpt>
      <trkpt lat="43.47773" lon="1.47178">
        <ele>107.29322052</ele>
        <time>2018-09-09T09:45:13Z</time>
      </trkpt>
      <trkpt lat="43.4778" lon="1.47167">
        <ele>107.29322052</ele>
        <time>2018-09-09T09:52:17Z</time>
      </trkpt>
      <trkpt lat="43.47788" lon="1.4715">
        <ele>107.29322052</ele>
        <time>2018-09-09T09:52:21Z</time>
      </trkpt>
      <trkpt lat="43.47794" lon="1.47137">
        <ele>107.29322052</ele>
        <time>2018-09-09T09:52:24Z</time>
      </trkpt>
      <trkpt lat="43.478" lon="1.47125">
        <ele>107.29322052</ele>
        <time>2018-09-09T09:52:27Z</time>
      </trkpt>
      <trkpt lat="43.47806" lon="1.47111">
        <ele>107.29322052</ele>
        <time>2018-09-09T09:52:30Z</time>
      </trkpt>
      <trkpt lat="43.47813" lon="1.47099">
        <ele>107.29322052</ele>
        <time>2018-09-09T09:52:32Z</time>
      </trkpt>
      <trkpt lat="43.47818" lon="1.47087">
        <ele>106.84246063</ele>
        <time>2018-09-09T09:52:35Z</time>
      </trkpt>
      <trkpt lat="43.47825" lon="1.47072">
        <ele>106.84246063</ele>
        <time>2018-09-09T09:52:38Z</time>
      </trkpt>
      <trkpt lat="43.47831" lon="1.47059">
        <ele>106.84246063</ele>
        <time>2018-09-09T09:52:40Z</time>
      </trkpt>
      <trkpt lat="43.47836" lon="1.47047">
        <ele>106.84246063</ele>
        <time>2018-09-09T09:52:42Z</time>
      </trkpt>
      <trkpt lat="43.47843" lon="1.47034">
        <ele>106.84246063</ele>
        <time>2018-09-09T09:52:44Z</time>
      </trkpt>
      <trkpt lat="43.47849" lon="1.47022">
        <ele>106.84246063</ele>
        <time>2018-09-09T09:52:46Z</time>
      </trkpt>
      <trkpt lat="43.47855" lon="1.47011">
        <ele>106.84246063</ele>
        <time>2018-09-09T09:52:48Z</time>
      </trkpt>
      <trkpt lat="43.47862" lon="1.46999">
        <ele>106.84246063</ele>
        <time>2018-09-09T09:52:51Z</time>
      </trkpt>
      <trkpt lat="43.47869" lon="1.46985">
        <ele>106.84246063</ele>
        <time>2018-09-09T09:52:53Z</time>
      </trkpt>
      <trkpt lat="43.47877" lon="1.46975">
        <ele>106.84246063</ele>
        <time>2018-09-09T09:52:56Z</time>
      </trkpt>
      <trkpt lat="43.47889" lon="1.46967">
        <ele>105.60775757</ele>
        <time>2018-09-09T09:52:59Z</time>
      </trkpt>
      <trkpt lat="43.47902" lon="1.46957">
        <ele>105.60775757</ele>
        <time>2018-09-09T09:53:02Z</time>
      </trkpt>
      <trkpt lat="43.47912" lon="1.46944">
        <ele>104.93254852</ele>
        <time>2018-09-09T09:53:05Z</time>
      </trkpt>
      <trkpt lat="43.47922" lon="1.46935">
        <ele>104.93254852</ele>
        <time>2018-09-09T09:53:07Z</time>
      </trkpt>
      <trkpt lat="43.47934" lon="1.46923">
        <ele>104.93254852</ele>
        <time>2018-09-09T09:53:10Z</time>
      </trkpt>
      <trkpt lat="43.47944" lon="1.4691">
        <ele>104.93254852</ele>
        <time>2018-09-09T09:53:13Z</time>
      </trkpt>
      <trkpt lat="43.47953" lon="1.46898">
        <ele>104.93254852</ele>
        <time>2018-09-09T09:53:16Z</time>
      </trkpt>
      <trkpt lat="43.47962" lon="1.46885">
        <ele>104.93254852</ele>
        <time>2018-09-09T09:53:19Z</time>
      </trkpt>
      <trkpt lat="43.47973" lon="1.46872">
        <ele>104.93254852</ele>
        <time>2018-09-09T09:53:22Z</time>
      </trkpt>
      <trkpt lat="43.47986" lon="1.4686">
        <ele>104.93254852</ele>
        <time>2018-09-09T09:53:25Z</time>
      </trkpt>
      <trkpt lat="43.47998" lon="1.46854">
        <ele>104.93254852</ele>
        <time>2018-09-09T09:53:28Z</time>
      </trkpt>
      <trkpt lat="43.4801" lon="1.46848">
        <ele>104.93254852</ele>
        <time>2018-09-09T09:53:31Z</time>
      </trkpt>
      <trkpt lat="43.48023" lon="1.46843">
        <ele>104.93254852</ele>
        <time>2018-09-09T09:53:34Z</time>
      </trkpt>
      <trkpt lat="43.48051" lon="1.46831">
        <ele>104.93254852</ele>
        <time>2018-09-09T09:53:40Z</time>
      </trkpt>
      <trkpt lat="43.48063" lon="1.46817">
        <ele>104.93254852</ele>
        <time>2018-09-09T09:53:43Z</time>
      </trkpt>
      <trkpt lat="43.4807" lon="1.46803">
        <ele>104.93254852</ele>
        <time>2018-09-09T09:53:45Z</time>
      </trkpt>
      <trkpt lat="43.48077" lon="1.46792">
        <ele>104.93254852</ele>
        <time>2018-09-09T09:53:48Z</time>
      </trkpt>
      <trkpt lat="43.48081" lon="1.4678">
        <ele>104.93254852</ele>
        <time>2018-09-09T09:53:52Z</time>
      </trkpt>
      <trkpt lat="43.48087" lon="1.46769">
        <ele>104.93254852</ele>
        <time>2018-09-09T09:53:55Z</time>
      </trkpt>
      <trkpt lat="43.48096" lon="1.46757">
        <ele>104.93254852</ele>
        <time>2018-09-09T09:53:57Z</time>
      </trkpt>
      <trkpt lat="43.48104" lon="1.46744">
        <ele>104.93254852</ele>
        <time>2018-09-09T09:54:00Z</time>
      </trkpt>
      <trkpt lat="43.48114" lon="1.4673">
        <ele>104.93254852</ele>
        <time>2018-09-09T09:54:03Z</time>
      </trkpt>
      <trkpt lat="43.48118" lon="1.46724">
        <ele>104.44907379</ele>
        <time>2018-09-09T09:54:05Z</time>
      </trkpt>
      <trkpt lat="43.48124" lon="1.46722">
        <ele>104.44907379</ele>
        <time>2018-09-09T09:54:09Z</time>
      </trkpt>
      <trkpt lat="43.48134" lon="1.46721">
        <ele>104.44907379</ele>
        <time>2018-09-09T09:54:14Z</time>
      </trkpt>
      <trkpt lat="43.48146" lon="1.46721">
        <ele>104.44907379</ele>
        <time>2018-09-09T09:54:18Z</time>
      </trkpt>
      <trkpt lat="43.48157" lon="1.46717">
        <ele>104.44907379</ele>
        <time>2018-09-09T09:54:21Z</time>
      </trkpt>
      <trkpt lat="43.48169" lon="1.46711">
        <ele>104.70415497</ele>
        <time>2018-09-09T09:54:24Z</time>
      </trkpt>
      <trkpt lat="43.48181" lon="1.46708">
        <ele>104.70415497</ele>
        <time>2018-09-09T09:54:28Z</time>
      </trkpt>
      <trkpt lat="43.48193" lon="1.46705">
        <ele>104.70415497</ele>
        <time>2018-09-09T09:54:32Z</time>
      </trkpt>
      <trkpt lat="43.48204" lon="1.46699">
        <ele>104.70415497</ele>
        <time>2018-09-09T09:54:34Z</time>
      </trkpt>
      <trkpt lat="43.48216" lon="1.46687">
        <ele>105.75252533</ele>
        <time>2018-09-09T09:54:38Z</time>
      </trkpt>
      <trkpt lat="43.48228" lon="1.46679">
        <ele>105.75252533</ele>
        <time>2018-09-09T09:54:39Z</time>
      </trkpt>
      <trkpt lat="43.48238" lon="1.4667">
        <ele>105.75252533</ele>
        <time>2018-09-09T09:54:42Z</time>
      </trkpt>
      <trkpt lat="43.48249" lon="1.46659">
        <ele>105.75252533</ele>
        <time>2018-09-09T09:54:45Z</time>
      </trkpt>
      <trkpt lat="43.48261" lon="1.46649">
        <ele>107.00301361</ele>
        <time>2018-09-09T09:54:49Z</time>
      </trkpt>
      <trkpt lat="43.48271" lon="1.46639">
        <ele>107.00301361</ele>
        <time>2018-09-09T09:54:53Z</time>
      </trkpt>
      <trkpt lat="43.48282" lon="1.46637">
        <ele>107.00301361</ele>
        <time>2018-09-09T09:54:56Z</time>
      </trkpt>
      <trkpt lat="43.48293" lon="1.46635">
        <ele>107.97612</ele>
        <time>2018-09-09T09:55:01Z</time>
      </trkpt>
      <trkpt lat="43.48307" lon="1.46631">
        <ele>107.97612</ele>
        <time>2018-09-09T09:55:03Z</time>
      </trkpt>
      <trkpt lat="43.48315" lon="1.4663">
        <ele>110.05127716</ele>
        <time>2018-09-09T09:55:05Z</time>
      </trkpt>
      <trkpt lat="43.48323" lon="1.46631">
        <ele>110.05127716</ele>
        <time>2018-09-09T09:55:08Z</time>
      </trkpt>
      <trkpt lat="43.48337" lon="1.46628">
        <ele>110.80706787</ele>
        <time>2018-09-09T09:55:10Z</time>
      </trkpt>
      <trkpt lat="43.48348" lon="1.46633">
        <ele>113.52079773</ele>
        <time>2018-09-09T09:55:14Z</time>
      </trkpt>
      <trkpt lat="43.48366" lon="1.46643">
        <ele>114.64959717</ele>
        <time>2018-09-09T09:55:16Z</time>
      </trkpt>
      <trkpt lat="43.48379" lon="1.46649">
        <ele>114.64959717</ele>
        <time>2018-09-09T09:55:17Z</time>
      </trkpt>
      <trkpt lat="43.4839" lon="1.46656">
        <ele>115.92826843</ele>
        <time>2018-09-09T09:55:20Z</time>
      </trkpt>
      <trkpt lat="43.48401" lon="1.46662">
        <ele>118.46385193</ele>
        <time>2018-09-09T09:55:24Z</time>
      </trkpt>
      <trkpt lat="43.48412" lon="1.46673">
        <ele>119.76485443</ele>
        <time>2018-09-09T09:55:27Z</time>
      </trkpt>
      <trkpt lat="43.48425" lon="1.46682">
        <ele>121.1116333</ele>
        <time>2018-09-09T09:55:30Z</time>
      </trkpt>
      <trkpt lat="43.48436" lon="1.4669">
        <ele>122.49114227</ele>
        <time>2018-09-09T09:55:34Z</time>
      </trkpt>
      <trkpt lat="43.48445" lon="1.46699">
        <ele>123.88661194</ele>
        <time>2018-09-09T09:55:36Z</time>
      </trkpt>
      <trkpt lat="43.48453" lon="1.46713">
        <ele>125.195755</ele>
        <time>2018-09-09T09:55:39Z</time>
      </trkpt>
      <trkpt lat="43.48457" lon="1.46727">
        <ele>126.41938782</ele>
        <time>2018-09-09T09:55:42Z</time>
      </trkpt>
      <trkpt lat="43.4846" lon="1.46738">
        <ele>126.41938782</ele>
        <time>2018-09-09T09:55:43Z</time>
      </trkpt>
      <trkpt lat="43.48462" lon="1.4675">
        <ele>127.56121826</ele>
        <time>2018-09-09T09:55:46Z</time>
      </trkpt>
      <trkpt lat="43.48462" lon="1.46761">
        <ele>127.56121826</ele>
        <time>2018-09-09T09:55:49Z</time>
      </trkpt>
      <trkpt lat="43.48463" lon="1.46774">
        <ele>127.56121826</ele>
        <time>2018-09-09T09:55:52Z</time>
      </trkpt>
      <trkpt lat="43.48468" lon="1.46788">
        <ele>127.56121826</ele>
        <time>2018-09-09T09:55:54Z</time>
      </trkpt>
      <trkpt lat="43.48473" lon="1.46799">
        <ele>127.56121826</ele>
        <time>2018-09-09T09:55:57Z</time>
      </trkpt>
      <trkpt lat="43.48484" lon="1.46803">
        <ele>128.61177063</ele>
        <time>2018-09-09T09:56:02Z</time>
      </trkpt>
      <trkpt lat="43.48497" lon="1.468">
        <ele>128.61177063</ele>
        <time>2018-09-09T09:56:04Z</time>
      </trkpt>
      <trkpt lat="43.48501" lon="1.46801">
        <ele>129.32162476</ele>
        <time>2018-09-09T09:56:05Z</time>
      </trkpt>
      <trkpt lat="43.48521" lon="1.46812">
        <ele>130.08778381</ele>
        <time>2018-09-09T09:56:12Z</time>
      </trkpt>
      <trkpt lat="43.48533" lon="1.46819">
        <ele>130.08778381</ele>
        <time>2018-09-09T09:56:15Z</time>
      </trkpt>
      <trkpt lat="43.48544" lon="1.46826">
        <ele>131.55856323</ele>
        <time>2018-09-09T09:56:19Z</time>
      </trkpt>
      <trkpt lat="43.48555" lon="1.46835">
        <ele>132.86184692</ele>
        <time>2018-09-09T09:56:23Z</time>
      </trkpt>
      <trkpt lat="43.48567" lon="1.46846">
        <ele>134.1325531</ele>
        <time>2018-09-09T09:56:27Z</time>
      </trkpt>
      <trkpt lat="43.48576" lon="1.46857">
        <ele>135.2716217</ele>
        <time>2018-09-09T09:56:32Z</time>
      </trkpt>
      <trkpt lat="43.48584" lon="1.46869">
        <ele>135.2716217</ele>
        <time>2018-09-09T09:56:35Z</time>
      </trkpt>
      <trkpt lat="43.48591" lon="1.46882">
        <ele>135.2716217</ele>
        <time>2018-09-09T09:56:38Z</time>
      </trkpt>
      <trkpt lat="43.48599" lon="1.46895">
        <ele>135.55335999</ele>
        <time>2018-09-09T09:56:40Z</time>
      </trkpt>
      <trkpt lat="43.48606" lon="1.46909">
        <ele>132.20158386</ele>
        <time>2018-09-09T09:56:43Z</time>
      </trkpt>
      <trkpt lat="43.48614" lon="1.46925">
        <ele>132.20158386</ele>
        <time>2018-09-09T09:56:44Z</time>
      </trkpt>
      <trkpt lat="43.48623" lon="1.46944">
        <ele>130.79260254</ele>
        <time>2018-09-09T09:56:46Z</time>
      </trkpt>
      <trkpt lat="43.48629" lon="1.46959">
        <ele>129.48971558</ele>
        <time>2018-09-09T09:56:47Z</time>
      </trkpt>
      <trkpt lat="43.48633" lon="1.4697">
        <ele>129.48971558</ele>
        <time>2018-09-09T09:56:48Z</time>
      </trkpt>
      <trkpt lat="43.48639" lon="1.46982">
        <ele>129.48971558</ele>
        <time>2018-09-09T09:56:50Z</time>
      </trkpt>
      <trkpt lat="43.48647" lon="1.46995">
        <ele>129.48971558</ele>
        <time>2018-09-09T09:56:52Z</time>
      </trkpt>
      <trkpt lat="43.48655" lon="1.47007">
        <ele>129.48971558</ele>
        <time>2018-09-09T09:56:56Z</time>
      </trkpt>
      <trkpt lat="43.48662" lon="1.47019">
        <ele>129.48971558</ele>
        <time>2018-09-09T09:56:58Z</time>
      </trkpt>
      <trkpt lat="43.48672" lon="1.47031">
        <ele>129.24765015</ele>
        <time>2018-09-09T09:57:02Z</time>
      </trkpt>
      <trkpt lat="43.48681" lon="1.47039">
        <ele>131.82220459</ele>
        <time>2018-09-09T09:57:05Z</time>
      </trkpt>
      <trkpt lat="43.4869" lon="1.47048">
        <ele>132.49287415</ele>
        <time>2018-09-09T09:57:08Z</time>
      </trkpt>
      <trkpt lat="43.48702" lon="1.47059">
        <ele>133.49615479</ele>
        <time>2018-09-09T09:57:12Z</time>
      </trkpt>
      <trkpt lat="43.48713" lon="1.47069">
        <ele>135.87709045</ele>
        <time>2018-09-09T09:57:16Z</time>
      </trkpt>
      <trkpt lat="43.48724" lon="1.47077">
        <ele>137.26655579</ele>
        <time>2018-09-09T09:57:21Z</time>
      </trkpt>
      <trkpt lat="43.48735" lon="1.47086">
        <ele>139.93066406</ele>
        <time>2018-09-09T09:57:24Z</time>
      </trkpt>
      <trkpt lat="43.48747" lon="1.47094">
        <ele>140.96168518</ele>
        <time>2018-09-09T09:57:28Z</time>
      </trkpt>
      <trkpt lat="43.48759" lon="1.47102">
        <ele>143.38851929</ele>
        <time>2018-09-09T09:57:32Z</time>
      </trkpt>
      <trkpt lat="43.48771" lon="1.47111">
        <ele>144.44689941</ele>
        <time>2018-09-09T09:57:36Z</time>
      </trkpt>
      <trkpt lat="43.4878" lon="1.47122">
        <ele>146.84072876</ele>
        <time>2018-09-09T09:57:41Z</time>
      </trkpt>
      <trkpt lat="43.48789" lon="1.47134">
        <ele>146.84072876</ele>
        <time>2018-09-09T09:57:44Z</time>
      </trkpt>
      <trkpt lat="43.48797" lon="1.47146">
        <ele>149.44729614</ele>
        <time>2018-09-09T09:57:48Z</time>
      </trkpt>
      <trkpt lat="43.48805" lon="1.47158">
        <ele>150.85122681</ele>
        <time>2018-09-09T09:57:52Z</time>
      </trkpt>
      <trkpt lat="43.48814" lon="1.47171">
        <ele>153.40130615</ele>
        <time>2018-09-09T09:57:56Z</time>
      </trkpt>
      <trkpt lat="43.48824" lon="1.4718">
        <ele>155.53952026</ele>
        <time>2018-09-09T09:58:01Z</time>
      </trkpt>
      <trkpt lat="43.48834" lon="1.47186">
        <ele>156.97772217</ele>
        <time>2018-09-09T09:58:05Z</time>
      </trkpt>
      <trkpt lat="43.48843" lon="1.47193">
        <ele>157.72953796</ele>
        <time>2018-09-09T09:58:09Z</time>
      </trkpt>
      <trkpt lat="43.48854" lon="1.47203">
        <ele>158.87562561</ele>
        <time>2018-09-09T09:58:13Z</time>
      </trkpt>
      <trkpt lat="43.48865" lon="1.47215">
        <ele>159.93612671</ele>
        <time>2018-09-09T09:58:18Z</time>
      </trkpt>
      <trkpt lat="43.48875" lon="1.47226">
        <ele>162.13531494</ele>
        <time>2018-09-09T09:58:22Z</time>
      </trkpt>
      <trkpt lat="43.48881" lon="1.4724">
        <ele>163.34663391</ele>
        <time>2018-09-09T09:58:26Z</time>
      </trkpt>
      <trkpt lat="43.48886" lon="1.47254">
        <ele>164.75015259</ele>
        <time>2018-09-09T09:58:29Z</time>
      </trkpt>
      <trkpt lat="43.48891" lon="1.47265">
        <ele>165.98339844</ele>
        <time>2018-09-09T09:58:32Z</time>
      </trkpt>
      <trkpt lat="43.48897" lon="1.47276">
        <ele>167.15640259</ele>
        <time>2018-09-09T09:58:36Z</time>
      </trkpt>
      <trkpt lat="43.48905" lon="1.47284">
        <ele>168.05027771</ele>
        <time>2018-09-09T09:58:42Z</time>
      </trkpt>
      <trkpt lat="43.48913" lon="1.47291">
        <ele>168.05027771</ele>
        <time>2018-09-09T09:58:47Z</time>
      </trkpt>
      <trkpt lat="43.48911" lon="1.47305">
        <ele>168.05027771</ele>
        <time>2018-09-09T09:58:52Z</time>
      </trkpt>
      <trkpt lat="43.4891" lon="1.47319">
        <ele>168.05027771</ele>
        <time>2018-09-09T09:58:54Z</time>
      </trkpt>
      <trkpt lat="43.48909" lon="1.47331">
        <ele>168.05027771</ele>
        <time>2018-09-09T09:58:57Z</time>
      </trkpt>
      <trkpt lat="43.48912" lon="1.47342">
        <ele>168.05027771</ele>
        <time>2018-09-09T09:59:03Z</time>
      </trkpt>
      <trkpt lat="43.48912" lon="1.4735">
        <ele>168.87759399</ele>
        <time>2018-09-09T09:59:05Z</time>
      </trkpt>
      <trkpt lat="43.48913" lon="1.47358">
        <ele>168.87759399</ele>
        <time>2018-09-09T09:59:07Z</time>
      </trkpt>
      <trkpt lat="43.48915" lon="1.47369">
        <ele>168.87759399</ele>
        <time>2018-09-09T09:59:12Z</time>
      </trkpt>
      <trkpt lat="43.48915" lon="1.47373">
        <ele>169.57537842</ele>
        <time>2018-09-09T10:00:49Z</time>
      </trkpt>
      <trkpt lat="43.48914" lon="1.47374">
        <ele>169.57537842</ele>
        <time>2018-09-09T10:00:54Z</time>
      </trkpt>
      <trkpt lat="43.48924" lon="1.47392">
        <ele>167.3127594</ele>
        <time>2018-09-09T10:00:57Z</time>
      </trkpt>
      <trkpt lat="43.48938" lon="1.474">
        <ele>165.77154541</ele>
        <time>2018-09-09T10:00:59Z</time>
      </trkpt>
      <trkpt lat="43.48951" lon="1.47405">
        <ele>163.17858887</ele>
        <time>2018-09-09T10:01:01Z</time>
      </trkpt>
      <trkpt lat="43.48964" lon="1.47414">
        <ele>162.17140198</ele>
        <time>2018-09-09T10:01:03Z</time>
      </trkpt>
      <trkpt lat="43.48972" lon="1.47422">
        <ele>160.31257629</ele>
        <time>2018-09-09T10:01:05Z</time>
      </trkpt>
      <trkpt lat="43.48981" lon="1.47427">
        <ele>160.31257629</ele>
        <time>2018-09-09T10:01:07Z</time>
      </trkpt>
      <trkpt lat="43.48992" lon="1.47417">
        <ele>159.42243958</ele>
        <time>2018-09-09T10:01:09Z</time>
      </trkpt>
      <trkpt lat="43.49003" lon="1.47385">
        <ele>157.081604</ele>
        <time>2018-09-09T10:01:13Z</time>
      </trkpt>
      <trkpt lat="43.4901" lon="1.47369">
        <ele>155.8427887</ele>
        <time>2018-09-09T10:01:15Z</time>
      </trkpt>
      <trkpt lat="43.49019" lon="1.47351">
        <ele>154.60334778</ele>
        <time>2018-09-09T10:01:17Z</time>
      </trkpt>
      <trkpt lat="43.4903" lon="1.47335">
        <ele>153.35333252</ele>
        <time>2018-09-09T10:01:19Z</time>
      </trkpt>
      <trkpt lat="43.49043" lon="1.4732">
        <ele>152.0920105</ele>
        <time>2018-09-09T10:01:21Z</time>
      </trkpt>
      <trkpt lat="43.49057" lon="1.47308">
        <ele>150.7517395</ele>
        <time>2018-09-09T10:01:23Z</time>
      </trkpt>
      <trkpt lat="43.49072" lon="1.47305">
        <ele>149.58865356</ele>
        <time>2018-09-09T10:01:25Z</time>
      </trkpt>
      <trkpt lat="43.49089" lon="1.47304">
        <ele>149.58865356</ele>
        <time>2018-09-09T10:01:27Z</time>
      </trkpt>
      <trkpt lat="43.49104" lon="1.47298">
        <ele>149.58865356</ele>
        <time>2018-09-09T10:01:29Z</time>
      </trkpt>
      <trkpt lat="43.49116" lon="1.47294">
        <ele>149.58865356</ele>
        <time>2018-09-09T10:01:31Z</time>
      </trkpt>
      <trkpt lat="43.49127" lon="1.47288">
        <ele>149.58865356</ele>
        <time>2018-09-09T10:01:34Z</time>
      </trkpt>
      <trkpt lat="43.49139" lon="1.47279">
        <ele>149.21763611</ele>
        <time>2018-09-09T10:01:38Z</time>
      </trkpt>
      <trkpt lat="43.49159" lon="1.47256">
        <ele>149.21763611</ele>
        <time>2018-09-09T10:01:43Z</time>
      </trkpt>
      <trkpt lat="43.49167" lon="1.47243">
        <ele>149.21763611</ele>
        <time>2018-09-09T10:01:46Z</time>
      </trkpt>
      <trkpt lat="43.49176" lon="1.47229">
        <ele>150.40052795</ele>
        <time>2018-09-09T10:01:48Z</time>
      </trkpt>
      <trkpt lat="43.49183" lon="1.47215">
        <ele>150.40052795</ele>
        <time>2018-09-09T10:01:51Z</time>
      </trkpt>
      <trkpt lat="43.49188" lon="1.47203">
        <ele>148.69384766</ele>
        <time>2018-09-09T10:01:52Z</time>
      </trkpt>
      <trkpt lat="43.49196" lon="1.47191">
        <ele>148.69384766</ele>
        <time>2018-09-09T10:01:55Z</time>
      </trkpt>
      <trkpt lat="43.49207" lon="1.47179">
        <ele>147.56791687</ele>
        <time>2018-09-09T10:01:57Z</time>
      </trkpt>
      <trkpt lat="43.4922" lon="1.47165">
        <ele>147.56791687</ele>
        <time>2018-09-09T10:02:00Z</time>
      </trkpt>
      <trkpt lat="43.4923" lon="1.47152">
        <ele>146.25942993</ele>
        <time>2018-09-09T10:02:02Z</time>
      </trkpt>
      <trkpt lat="43.4924" lon="1.47139">
        <ele>146.25942993</ele>
        <time>2018-09-09T10:02:04Z</time>
      </trkpt>
      <trkpt lat="43.49242" lon="1.47135">
        <ele>144.74006653</ele>
        <time>2018-09-09T10:02:05Z</time>
      </trkpt>
      <trkpt lat="43.49249" lon="1.47125">
        <ele>144.74006653</ele>
        <time>2018-09-09T10:02:06Z</time>
      </trkpt>
      <trkpt lat="43.49259" lon="1.47112">
        <ele>144.74006653</ele>
        <time>2018-09-09T10:02:08Z</time>
      </trkpt>
      <trkpt lat="43.49268" lon="1.471">
        <ele>144.74006653</ele>
        <time>2018-09-09T10:02:10Z</time>
      </trkpt>
      <trkpt lat="43.49277" lon="1.4709">
        <ele>143.99586487</ele>
        <time>2018-09-09T10:02:12Z</time>
      </trkpt>
      <trkpt lat="43.49286" lon="1.47079">
        <ele>143.99586487</ele>
        <time>2018-09-09T10:02:14Z</time>
      </trkpt>
      <trkpt lat="43.49296" lon="1.47068">
        <ele>143.99586487</ele>
        <time>2018-09-09T10:02:17Z</time>
      </trkpt>
      <trkpt lat="43.49308" lon="1.47055">
        <ele>143.99586487</ele>
        <time>2018-09-09T10:02:20Z</time>
      </trkpt>
      <trkpt lat="43.49322" lon="1.47041">
        <ele>143.99586487</ele>
        <time>2018-09-09T10:02:23Z</time>
      </trkpt>
      <trkpt lat="43.49334" lon="1.47024">
        <ele>142.97720337</ele>
        <time>2018-09-09T10:02:25Z</time>
      </trkpt>
      <trkpt lat="43.49345" lon="1.47011">
        <ele>141.55836487</ele>
        <time>2018-09-09T10:02:27Z</time>
      </trkpt>
      <trkpt lat="43.49356" lon="1.46999">
        <ele>141.55836487</ele>
        <time>2018-09-09T10:02:30Z</time>
      </trkpt>
      <trkpt lat="43.49368" lon="1.46988">
        <ele>141.55836487</ele>
        <time>2018-09-09T10:02:31Z</time>
      </trkpt>
      <trkpt lat="43.49378" lon="1.46977">
        <ele>140.41044617</ele>
        <time>2018-09-09T10:02:33Z</time>
      </trkpt>
      <trkpt lat="43.49389" lon="1.46964">
        <ele>140.41044617</ele>
        <time>2018-09-09T10:02:35Z</time>
      </trkpt>
      <trkpt lat="43.49399" lon="1.46951">
        <ele>139.31568909</ele>
        <time>2018-09-09T10:02:37Z</time>
      </trkpt>
      <trkpt lat="43.49408" lon="1.46939">
        <ele>139.31568909</ele>
        <time>2018-09-09T10:02:39Z</time>
      </trkpt>
      <trkpt lat="43.49417" lon="1.46927">
        <ele>139.31568909</ele>
        <time>2018-09-09T10:02:41Z</time>
      </trkpt>
      <trkpt lat="43.49426" lon="1.46916">
        <ele>139.31568909</ele>
        <time>2018-09-09T10:02:43Z</time>
      </trkpt>
      <trkpt lat="43.49438" lon="1.46905">
        <ele>138.19192505</ele>
        <time>2018-09-09T10:02:46Z</time>
      </trkpt>
      <trkpt lat="43.49451" lon="1.46892">
        <ele>138.19192505</ele>
        <time>2018-09-09T10:02:49Z</time>
      </trkpt>
      <trkpt lat="43.49465" lon="1.46878">
        <ele>137.16210938</ele>
        <time>2018-09-09T10:02:52Z</time>
      </trkpt>
      <trkpt lat="43.49477" lon="1.46866">
        <ele>137.16210938</ele>
        <time>2018-09-09T10:02:54Z</time>
      </trkpt>
      <trkpt lat="43.49486" lon="1.46854">
        <ele>136.01029968</ele>
        <time>2018-09-09T10:02:56Z</time>
      </trkpt>
      <trkpt lat="43.49497" lon="1.46845">
        <ele>136.01029968</ele>
        <time>2018-09-09T10:02:58Z</time>
      </trkpt>
      <trkpt lat="43.49508" lon="1.46834">
        <ele>134.82417297</ele>
        <time>2018-09-09T10:03:01Z</time>
      </trkpt>
      <trkpt lat="43.49517" lon="1.4682">
        <ele>133.67306519</ele>
        <time>2018-09-09T10:03:02Z</time>
      </trkpt>
      <trkpt lat="43.49528" lon="1.46806">
        <ele>133.67306519</ele>
        <time>2018-09-09T10:03:04Z</time>
      </trkpt>
      <trkpt lat="43.4953" lon="1.46803">
        <ele>132.05949402</ele>
        <time>2018-09-09T10:03:05Z</time>
      </trkpt>
      <trkpt lat="43.4954" lon="1.46794">
        <ele>132.05949402</ele>
        <time>2018-09-09T10:03:06Z</time>
      </trkpt>
      <trkpt lat="43.49551" lon="1.4678">
        <ele>131.06349182</ele>
        <time>2018-09-09T10:03:08Z</time>
      </trkpt>
      <trkpt lat="43.49562" lon="1.46765">
        <ele>131.06349182</ele>
        <time>2018-09-09T10:03:10Z</time>
      </trkpt>
      <trkpt lat="43.49572" lon="1.46751">
        <ele>129.90684509</ele>
        <time>2018-09-09T10:03:12Z</time>
      </trkpt>
      <trkpt lat="43.49582" lon="1.46739">
        <ele>129.90684509</ele>
        <time>2018-09-09T10:03:14Z</time>
      </trkpt>
      <trkpt lat="43.49593" lon="1.4673">
        <ele>129.90684509</ele>
        <time>2018-09-09T10:03:16Z</time>
      </trkpt>
      <trkpt lat="43.49605" lon="1.46723">
        <ele>128.88244629</ele>
        <time>2018-09-09T10:03:18Z</time>
      </trkpt>
      <trkpt lat="43.49619" lon="1.46713">
        <ele>128.88244629</ele>
        <time>2018-09-09T10:03:20Z</time>
      </trkpt>
      <trkpt lat="43.49631" lon="1.46701">
        <ele>127.74591064</ele>
        <time>2018-09-09T10:03:22Z</time>
      </trkpt>
      <trkpt lat="43.49644" lon="1.46692">
        <ele>126.30063629</ele>
        <time>2018-09-09T10:03:24Z</time>
      </trkpt>
      <trkpt lat="43.49658" lon="1.46685">
        <ele>125.0962677</ele>
        <time>2018-09-09T10:03:26Z</time>
      </trkpt>
      <trkpt lat="43.49672" lon="1.46678">
        <ele>124.01670837</ele>
        <time>2018-09-09T10:03:29Z</time>
      </trkpt>
      <trkpt lat="43.49685" lon="1.46669">
        <ele>122.92987061</ele>
        <time>2018-09-09T10:03:30Z</time>
      </trkpt>
      <trkpt lat="43.49699" lon="1.46657">
        <ele>122.92987061</ele>
        <time>2018-09-09T10:03:32Z</time>
      </trkpt>
      <trkpt lat="43.4971" lon="1.46648">
        <ele>121.71021271</ele>
        <time>2018-09-09T10:03:34Z</time>
      </trkpt>
      <trkpt lat="43.49722" lon="1.46634">
        <ele>120.42973328</ele>
        <time>2018-09-09T10:03:36Z</time>
      </trkpt>
      <trkpt lat="43.49734" lon="1.46621">
        <ele>119.38320923</ele>
        <time>2018-09-09T10:03:38Z</time>
      </trkpt>
      <trkpt lat="43.49747" lon="1.46607">
        <ele>118.15735626</ele>
        <time>2018-09-09T10:03:40Z</time>
      </trkpt>
      <trkpt lat="43.4976" lon="1.46595">
        <ele>118.15735626</ele>
        <time>2018-09-09T10:03:42Z</time>
      </trkpt>
      <trkpt lat="43.49773" lon="1.46583">
        <ele>116.88232422</ele>
        <time>2018-09-09T10:03:45Z</time>
      </trkpt>
      <trkpt lat="43.49785" lon="1.46571">
        <ele>116.88232422</ele>
        <time>2018-09-09T10:03:47Z</time>
      </trkpt>
      <trkpt lat="43.49793" lon="1.4656">
        <ele>115.89833069</ele>
        <time>2018-09-09T10:03:52Z</time>
      </trkpt>
      <trkpt lat="43.49799" lon="1.46552">
        <ele>114.81414795</ele>
        <time>2018-09-09T10:04:02Z</time>
      </trkpt>
      <trkpt lat="43.49813" lon="1.46542">
        <ele>114.81414795</ele>
        <time>2018-09-09T10:04:04Z</time>
      </trkpt>
      <trkpt lat="43.49817" lon="1.46539">
        <ele>114.08805847</ele>
        <time>2018-09-09T10:04:05Z</time>
      </trkpt>
      <trkpt lat="43.49823" lon="1.46533">
        <ele>114.08805847</ele>
        <time>2018-09-09T10:04:07Z</time>
      </trkpt>
      <trkpt lat="43.49831" lon="1.46521">
        <ele>114.08805847</ele>
        <time>2018-09-09T10:04:11Z</time>
      </trkpt>
      <trkpt lat="43.49838" lon="1.46512">
        <ele>114.08805847</ele>
        <time>2018-09-09T10:04:19Z</time>
      </trkpt>
      <trkpt lat="43.49851" lon="1.46513">
        <ele>114.08805847</ele>
        <time>2018-09-09T10:04:24Z</time>
      </trkpt>
      <trkpt lat="43.49864" lon="1.46511">
        <ele>114.01579285</ele>
        <time>2018-09-09T10:04:28Z</time>
      </trkpt>
      <trkpt lat="43.49875" lon="1.46503">
        <ele>114.01579285</ele>
        <time>2018-09-09T10:04:34Z</time>
      </trkpt>
      <trkpt lat="43.49888" lon="1.46498">
        <ele>114.01579285</ele>
        <time>2018-09-09T10:04:38Z</time>
      </trkpt>
      <trkpt lat="43.499" lon="1.46496">
        <ele>115.37016296</ele>
        <time>2018-09-09T10:04:42Z</time>
      </trkpt>
      <trkpt lat="43.49913" lon="1.46493">
        <ele>116.76278687</ele>
        <time>2018-09-09T10:04:45Z</time>
      </trkpt>
      <trkpt lat="43.49925" lon="1.46491">
        <ele>119.3636322</ele>
        <time>2018-09-09T10:04:49Z</time>
      </trkpt>
      <trkpt lat="43.49936" lon="1.46489">
        <ele>120.48874664</ele>
        <time>2018-09-09T10:04:51Z</time>
      </trkpt>
      <trkpt lat="43.49948" lon="1.46488">
        <ele>123.0148468</ele>
        <time>2018-09-09T10:04:55Z</time>
      </trkpt>
      <trkpt lat="43.4996" lon="1.46486">
        <ele>125.28990173</ele>
        <time>2018-09-09T10:04:58Z</time>
      </trkpt>
      <trkpt lat="43.49971" lon="1.46485">
        <ele>126.47749329</ele>
        <time>2018-09-09T10:05:01Z</time>
      </trkpt>
      <trkpt lat="43.49981" lon="1.46484">
        <ele>128.89126587</ele>
        <time>2018-09-09T10:05:04Z</time>
      </trkpt>
      <trkpt lat="43.49984" lon="1.46484">
        <ele>129.76513672</ele>
        <time>2018-09-09T10:05:05Z</time>
      </trkpt>
      <trkpt lat="43.49992" lon="1.46482">
        <ele>130.69458008</ele>
        <time>2018-09-09T10:05:08Z</time>
      </trkpt>
      <trkpt lat="43.50002" lon="1.46482">
        <ele>133.09635925</ele>
        <time>2018-09-09T10:05:12Z</time>
      </trkpt>
      <trkpt lat="43.50013" lon="1.46484">
        <ele>135.50657654</ele>
        <time>2018-09-09T10:05:15Z</time>
      </trkpt>
      <trkpt lat="43.50025" lon="1.46487">
        <ele>137.81365967</ele>
        <time>2018-09-09T10:05:19Z</time>
      </trkpt>
      <trkpt lat="43.50037" lon="1.4649">
        <ele>139.05688477</ele>
        <time>2018-09-09T10:05:23Z</time>
      </trkpt>
      <trkpt lat="43.50048" lon="1.46491">
        <ele>141.47189331</ele>
        <time>2018-09-09T10:05:27Z</time>
      </trkpt>
      <trkpt lat="43.5006" lon="1.46495">
        <ele>143.51571655</ele>
        <time>2018-09-09T10:05:31Z</time>
      </trkpt>
      <trkpt lat="43.5007" lon="1.46498">
        <ele>145.75462341</ele>
        <time>2018-09-09T10:05:38Z</time>
      </trkpt>
      <trkpt lat="43.5008" lon="1.46499">
        <ele>145.75462341</ele>
        <time>2018-09-09T10:05:45Z</time>
      </trkpt>
      <trkpt lat="43.50089" lon="1.46509">
        <ele>146.86856079</ele>
        <time>2018-09-09T10:05:50Z</time>
      </trkpt>
      <trkpt lat="43.50092" lon="1.46521">
        <ele>146.86856079</ele>
        <time>2018-09-09T10:05:53Z</time>
      </trkpt>
      <trkpt lat="43.50093" lon="1.46532">
        <ele>146.86856079</ele>
        <time>2018-09-09T10:05:56Z</time>
      </trkpt>
      <trkpt lat="43.50094" lon="1.46543">
        <ele>147.72445679</ele>
        <time>2018-09-09T10:05:59Z</time>
      </trkpt>
      <trkpt lat="43.50095" lon="1.46554">
        <ele>147.72445679</ele>
        <time>2018-09-09T10:06:02Z</time>
      </trkpt>
      <trkpt lat="43.50097" lon="1.46565">
        <ele>149.56596375</ele>
        <time>2018-09-09T10:06:05Z</time>
      </trkpt>
      <trkpt lat="43.50102" lon="1.46575">
        <ele>149.56596375</ele>
        <time>2018-09-09T10:06:08Z</time>
      </trkpt>
      <trkpt lat="43.50108" lon="1.46587">
        <ele>150.2469635</ele>
        <time>2018-09-09T10:06:12Z</time>
      </trkpt>
      <trkpt lat="43.50113" lon="1.466">
        <ele>151.37266541</ele>
        <time>2018-09-09T10:06:15Z</time>
      </trkpt>
      <trkpt lat="43.50119" lon="1.46611">
        <ele>152.54653931</ele>
        <time>2018-09-09T10:06:20Z</time>
      </trkpt>
      <trkpt lat="43.50125" lon="1.46623">
        <ele>152.54653931</ele>
        <time>2018-09-09T10:06:23Z</time>
      </trkpt>
      <trkpt lat="43.50132" lon="1.46636">
        <ele>153.68119812</ele>
        <time>2018-09-09T10:06:27Z</time>
      </trkpt>
      <trkpt lat="43.50135" lon="1.46648">
        <ele>154.68939209</ele>
        <time>2018-09-09T10:06:30Z</time>
      </trkpt>
      <trkpt lat="43.50137" lon="1.46658">
        <ele>154.68939209</ele>
        <time>2018-09-09T10:06:33Z</time>
      </trkpt>
      <trkpt lat="43.50137" lon="1.46669">
        <ele>154.68939209</ele>
        <time>2018-09-09T10:06:36Z</time>
      </trkpt>
      <trkpt lat="43.50136" lon="1.4668">
        <ele>155.74650574</ele>
        <time>2018-09-09T10:06:39Z</time>
      </trkpt>
      <trkpt lat="43.50132" lon="1.46693">
        <ele>155.74650574</ele>
        <time>2018-09-09T10:06:44Z</time>
      </trkpt>
      <trkpt lat="43.50128" lon="1.46706">
        <ele>155.74650574</ele>
        <time>2018-09-09T10:06:46Z</time>
      </trkpt>
      <trkpt lat="43.50124" lon="1.46718">
        <ele>155.74650574</ele>
        <time>2018-09-09T10:06:49Z</time>
      </trkpt>
      <trkpt lat="43.50122" lon="1.46729">
        <ele>155.74650574</ele>
        <time>2018-09-09T10:06:52Z</time>
      </trkpt>
      <trkpt lat="43.5012" lon="1.46742">
        <ele>155.74650574</ele>
        <time>2018-09-09T10:06:55Z</time>
      </trkpt>
      <trkpt lat="43.50118" lon="1.46754">
        <ele>155.74650574</ele>
        <time>2018-09-09T10:06:57Z</time>
      </trkpt>
      <trkpt lat="43.50118" lon="1.46766">
        <ele>155.74650574</ele>
        <time>2018-09-09T10:06:59Z</time>
      </trkpt>
      <trkpt lat="43.50118" lon="1.46778">
        <ele>155.74650574</ele>
        <time>2018-09-09T10:07:02Z</time>
      </trkpt>
      <trkpt lat="43.50119" lon="1.46793">
        <ele>155.74650574</ele>
        <time>2018-09-09T10:07:03Z</time>
      </trkpt>
      <trkpt lat="43.50119" lon="1.46803">
        <ele>154.93812561</ele>
        <time>2018-09-09T10:07:05Z</time>
      </trkpt>
      <trkpt lat="43.50124" lon="1.46813">
        <ele>154.93812561</ele>
        <time>2018-09-09T10:07:06Z</time>
      </trkpt>
      <trkpt lat="43.50131" lon="1.46826">
        <ele>154.93812561</ele>
        <time>2018-09-09T10:07:08Z</time>
      </trkpt>
      <trkpt lat="43.50137" lon="1.46837">
        <ele>154.93812561</ele>
        <time>2018-09-09T10:07:10Z</time>
      </trkpt>
      <trkpt lat="43.50143" lon="1.46847">
        <ele>154.93812561</ele>
        <time>2018-09-09T10:07:12Z</time>
      </trkpt>
      <trkpt lat="43.50148" lon="1.46857">
        <ele>154.25489807</ele>
        <time>2018-09-09T10:07:15Z</time>
      </trkpt>
      <trkpt lat="43.50156" lon="1.4687">
        <ele>154.25489807</ele>
        <time>2018-09-09T10:07:17Z</time>
      </trkpt>
      <trkpt lat="43.50166" lon="1.46883">
        <ele>154.25489807</ele>
        <time>2018-09-09T10:07:21Z</time>
      </trkpt>
      <trkpt lat="43.50177" lon="1.46896">
        <ele>154.25489807</ele>
        <time>2018-09-09T10:07:23Z</time>
      </trkpt>
      <trkpt lat="43.50188" lon="1.46907">
        <ele>154.25489807</ele>
        <time>2018-09-09T10:07:26Z</time>
      </trkpt>
      <trkpt lat="43.50198" lon="1.46919">
        <ele>154.25489807</ele>
        <time>2018-09-09T10:07:29Z</time>
      </trkpt>
      <trkpt lat="43.50205" lon="1.46929">
        <ele>154.10508728</ele>
        <time>2018-09-09T10:07:32Z</time>
      </trkpt>
      <trkpt lat="43.50214" lon="1.4694">
        <ele>154.10508728</ele>
        <time>2018-09-09T10:07:35Z</time>
      </trkpt>
      <trkpt lat="43.50224" lon="1.46955">
        <ele>154.10508728</ele>
        <time>2018-09-09T10:07:38Z</time>
      </trkpt>
      <trkpt lat="43.5023" lon="1.4697">
        <ele>154.10508728</ele>
        <time>2018-09-09T10:07:40Z</time>
      </trkpt>
      <trkpt lat="43.50235" lon="1.46984">
        <ele>154.10508728</ele>
        <time>2018-09-09T10:07:42Z</time>
      </trkpt>
      <trkpt lat="43.50238" lon="1.46998">
        <ele>154.80763245</ele>
        <time>2018-09-09T10:07:45Z</time>
      </trkpt>
      <trkpt lat="43.50243" lon="1.47013">
        <ele>154.80763245</ele>
        <time>2018-09-09T10:07:46Z</time>
      </trkpt>
      <trkpt lat="43.50246" lon="1.47027">
        <ele>154.80763245</ele>
        <time>2018-09-09T10:07:48Z</time>
      </trkpt>
      <trkpt lat="43.50251" lon="1.4704">
        <ele>153.43360901</ele>
        <time>2018-09-09T10:07:50Z</time>
      </trkpt>
      <trkpt lat="43.50259" lon="1.47053">
        <ele>153.43360901</ele>
        <time>2018-09-09T10:07:52Z</time>
      </trkpt>
      <trkpt lat="43.50267" lon="1.47066">
        <ele>153.43360901</ele>
        <time>2018-09-09T10:07:54Z</time>
      </trkpt>
      <trkpt lat="43.50275" lon="1.47079">
        <ele>153.43360901</ele>
        <time>2018-09-09T10:07:56Z</time>
      </trkpt>
      <trkpt lat="43.50282" lon="1.47091">
        <ele>153.43360901</ele>
        <time>2018-09-09T10:07:58Z</time>
      </trkpt>
      <trkpt lat="43.50289" lon="1.47102">
        <ele>153.43360901</ele>
        <time>2018-09-09T10:08:00Z</time>
      </trkpt>
      <trkpt lat="43.50296" lon="1.47113">
        <ele>153.43360901</ele>
        <time>2018-09-09T10:08:02Z</time>
      </trkpt>
      <trkpt lat="43.50303" lon="1.47125">
        <ele>153.43360901</ele>
        <time>2018-09-09T10:08:04Z</time>
      </trkpt>
      <trkpt lat="43.50304" lon="1.47128">
        <ele>154.16752625</ele>
        <time>2018-09-09T10:08:05Z</time>
      </trkpt>
      <trkpt lat="43.50308" lon="1.47138">
        <ele>154.16752625</ele>
        <time>2018-09-09T10:08:06Z</time>
      </trkpt>
      <trkpt lat="43.50309" lon="1.47154">
        <ele>154.92300415</ele>
        <time>2018-09-09T10:08:08Z</time>
      </trkpt>
      <trkpt lat="43.50306" lon="1.47169">
        <ele>154.92300415</ele>
        <time>2018-09-09T10:08:10Z</time>
      </trkpt>
      <trkpt lat="43.50299" lon="1.47198">
        <ele>154.92300415</ele>
        <time>2018-09-09T10:08:14Z</time>
      </trkpt>
      <trkpt lat="43.50295" lon="1.47212">
        <ele>157.33164978</ele>
        <time>2018-09-09T10:08:16Z</time>
      </trkpt>
      <trkpt lat="43.50291" lon="1.47225">
        <ele>158.57337952</ele>
        <time>2018-09-09T10:08:19Z</time>
      </trkpt>
      <trkpt lat="43.50287" lon="1.47237">
        <ele>159.79771423</ele>
        <time>2018-09-09T10:08:21Z</time>
      </trkpt>
      <trkpt lat="43.50284" lon="1.4725">
        <ele>159.79771423</ele>
        <time>2018-09-09T10:08:23Z</time>
      </trkpt>
      <trkpt lat="43.50282" lon="1.47262">
        <ele>160.9331665</ele>
        <time>2018-09-09T10:08:24Z</time>
      </trkpt>
      <trkpt lat="43.50281" lon="1.47274">
        <ele>162.10179138</ele>
        <time>2018-09-09T10:08:27Z</time>
      </trkpt>
      <trkpt lat="43.50289" lon="1.47285">
        <ele>163.18301392</ele>
        <time>2018-09-09T10:08:31Z</time>
      </trkpt>
      <trkpt lat="43.50301" lon="1.47295">
        <ele>164.22434998</ele>
        <time>2018-09-09T10:08:35Z</time>
      </trkpt>
      <trkpt lat="43.50312" lon="1.47305">
        <ele>165.36489868</ele>
        <time>2018-09-09T10:08:39Z</time>
      </trkpt>
      <trkpt lat="43.50325" lon="1.47315">
        <ele>166.53842163</ele>
        <time>2018-09-09T10:08:43Z</time>
      </trkpt>
      <trkpt lat="43.50335" lon="1.47322">
        <ele>167.62837219</ele>
        <time>2018-09-09T10:08:48Z</time>
      </trkpt>
      <trkpt lat="43.50348" lon="1.47333">
        <ele>167.62837219</ele>
        <time>2018-09-09T10:08:51Z</time>
      </trkpt>
      <trkpt lat="43.50361" lon="1.47345">
        <ele>167.4393158</ele>
        <time>2018-09-09T10:08:54Z</time>
      </trkpt>
      <trkpt lat="43.50373" lon="1.47357">
        <ele>166.05952454</ele>
        <time>2018-09-09T10:08:56Z</time>
      </trkpt>
      <trkpt lat="43.50384" lon="1.47369">
        <ele>166.05952454</ele>
        <time>2018-09-09T10:08:59Z</time>
      </trkpt>
      <trkpt lat="43.50397" lon="1.47382">
        <ele>166.05952454</ele>
        <time>2018-09-09T10:09:02Z</time>
      </trkpt>
      <trkpt lat="43.50408" lon="1.47391">
        <ele>165.17918396</ele>
        <time>2018-09-09T10:09:05Z</time>
      </trkpt>
      <trkpt lat="43.5042" lon="1.47401">
        <ele>165.17918396</ele>
        <time>2018-09-09T10:09:07Z</time>
      </trkpt>
      <trkpt lat="43.50433" lon="1.47413">
        <ele>166.22697449</ele>
        <time>2018-09-09T10:09:11Z</time>
      </trkpt>
      <trkpt lat="43.50445" lon="1.47424">
        <ele>167.64924622</ele>
        <time>2018-09-09T10:09:13Z</time>
      </trkpt>
      <trkpt lat="43.50456" lon="1.47434">
        <ele>168.92831421</ele>
        <time>2018-09-09T10:09:16Z</time>
      </trkpt>
      <trkpt lat="43.50467" lon="1.47444">
        <ele>171.25971985</ele>
        <time>2018-09-09T10:09:19Z</time>
      </trkpt>
      <trkpt lat="43.50478" lon="1.47453">
        <ele>172.28540039</ele>
        <time>2018-09-09T10:09:23Z</time>
      </trkpt>
      <trkpt lat="43.50489" lon="1.47456">
        <ele>172.28540039</ele>
        <time>2018-09-09T10:09:27Z</time>
      </trkpt>
      <trkpt lat="43.50501" lon="1.47458">
        <ele>172.28540039</ele>
        <time>2018-09-09T10:09:30Z</time>
      </trkpt>
      <trkpt lat="43.50514" lon="1.4746">
        <ele>172.28540039</ele>
        <time>2018-09-09T10:09:33Z</time>
      </trkpt>
      <trkpt lat="43.50528" lon="1.47466">
        <ele>172.65959167</ele>
        <time>2018-09-09T10:09:36Z</time>
      </trkpt>
      <trkpt lat="43.50542" lon="1.47471">
        <ele>172.65959167</ele>
        <time>2018-09-09T10:09:39Z</time>
      </trkpt>
      <trkpt lat="43.50555" lon="1.47478">
        <ele>172.65959167</ele>
        <time>2018-09-09T10:09:43Z</time>
      </trkpt>
      <trkpt lat="43.50569" lon="1.47486">
        <ele>172.65959167</ele>
        <time>2018-09-09T10:09:45Z</time>
      </trkpt>
      <trkpt lat="43.50581" lon="1.47491">
        <ele>172.65959167</ele>
        <time>2018-09-09T10:09:48Z</time>
      </trkpt>
      <trkpt lat="43.50593" lon="1.47496">
        <ele>172.65959167</ele>
        <time>2018-09-09T10:09:51Z</time>
      </trkpt>
      <trkpt lat="43.50606" lon="1.475">
        <ele>171.71972656</ele>
        <time>2018-09-09T10:09:54Z</time>
      </trkpt>
      <trkpt lat="43.50618" lon="1.47505">
        <ele>171.71972656</ele>
        <time>2018-09-09T10:09:57Z</time>
      </trkpt>
      <trkpt lat="43.50631" lon="1.47505">
        <ele>173.31433105</ele>
        <time>2018-09-09T10:10:00Z</time>
      </trkpt>
      <trkpt lat="43.50644" lon="1.47501">
        <ele>174.43016052</ele>
        <time>2018-09-09T10:10:03Z</time>
      </trkpt>
      <trkpt lat="43.50651" lon="1.47498">
        <ele>175.36795044</ele>
        <time>2018-09-09T10:10:05Z</time>
      </trkpt>
      <trkpt lat="43.50659" lon="1.47493">
        <ele>176.46217346</ele>
        <time>2018-09-09T10:10:08Z</time>
      </trkpt>
      <trkpt lat="43.50669" lon="1.47487">
        <ele>177.56774902</ele>
        <time>2018-09-09T10:10:15Z</time>
      </trkpt>
      <trkpt lat="43.50683" lon="1.47478">
        <ele>178.64031982</ele>
        <time>2018-09-09T10:10:18Z</time>
      </trkpt>
      <trkpt lat="43.50694" lon="1.47472">
        <ele>179.86808777</ele>
        <time>2018-09-09T10:10:21Z</time>
      </trkpt>
      <trkpt lat="43.50705" lon="1.47466">
        <ele>181.08581543</ele>
        <time>2018-09-09T10:10:24Z</time>
      </trkpt>
      <trkpt lat="43.50716" lon="1.4746">
        <ele>183.23724365</ele>
        <time>2018-09-09T10:10:27Z</time>
      </trkpt>
      <trkpt lat="43.50726" lon="1.47453">
        <ele>184.34191895</ele>
        <time>2018-09-09T10:10:30Z</time>
      </trkpt>
      <trkpt lat="43.50738" lon="1.47445">
        <ele>185.55796814</ele>
        <time>2018-09-09T10:10:34Z</time>
      </trkpt>
      <trkpt lat="43.50749" lon="1.47435">
        <ele>186.79147339</ele>
        <time>2018-09-09T10:10:38Z</time>
      </trkpt>
      <trkpt lat="43.50761" lon="1.47411">
        <ele>188.78572083</ele>
        <time>2018-09-09T10:10:46Z</time>
      </trkpt>
      <trkpt lat="43.50768" lon="1.474">
        <ele>188.78572083</ele>
        <time>2018-09-09T10:10:51Z</time>
      </trkpt>
      <trkpt lat="43.50778" lon="1.4739">
        <ele>188.78572083</ele>
        <time>2018-09-09T10:10:59Z</time>
      </trkpt>
      <trkpt lat="43.50788" lon="1.474">
        <ele>188.78572083</ele>
        <time>2018-09-09T10:11:03Z</time>
      </trkpt>
      <trkpt lat="43.50794" lon="1.47408">
        <ele>189.57389832</ele>
        <time>2018-09-09T10:11:05Z</time>
      </trkpt>
      <trkpt lat="43.50802" lon="1.4741">
        <ele>189.57389832</ele>
        <time>2018-09-09T10:11:07Z</time>
      </trkpt>
      <trkpt lat="43.50814" lon="1.47416">
        <ele>189.57389832</ele>
        <time>2018-09-09T10:11:10Z</time>
      </trkpt>
      <trkpt lat="43.50827" lon="1.47421">
        <ele>189.57389832</ele>
        <time>2018-09-09T10:11:13Z</time>
      </trkpt>
      <trkpt lat="43.5084" lon="1.47426">
        <ele>189.57389832</ele>
        <time>2018-09-09T10:11:16Z</time>
      </trkpt>
      <trkpt lat="43.50854" lon="1.4743">
        <ele>189.57389832</ele>
        <time>2018-09-09T10:11:19Z</time>
      </trkpt>
      <trkpt lat="43.50867" lon="1.47433">
        <ele>189.89161682</ele>
        <time>2018-09-09T10:11:22Z</time>
      </trkpt>
      <trkpt lat="43.50881" lon="1.47435">
        <ele>189.89161682</ele>
        <time>2018-09-09T10:11:25Z</time>
      </trkpt>
      <trkpt lat="43.50893" lon="1.47436">
        <ele>189.89161682</ele>
        <time>2018-09-09T10:11:27Z</time>
      </trkpt>
      <trkpt lat="43.50905" lon="1.47437">
        <ele>189.89161682</ele>
        <time>2018-09-09T10:11:30Z</time>
      </trkpt>
      <trkpt lat="43.50917" lon="1.4744">
        <ele>191.15435791</ele>
        <time>2018-09-09T10:11:32Z</time>
      </trkpt>
      <trkpt lat="43.50924" lon="1.47449">
        <ele>191.15435791</ele>
        <time>2018-09-09T10:11:35Z</time>
      </trkpt>
      <trkpt lat="43.50921" lon="1.4746">
        <ele>192.13258362</ele>
        <time>2018-09-09T10:11:38Z</time>
      </trkpt>
      <trkpt lat="43.50901" lon="1.47485">
        <ele>192.13258362</ele>
        <time>2018-09-09T10:11:44Z</time>
      </trkpt>
      <trkpt lat="43.50893" lon="1.47498">
        <ele>193.20794678</ele>
        <time>2018-09-09T10:11:47Z</time>
      </trkpt>
      <trkpt lat="43.50884" lon="1.47512">
        <ele>193.20794678</ele>
        <time>2018-09-09T10:11:50Z</time>
      </trkpt>
      <trkpt lat="43.50877" lon="1.47525">
        <ele>193.20794678</ele>
        <time>2018-09-09T10:11:52Z</time>
      </trkpt>
      <trkpt lat="43.50871" lon="1.47536">
        <ele>193.20794678</ele>
        <time>2018-09-09T10:11:54Z</time>
      </trkpt>
      <trkpt lat="43.50866" lon="1.47547">
        <ele>193.20794678</ele>
        <time>2018-09-09T10:11:56Z</time>
      </trkpt>
      <trkpt lat="43.50861" lon="1.47557">
        <ele>193.20794678</ele>
        <time>2018-09-09T10:11:58Z</time>
      </trkpt>
      <trkpt lat="43.50856" lon="1.47569">
        <ele>194.52755737</ele>
        <time>2018-09-09T10:12:01Z</time>
      </trkpt>
      <trkpt lat="43.50847" lon="1.47584">
        <ele>194.52755737</ele>
        <time>2018-09-09T10:12:04Z</time>
      </trkpt>
      <trkpt lat="43.50844" lon="1.47589">
        <ele>195.3266449</ele>
        <time>2018-09-09T10:12:05Z</time>
      </trkpt>
      <trkpt lat="43.50839" lon="1.47596">
        <ele>195.3266449</ele>
        <time>2018-09-09T10:12:06Z</time>
      </trkpt>
      <trkpt lat="43.50834" lon="1.47606">
        <ele>195.3266449</ele>
        <time>2018-09-09T10:12:08Z</time>
      </trkpt>
      <trkpt lat="43.50827" lon="1.47617">
        <ele>195.3266449</ele>
        <time>2018-09-09T10:12:10Z</time>
      </trkpt>
      <trkpt lat="43.50819" lon="1.47628">
        <ele>195.3266449</ele>
        <time>2018-09-09T10:12:12Z</time>
      </trkpt>
      <trkpt lat="43.5081" lon="1.47639">
        <ele>195.3266449</ele>
        <time>2018-09-09T10:12:15Z</time>
      </trkpt>
      <trkpt lat="43.50798" lon="1.4765">
        <ele>195.3266449</ele>
        <time>2018-09-09T10:12:18Z</time>
      </trkpt>
      <trkpt lat="43.50788" lon="1.47664">
        <ele>195.3266449</ele>
        <time>2018-09-09T10:12:21Z</time>
      </trkpt>
      <trkpt lat="43.50775" lon="1.47678">
        <ele>195.3266449</ele>
        <time>2018-09-09T10:12:24Z</time>
      </trkpt>
      <trkpt lat="43.5076" lon="1.47692">
        <ele>195.45535278</ele>
        <time>2018-09-09T10:12:27Z</time>
      </trkpt>
      <trkpt lat="43.50749" lon="1.47706">
        <ele>195.45535278</ele>
        <time>2018-09-09T10:12:29Z</time>
      </trkpt>
      <trkpt lat="43.50737" lon="1.47717">
        <ele>193.67175293</ele>
        <time>2018-09-09T10:12:32Z</time>
      </trkpt>
      <trkpt lat="43.50726" lon="1.47731">
        <ele>193.67175293</ele>
        <time>2018-09-09T10:12:34Z</time>
      </trkpt>
      <trkpt lat="43.50717" lon="1.47743">
        <ele>193.67175293</ele>
        <time>2018-09-09T10:12:36Z</time>
      </trkpt>
      <trkpt lat="43.50707" lon="1.47753">
        <ele>193.67175293</ele>
        <time>2018-09-09T10:12:39Z</time>
      </trkpt>
      <trkpt lat="43.50698" lon="1.47764">
        <ele>192.67614746</ele>
        <time>2018-09-09T10:12:40Z</time>
      </trkpt>
      <trkpt lat="43.50688" lon="1.47776">
        <ele>192.67614746</ele>
        <time>2018-09-09T10:12:42Z</time>
      </trkpt>
      <trkpt lat="43.50679" lon="1.47787">
        <ele>192.67614746</ele>
        <time>2018-09-09T10:12:44Z</time>
      </trkpt>
      <trkpt lat="43.50667" lon="1.478">
        <ele>191.70027161</ele>
        <time>2018-09-09T10:12:47Z</time>
      </trkpt>
      <trkpt lat="43.50653" lon="1.47815">
        <ele>191.70027161</ele>
        <time>2018-09-09T10:12:50Z</time>
      </trkpt>
      <trkpt lat="43.50641" lon="1.47827">
        <ele>191.70027161</ele>
        <time>2018-09-09T10:12:52Z</time>
      </trkpt>
      <trkpt lat="43.50628" lon="1.47839">
        <ele>190.49751282</ele>
        <time>2018-09-09T10:12:55Z</time>
      </trkpt>
      <trkpt lat="43.50613" lon="1.47853">
        <ele>190.49751282</ele>
        <time>2018-09-09T10:12:58Z</time>
      </trkpt>
      <trkpt lat="43.50601" lon="1.47868">
        <ele>190.49751282</ele>
        <time>2018-09-09T10:13:00Z</time>
      </trkpt>
      <trkpt lat="43.50591" lon="1.47878">
        <ele>190.49751282</ele>
        <time>2018-09-09T10:13:02Z</time>
      </trkpt>
      <trkpt lat="43.50583" lon="1.47885">
        <ele>189.64318848</ele>
        <time>2018-09-09T10:13:05Z</time>
      </trkpt>
      <trkpt lat="43.50573" lon="1.47893">
        <ele>189.64318848</ele>
        <time>2018-09-09T10:13:07Z</time>
      </trkpt>
      <trkpt lat="43.50561" lon="1.47903">
        <ele>189.64318848</ele>
        <time>2018-09-09T10:13:11Z</time>
      </trkpt>
      <trkpt lat="43.50549" lon="1.47915">
        <ele>190.2260437</ele>
        <time>2018-09-09T10:13:13Z</time>
      </trkpt>
      <trkpt lat="43.50537" lon="1.47926">
        <ele>190.2260437</ele>
        <time>2018-09-09T10:13:17Z</time>
      </trkpt>
      <trkpt lat="43.50525" lon="1.47938">
        <ele>190.2260437</ele>
        <time>2018-09-09T10:13:19Z</time>
      </trkpt>
      <trkpt lat="43.50514" lon="1.47951">
        <ele>190.2260437</ele>
        <time>2018-09-09T10:13:22Z</time>
      </trkpt>
      <trkpt lat="43.50504" lon="1.47968">
        <ele>191.3573761</ele>
        <time>2018-09-09T10:13:24Z</time>
      </trkpt>
      <trkpt lat="43.50496" lon="1.47984">
        <ele>191.3573761</ele>
        <time>2018-09-09T10:13:26Z</time>
      </trkpt>
      <trkpt lat="43.50486" lon="1.48001">
        <ele>191.3573761</ele>
        <time>2018-09-09T10:13:28Z</time>
      </trkpt>
      <trkpt lat="43.50475" lon="1.48018">
        <ele>191.3573761</ele>
        <time>2018-09-09T10:13:30Z</time>
      </trkpt>
      <trkpt lat="43.50467" lon="1.48031">
        <ele>191.3573761</ele>
        <time>2018-09-09T10:13:32Z</time>
      </trkpt>
      <trkpt lat="43.50459" lon="1.48045">
        <ele>191.3573761</ele>
        <time>2018-09-09T10:13:34Z</time>
      </trkpt>
      <trkpt lat="43.50455" lon="1.48057">
        <ele>192.21325684</ele>
        <time>2018-09-09T10:13:36Z</time>
      </trkpt>
      <trkpt lat="43.50451" lon="1.48069">
        <ele>192.21325684</ele>
        <time>2018-09-09T10:13:39Z</time>
      </trkpt>
      <trkpt lat="43.50447" lon="1.48082">
        <ele>192.21325684</ele>
        <time>2018-09-09T10:13:41Z</time>
      </trkpt>
      <trkpt lat="43.50445" lon="1.48092">
        <ele>192.21325684</ele>
        <time>2018-09-09T10:13:43Z</time>
      </trkpt>
      <trkpt lat="43.50442" lon="1.48104">
        <ele>192.21325684</ele>
        <time>2018-09-09T10:13:45Z</time>
      </trkpt>
      <trkpt lat="43.5044" lon="1.48115">
        <ele>192.21325684</ele>
        <time>2018-09-09T10:13:47Z</time>
      </trkpt>
      <trkpt lat="43.50436" lon="1.48127">
        <ele>192.21325684</ele>
        <time>2018-09-09T10:13:49Z</time>
      </trkpt>
      <trkpt lat="43.50433" lon="1.48139">
        <ele>192.21325684</ele>
        <time>2018-09-09T10:13:51Z</time>
      </trkpt>
      <trkpt lat="43.5043" lon="1.48151">
        <ele>192.21325684</ele>
        <time>2018-09-09T10:13:53Z</time>
      </trkpt>
      <trkpt lat="43.50426" lon="1.48161">
        <ele>193.36006165</ele>
        <time>2018-09-09T10:13:55Z</time>
      </trkpt>
      <trkpt lat="43.50421" lon="1.48172">
        <ele>193.36006165</ele>
        <time>2018-09-09T10:13:57Z</time>
      </trkpt>
      <trkpt lat="43.50415" lon="1.48184">
        <ele>193.36006165</ele>
        <time>2018-09-09T10:13:59Z</time>
      </trkpt>
      <trkpt lat="43.50409" lon="1.48194">
        <ele>193.36006165</ele>
        <time>2018-09-09T10:14:01Z</time>
      </trkpt>
      <trkpt lat="43.50404" lon="1.48206">
        <ele>194.68765259</ele>
        <time>2018-09-09T10:14:03Z</time>
      </trkpt>
      <trkpt lat="43.50399" lon="1.48213">
        <ele>195.5475769</ele>
        <time>2018-09-09T10:14:05Z</time>
      </trkpt>
      <trkpt lat="43.50395" lon="1.48222">
        <ele>195.5475769</ele>
        <time>2018-09-09T10:14:06Z</time>
      </trkpt>
      <trkpt lat="43.5039" lon="1.48233">
        <ele>195.5475769</ele>
        <time>2018-09-09T10:14:08Z</time>
      </trkpt>
      <trkpt lat="43.50379" lon="1.48255">
        <ele>195.5475769</ele>
        <time>2018-09-09T10:14:12Z</time>
      </trkpt>
      <trkpt lat="43.50373" lon="1.48268">
        <ele>195.5475769</ele>
        <time>2018-09-09T10:14:15Z</time>
      </trkpt>
      <trkpt lat="43.50367" lon="1.48281">
        <ele>195.5475769</ele>
        <time>2018-09-09T10:14:17Z</time>
      </trkpt>
      <trkpt lat="43.50363" lon="1.48292">
        <ele>196.36778259</ele>
        <time>2018-09-09T10:14:20Z</time>
      </trkpt>
      <trkpt lat="43.50359" lon="1.48304">
        <ele>196.36778259</ele>
        <time>2018-09-09T10:14:21Z</time>
      </trkpt>
      <trkpt lat="43.50355" lon="1.48315">
        <ele>196.36778259</ele>
        <time>2018-09-09T10:14:23Z</time>
      </trkpt>
      <trkpt lat="43.50349" lon="1.48328">
        <ele>196.36778259</ele>
        <time>2018-09-09T10:14:26Z</time>
      </trkpt>
      <trkpt lat="43.50344" lon="1.48341">
        <ele>196.36778259</ele>
        <time>2018-09-09T10:14:28Z</time>
      </trkpt>
      <trkpt lat="43.5034" lon="1.48353">
        <ele>196.36778259</ele>
        <time>2018-09-09T10:14:31Z</time>
      </trkpt>
      <trkpt lat="43.50336" lon="1.48366">
        <ele>196.36778259</ele>
        <time>2018-09-09T10:14:34Z</time>
      </trkpt>
      <trkpt lat="43.50332" lon="1.48379">
        <ele>196.36778259</ele>
        <time>2018-09-09T10:14:36Z</time>
      </trkpt>
      <trkpt lat="43.50328" lon="1.48389">
        <ele>196.36778259</ele>
        <time>2018-09-09T10:14:38Z</time>
      </trkpt>
      <trkpt lat="43.50324" lon="1.484">
        <ele>196.36778259</ele>
        <time>2018-09-09T10:14:40Z</time>
      </trkpt>
      <trkpt lat="43.5032" lon="1.48411">
        <ele>196.36778259</ele>
        <time>2018-09-09T10:14:42Z</time>
      </trkpt>
      <trkpt lat="43.50317" lon="1.48423">
        <ele>196.36778259</ele>
        <time>2018-09-09T10:14:45Z</time>
      </trkpt>
      <trkpt lat="43.50315" lon="1.48436">
        <ele>196.36778259</ele>
        <time>2018-09-09T10:14:47Z</time>
      </trkpt>
      <trkpt lat="43.50312" lon="1.48447">
        <ele>196.36778259</ele>
        <time>2018-09-09T10:14:49Z</time>
      </trkpt>
      <trkpt lat="43.50308" lon="1.48457">
        <ele>196.79893494</ele>
        <time>2018-09-09T10:14:51Z</time>
      </trkpt>
      <trkpt lat="43.50303" lon="1.48471">
        <ele>194.73423767</ele>
        <time>2018-09-09T10:14:53Z</time>
      </trkpt>
      <trkpt lat="43.50298" lon="1.48488">
        <ele>193.14181519</ele>
        <time>2018-09-09T10:14:55Z</time>
      </trkpt>
      <trkpt lat="43.50295" lon="1.48505">
        <ele>193.14181519</ele>
        <time>2018-09-09T10:14:57Z</time>
      </trkpt>
      <trkpt lat="43.50292" lon="1.48516">
        <ele>191.80187988</ele>
        <time>2018-09-09T10:15:01Z</time>
      </trkpt>
      <trkpt lat="43.5029" lon="1.48525">
        <ele>191.80187988</ele>
        <time>2018-09-09T10:15:04Z</time>
      </trkpt>
      <trkpt lat="43.50288" lon="1.4853">
        <ele>190.83670044</ele>
        <time>2018-09-09T10:15:05Z</time>
      </trkpt>
      <trkpt lat="43.50288" lon="1.48537">
        <ele>190.83670044</ele>
        <time>2018-09-09T10:15:09Z</time>
      </trkpt>
      <trkpt lat="43.50294" lon="1.48546">
        <ele>191.30526733</ele>
        <time>2018-09-09T10:15:17Z</time>
      </trkpt>
      <trkpt lat="43.50293" lon="1.48552">
        <ele>192.92443848</ele>
        <time>2018-09-09T10:16:07Z</time>
      </trkpt>
      <trkpt lat="43.50294" lon="1.48557">
        <ele>192.22741699</ele>
        <time>2018-09-09T10:16:11Z</time>
      </trkpt>
      <trkpt lat="43.50295" lon="1.48572">
        <ele>192.22741699</ele>
        <time>2018-09-09T10:16:13Z</time>
      </trkpt>
      <trkpt lat="43.50295" lon="1.48585">
        <ele>190.83306885</ele>
        <time>2018-09-09T10:16:15Z</time>
      </trkpt>
      <trkpt lat="43.50295" lon="1.486">
        <ele>189.59899902</ele>
        <time>2018-09-09T10:16:17Z</time>
      </trkpt>
      <trkpt lat="43.50295" lon="1.48619">
        <ele>188.33529663</ele>
        <time>2018-09-09T10:16:19Z</time>
      </trkpt>
      <trkpt lat="43.50295" lon="1.48635">
        <ele>187.06329346</ele>
        <time>2018-09-09T10:16:20Z</time>
      </trkpt>
      <trkpt lat="43.50296" lon="1.48647">
        <ele>187.06329346</ele>
        <time>2018-09-09T10:16:21Z</time>
      </trkpt>
      <trkpt lat="43.50295" lon="1.48669">
        <ele>183.6497345</ele>
        <time>2018-09-09T10:16:23Z</time>
      </trkpt>
      <trkpt lat="43.50294" lon="1.4868">
        <ele>182.61599731</ele>
        <time>2018-09-09T10:16:24Z</time>
      </trkpt>
      <trkpt lat="43.50293" lon="1.48693">
        <ele>182.61599731</ele>
        <time>2018-09-09T10:16:25Z</time>
      </trkpt>
      <trkpt lat="43.50293" lon="1.48705">
        <ele>181.21450806</ele>
        <time>2018-09-09T10:16:26Z</time>
      </trkpt>
      <trkpt lat="43.50294" lon="1.48716">
        <ele>181.21450806</ele>
        <time>2018-09-09T10:16:27Z</time>
      </trkpt>
      <trkpt lat="43.50295" lon="1.48726">
        <ele>179.89477539</ele>
        <time>2018-09-09T10:16:28Z</time>
      </trkpt>
      <trkpt lat="43.503" lon="1.48739">
        <ele>179.89477539</ele>
        <time>2018-09-09T10:16:30Z</time>
      </trkpt>
      <trkpt lat="43.50313" lon="1.48751">
        <ele>178.8263855</ele>
        <time>2018-09-09T10:16:32Z</time>
      </trkpt>
      <trkpt lat="43.50324" lon="1.48761">
        <ele>177.43817139</ele>
        <time>2018-09-09T10:16:35Z</time>
      </trkpt>
      <trkpt lat="43.50339" lon="1.48772">
        <ele>175.70623779</ele>
        <time>2018-09-09T10:16:36Z</time>
      </trkpt>
      <trkpt lat="43.50358" lon="1.48783">
        <ele>174.12695312</ele>
        <time>2018-09-09T10:16:38Z</time>
      </trkpt>
      <trkpt lat="43.50375" lon="1.48796">
        <ele>172.76187134</ele>
        <time>2018-09-09T10:16:41Z</time>
      </trkpt>
      <trkpt lat="43.50388" lon="1.48808">
        <ele>171.09692383</ele>
        <time>2018-09-09T10:16:42Z</time>
      </trkpt>
      <trkpt lat="43.50393" lon="1.48821">
        <ele>168.50669861</ele>
        <time>2018-09-09T10:16:44Z</time>
      </trkpt>
      <trkpt lat="43.50396" lon="1.48836">
        <ele>164.90969849</ele>
        <time>2018-09-09T10:16:47Z</time>
      </trkpt>
      <trkpt lat="43.50407" lon="1.48848">
        <ele>163.60559082</ele>
        <time>2018-09-09T10:16:48Z</time>
      </trkpt>
      <trkpt lat="43.50422" lon="1.48855">
        <ele>160.97538757</ele>
        <time>2018-09-09T10:16:50Z</time>
      </trkpt>
      <trkpt lat="43.50441" lon="1.48861">
        <ele>156.98640442</ele>
        <time>2018-09-09T10:16:53Z</time>
      </trkpt>
      <trkpt lat="43.50459" lon="1.48864">
        <ele>155.30661011</ele>
        <time>2018-09-09T10:16:54Z</time>
      </trkpt>
      <trkpt lat="43.50478" lon="1.48862">
        <ele>152.15705872</ele>
        <time>2018-09-09T10:16:56Z</time>
      </trkpt>
      <trkpt lat="43.50494" lon="1.48861">
        <ele>149.68022156</ele>
        <time>2018-09-09T10:16:58Z</time>
      </trkpt>
      <trkpt lat="43.50509" lon="1.48867">
        <ele>148.4680481</ele>
        <time>2018-09-09T10:17:00Z</time>
      </trkpt>
      <trkpt lat="43.50519" lon="1.48884">
        <ele>146.73483276</ele>
        <time>2018-09-09T10:17:02Z</time>
      </trkpt>
      <trkpt lat="43.50523" lon="1.48903">
        <ele>145.00926208</ele>
        <time>2018-09-09T10:17:03Z</time>
      </trkpt>
      <trkpt lat="43.50527" lon="1.48914">
        <ele>143.67655945</ele>
        <time>2018-09-09T10:17:04Z</time>
      </trkpt>
      <trkpt lat="43.50531" lon="1.48925">
        <ele>142.47399902</ele>
        <time>2018-09-09T10:17:05Z</time>
      </trkpt>
      <trkpt lat="43.50535" lon="1.48935">
        <ele>140.32359314</ele>
        <time>2018-09-09T10:17:07Z</time>
      </trkpt>
      <trkpt lat="43.50546" lon="1.48948">
        <ele>140.32359314</ele>
        <time>2018-09-09T10:17:08Z</time>
      </trkpt>
      <trkpt lat="43.50569" lon="1.48982">
        <ele>135.88150024</ele>
        <time>2018-09-09T10:17:13Z</time>
      </trkpt>
      <trkpt lat="43.50585" lon="1.48988">
        <ele>135.88150024</ele>
        <time>2018-09-09T10:17:15Z</time>
      </trkpt>
      <trkpt lat="43.50602" lon="1.48988">
        <ele>135.88150024</ele>
        <time>2018-09-09T10:17:16Z</time>
      </trkpt>
      <trkpt lat="43.50615" lon="1.48997">
        <ele>135.88150024</ele>
        <time>2018-09-09T10:17:18Z</time>
      </trkpt>
      <trkpt lat="43.50625" lon="1.49007">
        <ele>135.88150024</ele>
        <time>2018-09-09T10:17:21Z</time>
      </trkpt>
      <trkpt lat="43.50634" lon="1.49019">
        <ele>135.88150024</ele>
        <time>2018-09-09T10:17:24Z</time>
      </trkpt>
      <trkpt lat="43.50644" lon="1.4903">
        <ele>135.88150024</ele>
        <time>2018-09-09T10:17:28Z</time>
      </trkpt>
      <trkpt lat="43.50651" lon="1.49043">
        <ele>135.88150024</ele>
        <time>2018-09-09T10:17:30Z</time>
      </trkpt>
      <trkpt lat="43.50656" lon="1.49054">
        <ele>135.88150024</ele>
        <time>2018-09-09T10:17:33Z</time>
      </trkpt>
      <trkpt lat="43.50662" lon="1.49065">
        <ele>135.88150024</ele>
        <time>2018-09-09T10:17:34Z</time>
      </trkpt>
      <trkpt lat="43.50666" lon="1.49076">
        <ele>135.88150024</ele>
        <time>2018-09-09T10:17:36Z</time>
      </trkpt>
      <trkpt lat="43.50671" lon="1.49087">
        <ele>135.88150024</ele>
        <time>2018-09-09T10:17:38Z</time>
      </trkpt>
      <trkpt lat="43.50681" lon="1.49108">
        <ele>135.88150024</ele>
        <time>2018-09-09T10:17:42Z</time>
      </trkpt>
      <trkpt lat="43.50686" lon="1.49119">
        <ele>135.88150024</ele>
        <time>2018-09-09T10:17:44Z</time>
      </trkpt>
      <trkpt lat="43.50694" lon="1.4913">
        <ele>135.88150024</ele>
        <time>2018-09-09T10:17:47Z</time>
      </trkpt>
      <trkpt lat="43.50702" lon="1.49143">
        <ele>135.88150024</ele>
        <time>2018-09-09T10:17:50Z</time>
      </trkpt>
      <trkpt lat="43.50709" lon="1.49154">
        <ele>135.88150024</ele>
        <time>2018-09-09T10:17:51Z</time>
      </trkpt>
      <trkpt lat="43.50717" lon="1.49165">
        <ele>135.88150024</ele>
        <time>2018-09-09T10:17:53Z</time>
      </trkpt>
      <trkpt lat="43.50724" lon="1.49176">
        <ele>135.88150024</ele>
        <time>2018-09-09T10:17:55Z</time>
      </trkpt>
      <trkpt lat="43.50732" lon="1.49187">
        <ele>135.88150024</ele>
        <time>2018-09-09T10:17:57Z</time>
      </trkpt>
      <trkpt lat="43.50739" lon="1.49199">
        <ele>135.88150024</ele>
        <time>2018-09-09T10:17:59Z</time>
      </trkpt>
      <trkpt lat="43.50744" lon="1.49211">
        <ele>135.88150024</ele>
        <time>2018-09-09T10:18:01Z</time>
      </trkpt>
      <trkpt lat="43.5075" lon="1.49225">
        <ele>135.88150024</ele>
        <time>2018-09-09T10:18:03Z</time>
      </trkpt>
      <trkpt lat="43.50754" lon="1.49235">
        <ele>135.36024475</ele>
        <time>2018-09-09T10:18:05Z</time>
      </trkpt>
      <trkpt lat="43.50758" lon="1.49243">
        <ele>135.36024475</ele>
        <time>2018-09-09T10:18:07Z</time>
      </trkpt>
      <trkpt lat="43.50763" lon="1.49254">
        <ele>135.36024475</ele>
        <time>2018-09-09T10:18:09Z</time>
      </trkpt>
      <trkpt lat="43.50769" lon="1.49261">
        <ele>136.42201233</ele>
        <time>2018-09-09T10:18:20Z</time>
      </trkpt>
      <trkpt lat="43.5078" lon="1.49277">
        <ele>136.97845459</ele>
        <time>2018-09-09T10:18:23Z</time>
      </trkpt>
      <trkpt lat="43.50793" lon="1.49285">
        <ele>134.28968811</ele>
        <time>2018-09-09T10:18:25Z</time>
      </trkpt>
      <trkpt lat="43.50803" lon="1.4929">
        <ele>132.71516418</ele>
        <time>2018-09-09T10:18:27Z</time>
      </trkpt>
      <trkpt lat="43.50814" lon="1.49293">
        <ele>131.20275879</ele>
        <time>2018-09-09T10:18:29Z</time>
      </trkpt>
      <trkpt lat="43.50829" lon="1.49292">
        <ele>127.53568268</ele>
        <time>2018-09-09T10:18:32Z</time>
      </trkpt>
      <trkpt lat="43.50844" lon="1.49283">
        <ele>127.53568268</ele>
        <time>2018-09-09T10:18:33Z</time>
      </trkpt>
      <trkpt lat="43.50855" lon="1.49272">
        <ele>126.18153381</ele>
        <time>2018-09-09T10:18:36Z</time>
      </trkpt>
      <trkpt lat="43.50859" lon="1.49276">
        <ele>121.84901428</ele>
        <time>2018-09-09T10:18:41Z</time>
      </trkpt>
      <trkpt lat="43.5086" lon="1.4929">
        <ele>119.97399139</ele>
        <time>2018-09-09T10:18:43Z</time>
      </trkpt>
      <trkpt lat="43.50857" lon="1.49302">
        <ele>119.97399139</ele>
        <time>2018-09-09T10:18:44Z</time>
      </trkpt>
      <trkpt lat="43.50853" lon="1.49315">
        <ele>118.08583069</ele>
        <time>2018-09-09T10:18:46Z</time>
      </trkpt>
      <trkpt lat="43.50851" lon="1.49327">
        <ele>116.26918793</ele>
        <time>2018-09-09T10:18:48Z</time>
      </trkpt>
      <trkpt lat="43.50851" lon="1.49339">
        <ele>112.62237549</ele>
        <time>2018-09-09T10:18:51Z</time>
      </trkpt>
      <trkpt lat="43.50856" lon="1.49351">
        <ele>109.77027893</ele>
        <time>2018-09-09T10:18:55Z</time>
      </trkpt>
      <trkpt lat="43.50856" lon="1.49366">
        <ele>105.41537476</ele>
        <time>2018-09-09T10:18:58Z</time>
      </trkpt>
      <trkpt lat="43.50849" lon="1.49384">
        <ele>102.94915771</ele>
        <time>2018-09-09T10:19:00Z</time>
      </trkpt>
      <trkpt lat="43.50843" lon="1.49398">
        <ele>101.93917084</ele>
        <time>2018-09-09T10:19:02Z</time>
      </trkpt>
      <trkpt lat="43.50831" lon="1.49408">
        <ele>100.71656036</ele>
        <time>2018-09-09T10:19:04Z</time>
      </trkpt>
      <trkpt lat="43.50827" lon="1.4941">
        <ele>100.03321075</ele>
        <time>2018-09-09T10:19:05Z</time>
      </trkpt>
      <trkpt lat="43.50818" lon="1.49418">
        <ele>100.03321075</ele>
        <time>2018-09-09T10:19:07Z</time>
      </trkpt>
      <trkpt lat="43.50811" lon="1.4944">
        <ele>100.03321075</ele>
        <time>2018-09-09T10:19:15Z</time>
      </trkpt>
      <trkpt lat="43.50814" lon="1.49446">
        <ele>100.54608917</ele>
        <time>2018-09-09T10:19:36Z</time>
      </trkpt>
      <trkpt lat="43.50793" lon="1.49441">
        <ele>100.54608917</ele>
        <time>2018-09-09T10:19:39Z</time>
      </trkpt>
      <trkpt lat="43.50781" lon="1.49438">
        <ele>100.54608917</ele>
        <time>2018-09-09T10:19:43Z</time>
      </trkpt>
      <trkpt lat="43.5077" lon="1.49436">
        <ele>101.21248627</ele>
        <time>2018-09-09T10:19:46Z</time>
      </trkpt>
      <trkpt lat="43.50758" lon="1.49434">
        <ele>101.21248627</ele>
        <time>2018-09-09T10:19:49Z</time>
      </trkpt>
      <trkpt lat="43.50748" lon="1.49431">
        <ele>102.71900177</ele>
        <time>2018-09-09T10:19:52Z</time>
      </trkpt>
      <trkpt lat="43.50738" lon="1.49429">
        <ele>103.79866028</ele>
        <time>2018-09-09T10:19:55Z</time>
      </trkpt>
      <trkpt lat="43.50726" lon="1.49426">
        <ele>103.79866028</ele>
        <time>2018-09-09T10:19:58Z</time>
      </trkpt>
      <trkpt lat="43.50716" lon="1.49419">
        <ele>104.85910797</ele>
        <time>2018-09-09T10:20:03Z</time>
      </trkpt>
      <trkpt lat="43.50709" lon="1.49413">
        <ele>105.88969421</ele>
        <time>2018-09-09T10:20:05Z</time>
      </trkpt>
      <trkpt lat="43.50701" lon="1.49407">
        <ele>105.88969421</ele>
        <time>2018-09-09T10:20:08Z</time>
      </trkpt>
      <trkpt lat="43.50686" lon="1.49397">
        <ele>105.88969421</ele>
        <time>2018-09-09T10:20:10Z</time>
      </trkpt>
      <trkpt lat="43.50675" lon="1.49388">
        <ele>105.88969421</ele>
        <time>2018-09-09T10:20:12Z</time>
      </trkpt>
      <trkpt lat="43.50663" lon="1.49383">
        <ele>105.78237152</ele>
        <time>2018-09-09T10:20:14Z</time>
      </trkpt>
      <trkpt lat="43.5065" lon="1.49382">
        <ele>105.78237152</ele>
        <time>2018-09-09T10:20:16Z</time>
      </trkpt>
      <trkpt lat="43.50639" lon="1.49382">
        <ele>105.78237152</ele>
        <time>2018-09-09T10:20:18Z</time>
      </trkpt>
      <trkpt lat="43.50628" lon="1.49385">
        <ele>105.78237152</ele>
        <time>2018-09-09T10:20:20Z</time>
      </trkpt>
      <trkpt lat="43.50617" lon="1.49389">
        <ele>104.38562775</ele>
        <time>2018-09-09T10:20:23Z</time>
      </trkpt>
      <trkpt lat="43.50602" lon="1.4939">
        <ele>104.38562775</ele>
        <time>2018-09-09T10:20:26Z</time>
      </trkpt>
      <trkpt lat="43.50592" lon="1.49394">
        <ele>104.38562775</ele>
        <time>2018-09-09T10:20:30Z</time>
      </trkpt>
      <trkpt lat="43.50579" lon="1.494">
        <ele>104.54651642</ele>
        <time>2018-09-09T10:20:34Z</time>
      </trkpt>
      <trkpt lat="43.50571" lon="1.49409">
        <ele>104.54651642</ele>
        <time>2018-09-09T10:20:39Z</time>
      </trkpt>
      <trkpt lat="43.50564" lon="1.49417">
        <ele>105.82128143</ele>
        <time>2018-09-09T10:20:47Z</time>
      </trkpt>
      <trkpt lat="43.50551" lon="1.49432">
        <ele>105.82128143</ele>
        <time>2018-09-09T10:20:51Z</time>
      </trkpt>
      <trkpt lat="43.50538" lon="1.49443">
        <ele>105.82128143</ele>
        <time>2018-09-09T10:20:55Z</time>
      </trkpt>
      <trkpt lat="43.50526" lon="1.49455">
        <ele>105.82128143</ele>
        <time>2018-09-09T10:21:00Z</time>
      </trkpt>
      <trkpt lat="43.50515" lon="1.49466">
        <ele>105.82128143</ele>
        <time>2018-09-09T10:21:03Z</time>
      </trkpt>
      <trkpt lat="43.50506" lon="1.49474">
        <ele>107.40208435</ele>
        <time>2018-09-09T10:21:05Z</time>
      </trkpt>
      <trkpt lat="43.50499" lon="1.49482">
        <ele>107.40208435</ele>
        <time>2018-09-09T10:21:07Z</time>
      </trkpt>
      <trkpt lat="43.50488" lon="1.49495">
        <ele>108.00272369</ele>
        <time>2018-09-09T10:21:11Z</time>
      </trkpt>
      <trkpt lat="43.50477" lon="1.49506">
        <ele>109.14604187</ele>
        <time>2018-09-09T10:21:13Z</time>
      </trkpt>
      <trkpt lat="43.50466" lon="1.49519">
        <ele>109.14604187</ele>
        <time>2018-09-09T10:21:16Z</time>
      </trkpt>
      <trkpt lat="43.50457" lon="1.4953">
        <ele>110.17436218</ele>
        <time>2018-09-09T10:21:19Z</time>
      </trkpt>
      <trkpt lat="43.50447" lon="1.4954">
        <ele>110.17436218</ele>
        <time>2018-09-09T10:21:22Z</time>
      </trkpt>
      <trkpt lat="43.50437" lon="1.49551">
        <ele>111.35089111</ele>
        <time>2018-09-09T10:21:25Z</time>
      </trkpt>
      <trkpt lat="43.50427" lon="1.49562">
        <ele>111.35089111</ele>
        <time>2018-09-09T10:21:28Z</time>
      </trkpt>
      <trkpt lat="43.50414" lon="1.49574">
        <ele>112.26236725</ele>
        <time>2018-09-09T10:21:31Z</time>
      </trkpt>
      <trkpt lat="43.50403" lon="1.49585">
        <ele>112.26236725</ele>
        <time>2018-09-09T10:21:34Z</time>
      </trkpt>
      <trkpt lat="43.50393" lon="1.49598">
        <ele>113.44226837</ele>
        <time>2018-09-09T10:21:37Z</time>
      </trkpt>
      <trkpt lat="43.50384" lon="1.49611">
        <ele>113.44226837</ele>
        <time>2018-09-09T10:21:40Z</time>
      </trkpt>
      <trkpt lat="43.50377" lon="1.49623">
        <ele>113.44226837</ele>
        <time>2018-09-09T10:21:43Z</time>
      </trkpt>
      <trkpt lat="43.50368" lon="1.49634">
        <ele>114.42597961</ele>
        <time>2018-09-09T10:21:46Z</time>
      </trkpt>
      <trkpt lat="43.50359" lon="1.49645">
        <ele>114.42597961</ele>
        <time>2018-09-09T10:21:49Z</time>
      </trkpt>
      <trkpt lat="43.50349" lon="1.49655">
        <ele>115.48448181</ele>
        <time>2018-09-09T10:21:52Z</time>
      </trkpt>
      <trkpt lat="43.50338" lon="1.49664">
        <ele>115.48448181</ele>
        <time>2018-09-09T10:21:55Z</time>
      </trkpt>
      <trkpt lat="43.50328" lon="1.49671">
        <ele>115.48448181</ele>
        <time>2018-09-09T10:21:58Z</time>
      </trkpt>
      <trkpt lat="43.50316" lon="1.49679">
        <ele>116.56142426</ele>
        <time>2018-09-09T10:22:02Z</time>
      </trkpt>
      <trkpt lat="43.50306" lon="1.49688">
        <ele>117.40497589</ele>
        <time>2018-09-09T10:22:05Z</time>
      </trkpt>
      <trkpt lat="43.50296" lon="1.49694">
        <ele>117.40497589</ele>
        <time>2018-09-09T10:22:07Z</time>
      </trkpt>
      <trkpt lat="43.50274" lon="1.49711">
        <ele>118.25567627</ele>
        <time>2018-09-09T10:22:14Z</time>
      </trkpt>
      <trkpt lat="43.50259" lon="1.49712">
        <ele>119.30570221</ele>
        <time>2018-09-09T10:22:17Z</time>
      </trkpt>
      <trkpt lat="43.50247" lon="1.4972">
        <ele>119.30570221</ele>
        <time>2018-09-09T10:22:21Z</time>
      </trkpt>
      <trkpt lat="43.50235" lon="1.49727">
        <ele>120.3707962</ele>
        <time>2018-09-09T10:22:24Z</time>
      </trkpt>
      <trkpt lat="43.50224" lon="1.4973">
        <ele>120.3707962</ele>
        <time>2018-09-09T10:22:27Z</time>
      </trkpt>
      <trkpt lat="43.50212" lon="1.49739">
        <ele>120.3707962</ele>
        <time>2018-09-09T10:22:31Z</time>
      </trkpt>
      <trkpt lat="43.50201" lon="1.49748">
        <ele>121.28236389</ele>
        <time>2018-09-09T10:22:36Z</time>
      </trkpt>
      <trkpt lat="43.50193" lon="1.49756">
        <ele>121.28236389</ele>
        <time>2018-09-09T10:22:42Z</time>
      </trkpt>
      <trkpt lat="43.50185" lon="1.49765">
        <ele>121.28236389</ele>
        <time>2018-09-09T10:22:45Z</time>
      </trkpt>
      <trkpt lat="43.50172" lon="1.49772">
        <ele>122.55749512</ele>
        <time>2018-09-09T10:22:48Z</time>
      </trkpt>
      <trkpt lat="43.5016" lon="1.49778">
        <ele>122.55749512</ele>
        <time>2018-09-09T10:22:52Z</time>
      </trkpt>
      <trkpt lat="43.50147" lon="1.49787">
        <ele>124.78406525</ele>
        <time>2018-09-09T10:22:57Z</time>
      </trkpt>
      <trkpt lat="43.50142" lon="1.49796">
        <ele>124.78406525</ele>
        <time>2018-09-09T10:23:04Z</time>
      </trkpt>
      <trkpt lat="43.50136" lon="1.49803">
        <ele>125.95467377</ele>
        <time>2018-09-09T10:23:05Z</time>
      </trkpt>
      <trkpt lat="43.50131" lon="1.49809">
        <ele>125.95467377</ele>
        <time>2018-09-09T10:23:09Z</time>
      </trkpt>
      <trkpt lat="43.50119" lon="1.49819">
        <ele>125.95467377</ele>
        <time>2018-09-09T10:23:15Z</time>
      </trkpt>
      <trkpt lat="43.50108" lon="1.4983">
        <ele>126.40129089</ele>
        <time>2018-09-09T10:23:18Z</time>
      </trkpt>
      <trkpt lat="43.50103" lon="1.4984">
        <ele>126.40129089</ele>
        <time>2018-09-09T10:23:21Z</time>
      </trkpt>
      <trkpt lat="43.50095" lon="1.49847">
        <ele>128.14956665</ele>
        <time>2018-09-09T10:23:25Z</time>
      </trkpt>
      <trkpt lat="43.50084" lon="1.49849">
        <ele>128.14956665</ele>
        <time>2018-09-09T10:23:28Z</time>
      </trkpt>
      <trkpt lat="43.50074" lon="1.49852">
        <ele>129.22743225</ele>
        <time>2018-09-09T10:23:32Z</time>
      </trkpt>
      <trkpt lat="43.50064" lon="1.49862">
        <ele>130.55960083</ele>
        <time>2018-09-09T10:23:40Z</time>
      </trkpt>
      <trkpt lat="43.50061" lon="1.4987">
        <ele>130.55960083</ele>
        <time>2018-09-09T10:23:44Z</time>
      </trkpt>
      <trkpt lat="43.5006" lon="1.49882">
        <ele>130.55960083</ele>
        <time>2018-09-09T10:23:48Z</time>
      </trkpt>
      <trkpt lat="43.50055" lon="1.49893">
        <ele>130.55960083</ele>
        <time>2018-09-09T10:23:53Z</time>
      </trkpt>
      <trkpt lat="43.50049" lon="1.499">
        <ele>130.55960083</ele>
        <time>2018-09-09T10:24:01Z</time>
      </trkpt>
      <trkpt lat="43.50038" lon="1.49904">
        <ele>130.98272705</ele>
        <time>2018-09-09T10:24:05Z</time>
      </trkpt>
      <trkpt lat="43.50031" lon="1.49906">
        <ele>132.23199463</ele>
        <time>2018-09-09T10:24:22Z</time>
      </trkpt>
      <trkpt lat="43.50017" lon="1.49909">
        <ele>132.23199463</ele>
        <time>2018-09-09T10:24:26Z</time>
      </trkpt>
      <trkpt lat="43.50008" lon="1.49904">
        <ele>134.52825928</ele>
        <time>2018-09-09T10:24:34Z</time>
      </trkpt>
      <trkpt lat="43.5" lon="1.49892">
        <ele>137.10401917</ele>
        <time>2018-09-09T10:24:39Z</time>
      </trkpt>
      <trkpt lat="43.49994" lon="1.49882">
        <ele>138.35063171</ele>
        <time>2018-09-09T10:24:43Z</time>
      </trkpt>
      <trkpt lat="43.49992" lon="1.49869">
        <ele>139.56591797</ele>
        <time>2018-09-09T10:24:47Z</time>
      </trkpt>
      <trkpt lat="43.49992" lon="1.49854">
        <ele>140.88702393</ele>
        <time>2018-09-09T10:24:51Z</time>
      </trkpt>
      <trkpt lat="43.4999" lon="1.49842">
        <ele>142.09561157</ele>
        <time>2018-09-09T10:24:54Z</time>
      </trkpt>
      <trkpt lat="43.49985" lon="1.49832">
        <ele>143.27076721</ele>
        <time>2018-09-09T10:24:57Z</time>
      </trkpt>
      <trkpt lat="43.49981" lon="1.49821">
        <ele>144.52133179</ele>
        <time>2018-09-09T10:25:00Z</time>
      </trkpt>
      <trkpt lat="43.49976" lon="1.49808">
        <ele>145.71003723</ele>
        <time>2018-09-09T10:25:04Z</time>
      </trkpt>
      <trkpt lat="43.49974" lon="1.49804">
        <ele>147.70121765</ele>
        <time>2018-09-09T10:25:05Z</time>
      </trkpt>
      <trkpt lat="43.49967" lon="1.49799">
        <ele>147.70121765</ele>
        <time>2018-09-09T10:25:07Z</time>
      </trkpt>
      <trkpt lat="43.49957" lon="1.49796">
        <ele>150.03356934</ele>
        <time>2018-09-09T10:25:11Z</time>
      </trkpt>
      <trkpt lat="43.49945" lon="1.49796">
        <ele>151.14483643</ele>
        <time>2018-09-09T10:25:15Z</time>
      </trkpt>
      <trkpt lat="43.49934" lon="1.49798">
        <ele>152.2376709</ele>
        <time>2018-09-09T10:25:21Z</time>
      </trkpt>
      <trkpt lat="43.49925" lon="1.49799">
        <ele>153.39959717</ele>
        <time>2018-09-09T10:25:28Z</time>
      </trkpt>
      <trkpt lat="43.49915" lon="1.49791">
        <ele>156.07272339</ele>
        <time>2018-09-09T10:25:37Z</time>
      </trkpt>
      <trkpt lat="43.499" lon="1.49787">
        <ele>157.16021729</ele>
        <time>2018-09-09T10:25:41Z</time>
      </trkpt>
      <trkpt lat="43.49887" lon="1.49793">
        <ele>158.18830872</ele>
        <time>2018-09-09T10:25:46Z</time>
      </trkpt>
      <trkpt lat="43.49878" lon="1.49789">
        <ele>160.63134766</ele>
        <time>2018-09-09T10:25:53Z</time>
      </trkpt>
      <trkpt lat="43.49864" lon="1.49773">
        <ele>164.67105103</ele>
        <time>2018-09-09T10:26:20Z</time>
      </trkpt>
      <trkpt lat="43.49859" lon="1.49772">
        <ele>165.39256287</ele>
        <time>2018-09-09T10:27:32Z</time>
      </trkpt>
      <trkpt lat="43.49856" lon="1.49768">
        <ele>165.39256287</ele>
        <time>2018-09-09T10:27:37Z</time>
      </trkpt>
      <trkpt lat="43.49839" lon="1.49768">
        <ele>165.39256287</ele>
        <time>2018-09-09T10:27:42Z</time>
      </trkpt>
      <trkpt lat="43.4983" lon="1.49767">
        <ele>165.40544128</ele>
        <time>2018-09-09T10:27:46Z</time>
      </trkpt>
      <trkpt lat="43.49819" lon="1.49765">
        <ele>167.24128723</ele>
        <time>2018-09-09T10:27:52Z</time>
      </trkpt>
      <trkpt lat="43.49811" lon="1.49768">
        <ele>167.24128723</ele>
        <time>2018-09-09T10:28:02Z</time>
      </trkpt>
      <trkpt lat="43.49809" lon="1.49776">
        <ele>167.79107666</ele>
        <time>2018-09-09T10:28:05Z</time>
      </trkpt>
      <trkpt lat="43.49802" lon="1.49779">
        <ele>167.79107666</ele>
        <time>2018-09-09T10:28:10Z</time>
      </trkpt>
      <trkpt lat="43.49788" lon="1.49782">
        <ele>167.79107666</ele>
        <time>2018-09-09T10:28:15Z</time>
      </trkpt>
      <trkpt lat="43.49778" lon="1.49793">
        <ele>167.79107666</ele>
        <time>2018-09-09T10:28:20Z</time>
      </trkpt>
      <trkpt lat="43.49768" lon="1.49804">
        <ele>167.79107666</ele>
        <time>2018-09-09T10:28:25Z</time>
      </trkpt>
      <trkpt lat="43.49759" lon="1.49816">
        <ele>167.79107666</ele>
        <time>2018-09-09T10:28:30Z</time>
      </trkpt>
      <trkpt lat="43.4975" lon="1.49827">
        <ele>167.79107666</ele>
        <time>2018-09-09T10:28:34Z</time>
      </trkpt>
      <trkpt lat="43.49743" lon="1.49839">
        <ele>167.79107666</ele>
        <time>2018-09-09T10:28:38Z</time>
      </trkpt>
      <trkpt lat="43.49736" lon="1.4985">
        <ele>167.79107666</ele>
        <time>2018-09-09T10:28:42Z</time>
      </trkpt>
      <trkpt lat="43.4973" lon="1.4986">
        <ele>168.50059509</ele>
        <time>2018-09-09T10:28:44Z</time>
      </trkpt>
      <trkpt lat="43.49723" lon="1.49873">
        <ele>168.50059509</ele>
        <time>2018-09-09T10:28:48Z</time>
      </trkpt>
      <trkpt lat="43.49714" lon="1.49884">
        <ele>168.50059509</ele>
        <time>2018-09-09T10:28:51Z</time>
      </trkpt>
      <trkpt lat="43.49706" lon="1.49895">
        <ele>168.50059509</ele>
        <time>2018-09-09T10:28:54Z</time>
      </trkpt>
      <trkpt lat="43.49699" lon="1.49906">
        <ele>169.41299438</ele>
        <time>2018-09-09T10:28:59Z</time>
      </trkpt>
      <trkpt lat="43.49688" lon="1.49918">
        <ele>169.41299438</ele>
        <time>2018-09-09T10:29:03Z</time>
      </trkpt>
      <trkpt lat="43.49682" lon="1.49925">
        <ele>170.36920166</ele>
        <time>2018-09-09T10:29:05Z</time>
      </trkpt>
      <trkpt lat="43.49678" lon="1.49932">
        <ele>168.64877319</ele>
        <time>2018-09-09T10:29:07Z</time>
      </trkpt>
      <trkpt lat="43.49678" lon="1.49944">
        <ele>161.23582458</ele>
        <time>2018-09-09T10:29:12Z</time>
      </trkpt>
      <trkpt lat="43.49679" lon="1.49959">
        <ele>159.7570343</ele>
        <time>2018-09-09T10:29:13Z</time>
      </trkpt>
      <trkpt lat="43.49696" lon="1.4997">
        <ele>158.46632385</ele>
        <time>2018-09-09T10:29:14Z</time>
      </trkpt>
      <trkpt lat="43.49704" lon="1.49989">
        <ele>156.15336609</ele>
        <time>2018-09-09T10:29:16Z</time>
      </trkpt>
      <trkpt lat="43.49708" lon="1.50019">
        <ele>155.11369324</ele>
        <time>2018-09-09T10:29:17Z</time>
      </trkpt>
      <trkpt lat="43.49723" lon="1.50055">
        <ele>153.72943115</ele>
        <time>2018-09-09T10:29:19Z</time>
      </trkpt>
      <trkpt lat="43.49733" lon="1.50072">
        <ele>152.22491455</ele>
        <time>2018-09-09T10:29:20Z</time>
      </trkpt>
      <trkpt lat="43.49736" lon="1.50087">
        <ele>151.03359985</ele>
        <time>2018-09-09T10:29:21Z</time>
      </trkpt>
      <trkpt lat="43.4974" lon="1.50104">
        <ele>149.91844177</ele>
        <time>2018-09-09T10:29:22Z</time>
      </trkpt>
      <trkpt lat="43.49743" lon="1.50121">
        <ele>148.83502197</ele>
        <time>2018-09-09T10:29:23Z</time>
      </trkpt>
      <trkpt lat="43.49747" lon="1.50136">
        <ele>148.83502197</ele>
        <time>2018-09-09T10:29:24Z</time>
      </trkpt>
      <trkpt lat="43.49749" lon="1.50154">
        <ele>147.51176453</ele>
        <time>2018-09-09T10:29:25Z</time>
      </trkpt>
      <trkpt lat="43.49755" lon="1.50171">
        <ele>147.51176453</ele>
        <time>2018-09-09T10:29:26Z</time>
      </trkpt>
      <trkpt lat="43.49765" lon="1.50189">
        <ele>147.51176453</ele>
        <time>2018-09-09T10:29:27Z</time>
      </trkpt>
      <trkpt lat="43.49771" lon="1.502">
        <ele>147.51176453</ele>
        <time>2018-09-09T10:29:28Z</time>
      </trkpt>
      <trkpt lat="43.49782" lon="1.50211">
        <ele>147.51176453</ele>
        <time>2018-09-09T10:29:30Z</time>
      </trkpt>
      <trkpt lat="43.49791" lon="1.50224">
        <ele>147.51176453</ele>
        <time>2018-09-09T10:29:32Z</time>
      </trkpt>
      <trkpt lat="43.49801" lon="1.50235">
        <ele>146.91717529</ele>
        <time>2018-09-09T10:29:36Z</time>
      </trkpt>
      <trkpt lat="43.49812" lon="1.50245">
        <ele>150.62294006</ele>
        <time>2018-09-09T10:29:42Z</time>
      </trkpt>
      <trkpt lat="43.49821" lon="1.50257">
        <ele>150.62294006</ele>
        <time>2018-09-09T10:29:44Z</time>
      </trkpt>
      <trkpt lat="43.49828" lon="1.50269">
        <ele>151.76954651</ele>
        <time>2018-09-09T10:29:47Z</time>
      </trkpt>
      <trkpt lat="43.49835" lon="1.5028">
        <ele>152.85902405</ele>
        <time>2018-09-09T10:29:50Z</time>
      </trkpt>
      <trkpt lat="43.49841" lon="1.5029">
        <ele>154.08587646</ele>
        <time>2018-09-09T10:29:53Z</time>
      </trkpt>
      <trkpt lat="43.49848" lon="1.50301">
        <ele>154.08587646</ele>
        <time>2018-09-09T10:29:56Z</time>
      </trkpt>
      <trkpt lat="43.49857" lon="1.50312">
        <ele>155.24588013</ele>
        <time>2018-09-09T10:29:59Z</time>
      </trkpt>
      <trkpt lat="43.49868" lon="1.50323">
        <ele>156.31066895</ele>
        <time>2018-09-09T10:30:03Z</time>
      </trkpt>
      <trkpt lat="43.49876" lon="1.5033">
        <ele>157.18727112</ele>
        <time>2018-09-09T10:30:05Z</time>
      </trkpt>
      <trkpt lat="43.49884" lon="1.50337">
        <ele>157.18727112</ele>
        <time>2018-09-09T10:30:08Z</time>
      </trkpt>
      <trkpt lat="43.49906" lon="1.50357">
        <ele>159.22360229</ele>
        <time>2018-09-09T10:30:15Z</time>
      </trkpt>
      <trkpt lat="43.49917" lon="1.50368">
        <ele>160.58779907</ele>
        <time>2018-09-09T10:30:18Z</time>
      </trkpt>
      <trkpt lat="43.49925" lon="1.50378">
        <ele>161.73513794</ele>
        <time>2018-09-09T10:30:22Z</time>
      </trkpt>
      <trkpt lat="43.49926" lon="1.5039">
        <ele>161.73513794</ele>
        <time>2018-09-09T10:30:27Z</time>
      </trkpt>
      <trkpt lat="43.49915" lon="1.50404">
        <ele>161.73513794</ele>
        <time>2018-09-09T10:30:31Z</time>
      </trkpt>
      <trkpt lat="43.49901" lon="1.50419">
        <ele>161.73513794</ele>
        <time>2018-09-09T10:30:34Z</time>
      </trkpt>
      <trkpt lat="43.49891" lon="1.50429">
        <ele>161.73513794</ele>
        <time>2018-09-09T10:30:37Z</time>
      </trkpt>
      <trkpt lat="43.4988" lon="1.50441">
        <ele>162.70846558</ele>
        <time>2018-09-09T10:30:40Z</time>
      </trkpt>
      <trkpt lat="43.49867" lon="1.50451">
        <ele>162.70846558</ele>
        <time>2018-09-09T10:30:43Z</time>
      </trkpt>
      <trkpt lat="43.49854" lon="1.50455">
        <ele>163.76333618</ele>
        <time>2018-09-09T10:30:46Z</time>
      </trkpt>
      <trkpt lat="43.49842" lon="1.50457">
        <ele>163.76333618</ele>
        <time>2018-09-09T10:30:49Z</time>
      </trkpt>
      <trkpt lat="43.49832" lon="1.50464">
        <ele>163.76333618</ele>
        <time>2018-09-09T10:30:52Z</time>
      </trkpt>
      <trkpt lat="43.49826" lon="1.50478">
        <ele>164.78179932</ele>
        <time>2018-09-09T10:30:55Z</time>
      </trkpt>
      <trkpt lat="43.49823" lon="1.50491">
        <ele>166.0760498</ele>
        <time>2018-09-09T10:30:58Z</time>
      </trkpt>
      <trkpt lat="43.49816" lon="1.50501">
        <ele>166.0760498</ele>
        <time>2018-09-09T10:31:03Z</time>
      </trkpt>
      <trkpt lat="43.4981" lon="1.5051">
        <ele>166.55812073</ele>
        <time>2018-09-09T10:31:05Z</time>
      </trkpt>
      <trkpt lat="43.49807" lon="1.50517">
        <ele>166.55812073</ele>
        <time>2018-09-09T10:31:07Z</time>
      </trkpt>
      <trkpt lat="43.49801" lon="1.50527">
        <ele>166.55812073</ele>
        <time>2018-09-09T10:31:11Z</time>
      </trkpt>
      <trkpt lat="43.49793" lon="1.50537">
        <ele>166.55812073</ele>
        <time>2018-09-09T10:31:15Z</time>
      </trkpt>
      <trkpt lat="43.49789" lon="1.50549">
        <ele>166.55812073</ele>
        <time>2018-09-09T10:31:19Z</time>
      </trkpt>
      <trkpt lat="43.49788" lon="1.5056">
        <ele>166.55812073</ele>
        <time>2018-09-09T10:31:23Z</time>
      </trkpt>
      <trkpt lat="43.49784" lon="1.50572">
        <ele>166.55812073</ele>
        <time>2018-09-09T10:31:27Z</time>
      </trkpt>
      <trkpt lat="43.49778" lon="1.50583">
        <ele>166.55812073</ele>
        <time>2018-09-09T10:31:31Z</time>
      </trkpt>
      <trkpt lat="43.49773" lon="1.50596">
        <ele>166.55812073</ele>
        <time>2018-09-09T10:31:35Z</time>
      </trkpt>
      <trkpt lat="43.49771" lon="1.50607">
        <ele>166.55812073</ele>
        <time>2018-09-09T10:31:40Z</time>
      </trkpt>
      <trkpt lat="43.49769" lon="1.5062">
        <ele>166.55812073</ele>
        <time>2018-09-09T10:31:44Z</time>
      </trkpt>
      <trkpt lat="43.49764" lon="1.50633">
        <ele>166.55812073</ele>
        <time>2018-09-09T10:31:47Z</time>
      </trkpt>
      <trkpt lat="43.49758" lon="1.50645">
        <ele>166.5335083</ele>
        <time>2018-09-09T10:31:50Z</time>
      </trkpt>
      <trkpt lat="43.49755" lon="1.50658">
        <ele>164.6184082</ele>
        <time>2018-09-09T10:31:52Z</time>
      </trkpt>
      <trkpt lat="43.49753" lon="1.50669">
        <ele>164.6184082</ele>
        <time>2018-09-09T10:31:54Z</time>
      </trkpt>
      <trkpt lat="43.49749" lon="1.50682">
        <ele>163.46206665</ele>
        <time>2018-09-09T10:31:56Z</time>
      </trkpt>
      <trkpt lat="43.49743" lon="1.50698">
        <ele>162.28666687</ele>
        <time>2018-09-09T10:31:58Z</time>
      </trkpt>
      <trkpt lat="43.49737" lon="1.50712">
        <ele>162.28666687</ele>
        <time>2018-09-09T10:32:00Z</time>
      </trkpt>
      <trkpt lat="43.49736" lon="1.50728">
        <ele>162.28666687</ele>
        <time>2018-09-09T10:32:01Z</time>
      </trkpt>
      <trkpt lat="43.49738" lon="1.50741">
        <ele>161.2958374</ele>
        <time>2018-09-09T10:32:03Z</time>
      </trkpt>
      <trkpt lat="43.49745" lon="1.50753">
        <ele>158.75274658</ele>
        <time>2018-09-09T10:32:05Z</time>
      </trkpt>
      <trkpt lat="43.49749" lon="1.50767">
        <ele>158.75274658</ele>
        <time>2018-09-09T10:32:06Z</time>
      </trkpt>
      <trkpt lat="43.49754" lon="1.50782">
        <ele>157.55789185</ele>
        <time>2018-09-09T10:32:07Z</time>
      </trkpt>
      <trkpt lat="43.49754" lon="1.50793">
        <ele>155.97114563</ele>
        <time>2018-09-09T10:32:08Z</time>
      </trkpt>
      <trkpt lat="43.49753" lon="1.50805">
        <ele>154.55078125</ele>
        <time>2018-09-09T10:32:09Z</time>
      </trkpt>
      <trkpt lat="43.49731" lon="1.50841">
        <ele>148.3611908</ele>
        <time>2018-09-09T10:32:12Z</time>
      </trkpt>
      <trkpt lat="43.49715" lon="1.50869">
        <ele>143.27789307</ele>
        <time>2018-09-09T10:32:14Z</time>
      </trkpt>
      <trkpt lat="43.49709" lon="1.50882">
        <ele>140.84294128</ele>
        <time>2018-09-09T10:32:15Z</time>
      </trkpt>
      <trkpt lat="43.49704" lon="1.50894">
        <ele>138.54510498</ele>
        <time>2018-09-09T10:32:16Z</time>
      </trkpt>
      <trkpt lat="43.497" lon="1.50905">
        <ele>136.22384644</ele>
        <time>2018-09-09T10:32:17Z</time>
      </trkpt>
      <trkpt lat="43.49696" lon="1.50918">
        <ele>133.64231873</ele>
        <time>2018-09-09T10:32:18Z</time>
      </trkpt>
      <trkpt lat="43.49693" lon="1.50932">
        <ele>130.95146179</ele>
        <time>2018-09-09T10:32:19Z</time>
      </trkpt>
      <trkpt lat="43.49691" lon="1.50947">
        <ele>128.48274231</ele>
        <time>2018-09-09T10:32:20Z</time>
      </trkpt>
      <trkpt lat="43.4969" lon="1.50963">
        <ele>126.3795166</ele>
        <time>2018-09-09T10:32:21Z</time>
      </trkpt>
      <trkpt lat="43.49688" lon="1.50977">
        <ele>124.7133255</ele>
        <time>2018-09-09T10:32:22Z</time>
      </trkpt>
      <trkpt lat="43.49685" lon="1.50989">
        <ele>123.45444489</ele>
        <time>2018-09-09T10:32:23Z</time>
      </trkpt>
      <trkpt lat="43.49688" lon="1.50987">
        <ele>119.54359436</ele>
        <time>2018-09-09T10:32:33Z</time>
      </trkpt>
      <trkpt lat="43.49703" lon="1.50986">
        <ele>118.46329498</ele>
        <time>2018-09-09T10:32:38Z</time>
      </trkpt>
      <trkpt lat="43.49731" lon="1.50981">
        <ele>118.46329498</ele>
        <time>2018-09-09T10:32:44Z</time>
      </trkpt>
      <trkpt lat="43.49743" lon="1.50978">
        <ele>118.46329498</ele>
        <time>2018-09-09T10:32:47Z</time>
      </trkpt>
      <trkpt lat="43.49759" lon="1.50978">
        <ele>118.14790344</ele>
        <time>2018-09-09T10:32:50Z</time>
      </trkpt>
      <trkpt lat="43.49771" lon="1.50978">
        <ele>118.14790344</ele>
        <time>2018-09-09T10:32:51Z</time>
      </trkpt>
      <trkpt lat="43.49784" lon="1.50978">
        <ele>119.77668762</ele>
        <time>2018-09-09T10:32:53Z</time>
      </trkpt>
      <trkpt lat="43.49796" lon="1.50975">
        <ele>119.77668762</ele>
        <time>2018-09-09T10:32:56Z</time>
      </trkpt>
      <trkpt lat="43.49809" lon="1.5097">
        <ele>121.03970337</ele>
        <time>2018-09-09T10:32:59Z</time>
      </trkpt>
      <trkpt lat="43.4982" lon="1.50959">
        <ele>122.32511139</ele>
        <time>2018-09-09T10:33:02Z</time>
      </trkpt>
      <trkpt lat="43.49825" lon="1.50948">
        <ele>124.15052795</ele>
        <time>2018-09-09T10:33:05Z</time>
      </trkpt>
      <trkpt lat="43.49834" lon="1.50948">
        <ele>124.15052795</ele>
        <time>2018-09-09T10:33:15Z</time>
      </trkpt>
      <trkpt lat="43.49843" lon="1.50961">
        <ele>121.47408295</ele>
        <time>2018-09-09T10:33:19Z</time>
      </trkpt>
      <trkpt lat="43.49855" lon="1.50976">
        <ele>120.03222656</ele>
        <time>2018-09-09T10:33:22Z</time>
      </trkpt>
      <trkpt lat="43.49859" lon="1.50976">
        <ele>117.50249481</ele>
        <time>2018-09-09T10:33:39Z</time>
      </trkpt>
      <trkpt lat="43.49843" lon="1.50959">
        <ele>120.84379578</ele>
        <time>2018-09-09T10:33:43Z</time>
      </trkpt>
      <trkpt lat="43.49832" lon="1.50949">
        <ele>123.27094269</ele>
        <time>2018-09-09T10:33:48Z</time>
      </trkpt>
      <trkpt lat="43.49825" lon="1.50954">
        <ele>123.27094269</ele>
        <time>2018-09-09T10:33:55Z</time>
      </trkpt>
      <trkpt lat="43.49822" lon="1.50965">
        <ele>123.65678406</ele>
        <time>2018-09-09T10:33:59Z</time>
      </trkpt>
      <trkpt lat="43.49816" lon="1.50981">
        <ele>119.24385071</ele>
        <time>2018-09-09T10:34:01Z</time>
      </trkpt>
      <trkpt lat="43.4981" lon="1.50995">
        <ele>117.65406799</ele>
        <time>2018-09-09T10:34:02Z</time>
      </trkpt>
      <trkpt lat="43.49802" lon="1.51011">
        <ele>113.70455933</ele>
        <time>2018-09-09T10:34:04Z</time>
      </trkpt>
      <trkpt lat="43.49794" lon="1.51031">
        <ele>111.42237854</ele>
        <time>2018-09-09T10:34:05Z</time>
      </trkpt>
      <trkpt lat="43.49788" lon="1.51045">
        <ele>109.30431366</ele>
        <time>2018-09-09T10:34:06Z</time>
      </trkpt>
      <trkpt lat="43.49777" lon="1.51072">
        <ele>107.68759918</ele>
        <time>2018-09-09T10:34:08Z</time>
      </trkpt>
      <trkpt lat="43.4977" lon="1.51086">
        <ele>107.68759918</ele>
        <time>2018-09-09T10:34:09Z</time>
      </trkpt>
      <trkpt lat="43.49764" lon="1.51099">
        <ele>107.68759918</ele>
        <time>2018-09-09T10:34:10Z</time>
      </trkpt>
      <trkpt lat="43.49759" lon="1.51108">
        <ele>110.43876648</ele>
        <time>2018-09-09T10:34:14Z</time>
      </trkpt>
      <trkpt lat="43.49752" lon="1.51115">
        <ele>116.33579254</ele>
        <time>2018-09-09T10:34:23Z</time>
      </trkpt>
      <trkpt lat="43.49743" lon="1.51126">
        <ele>119.93405151</ele>
        <time>2018-09-09T10:34:29Z</time>
      </trkpt>
      <trkpt lat="43.49731" lon="1.51137">
        <ele>123.1529007</ele>
        <time>2018-09-09T10:34:36Z</time>
      </trkpt>
      <trkpt lat="43.49723" lon="1.51149">
        <ele>124.27604675</ele>
        <time>2018-09-09T10:34:40Z</time>
      </trkpt>
      <trkpt lat="43.4972" lon="1.51161">
        <ele>124.27604675</ele>
        <time>2018-09-09T10:34:45Z</time>
      </trkpt>
      <trkpt lat="43.49726" lon="1.51167">
        <ele>125.47882843</ele>
        <time>2018-09-09T10:35:08Z</time>
      </trkpt>
      <trkpt lat="43.49731" lon="1.51173">
        <ele>125.15034485</ele>
        <time>2018-09-09T10:35:13Z</time>
      </trkpt>
      <trkpt lat="43.49743" lon="1.5119">
        <ele>125.15034485</ele>
        <time>2018-09-09T10:35:15Z</time>
      </trkpt>
      <trkpt lat="43.49749" lon="1.51201">
        <ele>123.51042175</ele>
        <time>2018-09-09T10:35:18Z</time>
      </trkpt>
      <trkpt lat="43.49757" lon="1.51214">
        <ele>123.51042175</ele>
        <time>2018-09-09T10:35:21Z</time>
      </trkpt>
      <trkpt lat="43.49766" lon="1.51228">
        <ele>122.55503082</ele>
        <time>2018-09-09T10:35:24Z</time>
      </trkpt>
      <trkpt lat="43.49774" lon="1.51242">
        <ele>121.50842285</ele>
        <time>2018-09-09T10:35:26Z</time>
      </trkpt>
      <trkpt lat="43.49783" lon="1.51256">
        <ele>120.22576904</ele>
        <time>2018-09-09T10:35:28Z</time>
      </trkpt>
      <trkpt lat="43.49795" lon="1.51275">
        <ele>116.3868866</ele>
        <time>2018-09-09T10:35:30Z</time>
      </trkpt>
      <trkpt lat="43.49805" lon="1.5129">
        <ele>114.99632263</ele>
        <time>2018-09-09T10:35:31Z</time>
      </trkpt>
      <trkpt lat="43.49815" lon="1.51304">
        <ele>112.42464447</ele>
        <time>2018-09-09T10:35:33Z</time>
      </trkpt>
      <trkpt lat="43.49828" lon="1.51318">
        <ele>109.24791718</ele>
        <time>2018-09-09T10:35:35Z</time>
      </trkpt>
      <trkpt lat="43.49847" lon="1.51322">
        <ele>104.96434784</ele>
        <time>2018-09-09T10:35:37Z</time>
      </trkpt>
      <trkpt lat="43.49864" lon="1.51319">
        <ele>102.71150208</ele>
        <time>2018-09-09T10:35:38Z</time>
      </trkpt>
      <trkpt lat="43.49876" lon="1.51318">
        <ele>100.37589264</ele>
        <time>2018-09-09T10:35:39Z</time>
      </trkpt>
      <trkpt lat="43.49899" lon="1.51315">
        <ele>96.45578003</ele>
        <time>2018-09-09T10:35:41Z</time>
      </trkpt>
      <trkpt lat="43.49912" lon="1.51316">
        <ele>95.16277313</ele>
        <time>2018-09-09T10:35:43Z</time>
      </trkpt>
      <trkpt lat="43.49925" lon="1.51315">
        <ele>93.88844299</ele>
        <time>2018-09-09T10:35:45Z</time>
      </trkpt>
      <trkpt lat="43.49934" lon="1.51314">
        <ele>92.86927795</ele>
        <time>2018-09-09T10:35:51Z</time>
      </trkpt>
      <trkpt lat="43.49939" lon="1.5132">
        <ele>91.85342407</ele>
        <time>2018-09-09T10:35:55Z</time>
      </trkpt>
      <trkpt lat="43.49945" lon="1.51334">
        <ele>90.57293701</ele>
        <time>2018-09-09T10:35:59Z</time>
      </trkpt>
      <trkpt lat="43.49957" lon="1.51347">
        <ele>89.28141785</ele>
        <time>2018-09-09T10:36:02Z</time>
      </trkpt>
      <trkpt lat="43.49966" lon="1.51359">
        <ele>87.89248657</ele>
        <time>2018-09-09T10:36:04Z</time>
      </trkpt>
      <trkpt lat="43.49968" lon="1.51361">
        <ele>86.94058228</ele>
        <time>2018-09-09T10:36:05Z</time>
      </trkpt>
      <trkpt lat="43.49976" lon="1.5137">
        <ele>86.94058228</ele>
        <time>2018-09-09T10:36:06Z</time>
      </trkpt>
      <trkpt lat="43.49986" lon="1.51382">
        <ele>86.22708893</ele>
        <time>2018-09-09T10:36:09Z</time>
      </trkpt>
      <trkpt lat="43.49986" lon="1.51406">
        <ele>85.21446228</ele>
        <time>2018-09-09T10:36:13Z</time>
      </trkpt>
      <trkpt lat="43.49982" lon="1.51419">
        <ele>84.08319092</ele>
        <time>2018-09-09T10:36:15Z</time>
      </trkpt>
      <trkpt lat="43.49983" lon="1.51432">
        <ele>84.08319092</ele>
        <time>2018-09-09T10:36:17Z</time>
      </trkpt>
      <trkpt lat="43.49991" lon="1.51444">
        <ele>84.08319092</ele>
        <time>2018-09-09T10:36:22Z</time>
      </trkpt>
      <trkpt lat="43.50003" lon="1.51446">
        <ele>82.9930954</ele>
        <time>2018-09-09T10:36:27Z</time>
      </trkpt>
      <trkpt lat="43.50017" lon="1.51438">
        <ele>82.9930954</ele>
        <time>2018-09-09T10:36:29Z</time>
      </trkpt>
      <trkpt lat="43.50029" lon="1.51424">
        <ele>82.9930954</ele>
        <time>2018-09-09T10:36:32Z</time>
      </trkpt>
      <trkpt lat="43.50038" lon="1.51411">
        <ele>82.9930954</ele>
        <time>2018-09-09T10:36:35Z</time>
      </trkpt>
      <trkpt lat="43.50047" lon="1.51399">
        <ele>82.9930954</ele>
        <time>2018-09-09T10:36:37Z</time>
      </trkpt>
      <trkpt lat="43.50059" lon="1.51388">
        <ele>82.20773315</ele>
        <time>2018-09-09T10:36:41Z</time>
      </trkpt>
      <trkpt lat="43.50072" lon="1.51374">
        <ele>82.20773315</ele>
        <time>2018-09-09T10:36:43Z</time>
      </trkpt>
      <trkpt lat="43.50081" lon="1.5136">
        <ele>82.20773315</ele>
        <time>2018-09-09T10:36:45Z</time>
      </trkpt>
      <trkpt lat="43.5009" lon="1.51348">
        <ele>82.20773315</ele>
        <time>2018-09-09T10:36:47Z</time>
      </trkpt>
      <trkpt lat="43.50102" lon="1.51337">
        <ele>82.20773315</ele>
        <time>2018-09-09T10:36:49Z</time>
      </trkpt>
      <trkpt lat="43.50112" lon="1.51324">
        <ele>82.20773315</ele>
        <time>2018-09-09T10:36:51Z</time>
      </trkpt>
      <trkpt lat="43.50124" lon="1.5131">
        <ele>82.20773315</ele>
        <time>2018-09-09T10:36:53Z</time>
      </trkpt>
      <trkpt lat="43.50134" lon="1.51299">
        <ele>82.20773315</ele>
        <time>2018-09-09T10:36:55Z</time>
      </trkpt>
      <trkpt lat="43.50146" lon="1.51285">
        <ele>82.20773315</ele>
        <time>2018-09-09T10:36:57Z</time>
      </trkpt>
      <trkpt lat="43.50158" lon="1.51272">
        <ele>81.20363617</ele>
        <time>2018-09-09T10:36:59Z</time>
      </trkpt>
      <trkpt lat="43.50171" lon="1.51258">
        <ele>81.20363617</ele>
        <time>2018-09-09T10:37:01Z</time>
      </trkpt>
      <trkpt lat="43.50184" lon="1.51243">
        <ele>81.20363617</ele>
        <time>2018-09-09T10:37:03Z</time>
      </trkpt>
      <trkpt lat="43.50193" lon="1.51233">
        <ele>80.59820557</ele>
        <time>2018-09-09T10:37:05Z</time>
      </trkpt>
      <trkpt lat="43.50202" lon="1.51223">
        <ele>80.59820557</ele>
        <time>2018-09-09T10:37:06Z</time>
      </trkpt>
      <trkpt lat="43.50214" lon="1.51211">
        <ele>80.59820557</ele>
        <time>2018-09-09T10:37:08Z</time>
      </trkpt>
      <trkpt lat="43.50227" lon="1.51197">
        <ele>80.59820557</ele>
        <time>2018-09-09T10:37:10Z</time>
      </trkpt>
      <trkpt lat="43.5024" lon="1.51183">
        <ele>80.59820557</ele>
        <time>2018-09-09T10:37:12Z</time>
      </trkpt>
      <trkpt lat="43.50252" lon="1.51169">
        <ele>80.59820557</ele>
        <time>2018-09-09T10:37:14Z</time>
      </trkpt>
      <trkpt lat="43.50265" lon="1.51155">
        <ele>80.59820557</ele>
        <time>2018-09-09T10:37:16Z</time>
      </trkpt>
      <trkpt lat="43.50278" lon="1.51139">
        <ele>80.59820557</ele>
        <time>2018-09-09T10:37:18Z</time>
      </trkpt>
      <trkpt lat="43.50291" lon="1.51126">
        <ele>80.59820557</ele>
        <time>2018-09-09T10:37:20Z</time>
      </trkpt>
      <trkpt lat="43.50302" lon="1.51116">
        <ele>80.59820557</ele>
        <time>2018-09-09T10:37:22Z</time>
      </trkpt>
      <trkpt lat="43.50313" lon="1.51126">
        <ele>80.59820557</ele>
        <time>2018-09-09T10:37:24Z</time>
      </trkpt>
      <trkpt lat="43.5032" lon="1.51146">
        <ele>80.56852722</ele>
        <time>2018-09-09T10:37:26Z</time>
      </trkpt>
      <trkpt lat="43.50327" lon="1.5116">
        <ele>80.56852722</ele>
        <time>2018-09-09T10:37:27Z</time>
      </trkpt>
      <trkpt lat="43.50339" lon="1.51176">
        <ele>78.37447357</ele>
        <time>2018-09-09T10:37:29Z</time>
      </trkpt>
      <trkpt lat="43.50353" lon="1.51189">
        <ele>78.37447357</ele>
        <time>2018-09-09T10:37:31Z</time>
      </trkpt>
      <trkpt lat="43.50364" lon="1.51191">
        <ele>78.37447357</ele>
        <time>2018-09-09T10:37:33Z</time>
      </trkpt>
      <trkpt lat="43.50375" lon="1.5119">
        <ele>78.37447357</ele>
        <time>2018-09-09T10:37:36Z</time>
      </trkpt>
      <trkpt lat="43.50377" lon="1.512">
        <ele>78.37447357</ele>
        <time>2018-09-09T10:37:40Z</time>
      </trkpt>
    </trkseg>
  </trk>
</gpx>